
Distance (Route):
Temperature : 16.8°C
Humidity : 60.5%
Pressure : 0hPa| Receiver | Frames | First received | Last received |
|---|---|---|---|
| PETON7-10 | 415 | 2026-09-02 02:32:17 | 2026-09-02 04:25:37 |
| OE3JTB-15 | 347 | 2026-09-02 02:27:26 | 2026-09-02 04:36:29 |
| PG1ADW-2 | 277 | 2026-09-02 02:33:50 | 2026-09-02 04:14:03 |
| OE5DRO-10 | 245 | 2026-09-02 02:28:56 | 2026-09-02 03:59:53 |
| OE5DXL-15 | 145 | 2026-09-02 02:35:28 | 2026-09-02 03:51:28 |
| OE8JPQ-2 | 144 | 2026-09-02 02:28:18 | 2026-09-02 03:40:29 |
| OE5MMP-10 | 59 | 2026-09-02 03:11:53 | 2026-09-02 03:23:54 |
| OE5WHR-10 | 24 | 2026-09-02 03:02:10 | 2026-09-02 03:20:10 |
| OM5KV | 13 | 2026-09-02 02:27:55 | 2026-09-02 04:29:08 |
| OE3OSB-13 | 8 | 2026-09-02 02:54:03 | 2026-09-02 04:28:19 |
| DB0NH | 6 | 2026-09-02 03:14:49 | 2026-09-02 03:24:17 |
| Receiver | Date | Latitude | Longitude | Direction | Speed | Altitude | Climb | Temperature | Humidity | Pressure | Voltage | Killtimer | Uptime | BKT | XDATA |
|---|---|---|---|---|---|---|---|---|---|---|---|---|---|---|---|
| OE3JTB-15 | 2026-09-02 04:36:29 | 47.21195 | 17.06414 | 81° | 4km/h | 824m | -3.3m/s | 16.8°C | 60.5% | 0hPa | 2.7V | 00:00:00 | 02:49:58 | 00:00:00 | |
| OE3JTB-15 | 2026-09-02 04:36:27 | 47.21195 | 17.06411 | 77° | 4km/h | 830m | -3.1m/s | 16.8°C | 60.6% | 0hPa | 2.7V | 00:00:00 | 00:00:00 | 00:00:00 | |
| OE3JTB-15 | 2026-09-02 04:36:25 | 47.21194 | 17.06408 | 85° | 4km/h | 837m | -3.3m/s | 16.7°C | 60.8% | 0hPa | 2.7V | 00:00:00 | 00:00:00 | 00:00:00 | |
| OE3JTB-15 | 2026-09-02 04:36:22 | 47.21194 | 17.06404 | 80° | 4km/h | 846m | -3.0m/s | 16.6°C | 61.1% | 0hPa | 2.7V | 00:00:00 | 02:49:51 | 00:00:00 | |
| OE3JTB-15 | 2026-09-02 04:36:19 | 47.21193 | 17.06399 | 71° | 4km/h | 856m | -3.3m/s | 16.5°C | 61.3% | 0hPa | 2.7V | 07:14:00 | 00:00:00 | 00:00:00 | |
| OE3JTB-15 | 2026-09-02 04:36:17 | 47.21192 | 17.06396 | 67° | 4km/h | 862m | -3.1m/s | 16.5°C | 61.5% | 0hPa | 2.7V | 00:00:00 | 00:00:00 | 00:00:00 | |
| OE3JTB-15 | 2026-09-02 04:36:15 | 47.21192 | 17.06393 | 73° | 4km/h | 869m | -3.2m/s | 16.4°C | 61.7% | 0hPa | 2.7V | 00:00:00 | 02:49:44 | 00:00:00 | |
| OE3JTB-15 | 2026-09-02 04:36:13 | 47.21191 | 17.06390 | 69° | 5km/h | 875m | -3.1m/s | 16.3°C | 61.9% | 0hPa | 2.7V | 00:00:00 | 00:00:00 | 00:00:00 | |
| OE3JTB-15 | 2026-09-02 04:36:11 | 47.21190 | 17.06388 | 65° | 5km/h | 881m | -3.0m/s | 16.3°C | 62.1% | 0hPa | 2.7V | 00:00:00 | 00:00:00 | 00:00:00 | |
| OE3JTB-15 | 2026-09-02 04:36:09 | 47.21189 | 17.06384 | 62° | 4km/h | 887m | -3.1m/s | 16.2°C | 62.3% | 0hPa | 2.7V | 00:00:00 | 02:49:38 | 00:00:00 | |
| OE3JTB-15 | 2026-09-02 04:36:07 | 47.21188 | 17.06382 | 45° | 4km/h | 894m | -3.3m/s | 16.2°C | 62.5% | 0hPa | 2.7V | 00:00:00 | 00:00:00 | 00:00:00 | |
| OE3JTB-15 | 2026-09-02 04:36:05 | 47.21186 | 17.06380 | 48° | 4km/h | 900m | -3.2m/s | 16.1°C | 62.6% | 0hPa | 2.7V | 00:00:00 | 00:00:00 | 00:00:00 | |
| OE3JTB-15 | 2026-09-02 04:36:03 | 47.21185 | 17.06377 | 54° | 4km/h | 907m | -3.3m/s | 16.0°C | 62.8% | 0hPa | 2.7V | 07:14:00 | 02:49:32 | 00:00:00 | |
| OE3JTB-15 | 2026-09-02 04:36:01 | 47.21184 | 17.06375 | 57° | 4km/h | 914m | -3.2m/s | 16.0°C | 62.9% | 0hPa | 2.7V | 00:00:00 | 00:00:00 | 00:00:00 | |
| OE3JTB-15 | 2026-09-02 04:35:59 | 47.21182 | 17.06373 | 47° | 4km/h | 920m | -3.4m/s | 16.0°C | 63.0% | 0hPa | 2.7V | 00:00:00 | 00:00:00 | 00:00:00 | |
| OE3JTB-15 | 2026-09-02 04:35:57 | 47.21181 | 17.06371 | 34° | 4km/h | 927m | -3.3m/s | 15.9°C | 63.1% | 0hPa | 2.7V | 00:00:00 | 02:49:26 | 00:00:00 | |
| OE3JTB-15 | 2026-09-02 04:35:55 | 47.21180 | 17.06369 | 29° | 4km/h | 934m | -3.3m/s | 15.8°C | 63.3% | 0hPa | 2.7V | 00:00:00 | 00:00:00 | 00:00:00 | |
| OE3JTB-15 | 2026-09-02 04:35:53 | 47.21178 | 17.06368 | 30° | 4km/h | 941m | -3.4m/s | 15.8°C | 63.6% | 0hPa | 2.7V | 00:00:00 | 00:00:00 | 00:00:00 | |
| OE3JTB-15 | 2026-09-02 04:35:50 | 47.21175 | 17.06366 | 25° | 4km/h | 950m | -3.0m/s | 15.7°C | 63.8% | 0hPa | 2.7V | 00:00:00 | 02:49:19 | 00:00:00 | |
| OE3JTB-15 | 2026-09-02 04:35:48 | 47.21174 | 17.06364 | 34° | 4km/h | 957m | -3.3m/s | 15.6°C | 64.1% | 0hPa | 2.7V | 00:00:00 | 00:00:00 | 00:00:00 | |
| OE3JTB-15 | 2026-09-02 04:35:45 | 47.21171 | 17.06362 | 15° | 4km/h | 967m | -3.0m/s | 15.6°C | 63.8% | 0hPa | 2.7V | 07:14:00 | 00:00:00 | 00:00:00 | |
| OE3JTB-15 | 2026-09-02 04:35:43 | 47.21169 | 17.06362 | 12° | 4km/h | 973m | -3.1m/s | 15.6°C | 63.7% | 0hPa | 2.7V | 00:00:00 | 02:49:12 | 00:00:00 | |
| OE3JTB-15 | 2026-09-02 04:35:41 | 47.21167 | 17.06361 | 16° | 4km/h | 979m | -3.1m/s | 15.6°C | 63.9% | 0hPa | 2.7V | 00:00:00 | 00:00:00 | 00:00:00 | |
| OE3JTB-15 | 2026-09-02 04:35:39 | 47.21165 | 17.06361 | 14° | 4km/h | 986m | -3.3m/s | 15.5°C | 64.0% | 0hPa | 2.7V | 00:00:00 | 00:00:00 | 00:00:00 | |
| OE3JTB-15 | 2026-09-02 04:35:37 | 47.21163 | 17.06360 | 15° | 4km/h | 992m | -3.2m/s | 15.5°C | 64.0% | 0hPa | 2.7V | 00:00:00 | 02:49:06 | 00:00:00 | |
| OE3JTB-15 | 2026-09-02 04:35:35 | 47.21161 | 17.06359 | 18° | 4km/h | 999m | -3.0m/s | 15.4°C | 63.9% | 0hPa | 2.7V | 00:00:00 | 00:00:00 | 00:00:00 | |
| OE3JTB-15 | 2026-09-02 04:35:33 | 47.21159 | 17.06358 | 20° | 4km/h | 1005m | -2.9m/s | 15.4°C | 64.0% | 0hPa | 2.7V | 00:00:00 | 00:00:00 | 00:00:00 | |
| OE3JTB-15 | 2026-09-02 04:35:31 | 47.21157 | 17.06357 | 24° | 4km/h | 1011m | -2.8m/s | 15.4°C | 64.0% | 0hPa | 2.7V | 00:00:00 | 02:49:00 | 00:00:00 | |
| OE3JTB-15 | 2026-09-02 04:35:29 | 47.21155 | 17.06356 | 28° | 5km/h | 1017m | -2.8m/s | 15.3°C | 64.0% | 0hPa | 2.7V | 07:15:00 | 00:00:00 | 00:00:00 | |
| OE3JTB-15 | 2026-09-02 04:35:27 | 47.21153 | 17.06354 | 20° | 4km/h | 1023m | -3.0m/s | 15.3°C | 63.9% | 0hPa | 2.7V | 00:00:00 | 00:00:00 | 00:00:00 | |
| OE3JTB-15 | 2026-09-02 04:35:25 | 47.21151 | 17.06353 | 17° | 4km/h | 1029m | -3.1m/s | 15.4°C | 63.4% | 0hPa | 2.7V | 00:00:00 | 02:48:54 | 00:00:00 | |
| OE3JTB-15 | 2026-09-02 04:35:23 | 47.21149 | 17.06352 | 17° | 4km/h | 1035m | -3.1m/s | 15.3°C | 63.5% | 0hPa | 2.7V | 00:00:00 | 00:00:00 | 00:00:00 | |
| OE3JTB-15 | 2026-09-02 04:35:21 | 47.21147 | 17.06351 | 13° | 4km/h | 1041m | -3.0m/s | 15.3°C | 63.7% | 0hPa | 2.7V | 00:00:00 | 00:00:00 | 00:00:00 | |
| OE3JTB-15 | 2026-09-02 04:35:19 | 47.21145 | 17.06350 | 21° | 4km/h | 1047m | -3.0m/s | 15.3°C | 63.9% | 0hPa | 2.7V | 00:00:00 | 02:48:48 | 00:00:00 | |
| OE3JTB-15 | 2026-09-02 04:35:17 | 47.21142 | 17.06349 | 27° | 5km/h | 1053m | -3.0m/s | 15.2°C | 64.1% | 0hPa | 2.7V | 00:00:00 | 00:00:00 | 00:00:00 | |
| OE3JTB-15 | 2026-09-02 04:35:15 | 47.21140 | 17.06348 | 26° | 5km/h | 1059m | -2.9m/s | 15.2°C | 64.3% | 0hPa | 2.7V | 00:00:00 | 00:00:00 | 00:00:00 | |
| OE3JTB-15 | 2026-09-02 04:35:13 | 47.21138 | 17.06347 | 12° | 5km/h | 1065m | -3.0m/s | 15.2°C | 64.4% | 0hPa | 2.7V | 07:15:00 | 02:48:42 | 00:00:00 | |
| OE3JTB-15 | 2026-09-02 04:35:11 | 47.21135 | 17.06346 | 9° | 5km/h | 1071m | -3.0m/s | 15.2°C | 64.6% | 0hPa | 2.7V | 00:00:00 | 00:00:00 | 00:00:00 | |
| OE3JTB-15 | 2026-09-02 04:35:09 | 47.21133 | 17.06345 | 10° | 5km/h | 1077m | -3.0m/s | 15.1°C | 65.0% | 0hPa | 2.7V | 00:00:00 | 00:00:00 | 00:00:00 | |
| OE3JTB-15 | 2026-09-02 04:35:07 | 47.21130 | 17.06344 | 14° | 5km/h | 1083m | -3.0m/s | 15.1°C | 65.3% | 0hPa | 2.7V | 00:00:00 | 02:48:36 | 00:00:00 | |
| OE3JTB-15 | 2026-09-02 04:35:05 | 47.21128 | 17.06343 | 15° | 5km/h | 1090m | -3.1m/s | 15.0°C | 66.1% | 0hPa | 2.7V | 00:00:00 | 00:00:00 | 00:00:00 | |
| OE3JTB-15 | 2026-09-02 04:35:03 | 47.21125 | 17.06343 | 10° | 5km/h | 1096m | -3.1m/s | 15.0°C | 65.9% | 0hPa | 2.7V | 00:00:00 | 00:00:00 | 00:00:00 | |
| OE3JTB-15 | 2026-09-02 04:35:01 | 47.21122 | 17.06342 | 3° | 5km/h | 1102m | -3.1m/s | 15.0°C | 66.2% | 0hPa | 2.7V | 00:00:00 | 02:48:30 | 00:00:00 | |
| OE3JTB-15 | 2026-09-02 04:34:59 | 47.21119 | 17.06342 | 4° | 5km/h | 1109m | -3.0m/s | 14.9°C | 66.5% | 0hPa | 2.7V | 00:00:00 | 00:00:00 | 00:00:00 | |
| OE3JTB-15 | 2026-09-02 04:34:57 | 47.21117 | 17.06341 | 8° | 5km/h | 1115m | -3.0m/s | 14.9°C | 66.6% | 0hPa | 2.7V | 07:15:00 | 00:00:00 | 00:00:00 | |
| OE3JTB-15 | 2026-09-02 04:34:55 | 47.21114 | 17.06340 | 12° | 5km/h | 1121m | -3.1m/s | 14.8°C | 66.7% | 0hPa | 2.7V | 00:00:00 | 02:48:24 | 00:00:00 | |
| OE3JTB-15 | 2026-09-02 04:34:53 | 47.21111 | 17.06340 | 18° | 5km/h | 1127m | -2.9m/s | 14.8°C | 66.9% | 0hPa | 2.7V | 00:00:00 | 00:00:00 | 00:00:00 | |
| OE3JTB-15 | 2026-09-02 04:34:51 | 47.21108 | 17.06339 | 18° | 5km/h | 1134m | -3.1m/s | 14.7°C | 67.0% | 0hPa | 2.7V | 00:00:00 | 00:00:00 | 00:00:00 | |
| OE3JTB-15 | 2026-09-02 04:34:49 | 47.21106 | 17.06338 | 16° | 5km/h | 1140m | -3.1m/s | 14.7°C | 67.3% | 0hPa | 2.7V | 00:00:00 | 02:48:18 | 00:00:00 | |
| OE3JTB-15 | 2026-09-02 04:34:47 | 47.21103 | 17.06336 | 19° | 5km/h | 1146m | -2.9m/s | 14.6°C | 67.2% | 0hPa | 2.7V | 00:00:00 | 00:00:00 | 00:00:00 | |
| OE3JTB-15 | 2026-09-02 04:34:45 | 47.21100 | 17.06334 | 16° | 5km/h | 1152m | -2.9m/s | 14.6°C | 66.2% | 0hPa | 2.7V | 00:00:00 | 00:00:00 | 00:00:00 | |
| OE3JTB-15 | 2026-09-02 04:34:43 | 47.21097 | 17.06333 | 17° | 5km/h | 1158m | -2.9m/s | 14.6°C | 65.9% | 0hPa | 2.7V | 00:00:00 | 02:48:12 | 00:00:00 | |
| OE3JTB-15 | 2026-09-02 04:34:41 | 47.21094 | 17.06332 | 16° | 5km/h | 1164m | -3.1m/s | 14.6°C | 65.2% | 0hPa | 2.7V | 07:15:00 | 00:00:00 | 00:00:00 | |
| OE3JTB-15 | 2026-09-02 04:34:39 | 47.21091 | 17.06331 | 14° | 5km/h | 1171m | -3.1m/s | 14.5°C | 65.9% | 0hPa | 2.7V | 00:00:00 | 00:00:00 | 00:00:00 | |
| OE3JTB-15 | 2026-09-02 04:34:37 | 47.21088 | 17.06330 | 12° | 5km/h | 1177m | -3.1m/s | 14.5°C | 65.2% | 0hPa | 2.7V | 00:00:00 | 02:48:06 | 00:00:00 | |
| OE3JTB-15 | 2026-09-02 04:34:35 | 47.21084 | 17.06329 | 12° | 5km/h | 1183m | -2.9m/s | 14.5°C | 65.0% | 0hPa | 2.7V | 00:00:00 | 00:00:00 | 00:00:00 | |
| OE3JTB-15 | 2026-09-02 04:34:33 | 47.21081 | 17.06327 | 15° | 5km/h | 1189m | -2.8m/s | 14.4°C | 66.1% | 0hPa | 2.7V | 00:00:00 | 00:00:00 | 00:00:00 | |
| OE3JTB-15 | 2026-09-02 04:34:31 | 47.21078 | 17.06326 | 18° | 5km/h | 1195m | -2.9m/s | 14.3°C | 67.9% | 0hPa | 2.7V | 00:00:00 | 02:48:00 | 00:00:00 | |
| OE3JTB-15 | 2026-09-02 04:34:29 | 47.21075 | 17.06325 | 20° | 5km/h | 1202m | -3.1m/s | 14.3°C | 67.8% | 0hPa | 2.7V | 00:00:00 | 00:00:00 | 00:00:00 | |
| OE3JTB-15 | 2026-09-02 04:34:27 | 47.21072 | 17.06324 | 19° | 5km/h | 1208m | -2.8m/s | 14.2°C | 69.0% | 0hPa | 2.7V | 00:00:00 | 00:00:00 | 00:00:00 | |
| OE3JTB-15 | 2026-09-02 04:34:25 | 47.21069 | 17.06323 | 14° | 5km/h | 1214m | -2.7m/s | 14.2°C | 69.1% | 0hPa | 2.7V | 07:16:00 | 02:47:54 | 00:00:00 | |
| OE3JTB-15 | 2026-09-02 04:34:22 | 47.21063 | 17.06320 | 14° | 5km/h | 1225m | -2.6m/s | 14.0°C | 71.2% | 0hPa | 2.7V | 00:00:00 | 00:00:00 | 00:00:00 | |
| OE3JTB-15 | 2026-09-02 04:34:19 | 47.21060 | 17.06319 | 17° | 7km/h | 1231m | -2.6m/s | 14.0°C | 71.5% | 0hPa | 2.7V | 00:00:00 | 02:47:48 | 00:00:00 | |
| OE3JTB-15 | 2026-09-02 04:34:17 | 47.21056 | 17.06318 | 17° | 7km/h | 1236m | -2.7m/s | 14.0°C | 71.5% | 0hPa | 2.7V | 00:00:00 | 00:00:00 | 00:00:00 | |
| OE3JTB-15 | 2026-09-02 04:34:15 | 47.21053 | 17.06317 | 17° | 7km/h | 1241m | -2.8m/s | 13.9°C | 71.8% | 0hPa | 2.7V | 00:00:00 | 00:00:00 | 00:00:00 | |
| OE3JTB-15 | 2026-09-02 04:34:13 | 47.21050 | 17.06316 | 14° | 7km/h | 1247m | -2.7m/s | 13.9°C | 71.9% | 0hPa | 2.7V | 00:00:00 | 02:47:42 | 00:00:00 | |
| OE3JTB-15 | 2026-09-02 04:34:11 | 47.21046 | 17.06314 | 14° | 7km/h | 1252m | -2.6m/s | 13.8°C | 72.3% | 0hPa | 2.7V | 00:00:00 | 00:00:00 | 00:00:00 | |
| OE3JTB-15 | 2026-09-02 04:34:09 | 47.21043 | 17.06313 | 17° | 7km/h | 1258m | -2.6m/s | 13.8°C | 72.6% | 0hPa | 2.7V | 07:16:00 | 00:00:00 | 00:00:00 | |
| OE3JTB-15 | 2026-09-02 04:34:07 | 47.21040 | 17.06311 | 20° | 7km/h | 1263m | -2.7m/s | 13.7°C | 73.0% | 0hPa | 2.7V | 00:00:00 | 02:47:36 | 00:00:00 | |
| OE3JTB-15 | 2026-09-02 04:34:05 | 47.21036 | 17.06310 | 21° | 7km/h | 1269m | -2.7m/s | 13.7°C | 73.3% | 0hPa | 2.7V | 00:00:00 | 00:00:00 | 00:00:00 | |
| OE3JTB-15 | 2026-09-02 04:34:03 | 47.21032 | 17.06308 | 17° | 7km/h | 1275m | -3.1m/s | 13.6°C | 73.0% | 0hPa | 2.7V | 00:00:00 | 00:00:00 | 00:00:00 | |
| OE3JTB-15 | 2026-09-02 04:34:01 | 47.21028 | 17.06306 | 16° | 7km/h | 1281m | -2.9m/s | 13.6°C | 73.1% | 0hPa | 2.7V | 00:00:00 | 02:47:30 | 00:00:00 | |
| OE3JTB-15 | 2026-09-02 04:33:59 | 47.21024 | 17.06304 | 18° | 9km/h | 1287m | -2.7m/s | 13.6°C | 72.7% | 0hPa | 2.7V | 00:00:00 | 00:00:00 | 00:00:00 | |
| OE3JTB-15 | 2026-09-02 04:33:57 | 47.21020 | 17.06303 | 14° | 9km/h | 1293m | -3.0m/s | 13.5°C | 72.5% | 0hPa | 2.7V | 00:00:00 | 00:00:00 | 00:00:00 | |
| OE3JTB-15 | 2026-09-02 04:33:55 | 47.21016 | 17.06301 | 16° | 9km/h | 1299m | -3.1m/s | 13.5°C | 72.6% | 0hPa | 2.7V | 00:00:00 | 02:47:24 | 00:00:00 | |
| OE3JTB-15 | 2026-09-02 04:33:53 | 47.21011 | 17.06299 | 13° | 9km/h | 1305m | -2.9m/s | 13.4°C | 72.4% | 0hPa | 2.7V | 07:16:00 | 00:00:00 | 00:00:00 | |
| OE3JTB-15 | 2026-09-02 04:33:51 | 47.21006 | 17.06298 | 12° | 9km/h | 1311m | -3.1m/s | 13.4°C | 72.3% | 0hPa | 2.7V | 00:00:00 | 00:00:00 | 00:00:00 | |
| OE3JTB-15 | 2026-09-02 04:33:49 | 47.21003 | 17.06297 | 14° | 9km/h | 1317m | -2.8m/s | 13.3°C | 72.5% | 0hPa | 2.7V | 00:00:00 | 02:47:18 | 00:00:00 | |
| OE3JTB-15 | 2026-09-02 04:33:47 | 47.20998 | 17.06295 | 14° | 9km/h | 1323m | -3.1m/s | 13.3°C | 72.9% | 0hPa | 2.7V | 00:00:00 | 00:00:00 | 00:00:00 | |
| OE3JTB-15 | 2026-09-02 04:33:45 | 47.20994 | 17.06293 | 16° | 9km/h | 1329m | -3.1m/s | 13.2°C | 73.1% | 0hPa | 2.7V | 00:00:00 | 00:00:00 | 00:00:00 | |
| OE3JTB-15 | 2026-09-02 04:33:43 | 47.20989 | 17.06291 | 20° | 9km/h | 1335m | -3.0m/s | 13.2°C | 73.4% | 0hPa | 2.7V | 00:00:00 | 02:47:12 | 00:00:00 | |
| OE3JTB-15 | 2026-09-02 04:33:41 | 47.20984 | 17.06289 | 21° | 9km/h | 1341m | -3.1m/s | 13.1°C | 73.8% | 0hPa | 2.7V | 00:00:00 | 00:00:00 | 00:00:00 | |
| OE3JTB-15 | 2026-09-02 04:33:39 | 47.20980 | 17.06287 | 21° | 9km/h | 1348m | -3.1m/s | 13.1°C | 74.2% | 0hPa | 2.7V | 00:00:00 | 00:00:00 | 00:00:00 | |
| OE3JTB-15 | 2026-09-02 04:33:37 | 47.20975 | 17.06284 | 20° | 11km/h | 1354m | -3.1m/s | 13.0°C | 74.2% | 0hPa | 2.7V | 07:16:00 | 02:47:06 | 00:00:00 | |
| OE3JTB-15 | 2026-09-02 04:33:35 | 47.20970 | 17.06281 | 22° | 11km/h | 1360m | -3.2m/s | 13.0°C | 74.6% | 0hPa | 2.7V | 00:00:00 | 00:00:00 | 00:00:00 | |
| OE3JTB-15 | 2026-09-02 04:33:33 | 47.20965 | 17.06278 | 22° | 11km/h | 1366m | -3.1m/s | 12.9°C | 74.9% | 0hPa | 2.7V | 00:00:00 | 00:00:00 | 00:00:00 | |
| OE3JTB-15 | 2026-09-02 04:33:31 | 47.20960 | 17.06275 | 23° | 11km/h | 1373m | -3.1m/s | 12.9°C | 75.3% | 0hPa | 2.7V | 00:00:00 | 02:47:00 | 00:00:00 | |
| OE3JTB-15 | 2026-09-02 04:33:29 | 47.20955 | 17.06272 | 22° | 11km/h | 1379m | -3.0m/s | 12.9°C | 75.8% | 0hPa | 2.7V | 00:00:00 | 00:00:00 | 00:00:00 | |
| OE3JTB-15 | 2026-09-02 04:33:27 | 47.20949 | 17.06269 | 22° | 11km/h | 1385m | -2.9m/s | 12.8°C | 76.1% | 0hPa | 2.7V | 00:00:00 | 00:00:00 | 00:00:00 | |
| OE3JTB-15 | 2026-09-02 04:33:25 | 47.20943 | 17.06267 | 15° | 11km/h | 1391m | -3.2m/s | 12.8°C | 76.7% | 0hPa | 2.7V | 00:00:00 | 02:46:54 | 00:00:00 | |
| OE3JTB-15 | 2026-09-02 04:33:23 | 47.20938 | 17.06264 | 14° | 11km/h | 1398m | -3.1m/s | 12.7°C | 78.6% | 0hPa | 2.7V | 00:00:00 | 00:00:00 | 00:00:00 | |
| OE3JTB-15 | 2026-09-02 04:33:21 | 47.20932 | 17.06262 | 18° | 11km/h | 1404m | -2.9m/s | 12.7°C | 77.6% | 0hPa | 2.7V | 07:17:00 | 00:00:00 | 00:00:00 | |
| OE3JTB-15 | 2026-09-02 04:33:20 | 47.20927 | 17.06259 | 19° | 11km/h | 1410m | -3.1m/s | 12.7°C | 78.8% | 0hPa | 2.7V | 00:00:00 | 02:46:48 | 00:00:00 | |
| OE3JTB-15 | 2026-09-02 04:33:17 | 47.20921 | 17.06257 | 18° | 11km/h | 1416m | -3.0m/s | 12.6°C | 79.0% | 0hPa | 2.7V | 00:00:00 | 00:00:00 | 00:00:00 | |
| OE3JTB-15 | 2026-09-02 04:33:15 | 47.20916 | 17.06254 | 17° | 11km/h | 1422m | -3.1m/s | 12.5°C | 79.1% | 0hPa | 2.7V | 00:00:00 | 00:00:00 | 00:00:00 | |
| OE3JTB-15 | 2026-09-02 04:33:13 | 47.20910 | 17.06251 | 19° | 13km/h | 1428m | -3.2m/s | 12.5°C | 79.5% | 0hPa | 2.7V | 00:00:00 | 02:46:42 | 00:00:00 | |
| OE3JTB-15 | 2026-09-02 04:33:11 | 47.20904 | 17.06248 | 18° | 13km/h | 1434m | -3.1m/s | 12.5°C | 80.0% | 0hPa | 2.7V | 00:00:00 | 00:00:00 | 00:00:00 | |
| OE3JTB-15 | 2026-09-02 04:33:09 | 47.20898 | 17.06245 | 21° | 13km/h | 1440m | -2.9m/s | 12.4°C | 80.0% | 0hPa | 2.7V | 00:00:00 | 00:00:00 | 00:00:00 | |
| OE3JTB-15 | 2026-09-02 04:33:07 | 47.20892 | 17.06242 | 24° | 13km/h | 1447m | -3.0m/s | 12.4°C | 80.7% | 0hPa | 2.7V | 00:00:00 | 02:46:36 | 00:00:00 | |
| OE3JTB-15 | 2026-09-02 04:33:05 | 47.20887 | 17.06239 | 19° | 13km/h | 1453m | -3.0m/s | 12.3°C | 81.7% | 0hPa | 2.7V | 07:17:00 | 00:00:00 | 00:00:00 | |
| OE3JTB-15 | 2026-09-02 04:33:03 | 47.20881 | 17.06236 | 20° | 11km/h | 1459m | -2.8m/s | 12.3°C | 78.5% | 0hPa | 2.7V | 00:00:00 | 00:00:00 | 00:00:00 | |
| OE3JTB-15 | 2026-09-02 04:33:01 | 47.20875 | 17.06234 | 19° | 13km/h | 1465m | -3.1m/s | 12.2°C | 79.7% | 0hPa | 2.7V | 00:00:00 | 02:46:30 | 00:00:00 | |
| OE3JTB-15 | 2026-09-02 04:32:59 | 47.20869 | 17.06231 | 15° | 13km/h | 1472m | -3.3m/s | 12.2°C | 80.5% | 0hPa | 2.7V | 00:00:00 | 00:00:00 | 00:00:00 | |
| OE3JTB-15 | 2026-09-02 04:32:57 | 47.20863 | 17.06228 | 18° | 13km/h | 1478m | -3.2m/s | 12.1°C | 80.6% | 0hPa | 2.7V | 00:00:00 | 00:00:00 | 00:00:00 | |
| OE3JTB-15 | 2026-09-02 04:32:55 | 47.20857 | 17.06225 | 18° | 13km/h | 1484m | -3.1m/s | 12.0°C | 81.1% | 0hPa | 2.7V | 00:00:00 | 02:46:24 | 00:00:00 | |
| OE3JTB-15 | 2026-09-02 04:32:53 | 47.20851 | 17.06223 | 17° | 13km/h | 1490m | -3.3m/s | 12.0°C | 78.8% | 0hPa | 2.7V | 00:00:00 | 00:00:00 | 00:00:00 | |
| OE3JTB-15 | 2026-09-02 04:32:51 | 47.20845 | 17.06221 | 16° | 13km/h | 1497m | -3.2m/s | 11.9°C | 80.3% | 0hPa | 2.7V | 00:00:00 | 00:00:00 | 00:00:00 | |
| OE3JTB-15 | 2026-09-02 04:32:49 | 47.20839 | 17.06218 | 14° | 13km/h | 1503m | -3.0m/s | 11.9°C | 79.5% | 0hPa | 2.7V | 07:17:00 | 02:46:18 | 00:00:00 | |
| OE3JTB-15 | 2026-09-02 04:32:47 | 47.20833 | 17.06216 | 12° | 13km/h | 1509m | -3.0m/s | 11.8°C | 79.1% | 0hPa | 2.7V | 00:00:00 | 00:00:00 | 00:00:00 | |
| OE3JTB-15 | 2026-09-02 04:32:45 | 47.20827 | 17.06214 | 12° | 13km/h | 1515m | -3.0m/s | 11.8°C | 80.4% | 0hPa | 2.7V | 00:00:00 | 00:00:00 | 00:00:00 | |
| OE3JTB-15 | 2026-09-02 04:32:43 | 47.20821 | 17.06212 | 14° | 11km/h | 1521m | -3.1m/s | 11.7°C | 80.5% | 0hPa | 2.7V | 00:00:00 | 02:46:12 | 00:00:00 | |
| OE3JTB-15 | 2026-09-02 04:32:41 | 47.20816 | 17.06211 | 15° | 11km/h | 1528m | -2.8m/s | 11.7°C | 80.7% | 0hPa | 2.7V | 00:00:00 | 00:00:00 | 00:00:00 | |
| OE3JTB-15 | 2026-09-02 04:32:39 | 47.20810 | 17.06209 | 14° | 13km/h | 1533m | -3.0m/s | 11.7°C | 80.6% | 0hPa | 2.7V | 00:00:00 | 00:00:00 | 00:00:00 | |
| OE3JTB-15 | 2026-09-02 04:32:37 | 47.20803 | 17.06206 | 15° | 13km/h | 1540m | -2.9m/s | 11.6°C | 80.9% | 0hPa | 2.7V | 00:00:00 | 02:46:06 | 00:00:00 | |
| OE3JTB-15 | 2026-09-02 04:32:35 | 47.20797 | 17.06203 | 21° | 13km/h | 1545m | -2.7m/s | 11.6°C | 80.9% | 0hPa | 2.7V | 00:00:00 | 00:00:00 | 00:00:00 | |
| OE3JTB-15 | 2026-09-02 04:32:33 | 47.20791 | 17.06200 | 24° | 13km/h | 1551m | -2.7m/s | 11.5°C | 80.8% | 0hPa | 2.7V | 07:18:00 | 00:00:00 | 00:00:00 | |
| OE3JTB-15 | 2026-09-02 04:32:31 | 47.20785 | 17.06196 | 26° | 15km/h | 1556m | -2.5m/s | 11.5°C | 80.6% | 0hPa | 2.7V | 00:00:00 | 02:46:00 | 00:00:00 | |
| OE3JTB-15 | 2026-09-02 04:32:29 | 47.20779 | 17.06192 | 25° | 15km/h | 1561m | -2.7m/s | 11.4°C | 80.3% | 0hPa | 2.7V | 00:00:00 | 00:00:00 | 00:00:00 | |
| OE3JTB-15 | 2026-09-02 04:32:27 | 47.20772 | 17.06188 | 24° | 13km/h | 1567m | -3.0m/s | 11.4°C | 81.3% | 0hPa | 2.7V | 00:00:00 | 00:00:00 | 00:00:00 | |
| OE3JTB-15 | 2026-09-02 04:32:25 | 47.20766 | 17.06183 | 25° | 13km/h | 1573m | -3.2m/s | 11.3°C | 80.6% | 0hPa | 2.7V | 00:00:00 | 02:45:54 | 00:00:00 | |
| OE3JTB-15 | 2026-09-02 04:32:23 | 47.20760 | 17.06179 | 29° | 13km/h | 1579m | -2.7m/s | 11.3°C | 81.5% | 0hPa | 2.7V | 00:00:00 | 00:00:00 | 00:00:00 | |
| OE3JTB-15 | 2026-09-02 04:32:21 | 47.20754 | 17.06174 | 29° | 13km/h | 1585m | -2.7m/s | 11.3°C | 82.0% | 0hPa | 2.7V | 00:00:00 | 00:00:00 | 00:00:00 | |
| OE3JTB-15 | 2026-09-02 04:32:19 | 47.20748 | 17.06169 | 28° | 13km/h | 1590m | -2.8m/s | 11.2°C | 82.0% | 0hPa | 2.7V | 00:00:00 | 02:45:48 | 00:00:00 | |
| OE3JTB-15 | 2026-09-02 04:32:17 | 47.20742 | 17.06166 | 25° | 13km/h | 1597m | -3.0m/s | 11.1°C | 82.8% | 0hPa | 2.7V | 07:18:00 | 00:00:00 | 00:00:00 | |
| OE3JTB-15 | 2026-09-02 04:32:17 | 47.20736 | 17.06161 | 28° | 13km/h | 1603m | -3.2m/s | 11.1°C | 82.8% | 0hPa | 2.7V | 00:00:00 | 00:00:00 | 00:00:00 | |
| OE3JTB-15 | 2026-09-02 04:32:13 | 47.20730 | 17.06156 | 28° | 13km/h | 1609m | -3.4m/s | 11.1°C | 81.1% | 0hPa | 2.7V | 00:00:00 | 02:45:42 | 00:00:00 | |
| OE3JTB-15 | 2026-09-02 04:32:11 | 47.20724 | 17.06152 | 29° | 13km/h | 1616m | -3.3m/s | 11.2°C | 81.0% | 0hPa | 2.7V | 00:00:00 | 00:00:00 | 00:00:00 | |
| OE3JTB-15 | 2026-09-02 04:32:09 | 47.20718 | 17.06147 | 33° | 13km/h | 1622m | -2.9m/s | 11.2°C | 81.9% | 0hPa | 2.7V | 00:00:00 | 00:00:00 | 00:00:00 | |
| OE3JTB-15 | 2026-09-02 04:32:07 | 47.20712 | 17.06141 | 37° | 15km/h | 1628m | -2.8m/s | 11.2°C | 82.2% | 0hPa | 2.7V | 00:00:00 | 02:45:36 | 00:00:00 | |
| OE3JTB-15 | 2026-09-02 04:32:05 | 47.20706 | 17.06135 | 35° | 15km/h | 1634m | -3.0m/s | 11.2°C | 82.7% | 0hPa | 2.7V | 00:00:00 | 00:00:00 | 00:00:00 | |
| OE3JTB-15 | 2026-09-02 04:32:01 | 47.20694 | 17.06123 | 35° | 15km/h | 1646m | -3.4m/s | 11.1°C | 83.2% | 0hPa | 2.7V | 07:18:00 | 02:45:30 | 00:00:00 | |
| OE3JTB-15 | 2026-09-02 04:31:59 | 47.20688 | 17.06117 | 39° | 15km/h | 1653m | -3.5m/s | 11.0°C | 83.7% | 0hPa | 2.7V | 00:00:00 | 00:00:00 | 00:00:00 | |
| OE3JTB-15 | 2026-09-02 04:31:57 | 47.20683 | 17.06110 | 43° | 15km/h | 1659m | -3.1m/s | 10.9°C | 84.1% | 0hPa | 2.7V | 00:00:00 | 00:00:00 | 00:00:00 | |
| OE3JTB-15 | 2026-09-02 04:31:55 | 47.20677 | 17.06103 | 42° | 15km/h | 1666m | -3.2m/s | 10.9°C | 84.1% | 0hPa | 2.7V | 00:00:00 | 02:45:24 | 00:00:00 | |
| OE3JTB-15 | 2026-09-02 04:31:53 | 47.20672 | 17.06096 | 42° | 15km/h | 1673m | -3.3m/s | 10.8°C | 84.7% | 0hPa | 2.7V | 00:00:00 | 00:00:00 | 00:00:00 | |
| OE3JTB-15 | 2026-09-02 04:31:51 | 47.20666 | 17.06089 | 41° | 15km/h | 1679m | -3.2m/s | 10.8°C | 85.0% | 0hPa | 2.7V | 00:00:00 | 00:00:00 | 00:00:00 | |
| OE3JTB-15 | 2026-09-02 04:31:49 | 47.20661 | 17.06082 | 41° | 15km/h | 1686m | -3.4m/s | 10.7°C | 85.2% | 0hPa | 2.7V | 00:00:00 | 02:45:18 | 00:00:00 | |
| OE3JTB-15 | 2026-09-02 04:31:47 | 47.20655 | 17.06075 | 45° | 15km/h | 1693m | -3.3m/s | 10.6°C | 85.4% | 0hPa | 2.7V | 00:00:00 | 00:00:00 | 00:00:00 | |
| OE3JTB-15 | 2026-09-02 04:31:41 | 47.20640 | 17.06051 | 46° | 16km/h | 1713m | -3.5m/s | 10.4°C | 86.3% | 0hPa | 2.7V | 07:18:00 | 00:00:00 | 00:00:00 | |
| OE3JTB-15 | 2026-09-02 04:31:32 | 47.20615 | 17.06013 | 51° | 15km/h | 1743m | -3.2m/s | 10.1°C | 88.0% | 0hPa | 2.7V | 00:00:00 | 02:45:01 | 00:00:00 | |
| OE3JTB-15 | 2026-09-02 04:31:23 | 47.20592 | 17.05974 | 47° | 16km/h | 1773m | -3.4m/s | 9.9°C | 86.3% | 0hPa | 2.7V | 00:00:00 | 00:00:00 | 00:00:00 | |
| OE3JTB-15 | 2026-09-02 04:31:14 | 47.20569 | 17.05935 | 57° | 15km/h | 1804m | -3.2m/s | 9.7°C | 87.5% | 0hPa | 2.7V | 00:00:00 | 00:00:00 | 00:00:00 | |
| OE3JTB-15 | 2026-09-02 04:31:05 | 47.20552 | 17.05890 | 69° | 16km/h | 1835m | -2.9m/s | 9.6°C | 86.2% | 0hPa | 2.7V | 00:00:00 | 02:44:34 | 00:00:00 | |
| OE3JTB-15 | 2026-09-02 04:30:56 | 47.20536 | 17.05842 | 62° | 16km/h | 1863m | -3.4m/s | 9.4°C | 86.9% | 0hPa | 2.7V | 00:00:00 | 00:00:00 | 00:00:00 | |
| OE3JTB-15 | 2026-09-02 04:30:47 | 47.20521 | 17.05793 | 70° | 18km/h | 1892m | -3.1m/s | 9.4°C | 85.1% | 0hPa | 2.7V | 00:00:00 | 00:00:00 | 00:00:00 | |
| OE3JTB-15 | 2026-09-02 04:30:41 | 47.20506 | 17.05738 | 66° | 18km/h | 1923m | -3.7m/s | 9.5°C | 77.2% | 0hPa | 2.7V | 00:00:00 | 02:44:07 | 00:00:00 | |
| OE3JTB-15 | 2026-09-02 04:30:29 | 47.20488 | 17.05681 | 67° | 18km/h | 1955m | -3.5m/s | 9.2°C | 78.1% | 0hPa | 2.7V | 07:20:00 | 00:00:00 | 00:00:00 | |
| OE3JTB-15 | 2026-09-02 04:30:20 | 47.20470 | 17.05623 | 65° | 20km/h | 1987m | -3.4m/s | 8.9°C | 78.8% | 0hPa | 2.7V | 00:00:00 | 00:00:00 | 00:00:00 | |
| OE3JTB-15 | 2026-09-02 04:30:11 | 47.20447 | 17.05563 | 58° | 22km/h | 2018m | -3.4m/s | 8.6°C | 82.9% | 0hPa | 2.7V | 00:00:00 | 02:43:40 | 00:00:00 | |
| OE3JTB-15 | 2026-09-02 04:30:02 | 47.20424 | 17.05499 | 64° | 22km/h | 2049m | -3.6m/s | 8.4°C | 81.0% | 0hPa | 2.7V | 00:00:00 | 00:00:00 | 00:00:00 | |
| OE3JTB-15 | 2026-09-02 04:29:53 | 47.20403 | 17.05432 | 66° | 22km/h | 2080m | -3.3m/s | 8.1°C | 81.9% | 0hPa | 2.7V | 00:00:00 | 00:00:00 | 00:00:00 | |
| OE3JTB-15 | 2026-09-02 04:29:44 | 47.20382 | 17.05366 | 65° | 22km/h | 2110m | -3.4m/s | 8.0°C | 79.5% | 0hPa | 2.7V | 00:00:00 | 02:43:13 | 00:00:00 | |
| OE3JTB-15 | 2026-09-02 04:29:35 | 47.20360 | 17.05298 | 68° | 22km/h | 2140m | -3.4m/s | 7.8°C | 79.3% | 0hPa | 2.7V | 00:00:00 | 00:00:00 | 00:00:00 | |
| OE3JTB-15 | 2026-09-02 04:29:26 | 47.20340 | 17.05230 | 66° | 22km/h | 2170m | -3.2m/s | 7.5°C | 80.1% | 0hPa | 2.7V | 00:00:00 | 00:00:00 | 00:00:00 | |
| OE3JTB-15 | 2026-09-02 04:29:17 | 47.20319 | 17.05161 | 65° | 24km/h | 2199m | -3.2m/s | 7.2°C | 81.1% | 0hPa | 2.7V | 07:21:00 | 02:42:46 | 00:00:00 | |
| OM5KV | 2026-09-02 04:29:08 | 47.20300 | 17.05099 | 66° | 24km/h | 2224m | -3.3m/s | 7.1°C | 81.6% | 0hPa | 2.7V | 07:21:00 | 00:00:00 | 00:00:00 | |
| OM5KV | 2026-09-02 04:29:03 | 47.20289 | 17.05060 | 68° | 24km/h | 2240m | -3.1m/s | 6.9°C | 82.4% | 0hPa | 2.7V | 07:21:00 | 00:00:00 | 00:00:00 | |
| OM5KV | 2026-09-02 04:28:58 | 47.20274 | 17.05012 | 66° | 24km/h | 2258m | -3.2m/s | 6.7°C | 83.1% | 0hPa | 2.7V | 07:21:00 | 00:00:00 | 00:00:00 | |
| OE3JTB-15 | 2026-09-02 04:28:39 | 47.20218 | 17.04852 | 60° | 27km/h | 2316m | -2.9m/s | 6.2°C | 84.9% | 0hPa | 2.7V | 00:00:00 | 00:00:00 | 00:00:00 | |
| OE3JTB-15 | 2026-09-02 04:28:20 | 47.20137 | 17.04692 | 52° | 31km/h | 2370m | -2.7m/s | 5.8°C | 84.3% | 0hPa | 2.7V | 00:00:00 | 02:41:49 | 00:00:00 | |
| OE3OSB-13 | 2026-09-02 04:28:19 | 47.20127 | 17.04676 | 50° | 29km/h | 2376m | -2.8m/s | 5.9°C | 82.3% | -1.0hPa | 2.7V | 00:00:00 | 00:00:00 | 00:00:00 | |
| OM5KV | 2026-09-02 04:28:18 | 47.20127 | 17.04676 | 51° | 29km/h | 2376m | -2.8m/s | 5.9°C | 82.3% | 0hPa | 2.7V | 07:22:00 | 00:00:00 | 00:00:00 | |
| OM5KV | 2026-09-02 04:28:12 | 47.20097 | 17.04626 | 48° | 31km/h | 2392m | -2.4m/s | 6.0°C | 79.2% | 0hPa | 2.7V | 07:22:00 | 00:00:00 | 00:00:00 | |
| OM5KV | 2026-09-02 04:28:01 | 47.20038 | 17.04535 | 49° | 31km/h | 2421m | -2.6m/s | 6.0°C | 78.1% | 0hPa | 2.7V | 07:22:00 | 00:00:00 | 00:00:00 | |
| OM5KV | 2026-09-02 04:27:59 | 47.20032 | 17.04527 | 47° | 31km/h | 2424m | -2.8m/s | 6.0°C | 78.0% | 0hPa | 2.7V | 07:23:00 | 00:00:00 | 00:00:00 | |
| OE3JTB-15 | 2026-09-02 04:27:42 | 47.19934 | 17.04376 | 47° | 31km/h | 2475m | -2.8m/s | 5.8°C | 78.2% | 0hPa | 2.7V | 00:00:00 | 00:00:00 | 00:00:00 | |
| OE3JTB-15 | 2026-09-02 04:27:23 | 47.19829 | 17.04214 | 47° | 33km/h | 2532m | -2.8m/s | 5.4°C | 79.3% | 0hPa | 2.7V | 00:00:00 | 02:40:52 | 00:00:00 | |
| OE3JTB-15 | 2026-09-02 04:27:04 | 47.19721 | 17.04036 | 48° | 35km/h | 2593m | -3.2m/s | 5.2°C | 78.5% | 0hPa | 2.7V | 00:00:00 | 00:00:00 | 00:00:00 | |
| OM5KV | 2026-09-02 04:27:03 | 47.19721 | 17.04036 | 48° | 35km/h | 2593m | -3.2m/s | 5.2°C | 77.7% | 0hPa | 2.7V | 07:24:00 | 00:00:00 | 00:00:00 | |
| OE3JTB-15 | 2026-09-02 04:26:45 | 47.19615 | 17.03851 | 51° | 35km/h | 2653m | -3.0m/s | 4.8°C | 79.4% | 0hPa | 2.7V | 07:23:00 | 00:00:00 | 00:00:00 | |
| OE3JTB-15 | 2026-09-02 04:26:26 | 47.19512 | 17.03658 | 54° | 35km/h | 2710m | -2.8m/s | 4.5°C | 80.8% | 0hPa | 2.7V | 00:00:00 | 02:39:55 | 00:00:00 | |
| OE3JTB-15 | 2026-09-02 04:26:07 | 47.19414 | 17.03463 | 56° | 35km/h | 2767m | -2.5m/s | 4.1°C | 82.1% | 0hPa | 2.7V | 00:00:00 | 00:00:00 | 00:00:00 | |
| OE3JTB-15 | 2026-09-02 04:25:48 | 47.19318 | 17.03255 | 55° | 37km/h | 2820m | -3.0m/s | 3.8°C | 80.9% | 0hPa | 2.7V | 00:00:00 | 00:00:00 | 00:00:00 | |
| PETON7-10 | 2026-09-02 04:25:37 | 47.19260 | 17.03134 | 53° | 37km/h | 2857m | -3.7m/s | 3.4°C | 82.4% | 0hPa | 2.7V | 00:00:00 | 00:00:00 | 00:00:00 | |
| OE3JTB-15 | 2026-09-02 04:25:29 | 47.19216 | 17.03047 | 53° | 38km/h | 2885m | -3.7m/s | 3.2°C | 83.5% | 0hPa | 2.7V | 00:00:00 | 02:38:58 | 00:00:00 | |
| PETON7-10 | 2026-09-02 04:25:22 | 47.19177 | 17.02972 | 54° | 40km/h | 2911m | -4.1m/s | 2.9°C | 84.4% | 0hPa | 2.7V | 00:00:00 | 02:38:51 | 00:00:00 | |
| OE3JTB-15 | 2026-09-02 04:25:10 | 47.19105 | 17.02834 | 54° | 44km/h | 2961m | -4.1m/s | 2.6°C | 85.9% | 0hPa | 2.7V | 00:00:00 | 00:00:00 | 00:00:00 | |
| PETON7-10 | 2026-09-02 04:25:07 | 47.19086 | 17.02797 | 52° | 44km/h | 2973m | -3.7m/s | 2.5°C | 86.3% | 0hPa | 2.7V | 00:00:00 | 00:00:00 | 00:00:00 | |
| PETON7-10 | 2026-09-02 04:24:52 | 47.18988 | 17.02595 | 55° | 47km/h | 3024m | -2.9m/s | 2.2°C | 87.6% | 0hPa | 2.7V | 00:00:00 | 00:00:00 | 00:00:00 | |
| OE3JTB-15 | 2026-09-02 04:24:51 | 47.18982 | 17.02581 | 57° | 47km/h | 3026m | -2.7m/s | 2.2°C | 87.6% | 0hPa | 2.7V | 00:00:00 | 00:00:00 | 00:00:00 | |
| PETON7-10 | 2026-09-02 04:24:37 | 47.18887 | 17.02375 | 58° | 51km/h | 3068m | -3.2m/s | 2.2°C | 89.0% | 0hPa | 2.7V | 07:25:00 | 02:38:06 | 00:00:00 | |
| OE3JTB-15 | 2026-09-02 04:24:32 | 47.18853 | 17.02297 | 58° | 49km/h | 3084m | -2.9m/s | 2.0°C | 89.6% | 0hPa | 2.7V | 00:00:00 | 02:38:01 | 00:00:00 | |
| PETON7-10 | 2026-09-02 04:24:22 | 47.18785 | 17.02138 | 58° | 49km/h | 3117m | -3.5m/s | 1.7°C | 91.5% | 0hPa | 2.7V | 00:00:00 | 00:00:00 | 00:00:00 | |
| OE3JTB-15 | 2026-09-02 04:24:13 | 47.18727 | 17.01998 | 59° | 49km/h | 3147m | -3.1m/s | 1.3°C | 93.3% | 0hPa | 2.7V | 07:26:00 | 00:00:00 | 00:00:00 | |
| PETON7-10 | 2026-09-02 04:24:07 | 47.18687 | 17.01905 | 59° | 49km/h | 3164m | -2.8m/s | 1.2°C | 94.0% | 0hPa | 2.7V | 00:00:00 | 00:00:00 | 00:00:00 | |
| OE3JTB-15 | 2026-09-02 04:23:54 | 47.18604 | 17.01703 | 60° | 47km/h | 3203m | -3.0m/s | 1.0°C | 94.4% | 0hPa | 2.7V | 00:00:00 | 00:00:00 | 00:00:00 | |
| PETON7-10 | 2026-09-02 04:23:52 | 47.18592 | 17.01672 | 59° | 47km/h | 3209m | -3.1m/s | 1.0°C | 94.4% | 0hPa | 2.7V | 00:00:00 | 02:37:21 | 00:00:00 | |
| PETON7-10 | 2026-09-02 04:23:37 | 47.18499 | 17.01439 | 60° | 49km/h | 3255m | -3.1m/s | 0.8°C | 95.5% | 0hPa | 2.7V | 00:00:00 | 00:00:00 | 00:00:00 | |
| OE3JTB-15 | 2026-09-02 04:23:35 | 47.18486 | 17.01408 | 60° | 49km/h | 3261m | -2.8m/s | 0.8°C | 95.5% | 0hPa | 2.7V | 00:00:00 | 02:37:04 | 00:00:00 | |
| PETON7-10 | 2026-09-02 04:23:22 | 47.18409 | 17.01204 | 62° | 47km/h | 3299m | -2.8m/s | 0.5°C | 96.6% | 0hPa | 2.7V | 00:00:00 | 00:00:00 | 00:00:00 | |
| PETON7-10 | 2026-09-02 04:23:07 | 47.18318 | 17.00970 | 61° | 47km/h | 3345m | -3.1m/s | 0.2°C | 98.4% | 0hPa | 2.7V | 00:00:00 | 02:36:36 | 00:00:00 | |
| OE3JTB-15 | 2026-09-02 04:23:06 | 47.18311 | 17.00954 | 60° | 47km/h | 3348m | -3.0m/s | 0.2°C | 98.4% | 0hPa | 2.7V | 00:00:00 | 00:00:00 | 00:00:00 | |
| PETON7-10 | 2026-09-02 04:22:52 | 47.18227 | 17.00737 | 61° | 47km/h | 3392m | -3.3m/s | 0.0°C | 97.2% | 0hPa | 2.7V | 00:00:00 | 00:00:00 | 00:00:00 | |
| PETON7-10 | 2026-09-02 04:22:37 | 47.18135 | 17.00504 | 60° | 47km/h | 3445m | -3.6m/s | -0.2°C | 98.0% | 0hPa | 2.7V | 07:27:00 | 00:00:00 | 00:00:00 | |
| PETON7-10 | 2026-09-02 04:22:21 | 47.18038 | 17.00256 | 62° | 47km/h | 3504m | -3.5m/s | -0.6°C | 99.0% | 0hPa | 2.7V | 00:00:00 | 02:35:50 | 00:00:00 | |
| OE3JTB-15 | 2026-09-02 04:22:08 | 47.17962 | 17.00053 | 62° | 46km/h | 3545m | -3.2m/s | -0.8°C | 0% | 0hPa | 2.7V | 00:00:00 | 02:35:37 | 00:00:00 | |
| PETON7-10 | 2026-09-02 04:22:06 | 47.17951 | 17.00023 | 61° | 46km/h | 3552m | -3.5m/s | -0.9°C | 0% | 0hPa | 2.7V | 00:00:00 | 00:00:00 | 00:00:00 | |
| PETON7-10 | 2026-09-02 04:21:51 | 47.17862 | 16.99802 | 59° | 46km/h | 3598m | -2.8m/s | -1.1°C | 0% | 0hPa | 2.7V | 00:00:00 | 00:00:00 | 00:00:00 | |
| OE3JTB-15 | 2026-09-02 04:21:39 | 47.17789 | 16.99631 | 57° | 46km/h | 3635m | -2.8m/s | -1.4°C | 0% | 0hPa | 2.7V | 00:00:00 | 00:00:00 | 00:00:00 | |
| PETON7-10 | 2026-09-02 04:21:36 | 47.17770 | 16.99589 | 57° | 46km/h | 3644m | -3.3m/s | -1.4°C | 0% | 0hPa | 2.7V | 00:00:00 | 02:35:05 | 00:00:00 | |
| PETON7-10 | 2026-09-02 04:21:21 | 47.17677 | 16.99378 | 57° | 46km/h | 3696m | -3.1m/s | -1.6°C | 0% | 0hPa | 2.7V | 00:00:00 | 00:00:00 | 00:00:00 | |
| OE3JTB-15 | 2026-09-02 04:21:10 | 47.17607 | 16.99224 | 56° | 46km/h | 3731m | -3.3m/s | -1.8°C | 0% | 0hPa | 2.7V | 00:00:00 | 00:00:00 | 00:00:00 | |
| PETON7-10 | 2026-09-02 04:21:06 | 47.17581 | 16.99168 | 57° | 46km/h | 3743m | -3.0m/s | -1.9°C | 0% | 0hPa | 2.7V | 00:00:00 | 00:00:00 | 00:00:00 | |
| OE3OSB-13 | 2026-09-02 04:21:04 | 47.17562 | 16.99126 | 56° | 44km/h | 3752m | -2.8m/s | -2.0°C | 100.0% | -1.0hPa | 2.7V | 00:00:00 | 00:00:00 | 00:00:00 | |
| PETON7-10 | 2026-09-02 04:20:51 | 47.17483 | 16.98958 | 56° | 46km/h | 3789m | -3.1m/s | -2.2°C | 0% | 0hPa | 2.7V | 00:00:00 | 02:34:20 | 00:00:00 | |
| OE3JTB-15 | 2026-09-02 04:20:41 | 47.17416 | 16.98816 | 55° | 46km/h | 3821m | -3.2m/s | -2.3°C | 0% | 0hPa | 2.7V | 07:29:00 | 02:34:10 | 00:00:00 | |
| PETON7-10 | 2026-09-02 04:20:36 | 47.17381 | 16.98747 | 55° | 46km/h | 3839m | -3.3m/s | -2.4°C | 0% | 0hPa | 2.7V | 07:29:00 | 00:00:00 | 00:00:00 | |
| PETON7-10 | 2026-09-02 04:20:21 | 47.17278 | 16.98536 | 55° | 46km/h | 3893m | -3.8m/s | -2.7°C | 97.3% | 0hPa | 2.7V | 00:00:00 | 00:00:00 | 00:00:00 | |
| OE3JTB-15 | 2026-09-02 04:20:12 | 47.17216 | 16.98410 | 54° | 46km/h | 3926m | -3.6m/s | -3.0°C | 94.6% | 0hPa | 2.7V | 00:00:00 | 00:00:00 | 00:00:00 | |
| PETON7-10 | 2026-09-02 04:20:06 | 47.17174 | 16.98327 | 55° | 46km/h | 3948m | -3.7m/s | -3.2°C | 94.1% | 0hPa | 2.7V | 00:00:00 | 02:33:35 | 00:00:00 | |
| PETON7-10 | 2026-09-02 04:19:51 | 47.17072 | 16.98120 | 54° | 46km/h | 4002m | -3.4m/s | -3.5°C | 94.3% | 0hPa | 2.7V | 00:00:00 | 00:00:00 | 00:00:00 | |
| OE3JTB-15 | 2026-09-02 04:19:43 | 47.17019 | 16.98012 | 56° | 46km/h | 4030m | -3.5m/s | -3.8°C | 94.0% | 0hPa | 2.7V | 00:00:00 | 00:00:00 | 00:00:00 | |
| PETON7-10 | 2026-09-02 04:19:36 | 47.16975 | 16.97915 | 59° | 46km/h | 4054m | -3.1m/s | -3.9°C | 94.2% | 0hPa | 2.7V | 00:00:00 | 00:00:00 | 00:00:00 | |
| PETON7-10 | 2026-09-02 04:19:21 | 47.16885 | 16.97702 | 61° | 46km/h | 4101m | -3.2m/s | -4.1°C | 94.7% | 0hPa | 2.7V | 00:00:00 | 02:32:50 | 00:00:00 | |
| OE3JTB-15 | 2026-09-02 04:19:14 | 47.16847 | 16.97599 | 62° | 46km/h | 4124m | -2.9m/s | -4.1°C | 95.3% | 0hPa | 2.7V | 00:00:00 | 02:32:43 | 00:00:00 | |
| PETON7-10 | 2026-09-02 04:19:06 | 47.16805 | 16.97480 | 63° | 47km/h | 4147m | -3.1m/s | -4.3°C | 95.9% | 0hPa | 2.7V | 00:00:00 | 00:00:00 | 00:00:00 | |
| PETON7-10 | 2026-09-02 04:18:51 | 47.16731 | 16.97243 | 67° | 47km/h | 4191m | -2.8m/s | -4.4°C | 97.4% | 0hPa | 2.7V | 00:00:00 | 00:00:00 | 00:00:00 | |
| OE3JTB-15 | 2026-09-02 04:18:45 | 47.16703 | 16.97147 | 66° | 47km/h | 4208m | -2.8m/s | -4.5°C | 97.7% | 0hPa | 2.7V | 00:00:00 | 00:00:00 | 00:00:00 | |
| PETON7-10 | 2026-09-02 04:18:36 | 47.16661 | 16.97002 | 68° | 47km/h | 4233m | -2.7m/s | -4.6°C | 98.0% | 0hPa | 2.6V | 07:31:00 | 02:32:05 | 00:00:00 | |
| PETON7-10 | 2026-09-02 04:18:21 | 47.16590 | 16.96758 | 67° | 47km/h | 4276m | -2.7m/s | -4.8°C | 98.6% | 0hPa | 2.6V | 00:00:00 | 00:00:00 | 00:00:00 | |
| OE3JTB-15 | 2026-09-02 04:18:16 | 47.16566 | 16.96675 | 67° | 47km/h | 4291m | -3.0m/s | -4.9°C | 98.2% | 0hPa | 2.6V | 00:00:00 | 00:00:00 | 00:00:00 | |
| PETON7-10 | 2026-09-02 04:18:06 | 47.16517 | 16.96513 | 66° | 47km/h | 4320m | -2.8m/s | -5.1°C | 97.8% | 0hPa | 2.6V | 00:00:00 | 00:00:00 | 00:00:00 | |
| PETON7-10 | 2026-09-02 04:17:51 | 47.16442 | 16.96272 | 66° | 47km/h | 4362m | -2.9m/s | -5.3°C | 97.6% | 0hPa | 2.6V | 00:00:00 | 02:31:20 | 00:00:00 | |
| OE3JTB-15 | 2026-09-02 04:17:47 | 47.16423 | 16.96208 | 66° | 46km/h | 4373m | -2.7m/s | -5.4°C | 97.5% | 0hPa | 2.6V | 00:00:00 | 02:31:16 | 00:00:00 | |
| OM5KV | 2026-09-02 04:17:43 | 47.16403 | 16.96144 | 67° | 47km/h | 4385m | -2.9m/s | -5.5°C | 95.1% | 0hPa | 2.6V | 00:00:00 | 00:00:00 | 00:00:00 | |
| OM5KV | 2026-09-02 04:17:40 | 47.16389 | 16.96097 | 67° | 47km/h | 4393m | -3.0m/s | -5.6°C | 96.0% | 0hPa | 2.6V | 07:33:00 | 00:00:00 | 00:00:00 | |
| PETON7-10 | 2026-09-02 04:17:20 | 47.16293 | 16.95786 | 66° | 44km/h | 4456m | -3.2m/s | -5.9°C | 97.6% | 0hPa | 2.6V | 00:00:00 | 00:00:00 | 00:00:00 | |
| OE3JTB-15 | 2026-09-02 04:17:18 | 47.16284 | 16.95756 | 68° | 44km/h | 4463m | -3.2m/s | -5.9°C | 97.4% | 0hPa | 2.6V | 00:00:00 | 00:00:00 | 00:00:00 | |
| PETON7-10 | 2026-09-02 04:17:05 | 47.16226 | 16.95561 | 67° | 44km/h | 4506m | -2.9m/s | -6.2°C | 95.8% | 0hPa | 2.6V | 00:00:00 | 02:30:34 | 00:00:00 | |
| PETON7-10 | 2026-09-02 04:16:50 | 47.16158 | 16.95341 | 65° | 42km/h | 4548m | -3.0m/s | -6.4°C | 95.3% | 0hPa | 2.6V | 00:00:00 | 00:00:00 | 00:00:00 | |
| OE3JTB-15 | 2026-09-02 04:16:49 | 47.16153 | 16.95326 | 65° | 42km/h | 4551m | -2.6m/s | -6.4°C | 95.4% | 0hPa | 2.7V | 07:33:00 | 00:00:00 | 00:00:00 | |
| PETON7-10 | 2026-09-02 04:16:35 | 47.16086 | 16.95129 | 62° | 42km/h | 4588m | -2.8m/s | -6.7°C | 96.1% | 0hPa | 2.7V | 07:33:00 | 00:00:00 | 00:00:00 | |
| PETON7-10 | 2026-09-02 04:16:20 | 47.16010 | 16.94928 | 59° | 40km/h | 4631m | -2.7m/s | -7.1°C | 95.7% | 0hPa | 2.7V | 00:00:00 | 02:29:49 | 00:00:00 | |
| PETON7-10 | 2026-09-02 04:16:05 | 47.15930 | 16.94739 | 58° | 38km/h | 4674m | -2.9m/s | -7.2°C | 95.5% | 0hPa | 2.7V | 00:00:00 | 00:00:00 | 00:00:00 | |
| OE3JTB-15 | 2026-09-02 04:15:51 | 47.15853 | 16.94570 | 56° | 38km/h | 4721m | -3.2m/s | -7.4°C | 95.3% | 0hPa | 2.6V | 00:00:00 | 00:00:00 | 00:00:00 | |
| PETON7-10 | 2026-09-02 04:15:50 | 47.15848 | 16.94558 | 56° | 38km/h | 4725m | -3.3m/s | -7.4°C | 95.1% | 0hPa | 2.7V | 00:00:00 | 00:00:00 | 00:00:00 | |
| PETON7-10 | 2026-09-02 04:15:35 | 47.15766 | 16.94388 | 57° | 37km/h | 4773m | -3.4m/s | -7.8°C | 94.5% | 0hPa | 2.7V | 00:00:00 | 02:29:04 | 00:00:00 | |
| OE3JTB-15 | 2026-09-02 04:15:22 | 47.15697 | 16.94236 | 57° | 37km/h | 4810m | -2.6m/s | -8.0°C | 95.4% | 0hPa | 2.7V | 00:00:00 | 00:00:00 | 00:00:00 | |
| PETON7-10 | 2026-09-02 04:15:20 | 47.15688 | 16.94213 | 58° | 37km/h | 4815m | -2.7m/s | -8.0°C | 95.4% | 0hPa | 2.7V | 00:00:00 | 00:00:00 | 00:00:00 | |
| PETON7-10 | 2026-09-02 04:15:05 | 47.15614 | 16.94043 | 57° | 37km/h | 4856m | -2.8m/s | -8.3°C | 96.8% | 0hPa | 2.7V | 00:00:00 | 00:00:00 | 00:00:00 | |
| OE3JTB-15 | 2026-09-02 04:14:53 | 47.15555 | 16.93908 | 59° | 35km/h | 4888m | -2.6m/s | -8.4°C | 97.6% | 0hPa | 2.7V | 00:00:00 | 02:28:22 | 00:00:00 | |
| PETON7-10 | 2026-09-02 04:14:50 | 47.15541 | 16.93875 | 60° | 35km/h | 4896m | -2.5m/s | -8.5°C | 98.0% | 0hPa | 2.7V | 00:00:00 | 02:28:19 | 00:00:00 | |
| PETON7-10 | 2026-09-02 04:14:35 | 47.15469 | 16.93708 | 60° | 35km/h | 4935m | -2.7m/s | -8.7°C | 98.2% | 0hPa | 2.7V | 07:35:00 | 00:00:00 | 00:00:00 | |
| OE3JTB-15 | 2026-09-02 04:14:24 | 47.15418 | 16.93585 | 59° | 33km/h | 4964m | -2.4m/s | -8.9°C | 0% | 0hPa | 2.7V | 00:00:00 | 00:00:00 | 00:00:00 | |
| PETON7-10 | 2026-09-02 04:14:20 | 47.15400 | 16.93541 | 60° | 33km/h | 4975m | -2.8m/s | -9.0°C | 98.1% | 0hPa | 2.6V | 00:00:00 | 00:00:00 | 00:00:00 | |
| PETON7-10 | 2026-09-02 04:14:05 | 47.15336 | 16.93380 | 60° | 31km/h | 5017m | -2.9m/s | -9.2°C | 97.8% | 0hPa | 2.6V | 00:00:00 | 02:27:34 | 00:00:00 | |
| PG1ADW-2 | 2026-09-02 04:14:03 | 47.15328 | 16.93360 | 60° | 31km/h | 5023m | -2.8m/s | -9.2°C | 97.7% | 0hPa | 2.6V | 00:00:00 | 00:00:00 | 00:00:00 | |
| OE3JTB-15 | 2026-09-02 04:13:55 | 47.15295 | 16.93278 | 59° | 31km/h | 5046m | -2.8m/s | -9.3°C | 98.1% | 0hPa | 2.6V | 00:00:00 | 00:00:00 | 00:00:00 | |
| PETON7-10 | 2026-09-02 04:13:50 | 47.15274 | 16.93228 | 60° | 31km/h | 5060m | -2.7m/s | -9.3°C | 98.0% | 0hPa | 2.6V | 00:00:00 | 00:00:00 | 00:00:00 | |
| PG1ADW-2 | 2026-09-02 04:13:42 | 47.15240 | 16.93150 | 56° | 31km/h | 5080m | -2.4m/s | -9.4°C | 98.0% | 0hPa | 2.7V | 00:00:00 | 02:27:11 | 00:00:00 | |
| PETON7-10 | 2026-09-02 04:13:35 | 47.15208 | 16.93083 | 55° | 31km/h | 5099m | -2.9m/s | -9.5°C | 98.2% | 0hPa | 2.7V | 00:00:00 | 00:00:00 | 00:00:00 | |
| OE3JTB-15 | 2026-09-02 04:13:26 | 47.15166 | 16.92998 | 53° | 29km/h | 5125m | -3.0m/s | -9.7°C | 98.8% | 0hPa | 2.7V | 00:00:00 | 02:26:55 | 00:00:00 | |
| PG1ADW-2 | 2026-09-02 04:13:22 | 47.15147 | 16.92962 | 54° | 29km/h | 5137m | -3.1m/s | -9.8°C | 98.2% | 0hPa | 2.7V | 00:00:00 | 00:00:00 | 00:00:00 | |
| PETON7-10 | 2026-09-02 04:13:20 | 47.15138 | 16.92944 | 52° | 29km/h | 5144m | -3.3m/s | -9.8°C | 98.0% | 0hPa | 2.7V | 00:00:00 | 02:26:49 | 00:00:00 | |
| PETON7-10 | 2026-09-02 04:13:05 | 47.15067 | 16.92814 | 52° | 29km/h | 5189m | -2.7m/s | -10.1°C | 98.4% | 0hPa | 2.7V | 00:00:00 | 00:00:00 | 00:00:00 | |
| OE3JTB-15 | 2026-09-02 04:12:57 | 47.15029 | 16.92746 | 49° | 27km/h | 5211m | -2.8m/s | -10.2°C | 0% | 0hPa | 2.7V | 07:37:00 | 00:00:00 | 00:00:00 | |
| PETON7-10 | 2026-09-02 04:12:50 | 47.14996 | 16.92690 | 52° | 27km/h | 5230m | -2.6m/s | -10.3°C | 99.6% | 0hPa | 2.7V | 00:00:00 | 00:00:00 | 00:00:00 | |
| PG1ADW-2 | 2026-09-02 04:12:42 | 47.14959 | 16.92626 | 50° | 27km/h | 5252m | -2.7m/s | -10.5°C | 99.4% | 0hPa | 2.7V | 00:00:00 | 00:00:00 | 00:00:00 | |
| PETON7-10 | 2026-09-02 04:12:35 | 47.14927 | 16.92571 | 50° | 29km/h | 5271m | -2.8m/s | -10.6°C | 0% | 0hPa | 2.7V | 07:37:00 | 02:26:04 | 00:00:00 | |
| OE3JTB-15 | 2026-09-02 04:12:28 | 47.14894 | 16.92515 | 50° | 29km/h | 5291m | -2.6m/s | -10.7°C | 0% | 0hPa | 2.7V | 00:00:00 | 00:00:00 | 00:00:00 | |
| PG1ADW-2 | 2026-09-02 04:12:22 | 47.14865 | 16.92468 | 50° | 29km/h | 5307m | -2.8m/s | -10.8°C | 99.6% | 0hPa | 2.7V | 00:00:00 | 02:25:51 | 00:00:00 | |
| PETON7-10 | 2026-09-02 04:12:20 | 47.14856 | 16.92452 | 50° | 29km/h | 5313m | -2.9m/s | -10.8°C | 98.7% | 0hPa | 2.7V | 00:00:00 | 00:00:00 | 00:00:00 | |
| PETON7-10 | 2026-09-02 04:12:05 | 47.14784 | 16.92332 | 50° | 29km/h | 5355m | -2.7m/s | -11.1°C | 97.9% | 0hPa | 2.7V | 00:00:00 | 00:00:00 | 00:00:00 | |
| PG1ADW-2 | 2026-09-02 04:12:02 | 47.14770 | 16.92308 | 50° | 29km/h | 5364m | -2.9m/s | -11.2°C | 98.0% | 0hPa | 2.7V | 00:00:00 | 00:00:00 | 00:00:00 | |
| OE3JTB-15 | 2026-09-02 04:11:59 | 47.14756 | 16.92284 | 51° | 29km/h | 5372m | -2.9m/s | -11.2°C | 97.7% | 0hPa | 2.7V | 00:00:00 | 02:25:28 | 00:00:00 | |
| PETON7-10 | 2026-09-02 04:11:50 | 47.14714 | 16.92208 | 53° | 29km/h | 5396m | -2.7m/s | -11.4°C | 98.2% | 0hPa | 2.7V | 00:00:00 | 02:25:19 | 00:00:00 | |
| PG1ADW-2 | 2026-09-02 04:11:42 | 47.14678 | 16.92140 | 53° | 29km/h | 5418m | -2.5m/s | -11.5°C | 98.0% | 0hPa | 2.7V | 00:00:00 | 00:00:00 | 00:00:00 | |
| PETON7-10 | 2026-09-02 04:11:35 | 47.14645 | 16.92082 | 52° | 29km/h | 5436m | -2.6m/s | -11.6°C | 97.7% | 0hPa | 2.7V | 00:00:00 | 00:00:00 | 00:00:00 | |
| OE3JTB-15 | 2026-09-02 04:11:30 | 47.14622 | 16.92041 | 50° | 27km/h | 5449m | -2.6m/s | -11.7°C | 97.9% | 0hPa | 2.7V | 00:00:00 | 00:00:00 | 00:00:00 | |
| PG1ADW-2 | 2026-09-02 04:11:22 | 47.14585 | 16.91975 | 51° | 27km/h | 5469m | -2.5m/s | -11.8°C | 98.0% | 0hPa | 2.7V | 00:00:00 | 00:00:00 | 00:00:00 | |
| PETON7-10 | 2026-09-02 04:11:20 | 47.14576 | 16.91960 | 49° | 27km/h | 5475m | -2.5m/s | -11.8°C | 97.9% | 0hPa | 2.7V | 00:00:00 | 00:00:00 | 00:00:00 | |
| PETON7-10 | 2026-09-02 04:11:05 | 47.14508 | 16.91841 | 53° | 27km/h | 5514m | -2.7m/s | -12.1°C | 98.4% | 0hPa | 2.7V | 00:00:00 | 02:24:34 | 00:00:00 | |
| PG1ADW-2 | 2026-09-02 04:11:02 | 47.14495 | 16.91817 | 53° | 27km/h | 5522m | -2.4m/s | -12.2°C | 0% | 0hPa | 2.7V | 00:00:00 | 02:24:31 | 00:00:00 | |
| OE3JTB-15 | 2026-09-02 04:11:01 | 47.14490 | 16.91808 | 52° | 31km/h | 5525m | -2.7m/s | -12.2°C | 97.8% | 0hPa | 2.7V | 00:00:00 | 00:00:00 | 00:00:00 | |
| PETON7-10 | 2026-09-02 04:10:50 | 47.14444 | 16.91717 | 53° | 27km/h | 5552m | -2.6m/s | -12.4°C | 98.7% | 0hPa | 2.7V | 00:00:00 | 00:00:00 | 00:00:00 | |
| PG1ADW-2 | 2026-09-02 04:10:42 | 47.14412 | 16.91648 | 57° | 27km/h | 5573m | -2.4m/s | -12.5°C | 97.5% | 0hPa | 2.7V | 00:00:00 | 00:00:00 | 00:00:00 | |
| PETON7-10 | 2026-09-02 04:10:35 | 47.14384 | 16.91588 | 56° | 27km/h | 5591m | -2.6m/s | -12.5°C | 97.2% | 0hPa | 2.7V | 07:39:00 | 00:00:00 | 00:00:00 | |
| PG1ADW-2 | 2026-09-02 04:10:22 | 47.14334 | 16.91477 | 57° | 27km/h | 5625m | -2.6m/s | -12.7°C | 97.7% | 0hPa | 2.7V | 07:40:00 | 00:00:00 | 00:00:00 | |
| PETON7-10 | 2026-09-02 04:10:20 | 47.14326 | 16.91460 | 60° | 27km/h | 5630m | -2.6m/s | -12.8°C | 97.7% | 0hPa | 2.7V | 00:00:00 | 02:23:49 | 00:00:00 | |
| PETON7-10 | 2026-09-02 04:10:05 | 47.14273 | 16.91335 | 58° | 26km/h | 5670m | -2.6m/s | -13.1°C | 98.0% | 0hPa | 2.7V | 00:00:00 | 00:00:00 | 00:00:00 | |
| PG1ADW-2 | 2026-09-02 04:10:02 | 47.14262 | 16.91310 | 58° | 27km/h | 5678m | -2.6m/s | -13.1°C | 97.8% | 0hPa | 2.6V | 00:00:00 | 00:00:00 | 00:00:00 | |
| PETON7-10 | 2026-09-02 04:09:50 | 47.14220 | 16.91211 | 57° | 27km/h | 5711m | -2.9m/s | -13.3°C | 97.3% | 0hPa | 2.6V | 00:00:00 | 00:00:00 | 00:00:00 | |
| PG1ADW-2 | 2026-09-02 04:09:42 | 47.14192 | 16.91142 | 60° | 27km/h | 5734m | -2.9m/s | -13.5°C | 96.9% | 0hPa | 2.6V | 00:00:00 | 02:23:11 | 00:00:00 | |
| PETON7-10 | 2026-09-02 04:09:35 | 47.14169 | 16.91079 | 63° | 27km/h | 5754m | -3.1m/s | -13.7°C | 97.1% | 0hPa | 2.6V | 00:00:00 | 02:23:04 | 00:00:00 | |
| PG1ADW-2 | 2026-09-02 04:09:22 | 47.14130 | 16.90957 | 68° | 31km/h | 5793m | -2.9m/s | -13.9°C | 97.2% | 0hPa | 2.6V | 00:00:00 | 00:00:00 | 00:00:00 | |
| PETON7-10 | 2026-09-02 04:09:20 | 47.14124 | 16.90937 | 70° | 31km/h | 5799m | -2.7m/s | -14.0°C | 94.9% | 0hPa | 2.6V | 00:00:00 | 00:00:00 | 00:00:00 | |
| PETON7-10 | 2026-09-02 04:09:05 | 47.14084 | 16.90775 | 73° | 33km/h | 5841m | -2.6m/s | -14.3°C | 97.0% | 0hPa | 2.6V | 00:00:00 | 00:00:00 | 00:00:00 | |
| PG1ADW-2 | 2026-09-02 04:09:02 | 47.14076 | 16.90741 | 73° | 35km/h | 5849m | -2.8m/s | -14.4°C | 96.6% | 0hPa | 2.6V | 00:00:00 | 00:00:00 | 00:00:00 | |
| PETON7-10 | 2026-09-02 04:08:50 | 47.14048 | 16.90597 | 78° | 37km/h | 5884m | -3.0m/s | -14.6°C | 95.4% | 0hPa | 2.6V | 00:00:00 | 02:22:19 | 00:00:00 | |
| PG1ADW-2 | 2026-09-02 04:08:42 | 47.14032 | 16.90493 | 77° | 38km/h | 5907m | -2.4m/s | -14.8°C | 96.2% | 0hPa | 2.6V | 00:00:00 | 00:00:00 | 00:00:00 | |
| PETON7-10 | 2026-09-02 04:08:35 | 47.14019 | 16.90399 | 81° | 38km/h | 5927m | -2.5m/s | -14.9°C | 96.0% | 0hPa | 2.6V | 07:41:00 | 00:00:00 | 00:00:00 | |
| PG1ADW-2 | 2026-09-02 04:08:22 | 47.14001 | 16.90218 | 85° | 40km/h | 5964m | -3.0m/s | -15.0°C | 95.0% | 0hPa | 2.6V | 00:00:00 | 02:21:51 | 00:00:00 | |
| PETON7-10 | 2026-09-02 04:08:20 | 47.13999 | 16.90188 | 84° | 40km/h | 5970m | -2.9m/s | -15.1°C | 95.1% | 0hPa | 2.6V | 00:00:00 | 00:00:00 | 00:00:00 | |
| PETON7-10 | 2026-09-02 04:08:05 | 47.13985 | 16.89967 | 86° | 38km/h | 6013m | -2.9m/s | -15.3°C | 93.9% | 0hPa | 2.6V | 00:00:00 | 02:21:34 | 00:00:00 | |
| PG1ADW-2 | 2026-09-02 04:08:02 | 47.13983 | 16.89923 | 85° | 38km/h | 6022m | -2.7m/s | -15.4°C | 94.1% | 0hPa | 2.6V | 00:00:00 | 00:00:00 | 00:00:00 | |
| PETON7-10 | 2026-09-02 04:07:50 | 47.13969 | 16.89751 | 82° | 38km/h | 6055m | -2.5m/s | -15.6°C | 94.2% | 0hPa | 2.6V | 00:00:00 | 00:00:00 | 00:00:00 | |
| PG1ADW-2 | 2026-09-02 04:07:42 | 47.13956 | 16.89640 | 80° | 38km/h | 6078m | -2.7m/s | -15.8°C | 94.5% | 0hPa | 2.7V | 07:42:00 | 00:00:00 | 00:00:00 | |
| PETON7-10 | 2026-09-02 04:07:35 | 47.13942 | 16.89542 | 77° | 37km/h | 6098m | -2.7m/s | -15.9°C | 94.9% | 0hPa | 2.7V | 00:00:00 | 00:00:00 | 00:00:00 | |
| PG1ADW-2 | 2026-09-02 04:07:22 | 47.13912 | 16.89370 | 73° | 35km/h | 6137m | -3.0m/s | -16.2°C | 92.7% | 0hPa | 2.7V | 00:00:00 | 00:00:00 | 00:00:00 | |
| PETON7-10 | 2026-09-02 04:07:20 | 47.13906 | 16.89345 | 73° | 35km/h | 6143m | -3.3m/s | -16.3°C | 92.6% | 0hPa | 2.6V | 00:00:00 | 02:20:49 | 00:00:00 | |
| PETON7-10 | 2026-09-02 04:07:05 | 47.13862 | 16.89163 | 69° | 33km/h | 6191m | -2.9m/s | -16.7°C | 92.4% | 0hPa | 2.6V | 00:00:00 | 00:00:00 | 00:00:00 | |
| PG1ADW-2 | 2026-09-02 04:07:02 | 47.13853 | 16.89128 | 68° | 33km/h | 6201m | -3.0m/s | -16.8°C | 92.7% | 0hPa | 2.6V | 00:00:00 | 02:20:31 | 00:00:00 | |
| PETON7-10 | 2026-09-02 04:06:50 | 47.13817 | 16.88987 | 69° | 33km/h | 6238m | -3.0m/s | -17.1°C | 93.1% | 0hPa | 2.6V | 00:00:00 | 00:00:00 | 00:00:00 | |
| PG1ADW-2 | 2026-09-02 04:06:42 | 47.13792 | 16.88897 | 69° | 31km/h | 6262m | -2.9m/s | -17.3°C | 93.6% | 0hPa | 2.6V | 00:00:00 | 00:00:00 | 00:00:00 | |
| PETON7-10 | 2026-09-02 04:06:35 | 47.13771 | 16.88821 | 68° | 31km/h | 6283m | -3.0m/s | -17.4°C | 93.9% | 0hPa | 2.6V | 07:43:00 | 02:20:04 | 00:00:00 | |
| PG1ADW-2 | 2026-09-02 04:06:22 | 47.13730 | 16.88684 | 64° | 27km/h | 6321m | -2.8m/s | -17.7°C | 94.6% | 0hPa | 2.6V | 00:00:00 | 00:00:00 | 00:00:00 | |
| OE3JTB-15 | 2026-09-02 04:06:21 | 47.13726 | 16.88674 | 64° | 27km/h | 6323m | -3.0m/s | -17.7°C | 94.6% | 0hPa | 2.6V | 00:00:00 | 00:00:00 | 00:00:00 | |
| PETON7-10 | 2026-09-02 04:06:20 | 47.13723 | 16.88665 | 63° | 27km/h | 6326m | -2.7m/s | -17.7°C | 94.8% | 0hPa | 2.6V | 00:00:00 | 00:00:00 | 00:00:00 | |
| PETON7-10 | 2026-09-02 04:06:05 | 47.13672 | 16.88528 | 60° | 26km/h | 6369m | -3.1m/s | -18.0°C | 95.6% | 0hPa | 2.6V | 00:00:00 | 00:00:00 | 00:00:00 | |
| PG1ADW-2 | 2026-09-02 04:06:02 | 47.13662 | 16.88502 | 59° | 26km/h | 6378m | -3.0m/s | -18.0°C | 96.0% | 0hPa | 2.6V | 00:00:00 | 00:00:00 | 00:00:00 | |
| OE3JTB-15 | 2026-09-02 04:05:52 | 47.13627 | 16.88422 | 60° | 26km/h | 6408m | -3.0m/s | -18.2°C | 96.7% | 0hPa | 2.6V | 00:00:00 | 00:00:00 | 00:00:00 | |
| PETON7-10 | 2026-09-02 04:05:50 | 47.13621 | 16.88406 | 58° | 26km/h | 6414m | -3.0m/s | -18.3°C | 96.7% | 0hPa | 2.6V | 00:00:00 | 02:19:19 | 00:00:00 | |
| PG1ADW-2 | 2026-09-02 04:05:42 | 47.13594 | 16.88342 | 60° | 24km/h | 6439m | -3.0m/s | -18.4°C | 96.9% | 0hPa | 2.6V | 00:00:00 | 02:19:11 | 00:00:00 | |
| OE3JTB-15 | 2026-09-02 04:05:23 | 47.13534 | 16.88194 | 62° | 24km/h | 6500m | -3.2m/s | -18.8°C | 96.1% | 0hPa | 2.6V | 07:45:00 | 02:18:52 | 00:00:00 | |
| PG1ADW-2 | 2026-09-02 04:05:22 | 47.13532 | 16.88186 | 63° | 24km/h | 6503m | -3.2m/s | -18.8°C | 96.0% | 0hPa | 2.6V | 00:00:00 | 00:00:00 | 00:00:00 | |
| PETON7-10 | 2026-09-02 04:05:20 | 47.13526 | 16.88170 | 62° | 24km/h | 6510m | -3.3m/s | -18.9°C | 96.1% | 0hPa | 2.5V | 00:00:00 | 00:00:00 | 00:00:00 | |
| PETON7-10 | 2026-09-02 04:05:05 | 47.13484 | 16.88047 | 65° | 26km/h | 6559m | -3.2m/s | -19.2°C | 96.5% | 0hPa | 2.5V | 00:00:00 | 02:18:34 | 00:00:00 | |
| PG1ADW-2 | 2026-09-02 04:05:02 | 47.13476 | 16.88022 | 66° | 26km/h | 6568m | -2.9m/s | -19.2°C | 96.6% | 0hPa | 2.5V | 07:45:00 | 00:00:00 | 00:00:00 | |
| PETON7-10 | 2026-09-02 04:04:50 | 47.13449 | 16.87920 | 69° | 27km/h | 6607m | -3.4m/s | -19.5°C | 95.4% | 0hPa | 2.5V | 00:00:00 | 00:00:00 | 00:00:00 | |
| PG1ADW-2 | 2026-09-02 04:04:42 | 47.13429 | 16.87846 | 68° | 29km/h | 6633m | -3.5m/s | -19.6°C | 95.1% | 0hPa | 2.6V | 00:00:00 | 00:00:00 | 00:00:00 | |
| PETON7-10 | 2026-09-02 04:04:35 | 47.13411 | 16.87775 | 73° | 31km/h | 6657m | -3.1m/s | -19.8°C | 95.8% | 0hPa | 2.6V | 07:45:00 | 00:00:00 | 00:00:00 | |
| OE3JTB-15 | 2026-09-02 04:04:24 | 47.13384 | 16.87657 | 71° | 35km/h | 6694m | -3.4m/s | -20.0°C | 96.2% | 0hPa | 2.6V | 00:00:00 | 00:00:00 | 00:00:00 | |
| PG1ADW-2 | 2026-09-02 04:04:22 | 47.13379 | 16.87634 | 71° | 33km/h | 6700m | -3.4m/s | -20.1°C | 95.6% | 0hPa | 2.6V | 00:00:00 | 02:17:51 | 00:00:00 | |
| PETON7-10 | 2026-09-02 04:04:20 | 47.13373 | 16.87611 | 70° | 33km/h | 6707m | -3.3m/s | -20.1°C | 95.8% | 0hPa | 2.5V | 00:00:00 | 02:17:49 | 00:00:00 | |
| PETON7-10 | 2026-09-02 04:04:05 | 47.13331 | 16.87437 | 71° | 35km/h | 6760m | -3.5m/s | -20.5°C | 95.1% | 0hPa | 2.5V | 00:00:00 | 00:00:00 | 00:00:00 | |
| PG1ADW-2 | 2026-09-02 04:04:02 | 47.13323 | 16.87401 | 72° | 35km/h | 6770m | -3.5m/s | -20.6°C | 95.0% | 0hPa | 2.5V | 00:00:00 | 00:00:00 | 00:00:00 | |
| OE3JTB-15 | 2026-09-02 04:03:53 | 47.13296 | 16.87292 | 70° | 35km/h | 6802m | -3.5m/s | -20.8°C | 95.8% | 0hPa | 2.5V | 00:00:00 | 02:17:22 | 00:00:00 | |
| PETON7-10 | 2026-09-02 04:03:50 | 47.13288 | 16.87256 | 71° | 35km/h | 6812m | -3.7m/s | -20.9°C | 95.9% | 0hPa | 2.5V | 00:00:00 | 00:00:00 | 00:00:00 | |
| PG1ADW-2 | 2026-09-02 04:03:42 | 47.13264 | 16.87158 | 72° | 37km/h | 6840m | -3.4m/s | -21.1°C | 95.8% | 0hPa | 2.5V | 00:00:00 | 00:00:00 | 00:00:00 | |
| PETON7-10 | 2026-09-02 04:03:35 | 47.13244 | 16.87071 | 73° | 37km/h | 6865m | -3.4m/s | -21.3°C | 97.0% | 0hPa | 2.5V | 00:00:00 | 02:17:04 | 00:00:00 | |
| OE3JTB-15 | 2026-09-02 04:03:24 | 47.13213 | 16.86931 | 72° | 37km/h | 6903m | -3.5m/s | -21.5°C | 96.9% | 0hPa | 2.5V | 00:00:00 | 00:00:00 | 00:00:00 | |
| PG1ADW-2 | 2026-09-02 04:03:22 | 47.13207 | 16.86905 | 72° | 37km/h | 6910m | -3.3m/s | -21.6°C | 96.6% | 0hPa | 2.5V | 00:00:00 | 00:00:00 | 00:00:00 | |
| PETON7-10 | 2026-09-02 04:03:20 | 47.13202 | 16.86880 | 73° | 37km/h | 6917m | -3.4m/s | -21.6°C | 97.1% | 0hPa | 2.6V | 00:00:00 | 00:00:00 | 00:00:00 | |
| PETON7-10 | 2026-09-02 04:03:05 | 47.13160 | 16.86688 | 72° | 37km/h | 6967m | -3.4m/s | -22.0°C | 98.3% | 0hPa | 2.6V | 00:00:00 | 00:00:00 | 00:00:00 | |
| PG1ADW-2 | 2026-09-02 04:03:02 | 47.13151 | 16.86649 | 72° | 37km/h | 6977m | -3.4m/s | -22.1°C | 98.9% | 0hPa | 2.6V | 00:00:00 | 02:16:31 | 00:00:00 | |
| OE3JTB-15 | 2026-09-02 04:02:55 | 47.13130 | 16.86559 | 73° | 37km/h | 7001m | -3.3m/s | -22.3°C | 99.3% | 0hPa | 2.6V | 00:00:00 | 00:00:00 | 00:00:00 | |
| PETON7-10 | 2026-09-02 04:02:50 | 47.13116 | 16.86495 | 72° | 37km/h | 7018m | -3.3m/s | -22.4°C | 99.4% | 0hPa | 2.6V | 00:00:00 | 02:16:19 | 00:00:00 | |
| PG1ADW-2 | 2026-09-02 04:02:42 | 47.13093 | 16.86393 | 72° | 37km/h | 7045m | -3.5m/s | -22.6°C | 99.4% | 0hPa | 2.6V | 00:00:00 | 00:00:00 | 00:00:00 | |
| PETON7-10 | 2026-09-02 04:02:35 | 47.13072 | 16.86303 | 72° | 37km/h | 7068m | -3.0m/s | -22.8°C | 99.2% | 0hPa | 2.6V | 07:47:00 | 00:00:00 | 00:00:00 | |
| OE3JTB-15 | 2026-09-02 04:02:26 | 47.13047 | 16.86186 | 75° | 38km/h | 7095m | -2.7m/s | -23.0°C | 99.8% | 0hPa | 2.5V | 00:00:00 | 02:15:55 | 00:00:00 | |
| PG1ADW-2 | 2026-09-02 04:02:22 | 47.13038 | 16.86135 | 77° | 38km/h | 7106m | -2.8m/s | -23.1°C | 99.5% | 0hPa | 2.5V | 07:48:00 | 00:00:00 | 00:00:00 | |
| PETON7-10 | 2026-09-02 04:02:20 | 47.13034 | 16.86108 | 77° | 38km/h | 7112m | -2.5m/s | -23.1°C | 99.5% | 0hPa | 2.6V | 00:00:00 | 00:00:00 | 00:00:00 | |
| PETON7-10 | 2026-09-02 04:02:05 | 47.13003 | 16.85901 | 80° | 38km/h | 7154m | -2.9m/s | -23.5°C | 99.0% | 0hPa | 2.6V | 00:00:00 | 02:15:34 | 00:00:00 | |
| PG1ADW-2 | 2026-09-02 04:02:02 | 47.12997 | 16.85858 | 82° | 40km/h | 7162m | -2.8m/s | -23.5°C | 96.3% | 0hPa | 2.6V | 00:00:00 | 00:00:00 | 00:00:00 | |
| PETON7-10 | 2026-09-02 04:01:50 | 47.12978 | 16.85686 | 81° | 40km/h | 7197m | -2.9m/s | -23.7°C | 97.4% | 0hPa | 2.6V | 00:00:00 | 00:00:00 | 00:00:00 | |
| OE3JTB-15 | 2026-09-02 04:01:47 | 47.12973 | 16.85642 | 80° | 42km/h | 7205m | -2.7m/s | -23.8°C | 97.4% | 0hPa | 2.6V | 00:00:00 | 00:00:00 | 00:00:00 | |
| PG1ADW-2 | 2026-09-02 04:01:42 | 47.12964 | 16.85569 | 81° | 42km/h | 7220m | -2.7m/s | -23.9°C | 97.5% | 0hPa | 2.6V | 00:00:00 | 02:15:11 | 00:00:00 | |
| PETON7-10 | 2026-09-02 04:01:35 | 47.12952 | 16.85466 | 80° | 42km/h | 7240m | -2.8m/s | -24.0°C | 97.8% | 0hPa | 2.6V | 00:00:00 | 00:00:00 | 00:00:00 | |
| PG1ADW-2 | 2026-09-02 04:01:22 | 47.12925 | 16.85264 | 78° | 46km/h | 7279m | -3.2m/s | -24.4°C | 0% | 0hPa | 2.6V | 00:00:00 | 00:00:00 | 00:00:00 | |
| PETON7-10 | 2026-09-02 04:01:20 | 47.12921 | 16.85232 | 79° | 46km/h | 7285m | -3.0m/s | -24.4°C | 0% | 0hPa | 2.6V | 00:00:00 | 02:14:49 | 00:00:00 | |
| OE3JTB-15 | 2026-09-02 04:01:16 | 47.12912 | 16.85168 | 80° | 46km/h | 7298m | -3.1m/s | -24.5°C | 99.7% | 0hPa | 2.6V | 07:49:00 | 00:00:00 | 00:00:00 | |
| PETON7-10 | 2026-09-02 04:01:05 | 47.12887 | 16.84988 | 79° | 47km/h | 7332m | -3.1m/s | -24.7°C | 0% | 0hPa | 2.6V | 00:00:00 | 00:00:00 | 00:00:00 | |
| PG1ADW-2 | 2026-09-02 04:01:02 | 47.12880 | 16.84937 | 79° | 47km/h | 7341m | -3.1m/s | -24.7°C | 0% | 0hPa | 2.6V | 00:00:00 | 00:00:00 | 00:00:00 | |
| PETON7-10 | 2026-09-02 04:00:50 | 47.12852 | 16.84730 | 79° | 47km/h | 7379m | -3.0m/s | -25.0°C | 0% | 0hPa | 2.6V | 00:00:00 | 00:00:00 | 00:00:00 | |
| OE3JTB-15 | 2026-09-02 04:00:47 | 47.12845 | 16.84679 | 79° | 49km/h | 7388m | -2.9m/s | -25.1°C | 0% | 0hPa | 2.6V | 00:00:00 | 02:14:16 | 00:00:00 | |
| PG1ADW-2 | 2026-09-02 04:00:42 | 47.12832 | 16.84595 | 77° | 49km/h | 7403m | -3.3m/s | -25.2°C | 0% | 0hPa | 2.6V | 00:00:00 | 00:00:00 | 00:00:00 | |
| PETON7-10 | 2026-09-02 04:00:35 | 47.12814 | 16.84477 | 79° | 49km/h | 7426m | -2.9m/s | -25.4°C | 0% | 0hPa | 2.6V | 07:49:00 | 02:14:04 | 00:00:00 | |
| PG1ADW-2 | 2026-09-02 04:00:22 | 47.12775 | 16.84245 | 76° | 51km/h | 7467m | -3.1m/s | -25.7°C | 0% | 0hPa | 2.6V | 00:00:00 | 02:13:51 | 00:00:00 | |
| PETON7-10 | 2026-09-02 04:00:20 | 47.12769 | 16.84208 | 77° | 51km/h | 7473m | -3.1m/s | -25.8°C | 0% | 0hPa | 2.5V | 00:00:00 | 00:00:00 | 00:00:00 | |
| OE3JTB-15 | 2026-09-02 04:00:18 | 47.12762 | 16.84171 | 78° | 53km/h | 7479m | -3.5m/s | -25.8°C | 0% | 0hPa | 2.6V | 00:00:00 | 00:00:00 | 00:00:00 | |
| PETON7-10 | 2026-09-02 04:00:05 | 47.12726 | 16.83929 | 72° | 53km/h | 7520m | -2.7m/s | -26.1°C | 0% | 0hPa | 2.6V | 00:00:00 | 00:00:00 | 00:00:00 | |
| PG1ADW-2 | 2026-09-02 04:00:02 | 47.12713 | 16.83873 | 71° | 55km/h | 7528m | -2.8m/s | -26.2°C | 0% | 0hPa | 2.6V | 00:00:00 | 00:00:00 | 00:00:00 | |
| OE5DRO-10 | 2026-09-02 03:59:53 | 47.12678 | 16.83700 | 72° | 53km/h | 7562m | -3.5m/s | -26.5°C | 0% | 0hPa | 2.6V | 00:00:00 | 00:00:00 | 00:00:00 | |
| PETON7-10 | 2026-09-02 03:59:50 | 47.12665 | 16.83644 | 73° | 55km/h | 7573m | -3.7m/s | -26.6°C | 0% | 0hPa | 2.6V | 00:00:00 | 02:13:19 | 00:00:00 | |
| OE3JTB-15 | 2026-09-02 03:59:49 | 47.12661 | 16.83625 | 73° | 55km/h | 7576m | -3.7m/s | -26.6°C | 0% | 0hPa | 2.6V | 00:00:00 | 00:00:00 | 00:00:00 | |
| PG1ADW-2 | 2026-09-02 03:59:42 | 47.12628 | 16.83492 | 69° | 55km/h | 7601m | -3.7m/s | -26.8°C | 0% | 0hPa | 2.6V | 07:50:00 | 00:00:00 | 00:00:00 | |
| PETON7-10 | 2026-09-02 03:59:35 | 47.12593 | 16.83360 | 70° | 55km/h | 7629m | -3.8m/s | -27.1°C | 0% | 0hPa | 2.6V | 00:00:00 | 00:00:00 | 00:00:00 | |
| PG1ADW-2 | 2026-09-02 03:59:22 | 47.12528 | 16.83112 | 68° | 53km/h | 7673m | -2.9m/s | -27.5°C | 0% | 0hPa | 2.6V | 00:00:00 | 00:00:00 | 00:00:00 | |
| PETON7-10 | 2026-09-02 03:59:20 | 47.12518 | 16.83075 | 69° | 53km/h | 7679m | -3.1m/s | -27.6°C | 0% | 0hPa | 2.5V | 00:00:00 | 00:00:00 | 00:00:00 | |
| PETON7-10 | 2026-09-02 03:59:05 | 47.12445 | 16.82798 | 70° | 53km/h | 7724m | -3.4m/s | -28.1°C | 0% | 0hPa | 2.5V | 00:00:00 | 02:12:34 | 00:00:00 | |
| OE5DRO-10 | 2026-09-02 03:59:03 | 47.12436 | 16.82763 | 71° | 53km/h | 7731m | -3.3m/s | -28.2°C | 0% | 0hPa | 2.5V | 00:00:00 | 00:00:00 | 00:00:00 | |
| PG1ADW-2 | 2026-09-02 03:59:02 | 47.12432 | 16.82745 | 71° | 55km/h | 7734m | -3.4m/s | -28.3°C | 0% | 0hPa | 2.5V | 00:00:00 | 02:12:31 | 00:00:00 | |
| OE3JTB-15 | 2026-09-02 03:58:51 | 47.12382 | 16.82539 | 71° | 57km/h | 7771m | -3.0m/s | -28.8°C | 0% | 0hPa | 2.5V | 00:00:00 | 00:00:00 | 00:00:00 | |
| PETON7-10 | 2026-09-02 03:58:50 | 47.12377 | 16.82519 | 72° | 57km/h | 7774m | -3.2m/s | -28.9°C | 0% | 0hPa | 2.6V | 00:00:00 | 00:00:00 | 00:00:00 | |
| OE5DRO-10 | 2026-09-02 03:58:44 | 47.12351 | 16.82403 | 73° | 58km/h | 7793m | -3.2m/s | -29.0°C | 0% | 0hPa | 2.5V | 00:00:00 | 00:00:00 | 00:00:00 | |
| PG1ADW-2 | 2026-09-02 03:58:42 | 47.12343 | 16.82364 | 73° | 57km/h | 7800m | -3.3m/s | -28.8°C | 0% | 0hPa | 2.5V | 00:00:00 | 00:00:00 | 00:00:00 | |
| PETON7-10 | 2026-09-02 03:58:35 | 47.12314 | 16.82223 | 74° | 58km/h | 7821m | -3.2m/s | -28.9°C | 0% | 0hPa | 2.5V | 07:51:00 | 00:00:00 | 00:00:00 | |
| PG1ADW-2 | 2026-09-02 03:58:22 | 47.12262 | 16.81956 | 74° | 60km/h | 7864m | -3.2m/s | -28.9°C | 98.2% | 0hPa | 2.5V | 00:00:00 | 00:00:00 | 00:00:00 | |
| PETON7-10 | 2026-09-02 03:58:20 | 47.12254 | 16.81915 | 74° | 58km/h | 7870m | -3.3m/s | -29.0°C | 98.1% | 0hPa | 2.5V | 00:00:00 | 02:11:49 | 00:00:00 | |
| OE5DRO-10 | 2026-09-02 03:58:12 | 47.12223 | 16.81747 | 75° | 60km/h | 7896m | -3.1m/s | -29.0°C | 92.4% | 0hPa | 2.5V | 00:00:00 | 00:00:00 | 00:00:00 | |
| PETON7-10 | 2026-09-02 03:58:05 | 47.12196 | 16.81595 | 76° | 62km/h | 7919m | -3.4m/s | -29.2°C | 92.6% | 0hPa | 2.5V | 00:00:00 | 00:00:00 | 00:00:00 | |
| PG1ADW-2 | 2026-09-02 03:58:02 | 47.12184 | 16.81529 | 75° | 62km/h | 7929m | -3.5m/s | -29.3°C | 92.1% | 0hPa | 2.5V | 00:00:00 | 00:00:00 | 00:00:00 | |
| OE5DRO-10 | 2026-09-02 03:57:53 | 47.12147 | 16.81330 | 75° | 64km/h | 7959m | -3.5m/s | -29.4°C | 87.8% | 0hPa | 2.5V | 07:52:00 | 00:00:00 | 00:00:00 | |
| PETON7-10 | 2026-09-02 03:57:50 | 47.12134 | 16.81262 | 76° | 64km/h | 7969m | -3.1m/s | -29.4°C | 86.3% | 0hPa | 2.5V | 00:00:00 | 00:00:00 | 00:00:00 | |
| PG1ADW-2 | 2026-09-02 03:57:42 | 47.12100 | 16.81080 | 75° | 68km/h | 7996m | -3.4m/s | -29.6°C | 85.5% | 0hPa | 2.5V | 00:00:00 | 02:11:11 | 00:00:00 | |
| PETON7-10 | 2026-09-02 03:57:35 | 47.12070 | 16.80916 | 75° | 69km/h | 8020m | -3.1m/s | -29.8°C | 86.0% | 0hPa | 2.5V | 00:00:00 | 02:11:04 | 00:00:00 | |
| OE5DRO-10 | 2026-09-02 03:57:33 | 47.12060 | 16.80867 | 74° | 69km/h | 8027m | -3.3m/s | -29.8°C | 85.9% | 0hPa | 2.5V | 00:00:00 | 00:00:00 | 00:00:00 | |
| OE3JTB-15 | 2026-09-02 03:57:24 | 47.12016 | 16.80647 | 74° | 69km/h | 8057m | -3.2m/s | -30.1°C | 86.1% | 0hPa | 2.5V | 07:53:00 | 00:00:00 | 00:00:00 | |
| PG1ADW-2 | 2026-09-02 03:57:22 | 47.12006 | 16.80598 | 74° | 69km/h | 8063m | -3.3m/s | -30.1°C | 85.9% | 0hPa | 2.6V | 00:00:00 | 00:00:00 | 00:00:00 | |
| PETON7-10 | 2026-09-02 03:57:20 | 47.11996 | 16.80549 | 74° | 69km/h | 8070m | -3.5m/s | -30.2°C | 84.5% | 0hPa | 2.6V | 00:00:00 | 00:00:00 | 00:00:00 | |
| OE5DRO-10 | 2026-09-02 03:57:14 | 47.11966 | 16.80400 | 74° | 71km/h | 8091m | -3.3m/s | -30.3°C | 82.8% | 0hPa | 2.6V | 00:00:00 | 00:00:00 | 00:00:00 | |
| PETON7-10 | 2026-09-02 03:57:05 | 47.11920 | 16.80173 | 74° | 71km/h | 8122m | -3.5m/s | -30.5°C | 79.4% | 0hPa | 2.6V | 00:00:00 | 00:00:00 | 00:00:00 | |
| PG1ADW-2 | 2026-09-02 03:57:02 | 47.11906 | 16.80097 | 75° | 71km/h | 8132m | -3.6m/s | -30.6°C | 78.5% | 0hPa | 2.6V | 07:53:00 | 00:00:00 | 00:00:00 | |
| OE3JTB-15 | 2026-09-02 03:56:55 | 47.11872 | 16.79920 | 74° | 73km/h | 8158m | -3.5m/s | -30.8°C | 76.6% | 0hPa | 2.6V | 00:00:00 | 00:00:00 | 00:00:00 | |
| PETON7-10 | 2026-09-02 03:56:50 | 47.11847 | 16.79793 | 75° | 73km/h | 8176m | -3.4m/s | -30.9°C | 76.5% | 0hPa | 2.6V | 00:00:00 | 02:10:19 | 00:00:00 | |
| PG1ADW-2 | 2026-09-02 03:56:42 | 47.11808 | 16.79586 | 75° | 73km/h | 8203m | -3.3m/s | -31.2°C | 77.5% | 0hPa | 2.6V | 00:00:00 | 00:00:00 | 00:00:00 | |
| OE3JTB-15 | 2026-09-02 03:56:26 | 47.11728 | 16.79167 | 75° | 73km/h | 8260m | -3.5m/s | -31.6°C | 73.0% | 0hPa | 2.6V | 00:00:00 | 02:09:55 | 00:00:00 | |
| PG1ADW-2 | 2026-09-02 03:56:22 | 47.11709 | 16.79061 | 75° | 73km/h | 8274m | -3.5m/s | -31.8°C | 72.7% | 0hPa | 2.6V | 00:00:00 | 02:09:51 | 00:00:00 | |
| PETON7-10 | 2026-09-02 03:56:20 | 47.11699 | 16.79008 | 76° | 73km/h | 8282m | -3.6m/s | -31.8°C | 73.4% | 0hPa | 2.5V | 00:00:00 | 00:00:00 | 00:00:00 | |
| OE5DRO-10 | 2026-09-02 03:56:12 | 47.11661 | 16.78797 | 76° | 73km/h | 8310m | -3.6m/s | -32.1°C | 73.2% | 0hPa | 2.5V | 00:00:00 | 00:00:00 | 00:00:00 | |
| PETON7-10 | 2026-09-02 03:56:05 | 47.11628 | 16.78612 | 76° | 73km/h | 8336m | -3.8m/s | -32.2°C | 70.3% | 0hPa | 2.5V | 00:00:00 | 02:09:34 | 00:00:00 | |
| PG1ADW-2 | 2026-09-02 03:56:02 | 47.11614 | 16.78533 | 76° | 73km/h | 8348m | -3.7m/s | -32.3°C | 69.1% | 0hPa | 2.5V | 00:00:00 | 00:00:00 | 00:00:00 | |
| OE3JTB-15 | 2026-09-02 03:55:57 | 47.11590 | 16.78401 | 75° | 73km/h | 8366m | -3.6m/s | -32.4°C | 66.9% | 0hPa | 2.5V | 00:00:00 | 00:00:00 | 00:00:00 | |
| OE5DRO-10 | 2026-09-02 03:55:53 | 47.11571 | 16.78297 | 75° | 73km/h | 8381m | -3.5m/s | -32.5°C | 65.4% | 0hPa | 2.5V | 00:00:00 | 00:00:00 | 00:00:00 | |
| PETON7-10 | 2026-09-02 03:55:50 | 47.11557 | 16.78219 | 76° | 73km/h | 8392m | -3.7m/s | -32.5°C | 65.3% | 0hPa | 2.5V | 00:00:00 | 00:00:00 | 00:00:00 | |
| PG1ADW-2 | 2026-09-02 03:55:42 | 47.11519 | 16.78009 | 76° | 75km/h | 8422m | -3.6m/s | -32.8°C | 63.8% | 0hPa | 2.5V | 00:00:00 | 00:00:00 | 00:00:00 | |
| PETON7-10 | 2026-09-02 03:55:35 | 47.11487 | 16.77825 | 76° | 75km/h | 8447m | -3.7m/s | -33.0°C | 59.9% | 0hPa | 2.5V | 00:00:00 | 00:00:00 | 00:00:00 | |
| OE5DRO-10 | 2026-09-02 03:55:34 | 47.11483 | 16.77799 | 77° | 75km/h | 8451m | -3.7m/s | -33.0°C | 59.2% | 0hPa | 2.5V | 00:00:00 | 00:00:00 | 00:00:00 | |
| OE3JTB-15 | 2026-09-02 03:55:28 | 47.11455 | 16.77637 | 76° | 77km/h | 8473m | -3.6m/s | -33.2°C | 51.8% | 0hPa | 2.5V | 00:00:00 | 00:00:00 | 00:00:00 | |
| PG1ADW-2 | 2026-09-02 03:55:22 | 47.11427 | 16.77474 | 76° | 77km/h | 8494m | -3.6m/s | -33.3°C | 48.1% | 0hPa | 2.5V | 00:00:00 | 00:00:00 | 00:00:00 | |
| PETON7-10 | 2026-09-02 03:55:20 | 47.11418 | 16.77420 | 77° | 77km/h | 8501m | -3.5m/s | -33.3°C | 46.6% | 0hPa | 2.5V | 00:00:00 | 02:08:49 | 00:00:00 | |
| OE5DRO-10 | 2026-09-02 03:55:15 | 47.11394 | 16.77283 | 76° | 77km/h | 8519m | -3.4m/s | -33.4°C | 35.8% | 0hPa | 2.5V | 07:55:00 | 00:00:00 | 00:00:00 | |
| PETON7-10 | 2026-09-02 03:55:05 | 47.11346 | 16.77010 | 78° | 77km/h | 8555m | -3.4m/s | -33.3°C | 11.8% | 0hPa | 2.5V | 00:00:00 | 00:00:00 | 00:00:00 | |
| PG1ADW-2 | 2026-09-02 03:55:02 | 47.11333 | 16.76927 | 79° | 77km/h | 8566m | -3.7m/s | -33.3°C | 11.5% | 0hPa | 2.6V | 00:00:00 | 02:08:31 | 00:00:00 | |
| OE3JTB-15 | 2026-09-02 03:54:59 | 47.11322 | 16.76843 | 80° | 84km/h | 8576m | -3.4m/s | -33.3°C | 11.1% | 0hPa | 2.6V | 00:00:00 | 02:08:28 | 00:00:00 | |
| OE5DRO-10 | 2026-09-02 03:54:56 | 47.11311 | 16.76760 | 80° | 77km/h | 8587m | -3.7m/s | -33.3°C | 11.1% | 0hPa | 2.6V | 00:00:00 | 00:00:00 | 00:00:00 | |
| PETON7-10 | 2026-09-02 03:54:50 | 47.11289 | 16.76593 | 80° | 78km/h | 8611m | -3.7m/s | -33.5°C | 12.6% | 0hPa | 2.6V | 00:00:00 | 00:00:00 | 00:00:00 | |
| PG1ADW-2 | 2026-09-02 03:54:42 | 47.11260 | 16.76366 | 80° | 78km/h | 8641m | -3.8m/s | -33.6°C | 19.3% | 0hPa | 2.6V | 00:00:00 | 00:00:00 | 00:00:00 | |
| OE5DRO-10 | 2026-09-02 03:54:37 | 47.11243 | 16.76224 | 80° | 78km/h | 8660m | -3.6m/s | -33.8°C | 19.3% | 0hPa | 2.6V | 00:00:00 | 00:00:00 | 00:00:00 | |
| PETON7-10 | 2026-09-02 03:54:35 | 47.11236 | 16.76167 | 80° | 78km/h | 8667m | -3.4m/s | -33.9°C | 21.6% | 0hPa | 2.5V | 07:55:00 | 02:08:04 | 00:00:00 | |
| PG1ADW-2 | 2026-09-02 03:54:22 | 47.11194 | 16.75795 | 81° | 78km/h | 8715m | -4.0m/s | -34.3°C | 24.9% | 0hPa | 2.5V | 07:56:00 | 00:00:00 | 00:00:00 | |
| PETON7-10 | 2026-09-02 03:54:20 | 47.11187 | 16.75738 | 81° | 77km/h | 8723m | -3.9m/s | -34.4°C | 25.8% | 0hPa | 2.5V | 00:00:00 | 00:00:00 | 00:00:00 | |
| OE5DRO-10 | 2026-09-02 03:54:18 | 47.11180 | 16.75681 | 81° | 77km/h | 8731m | -4.0m/s | -34.4°C | 29.2% | 0hPa | 2.6V | 00:00:00 | 00:00:00 | 00:00:00 | |
| PETON7-10 | 2026-09-02 03:54:05 | 47.11140 | 16.75314 | 81° | 77km/h | 8787m | -4.4m/s | -34.9°C | 32.9% | 0hPa | 2.6V | 00:00:00 | 00:00:00 | 00:00:00 | |
| PG1ADW-2 | 2026-09-02 03:54:02 | 47.11130 | 16.75227 | 82° | 78km/h | 8800m | -4.7m/s | -35.1°C | 37.6% | 0hPa | 2.6V | 00:00:00 | 00:00:00 | 00:00:00 | |
| OE5DRO-10 | 2026-09-02 03:53:59 | 47.11121 | 16.75142 | 81° | 78km/h | 8814m | -4.4m/s | -35.2°C | 40.9% | 0hPa | 2.6V | 00:00:00 | 00:00:00 | 00:00:00 | |
| PETON7-10 | 2026-09-02 03:53:50 | 47.11093 | 16.74888 | 82° | 80km/h | 8852m | -4.1m/s | -35.6°C | 36.2% | 0hPa | 2.6V | 00:00:00 | 02:07:19 | 00:00:00 | |
| PG1ADW-2 | 2026-09-02 03:53:42 | 47.11070 | 16.74653 | 83° | 84km/h | 8887m | -4.7m/s | -35.9°C | 33.5% | 0hPa | 2.6V | 00:00:00 | 02:07:11 | 00:00:00 | |
| OE5DRO-10 | 2026-09-02 03:53:40 | 47.11065 | 16.74592 | 83° | 84km/h | 8897m | -4.5m/s | -36.0°C | 35.3% | 0hPa | 2.6V | 00:00:00 | 00:00:00 | 00:00:00 | |
| PETON7-10 | 2026-09-02 03:53:35 | 47.11050 | 16.74442 | 82° | 84km/h | 8918m | -3.8m/s | -36.2°C | 46.8% | 0hPa | 2.5V | 00:00:00 | 00:00:00 | 00:00:00 | |
| PG1ADW-2 | 2026-09-02 03:53:22 | 47.11007 | 16.74039 | 82° | 88km/h | 8974m | -4.1m/s | -36.7°C | 47.4% | 0hPa | 2.5V | 00:00:00 | 00:00:00 | 00:00:00 | |
| OE5DRO-10 | 2026-09-02 03:53:21 | 47.11004 | 16.74007 | 82° | 88km/h | 8978m | -4.2m/s | -36.8°C | 50.2% | 0hPa | 2.6V | 00:00:00 | 00:00:00 | 00:00:00 | |
| PETON7-10 | 2026-09-02 03:53:20 | 47.11000 | 16.73976 | 82° | 88km/h | 8982m | -4.1m/s | -36.8°C | 54.7% | 0hPa | 2.6V | 00:00:00 | 00:00:00 | 00:00:00 | |
| OE3JTB-15 | 2026-09-02 03:53:11 | 47.10966 | 16.73691 | 80° | 88km/h | 9020m | -4.1m/s | -36.8°C | 64.9% | 0hPa | 2.6V | 00:00:00 | 00:00:00 | 00:00:00 | |
| PETON7-10 | 2026-09-02 03:53:05 | 47.10943 | 16.73499 | 81° | 88km/h | 9044m | -4.0m/s | -36.9°C | 64.7% | 0hPa | 2.5V | 00:00:00 | 02:06:34 | 00:00:00 | |
| PG1ADW-2 | 2026-09-02 03:53:02 | 47.10931 | 16.73402 | 80° | 88km/h | 9056m | -4.1m/s | -37.0°C | 64.2% | 0hPa | 2.5V | 00:00:00 | 00:00:00 | 00:00:00 | |
| PETON7-10 | 2026-09-02 03:52:50 | 47.10887 | 16.73016 | 81° | 88km/h | 9105m | -4.1m/s | -37.1°C | 65.2% | 0hPa | 2.5V | 00:00:00 | 00:00:00 | 00:00:00 | |
| OE5DRO-10 | 2026-09-02 03:52:43 | 47.10862 | 16.72792 | 81° | 88km/h | 9134m | -4.1m/s | -36.9°C | 67.8% | 0hPa | 2.5V | 07:57:00 | 00:00:00 | 00:00:00 | |
| PG1ADW-2 | 2026-09-02 03:52:42 | 47.10858 | 16.72760 | 82° | 88km/h | 9138m | -4.0m/s | -36.9°C | 67.9% | 0hPa | 2.6V | 00:00:00 | 00:00:00 | 00:00:00 | |
| PETON7-10 | 2026-09-02 03:52:35 | 47.10836 | 16.72536 | 83° | 86km/h | 9167m | -3.9m/s | -36.9°C | 66.9% | 0hPa | 2.6V | 07:57:00 | 00:00:00 | 00:00:00 | |
| OE5DRO-10 | 2026-09-02 03:52:24 | 47.10800 | 16.72186 | 82° | 86km/h | 9213m | -4.1m/s | -37.2°C | 67.0% | 0hPa | 2.6V | 00:00:00 | 00:00:00 | 00:00:00 | |
| PG1ADW-2 | 2026-09-02 03:52:22 | 47.10794 | 16.72123 | 82° | 86km/h | 9222m | -4.1m/s | -37.3°C | 67.1% | 0hPa | 2.6V | 00:00:00 | 02:05:51 | 00:00:00 | |
| PETON7-10 | 2026-09-02 03:52:20 | 47.10788 | 16.72061 | 83° | 86km/h | 9230m | -4.2m/s | 0°C | 0% | 0hPa | 2.6V | 00:00:00 | 02:05:49 | 00:00:00 | |
| OE3JTB-15 | 2026-09-02 03:52:13 | 47.10766 | 16.71842 | 83° | 86km/h | 9260m | -4.3m/s | -37.5°C | 66.5% | 0hPa | 2.6V | 07:58:00 | 02:05:42 | 00:00:00 | |
| PETON7-10 | 2026-09-02 03:52:05 | 47.10742 | 16.71590 | 83° | 86km/h | 9295m | -4.3m/s | -37.8°C | 67.6% | 0hPa | 2.6V | 00:00:00 | 00:00:00 | 00:00:00 | |
| PG1ADW-2 | 2026-09-02 03:52:02 | 47.10733 | 16.71496 | 83° | 86km/h | 9307m | -4.3m/s | -37.9°C | 66.9% | 0hPa | 2.5V | 00:00:00 | 00:00:00 | 00:00:00 | |
| PETON7-10 | 2026-09-02 03:51:50 | 47.10699 | 16.71120 | 83° | 86km/h | 9360m | -4.3m/s | -38.4°C | 67.5% | 0hPa | 2.5V | 00:00:00 | 00:00:00 | 00:00:00 | |
| OE5DRO-10 | 2026-09-02 03:51:46 | 47.10688 | 16.70995 | 83° | 86km/h | 9377m | -4.2m/s | -38.5°C | 66.7% | 0hPa | 2.5V | 00:00:00 | 00:00:00 | 00:00:00 | |
| OE3JTB-15 | 2026-09-02 03:51:44 | 47.10682 | 16.70932 | 83° | 86km/h | 9386m | -4.2m/s | -38.6°C | 66.2% | 0hPa | 2.6V | 00:00:00 | 00:00:00 | 00:00:00 | |
| PG1ADW-2 | 2026-09-02 03:51:42 | 47.10676 | 16.70870 | 83° | 86km/h | 9395m | -4.2m/s | -38.7°C | 66.7% | 0hPa | 2.5V | 07:58:00 | 00:00:00 | 00:00:00 | |
| PETON7-10 | 2026-09-02 03:51:35 | 47.10656 | 16.70649 | 83° | 86km/h | 9425m | -4.1m/s | -38.9°C | 66.3% | 0hPa | 2.5V | 00:00:00 | 02:05:04 | 00:00:00 | |
| OE5DXL-15 | 2026-09-02 03:51:28 | 47.10636 | 16.70429 | 83° | 86km/h | 9454m | -4.3m/s | -39.2°C | 65.5% | 0hPa | 2.5V | 07:59:00 | 00:00:00 | 00:00:00 | |
| OE5DRO-10 | 2026-09-02 03:51:27 | 47.10633 | 16.70398 | 82° | 86km/h | 9458m | -4.2m/s | -39.2°C | 65.1% | 0hPa | 2.5V | 00:00:00 | 00:00:00 | 00:00:00 | |
| PG1ADW-2 | 2026-09-02 03:51:22 | 47.10618 | 16.70241 | 83° | 86km/h | 9480m | -4.3m/s | -39.4°C | 65.3% | 0hPa | 2.5V | 00:00:00 | 00:00:00 | 00:00:00 | |
| PETON7-10 | 2026-09-02 03:51:20 | 47.10612 | 16.70178 | 82° | 86km/h | 9489m | -4.4m/s | -39.5°C | 65.0% | 0hPa | 2.5V | 00:00:00 | 00:00:00 | 00:00:00 | |
| OE3JTB-15 | 2026-09-02 03:51:15 | 47.10596 | 16.70021 | 83° | 86km/h | 9511m | -4.5m/s | -39.7°C | 63.3% | 0hPa | 2.6V | 00:00:00 | 00:00:00 | 00:00:00 | |
| OE5DRO-10 | 2026-09-02 03:51:08 | 47.10575 | 16.69801 | 82° | 86km/h | 9541m | -4.3m/s | -39.9°C | 63.1% | 0hPa | 2.6V | 00:00:00 | 00:00:00 | 00:00:00 | |
| PETON7-10 | 2026-09-02 03:51:05 | 47.10566 | 16.69708 | 82° | 86km/h | 9555m | -4.4m/s | -40.1°C | 63.6% | 0hPa | 2.6V | 00:00:00 | 00:00:00 | 00:00:00 | |
| PG1ADW-2 | 2026-09-02 03:51:02 | 47.10556 | 16.69614 | 82° | 86km/h | 9568m | -4.3m/s | -40.2°C | 63.9% | 0hPa | 2.6V | 00:00:00 | 02:04:31 | 00:00:00 | |
| OE5DXL-15 | 2026-09-02 03:50:58 | 47.10544 | 16.69488 | 82° | 86km/h | 9585m | -4.2m/s | -40.3°C | 64.1% | 0hPa | 2.6V | 00:00:00 | 00:00:00 | 00:00:00 | |
| PETON7-10 | 2026-09-02 03:50:50 | 47.10519 | 16.69236 | 82° | 86km/h | 9619m | -4.1m/s | -40.6°C | 64.1% | 0hPa | 2.6V | 00:00:00 | 02:04:19 | 00:00:00 | |
| OE5DRO-10 | 2026-09-02 03:50:49 | 47.10516 | 16.69205 | 82° | 86km/h | 9623m | -4.0m/s | -40.7°C | 64.1% | 0hPa | 2.6V | 00:00:00 | 00:00:00 | 00:00:00 | |
| OE3JTB-15 | 2026-09-02 03:50:46 | 47.10506 | 16.69110 | 82° | 88km/h | 9635m | -4.1m/s | -40.8°C | 64.4% | 0hPa | 2.5V | 00:00:00 | 02:04:15 | 00:00:00 | |
| PG1ADW-2 | 2026-09-02 03:50:42 | 47.10493 | 16.68984 | 82° | 88km/h | 9652m | -4.1m/s | -40.9°C | 64.7% | 0hPa | 2.5V | 00:00:00 | 00:00:00 | 00:00:00 | |
| PETON7-10 | 2026-09-02 03:50:35 | 47.10471 | 16.68762 | 82° | 88km/h | 9681m | -4.2m/s | -41.2°C | 65.0% | 0hPa | 2.5V | 07:59:00 | 00:00:00 | 00:00:00 | |
| OE5DRO-10 | 2026-09-02 03:50:30 | 47.10455 | 16.68603 | 82° | 88km/h | 9702m | -4.3m/s | -41.4°C | 66.0% | 0hPa | 2.5V | 00:00:00 | 00:00:00 | 00:00:00 | |
| OE5DXL-15 | 2026-09-02 03:50:28 | 47.10449 | 16.68540 | 82° | 88km/h | 9711m | -4.2m/s | -41.4°C | 66.2% | 0hPa | 2.5V | 00:00:00 | 00:00:00 | 00:00:00 | |
| PG1ADW-2 | 2026-09-02 03:50:22 | 47.10430 | 16.68347 | 82° | 88km/h | 9737m | -4.2m/s | -41.7°C | 66.3% | 0hPa | 2.5V | 00:00:00 | 00:00:00 | 00:00:00 | |
| PETON7-10 | 2026-09-02 03:50:20 | 47.10423 | 16.68282 | 82° | 88km/h | 9745m | -4.4m/s | -41.7°C | 66.2% | 0hPa | 2.5V | 00:00:00 | 00:00:00 | 00:00:00 | |
| OE3JTB-15 | 2026-09-02 03:50:17 | 47.10414 | 16.68186 | 82° | 89km/h | 9758m | -4.2m/s | -41.8°C | 66.0% | 0hPa | 2.5V | 00:00:00 | 00:00:00 | 00:00:00 | |
| OE5DRO-10 | 2026-09-02 03:50:11 | 47.10395 | 16.67993 | 83° | 89km/h | 9784m | -4.3m/s | -42.0°C | 65.4% | 0hPa | 2.6V | 00:00:00 | 00:00:00 | 00:00:00 | |
| PETON7-10 | 2026-09-02 03:50:05 | 47.10376 | 16.67799 | 82° | 89km/h | 9810m | -4.1m/s | -42.1°C | 66.8% | 0hPa | 2.6V | 00:00:00 | 02:03:34 | 00:00:00 | |
| PG1ADW-2 | 2026-09-02 03:50:02 | 47.10366 | 16.67701 | 82° | 89km/h | 9823m | -4.4m/s | -42.2°C | 66.7% | 0hPa | 2.6V | 00:00:00 | 00:00:00 | 00:00:00 | |
| OE5DXL-15 | 2026-09-02 03:49:58 | 47.10353 | 16.67572 | 82° | 91km/h | 9841m | -4.3m/s | -42.4°C | 66.2% | 0hPa | 2.6V | 00:00:00 | 00:00:00 | 00:00:00 | |
| OE5DRO-10 | 2026-09-02 03:49:52 | 47.10333 | 16.67375 | 82° | 91km/h | 9867m | -4.4m/s | -42.6°C | 65.3% | 0hPa | 2.6V | 00:00:00 | 00:00:00 | 00:00:00 | |
| PETON7-10 | 2026-09-02 03:49:50 | 47.10326 | 16.67308 | 82° | 91km/h | 9875m | -4.4m/s | -42.6°C | 65.1% | 0hPa | 2.5V | 00:00:00 | 00:00:00 | 00:00:00 | |
| OE3JTB-15 | 2026-09-02 03:49:48 | 47.10319 | 16.67241 | 82° | 93km/h | 9884m | -4.3m/s | -42.7°C | 64.6% | 0hPa | 2.6V | 00:00:00 | 00:00:00 | 00:00:00 | |
| PG1ADW-2 | 2026-09-02 03:49:42 | 47.10297 | 16.67040 | 81° | 93km/h | 9910m | -4.3m/s | -42.9°C | 63.4% | 0hPa | 2.6V | 00:00:00 | 02:03:11 | 00:00:00 | |
| PETON7-10 | 2026-09-02 03:49:35 | 47.10271 | 16.66804 | 81° | 93km/h | 9940m | -4.4m/s | -42.9°C | 60.7% | 0hPa | 2.6V | 00:00:00 | 00:00:00 | 00:00:00 | |
| OE5DRO-10 | 2026-09-02 03:49:33 | 47.10263 | 16.66736 | 81° | 95km/h | 9949m | -4.4m/s | -43.0°C | 60.1% | 0hPa | 2.6V | 00:00:00 | 00:00:00 | 00:00:00 | |
| OE5DXL-15 | 2026-09-02 03:49:28 | 47.10244 | 16.66565 | 81° | 97km/h | 9972m | -4.4m/s | -43.1°C | 60.0% | 0hPa | 2.6V | 00:00:00 | 00:00:00 | 00:00:00 | |
| PG1ADW-2 | 2026-09-02 03:49:22 | 47.10221 | 16.66360 | 81° | 97km/h | 9998m | -4.5m/s | -43.4°C | 60.1% | 0hPa | 2.6V | 08:01:00 | 00:00:00 | 00:00:00 | |
| PETON7-10 | 2026-09-02 03:49:20 | 47.10213 | 16.66290 | 81° | 97km/h | 10007m | -4.5m/s | -43.4°C | 60.2% | 0hPa | 2.5V | 00:00:00 | 02:02:49 | 00:00:00 | |
| OE3JTB-15 | 2026-09-02 03:49:19 | 47.10209 | 16.66256 | 81° | 99km/h | 10011m | -4.3m/s | -43.5°C | 60.2% | 0hPa | 2.5V | 00:00:00 | 02:02:48 | 00:00:00 | |
| OE5DRO-10 | 2026-09-02 03:49:14 | 47.10190 | 16.66081 | 81° | 99km/h | 10034m | -4.6m/s | -43.7°C | 60.6% | 0hPa | 2.5V | 00:00:00 | 00:00:00 | 00:00:00 | |
| PETON7-10 | 2026-09-02 03:49:05 | 47.10156 | 16.65761 | 82° | 99km/h | 10075m | -4.5m/s | -44.0°C | 61.3% | 0hPa | 2.5V | 08:01:00 | 00:00:00 | 00:00:00 | |
| PG1ADW-2 | 2026-09-02 03:49:02 | 47.10145 | 16.65654 | 82° | 99km/h | 10088m | -4.4m/s | -44.0°C | 61.6% | 0hPa | 2.5V | 00:00:00 | 00:00:00 | 00:00:00 | |
| OE5DXL-15 | 2026-09-02 03:48:58 | 47.10130 | 16.65509 | 82° | 100km/h | 10106m | -4.4m/s | -44.2°C | 61.1% | 0hPa | 2.5V | 00:00:00 | 00:00:00 | 00:00:00 | |
| OE5DRO-10 | 2026-09-02 03:48:55 | 47.10119 | 16.65399 | 82° | 100km/h | 10119m | -4.5m/s | -44.3°C | 61.1% | 0hPa | 2.6V | 08:01:00 | 00:00:00 | 00:00:00 | |
| OE3JTB-15 | 2026-09-02 03:48:50 | 47.10101 | 16.65216 | 82° | 100km/h | 10142m | -4.6m/s | -44.5°C | 61.6% | 0hPa | 2.6V | 08:01:00 | 00:00:00 | 00:00:00 | |
| PG1ADW-2 | 2026-09-02 03:48:42 | 47.10068 | 16.64925 | 81° | 100km/h | 10178m | -4.4m/s | -44.7°C | 62.4% | 0hPa | 2.5V | 00:00:00 | 00:00:00 | 00:00:00 | |
| OE5DRO-10 | 2026-09-02 03:48:36 | 47.10042 | 16.64707 | 81° | 102km/h | 10205m | -4.3m/s | -45.0°C | 63.9% | 0hPa | 2.5V | 00:00:00 | 00:00:00 | 00:00:00 | |
| PETON7-10 | 2026-09-02 03:48:35 | 47.10038 | 16.64670 | 81° | 102km/h | 10209m | -4.4m/s | -45.0°C | 64.0% | 0hPa | 2.5V | 00:00:00 | 02:02:04 | 00:00:00 | |
| OE5DXL-15 | 2026-09-02 03:48:28 | 47.10007 | 16.64411 | 80° | 104km/h | 10240m | -4.3m/s | -45.2°C | 65.2% | 0hPa | 2.5V | 00:00:00 | 00:00:00 | 00:00:00 | |
| PG1ADW-2 | 2026-09-02 03:48:22 | 47.09979 | 16.64188 | 80° | 104km/h | 10267m | -4.5m/s | -45.4°C | 65.7% | 0hPa | 2.5V | 00:00:00 | 02:01:51 | 00:00:00 | |
| OE3JTB-15 | 2026-09-02 03:48:21 | 47.09975 | 16.64151 | 80° | 104km/h | 10271m | -4.3m/s | -45.5°C | 65.7% | 0hPa | 2.5V | 00:00:00 | 00:00:00 | 00:00:00 | |
| PETON7-10 | 2026-09-02 03:48:20 | 47.09970 | 16.64114 | 80° | 104km/h | 10276m | -4.4m/s | -45.5°C | 65.8% | 0hPa | 2.5V | 00:00:00 | 00:00:00 | 00:00:00 | |
| OE5DRO-10 | 2026-09-02 03:48:17 | 47.09956 | 16.64002 | 80° | 104km/h | 10289m | -4.5m/s | -45.6°C | 65.5% | 0hPa | 2.5V | 00:00:00 | 00:00:00 | 00:00:00 | |
| PETON7-10 | 2026-09-02 03:48:05 | 47.09901 | 16.63548 | 80° | 104km/h | 10342m | -4.4m/s | -46.0°C | 65.5% | 0hPa | 2.5V | 00:00:00 | 00:00:00 | 00:00:00 | |
| PG1ADW-2 | 2026-09-02 03:48:02 | 47.09887 | 16.63433 | 80° | 104km/h | 10356m | -4.4m/s | -46.1°C | 65.7% | 0hPa | 2.5V | 00:00:00 | 00:00:00 | 00:00:00 | |
| OE5DRO-10 | 2026-09-02 03:47:58 | 47.09868 | 16.63281 | 80° | 104km/h | 10373m | -4.5m/s | -46.3°C | 66.4% | 0hPa | 2.5V | 00:00:00 | 00:00:00 | 00:00:00 | |
| OE3JTB-15 | 2026-09-02 03:47:52 | 47.09839 | 16.63054 | 80° | 104km/h | 10399m | -4.3m/s | -46.5°C | 66.9% | 0hPa | 2.5V | 00:00:00 | 02:01:21 | 00:00:00 | |
| PETON7-10 | 2026-09-02 03:47:50 | 47.09829 | 16.62978 | 80° | 104km/h | 10409m | -4.3m/s | -46.6°C | 66.9% | 0hPa | 2.5V | 00:00:00 | 02:01:19 | 00:00:00 | |
| PG1ADW-2 | 2026-09-02 03:47:42 | 47.09790 | 16.62674 | 79° | 104km/h | 10444m | -4.4m/s | -46.9°C | 66.9% | 0hPa | 2.5V | 00:00:00 | 00:00:00 | 00:00:00 | |
| OE5DRO-10 | 2026-09-02 03:47:39 | 47.09773 | 16.62561 | 78° | 104km/h | 10457m | -4.4m/s | -47.0°C | 66.7% | 0hPa | 2.5V | 00:00:00 | 00:00:00 | 00:00:00 | |
| OE5DXL-15 | 2026-09-02 03:47:28 | 47.09712 | 16.62145 | 78° | 104km/h | 10504m | -4.3m/s | -47.5°C | 67.5% | 0hPa | 2.5V | 08:03:00 | 00:00:00 | 00:00:00 | |
| OE3JTB-15 | 2026-09-02 03:47:23 | 47.09684 | 16.61957 | 78° | 106km/h | 10526m | -4.3m/s | -47.6°C | 68.1% | 0hPa | 2.5V | 00:00:00 | 00:00:00 | 00:00:00 | |
| PG1ADW-2 | 2026-09-02 03:47:22 | 47.09677 | 16.61919 | 77° | 104km/h | 10531m | -4.3m/s | -47.6°C | 68.2% | 0hPa | 2.5V | 00:00:00 | 00:00:00 | 00:00:00 | |
| OE5DRO-10 | 2026-09-02 03:47:20 | 47.09666 | 16.61844 | 77° | 104km/h | 10539m | -4.2m/s | -47.7°C | 68.3% | 0hPa | 2.5V | 00:00:00 | 00:00:00 | 00:00:00 | |
| PETON7-10 | 2026-09-02 03:47:05 | 47.09576 | 16.61277 | 78° | 106km/h | 10604m | -4.2m/s | -48.3°C | 69.0% | 0hPa | 2.5V | 00:00:00 | 02:00:34 | 00:00:00 | |
| PG1ADW-2 | 2026-09-02 03:47:02 | 47.09558 | 16.61163 | 77° | 108km/h | 10617m | -4.2m/s | -48.4°C | 69.0% | 0hPa | 2.5V | 00:00:00 | 02:00:31 | 00:00:00 | |
| OE5DRO-10 | 2026-09-02 03:47:01 | 47.09552 | 16.61125 | 78° | 108km/h | 10621m | -4.3m/s | -48.4°C | 68.9% | 0hPa | 2.5V | 00:00:00 | 00:00:00 | 00:00:00 | |
| OE5DXL-15 | 2026-09-02 03:46:58 | 47.09534 | 16.61011 | 78° | 110km/h | 10634m | -4.4m/s | -48.6°C | 68.9% | 0hPa | 2.5V | 00:00:00 | 00:00:00 | 00:00:00 | |
| OE3JTB-15 | 2026-09-02 03:46:54 | 47.09510 | 16.60856 | 78° | 110km/h | 10652m | -4.2m/s | -48.7°C | 68.4% | 0hPa | 2.5V | 00:00:00 | 00:00:00 | 00:00:00 | |
| PETON7-10 | 2026-09-02 03:46:50 | 47.09486 | 16.60701 | 78° | 110km/h | 10669m | -4.3m/s | -48.9°C | 67.5% | 0hPa | 2.5V | 08:03:00 | 00:00:00 | 00:00:00 | |
| PG1ADW-2 | 2026-09-02 03:46:42 | 47.09438 | 16.60386 | 78° | 111km/h | 10703m | -4.4m/s | -49.2°C | 66.6% | 0hPa | 2.5V | 00:00:00 | 00:00:00 | 00:00:00 | |
| PETON7-10 | 2026-09-02 03:46:35 | 47.09395 | 16.60109 | 78° | 113km/h | 10734m | -4.2m/s | -49.4°C | 67.1% | 0hPa | 2.5V | 00:00:00 | 00:00:00 | 00:00:00 | |
| OE5DXL-15 | 2026-09-02 03:46:28 | 47.09349 | 16.59826 | 77° | 115km/h | 10764m | -4.2m/s | -49.6°C | 67.0% | 0hPa | 2.5V | 00:00:00 | 00:00:00 | 00:00:00 | |
| OE3JTB-15 | 2026-09-02 03:46:25 | 47.09329 | 16.59703 | 77° | 117km/h | 10777m | -4.3m/s | -49.7°C | 66.6% | 0hPa | 2.5V | 00:00:00 | 01:59:54 | 00:00:00 | |
| OE5DRO-10 | 2026-09-02 03:46:23 | 47.09316 | 16.59621 | 77° | 115km/h | 10785m | -4.3m/s | -49.8°C | 66.7% | 0hPa | 2.5V | 00:00:00 | 00:00:00 | 00:00:00 | |
| PG1ADW-2 | 2026-09-02 03:46:22 | 47.09309 | 16.59580 | 77° | 115km/h | 10790m | -4.3m/s | -49.8°C | 66.5% | 0hPa | 2.5V | 08:04:00 | 00:00:00 | 00:00:00 | |
| PETON7-10 | 2026-09-02 03:46:20 | 47.09295 | 16.59497 | 76° | 115km/h | 10798m | -4.4m/s | -49.8°C | 66.0% | 0hPa | 2.5V | 00:00:00 | 01:59:49 | 00:00:00 | |
| PETON7-10 | 2026-09-02 03:46:05 | 47.09188 | 16.58873 | 77° | 117km/h | 10865m | -4.5m/s | -50.2°C | 66.9% | 0hPa | 2.5V | 00:00:00 | 00:00:00 | 00:00:00 | |
| OE5DRO-10 | 2026-09-02 03:46:04 | 47.09181 | 16.58830 | 77° | 117km/h | 10869m | -4.4m/s | -50.2°C | 66.7% | 0hPa | 2.5V | 08:04:00 | 00:00:00 | 00:00:00 | |
| PG1ADW-2 | 2026-09-02 03:46:02 | 47.09167 | 16.58746 | 77° | 117km/h | 10878m | -4.3m/s | -50.3°C | 66.4% | 0hPa | 2.5V | 00:00:00 | 00:00:00 | 00:00:00 | |
| OE5DXL-15 | 2026-09-02 03:45:58 | 47.09138 | 16.58578 | 76° | 119km/h | 10896m | -4.3m/s | -50.4°C | 66.0% | 0hPa | 2.5V | 00:00:00 | 00:00:00 | 00:00:00 | |
| OE3JTB-15 | 2026-09-02 03:45:56 | 47.09123 | 16.58494 | 76° | 119km/h | 10905m | -4.5m/s | -50.5°C | 65.8% | 0hPa | 2.6V | 00:00:00 | 00:00:00 | 00:00:00 | |
| PETON7-10 | 2026-09-02 03:45:50 | 47.09079 | 16.58241 | 76° | 119km/h | 10932m | -4.4m/s | -50.8°C | 65.5% | 0hPa | 2.6V | 00:00:00 | 00:00:00 | 00:00:00 | |
| OE5DRO-10 | 2026-09-02 03:45:45 | 47.09043 | 16.58027 | 77° | 119km/h | 10955m | -4.7m/s | -51.0°C | 65.3% | 0hPa | 2.6V | 00:00:00 | 00:00:00 | 00:00:00 | |
| PG1ADW-2 | 2026-09-02 03:45:42 | 47.09022 | 16.57899 | 77° | 120km/h | 10968m | -4.4m/s | -51.1°C | 65.1% | 0hPa | 2.6V | 00:00:00 | 01:59:11 | 00:00:00 | |
| PETON7-10 | 2026-09-02 03:45:35 | 47.08973 | 16.57599 | 77° | 120km/h | 11001m | -4.6m/s | -51.3°C | 63.8% | 0hPa | 2.6V | 00:00:00 | 01:59:04 | 00:00:00 | |
| OE5DXL-15 | 2026-09-02 03:45:28 | 47.08924 | 16.57296 | 77° | 120km/h | 11033m | -4.7m/s | -51.6°C | 63.0% | 0hPa | 2.6V | 00:00:00 | 00:00:00 | 00:00:00 | |
| OE3JTB-15 | 2026-09-02 03:45:27 | 47.08917 | 16.57253 | 77° | 120km/h | 11038m | -4.6m/s | -51.6°C | 63.2% | 0hPa | 2.6V | 00:00:00 | 00:00:00 | 00:00:00 | |
| OE5DRO-10 | 2026-09-02 03:45:26 | 47.08910 | 16.57209 | 77° | 120km/h | 11042m | -4.7m/s | -51.6°C | 63.2% | 0hPa | 2.6V | 00:00:00 | 00:00:00 | 00:00:00 | |
| PG1ADW-2 | 2026-09-02 03:45:22 | 47.08882 | 16.57035 | 77° | 120km/h | 11061m | -4.7m/s | -51.8°C | 63.5% | 0hPa | 2.6V | 00:00:00 | 00:00:00 | 00:00:00 | |
| PETON7-10 | 2026-09-02 03:45:20 | 47.08868 | 16.56948 | 77° | 120km/h | 11071m | -4.8m/s | -51.9°C | 63.2% | 0hPa | 2.5V | 00:00:00 | 00:00:00 | 00:00:00 | |
| OE5DRO-10 | 2026-09-02 03:45:07 | 47.08779 | 16.56382 | 78° | 120km/h | 11133m | -4.8m/s | -52.5°C | 62.9% | 0hPa | 2.6V | 00:00:00 | 00:00:00 | 00:00:00 | |
| PETON7-10 | 2026-09-02 03:45:05 | 47.08765 | 16.56295 | 78° | 120km/h | 11142m | -4.6m/s | -52.6°C | 63.3% | 0hPa | 2.5V | 00:00:00 | 00:00:00 | 00:00:00 | |
| OE5DXL-15 | 2026-09-02 03:44:58 | 47.08717 | 16.55990 | 78° | 120km/h | 11175m | -4.7m/s | -52.9°C | 63.8% | 0hPa | 2.5V | 00:00:00 | 00:00:00 | 00:00:00 | |
| PETON7-10 | 2026-09-02 03:44:50 | 47.08662 | 16.55640 | 77° | 120km/h | 11213m | -4.8m/s | -53.2°C | 64.1% | 0hPa | 2.5V | 00:00:00 | 01:58:19 | 00:00:00 | |
| OE5DRO-10 | 2026-09-02 03:44:48 | 47.08648 | 16.55552 | 78° | 120km/h | 11222m | -4.7m/s | -53.3°C | 64.4% | 0hPa | 2.5V | 00:00:00 | 00:00:00 | 00:00:00 | |
| PG1ADW-2 | 2026-09-02 03:44:42 | 47.08607 | 16.55289 | 78° | 120km/h | 11250m | -4.7m/s | -53.5°C | 65.0% | 0hPa | 2.5V | 00:00:00 | 00:00:00 | 00:00:00 | |
| PETON7-10 | 2026-09-02 03:44:35 | 47.08559 | 16.54982 | 77° | 120km/h | 11283m | -4.7m/s | -53.8°C | 65.1% | 0hPa | 2.5V | 08:05:00 | 00:00:00 | 00:00:00 | |
| OE5DRO-10 | 2026-09-02 03:44:29 | 47.08518 | 16.54719 | 78° | 120km/h | 11312m | -4.7m/s | -54.1°C | 65.0% | 0hPa | 2.6V | 00:00:00 | 00:00:00 | 00:00:00 | |
| OE5DXL-15 | 2026-09-02 03:44:28 | 47.08511 | 16.54675 | 77° | 120km/h | 11317m | -4.8m/s | -54.1°C | 64.9% | 0hPa | 2.6V | 00:00:00 | 00:00:00 | 00:00:00 | |
| PG1ADW-2 | 2026-09-02 03:44:22 | 47.08470 | 16.54414 | 78° | 120km/h | 11345m | -4.8m/s | -54.4°C | 64.3% | 0hPa | 2.6V | 00:00:00 | 01:57:51 | 00:00:00 | |
| PETON7-10 | 2026-09-02 03:44:20 | 47.08456 | 16.54327 | 78° | 120km/h | 11355m | -4.7m/s | -54.5°C | 64.4% | 0hPa | 2.6V | 00:00:00 | 00:00:00 | 00:00:00 | |
| OE5DRO-10 | 2026-09-02 03:44:10 | 47.08388 | 16.53892 | 78° | 120km/h | 11403m | -4.9m/s | -54.9°C | 65.4% | 0hPa | 2.6V | 00:00:00 | 00:00:00 | 00:00:00 | |
| PETON7-10 | 2026-09-02 03:44:05 | 47.08354 | 16.53673 | 78° | 122km/h | 11427m | -4.7m/s | -55.1°C | 66.4% | 0hPa | 2.5V | 00:00:00 | 01:57:34 | 00:00:00 | |
| OE3JTB-15 | 2026-09-02 03:44:00 | 47.08320 | 16.53454 | 78° | 122km/h | 11450m | -4.7m/s | -55.3°C | 68.0% | 0hPa | 2.5V | 00:00:00 | 00:00:00 | 00:00:00 | |
| OE5DXL-15 | 2026-09-02 03:43:58 | 47.08306 | 16.53366 | 78° | 122km/h | 11460m | -4.7m/s | -55.4°C | 68.6% | 0hPa | 2.5V | 00:00:00 | 00:00:00 | 00:00:00 | |
| OE5DRO-10 | 2026-09-02 03:43:51 | 47.08259 | 16.53059 | 78° | 122km/h | 11493m | -4.8m/s | -55.6°C | 71.1% | 0hPa | 2.5V | 00:00:00 | 00:00:00 | 00:00:00 | |
| PETON7-10 | 2026-09-02 03:43:50 | 47.08252 | 16.53015 | 78° | 122km/h | 11498m | -4.8m/s | -55.7°C | 71.4% | 0hPa | 2.5V | 00:00:00 | 00:00:00 | 00:00:00 | |
| PG1ADW-2 | 2026-09-02 03:43:42 | 47.08198 | 16.52659 | 78° | 124km/h | 11536m | -4.6m/s | -56.0°C | 74.0% | 0hPa | 2.6V | 00:00:00 | 00:00:00 | 00:00:00 | |
| PETON7-10 | 2026-09-02 03:43:35 | 47.08150 | 16.52347 | 77° | 122km/h | 11569m | -4.8m/s | -56.3°C | 76.7% | 0hPa | 2.6V | 00:00:00 | 00:00:00 | 00:00:00 | |
| OE5DRO-10 | 2026-09-02 03:43:32 | 47.08129 | 16.52213 | 78° | 122km/h | 11583m | -4.6m/s | -56.5°C | 77.5% | 0hPa | 2.6V | 00:00:00 | 00:00:00 | 00:00:00 | |
| OE3JTB-15 | 2026-09-02 03:43:31 | 47.08122 | 16.52169 | 78° | 122km/h | 11588m | -4.6m/s | -56.5°C | 77.6% | 0hPa | 2.6V | 00:00:00 | 01:57:00 | 00:00:00 | |
| OE5DXL-15 | 2026-09-02 03:43:28 | 47.08101 | 16.52035 | 78° | 122km/h | 11603m | -4.7m/s | -56.6°C | 78.1% | 0hPa | 2.6V | 00:00:00 | 00:00:00 | 00:00:00 | |
| PG1ADW-2 | 2026-09-02 03:43:22 | 47.08059 | 16.51768 | 77° | 120km/h | 11631m | -4.7m/s | -56.8°C | 77.6% | 0hPa | 2.6V | 08:07:00 | 00:00:00 | 00:00:00 | |
| PETON7-10 | 2026-09-02 03:43:20 | 47.08045 | 16.51680 | 77° | 122km/h | 11640m | -4.6m/s | -56.9°C | 77.3% | 0hPa | 2.5V | 00:00:00 | 01:56:49 | 00:00:00 | |
| OE5DRO-10 | 2026-09-02 03:43:13 | 47.07995 | 16.51372 | 77° | 120km/h | 11673m | -4.8m/s | -57.1°C | 75.8% | 0hPa | 2.5V | 08:07:00 | 00:00:00 | 00:00:00 | |
| PETON7-10 | 2026-09-02 03:43:05 | 47.07938 | 16.51024 | 77° | 122km/h | 11711m | -4.7m/s | -57.4°C | 74.3% | 0hPa | 2.6V | 00:00:00 | 00:00:00 | 00:00:00 | |
| PG1ADW-2 | 2026-09-02 03:43:02 | 47.07917 | 16.50894 | 77° | 122km/h | 11725m | -4.8m/s | -57.5°C | 74.2% | 0hPa | 2.5V | 00:00:00 | 01:56:31 | 00:00:00 | |
| OE5DXL-15 | 2026-09-02 03:42:58 | 47.07889 | 16.50719 | 78° | 124km/h | 11744m | -4.7m/s | -57.7°C | 73.6% | 0hPa | 2.5V | 08:07:00 | 00:00:00 | 00:00:00 | |
| OE5DRO-10 | 2026-09-02 03:42:54 | 47.07861 | 16.50543 | 78° | 122km/h | 11763m | -4.6m/s | -57.8°C | 73.1% | 0hPa | 2.5V | 00:00:00 | 00:00:00 | 00:00:00 | |
| PETON7-10 | 2026-09-02 03:42:50 | 47.07834 | 16.50366 | 78° | 124km/h | 11781m | -4.7m/s | -57.9°C | 71.8% | 0hPa | 2.5V | 00:00:00 | 00:00:00 | 00:00:00 | |
| PG1ADW-2 | 2026-09-02 03:42:42 | 47.07780 | 16.50012 | 78° | 126km/h | 11819m | -4.6m/s | -58.1°C | 70.2% | 0hPa | 2.5V | 00:00:00 | 00:00:00 | 00:00:00 | |
| PETON7-10 | 2026-09-02 03:42:35 | 47.07733 | 16.49696 | 78° | 126km/h | 11851m | -4.7m/s | -58.3°C | 68.7% | 0hPa | 2.5V | 00:00:00 | 01:56:04 | 00:00:00 | |
| OE3JTB-15 | 2026-09-02 03:42:33 | 47.07720 | 16.49605 | 79° | 126km/h | 11860m | -4.5m/s | -58.3°C | 68.5% | 0hPa | 2.5V | 00:00:00 | 00:00:00 | 00:00:00 | |
| OE5DXL-15 | 2026-09-02 03:42:28 | 47.07687 | 16.49377 | 79° | 128km/h | 11883m | -4.6m/s | -58.5°C | 68.3% | 0hPa | 2.5V | 00:00:00 | 00:00:00 | 00:00:00 | |
| PG1ADW-2 | 2026-09-02 03:42:22 | 47.07649 | 16.49102 | 80° | 128km/h | 11910m | -4.6m/s | -58.5°C | 67.3% | 0hPa | 2.5V | 00:00:00 | 00:00:00 | 00:00:00 | |
| PETON7-10 | 2026-09-02 03:42:20 | 47.07637 | 16.49010 | 80° | 128km/h | 11919m | -4.5m/s | -58.5°C | 66.9% | 0hPa | 2.5V | 08:08:00 | 00:00:00 | 00:00:00 | |
| OE5DRO-10 | 2026-09-02 03:42:16 | 47.07614 | 16.48825 | 80° | 128km/h | 11937m | -4.5m/s | -58.6°C | 66.2% | 0hPa | 2.5V | 00:00:00 | 00:00:00 | 00:00:00 | |
| PETON7-10 | 2026-09-02 03:42:05 | 47.07553 | 16.48313 | 81° | 126km/h | 11987m | -4.3m/s | -59.0°C | 63.5% | 0hPa | 2.4V | 00:00:00 | 00:00:00 | 00:00:00 | |
| OE3JTB-15 | 2026-09-02 03:42:04 | 47.07547 | 16.48266 | 81° | 124km/h | 11991m | -4.5m/s | -59.0°C | 63.0% | 0hPa | 2.4V | 00:00:00 | 01:55:33 | 00:00:00 | |
| PG1ADW-2 | 2026-09-02 03:42:02 | 47.07537 | 16.48173 | 81° | 126km/h | 12000m | -4.5m/s | -59.1°C | 62.4% | 0hPa | 2.4V | 00:00:00 | 00:00:00 | 00:00:00 | |
| OE5DXL-15 | 2026-09-02 03:41:58 | 47.07517 | 16.47986 | 82° | 122km/h | 12018m | -4.3m/s | -59.2°C | 61.3% | 0hPa | 2.4V | 00:00:00 | 01:55:27 | 00:00:00 | |
| OE5DRO-10 | 2026-09-02 03:41:57 | 47.07512 | 16.47939 | 82° | 126km/h | 12022m | -4.5m/s | -59.3°C | 60.9% | 0hPa | 2.4V | 00:00:00 | 00:00:00 | 00:00:00 | |
| PETON7-10 | 2026-09-02 03:41:50 | 47.07479 | 16.47617 | 81° | 124km/h | 12054m | -4.2m/s | -59.5°C | 56.3% | 0hPa | 2.4V | 00:00:00 | 01:55:19 | 00:00:00 | |
| PG1ADW-2 | 2026-09-02 03:41:42 | 47.07437 | 16.47249 | 82° | 117km/h | 12089m | -4.4m/s | -59.8°C | 51.7% | 0hPa | 2.4V | 00:00:00 | 01:55:11 | 00:00:00 | |
| OE5DRO-10 | 2026-09-02 03:41:38 | 47.07419 | 16.47070 | 82° | 113km/h | 12107m | -4.4m/s | -59.9°C | 48.1% | 0hPa | 2.4V | 00:00:00 | 00:00:00 | 00:00:00 | |
| PETON7-10 | 2026-09-02 03:41:35 | 47.07405 | 16.46940 | 82° | 113km/h | 12120m | -4.6m/s | -59.7°C | 43.8% | 0hPa | 2.4V | 00:00:00 | 00:00:00 | 00:00:00 | |
| OE5DXL-15 | 2026-09-02 03:41:28 | 47.07371 | 16.46645 | 80° | 108km/h | 12151m | -4.0m/s | -59.6°C | 35.5% | 0hPa | 2.4V | 00:00:00 | 00:00:00 | 00:00:00 | |
| PG1ADW-2 | 2026-09-02 03:41:22 | 47.07340 | 16.46400 | 79° | 106km/h | 12179m | -4.6m/s | -58.7°C | 27.8% | 0hPa | 2.5V | 00:00:00 | 00:00:00 | 00:00:00 | |
| OE5DRO-10 | 2026-09-02 03:41:19 | 47.07324 | 16.46282 | 79° | 106km/h | 12192m | -4.1m/s | -58.4°C | 25.7% | 0hPa | 2.4V | 00:00:00 | 00:00:00 | 00:00:00 | |
| OE3JTB-15 | 2026-09-02 03:41:06 | 47.07246 | 16.45783 | 75° | 106km/h | 12252m | -4.4m/s | -57.3°C | 19.7% | 0hPa | 2.4V | 00:00:00 | 00:00:00 | 00:00:00 | |
| PETON7-10 | 2026-09-02 03:41:05 | 47.07239 | 16.45746 | 75° | 106km/h | 12257m | -4.8m/s | -57.3°C | 19.6% | 0hPa | 2.4V | 00:00:00 | 01:54:34 | 00:00:00 | |
| PG1ADW-2 | 2026-09-02 03:41:02 | 47.07219 | 16.45634 | 77° | 106km/h | 12271m | -4.6m/s | -57.0°C | 18.7% | 0hPa | 2.4V | 00:00:00 | 00:00:00 | 00:00:00 | |
| OE5DRO-10 | 2026-09-02 03:41:00 | 47.07207 | 16.45558 | 78° | 106km/h | 12280m | -4.6m/s | -56.8°C | 17.9% | 0hPa | 2.4V | 00:00:00 | 00:00:00 | 00:00:00 | |
| OE5DXL-15 | 2026-09-02 03:40:58 | 47.07196 | 16.45481 | 79° | 106km/h | 12290m | -4.6m/s | -56.8°C | 17.4% | 0hPa | 2.4V | 00:00:00 | 00:00:00 | 00:00:00 | |
| PG1ADW-2 | 2026-09-02 03:40:42 | 47.07125 | 16.44858 | 84° | 106km/h | 12366m | -4.7m/s | -55.7°C | 13.3% | 0hPa | 2.4V | 00:00:00 | 00:00:00 | 00:00:00 | |
| OE5DRO-10 | 2026-09-02 03:40:41 | 47.07121 | 16.44819 | 84° | 106km/h | 12371m | -4.8m/s | -55.7°C | 13.2% | 0hPa | 2.4V | 00:00:00 | 00:00:00 | 00:00:00 | |
| OE3JTB-15 | 2026-09-02 03:40:37 | 47.07110 | 16.44664 | 85° | 104km/h | 12390m | -4.8m/s | -55.5°C | 12.7% | 0hPa | 2.4V | 00:00:00 | 01:54:06 | 00:00:00 | |
| PETON7-10 | 2026-09-02 03:40:35 | 47.07105 | 16.44586 | 85° | 106km/h | 12400m | -4.8m/s | -55.4°C | 12.2% | 0hPa | 2.4V | 00:00:00 | 00:00:00 | 00:00:00 | |
| OE8JPQ-2 | 2026-09-02 03:40:29 | 47.07090 | 16.44352 | 86° | 100km/h | 12429m | -4.9m/s | -55.1°C | 11.3% | 0hPa | 2.4V | 00:00:00 | 01:53:58 | 00:00:00 | |
| OE5DXL-15 | 2026-09-02 03:40:28 | 47.07088 | 16.44313 | 86° | 102km/h | 12434m | -5.0m/s | -54.9°C | 11.0% | 0hPa | 2.4V | 00:00:00 | 00:00:00 | 00:00:00 | |
| PG1ADW-2 | 2026-09-02 03:40:22 | 47.07076 | 16.44081 | 85° | 102km/h | 12464m | -4.9m/s | -54.6°C | 10.6% | 0hPa | 2.4V | 08:10:00 | 01:53:51 | 00:00:00 | |
| PETON7-10 | 2026-09-02 03:40:20 | 47.07071 | 16.44004 | 85° | 104km/h | 12474m | -5.2m/s | -54.7°C | 10.5% | 0hPa | 2.5V | 00:00:00 | 01:53:49 | 00:00:00 | |
| OE3JTB-15 | 2026-09-02 03:40:06 | 47.07031 | 16.43471 | 83° | 97km/h | 12545m | -5.0m/s | -55.0°C | 10.3% | 0hPa | 2.5V | 08:10:00 | 00:00:00 | 00:00:00 | |
| PETON7-10 | 2026-09-02 03:40:05 | 47.07028 | 16.43434 | 83° | 99km/h | 12550m | -5.1m/s | -55.1°C | 10.2% | 0hPa | 2.6V | 08:10:00 | 00:00:00 | 00:00:00 | |
| OE5DRO-10 | 2026-09-02 03:40:03 | 47.07020 | 16.43360 | 82° | 99km/h | 12560m | -4.8m/s | -55.1°C | 10.2% | 0hPa | 2.5V | 00:00:00 | 00:00:00 | 00:00:00 | |
| PG1ADW-2 | 2026-09-02 03:40:02 | 47.07017 | 16.43324 | 82° | 97km/h | 12565m | -5.3m/s | -55.1°C | 10.2% | 0hPa | 2.5V | 00:00:00 | 00:00:00 | 00:00:00 | |
| OE5DXL-15 | 2026-09-02 03:39:58 | 47.07001 | 16.43178 | 81° | 95km/h | 12586m | -5.2m/s | -55.2°C | 9.9% | 0hPa | 2.5V | 00:00:00 | 00:00:00 | 00:00:00 | |
| PETON7-10 | 2026-09-02 03:39:50 | 47.06966 | 16.42895 | 79° | 95km/h | 12627m | -5.0m/s | -55.3°C | 9.5% | 0hPa | 2.5V | 00:00:00 | 00:00:00 | 00:00:00 | |
| OE5DRO-10 | 2026-09-02 03:39:44 | 47.06938 | 16.42684 | 80° | 95km/h | 12658m | -5.0m/s | -55.2°C | 9.2% | 0hPa | 2.5V | 00:00:00 | 00:00:00 | 00:00:00 | |
| PG1ADW-2 | 2026-09-02 03:39:42 | 47.06929 | 16.42615 | 80° | 95km/h | 12668m | -5.0m/s | -55.2°C | 9.1% | 0hPa | 2.5V | 00:00:00 | 00:00:00 | 00:00:00 | |
| OE8JPQ-2 | 2026-09-02 03:39:39 | 47.06916 | 16.42512 | 80° | 93km/h | 12683m | -5.1m/s | -55.1°C | 8.8% | 0hPa | 2.5V | 00:00:00 | 00:00:00 | 00:00:00 | |
| OE3JTB-15 | 2026-09-02 03:39:37 | 47.06908 | 16.42444 | 80° | 93km/h | 12693m | -5.2m/s | -54.9°C | 8.6% | 0hPa | 2.4V | 00:00:00 | 00:00:00 | 00:00:00 | |
| PETON7-10 | 2026-09-02 03:39:35 | 47.06900 | 16.42376 | 80° | 95km/h | 12703m | -5.3m/s | -54.8°C | 8.4% | 0hPa | 2.4V | 00:00:00 | 01:53:04 | 00:00:00 | |
| OE5DXL-15 | 2026-09-02 03:39:28 | 47.06869 | 16.42136 | 79° | 93km/h | 12740m | -5.0m/s | -54.5°C | 7.9% | 0hPa | 2.4V | 00:00:00 | 00:00:00 | 00:00:00 | |
| OE5DRO-10 | 2026-09-02 03:39:25 | 47.06855 | 16.42034 | 79° | 93km/h | 12756m | -5.4m/s | -54.4°C | 7.6% | 0hPa | 2.4V | 00:00:00 | 00:00:00 | 00:00:00 | |
| PG1ADW-2 | 2026-09-02 03:39:22 | 47.06840 | 16.41931 | 79° | 93km/h | 12771m | -5.2m/s | -54.2°C | 7.3% | 0hPa | 2.6V | 00:00:00 | 00:00:00 | 00:00:00 | |
| PETON7-10 | 2026-09-02 03:39:20 | 47.06831 | 16.41863 | 79° | 93km/h | 12782m | -5.1m/s | -53.8°C | 7.1% | 0hPa | 2.4V | 00:00:00 | 00:00:00 | 00:00:00 | |
| OE8JPQ-2 | 2026-09-02 03:39:18 | 47.06821 | 16.41796 | 79° | 93km/h | 12792m | -5.2m/s | -53.4°C | 6.7% | 0hPa | 2.4V | 00:00:00 | 00:00:00 | 00:00:00 | |
| OE3JTB-15 | 2026-09-02 03:39:08 | 47.06782 | 16.41457 | 82° | 89km/h | 12845m | -5.4m/s | -53.2°C | 6.4% | 0hPa | 2.4V | 00:00:00 | 01:52:37 | 00:00:00 | |
| OE5DRO-10 | 2026-09-02 03:39:06 | 47.06776 | 16.41390 | 82° | 89km/h | 12856m | -5.4m/s | -53.2°C | 6.4% | 0hPa | 2.4V | 00:00:00 | 00:00:00 | 00:00:00 | |
| PETON7-10 | 2026-09-02 03:39:05 | 47.06772 | 16.41356 | 82° | 89km/h | 12861m | -4.9m/s | -53.2°C | 6.4% | 0hPa | 2.4V | 00:00:00 | 00:00:00 | 00:00:00 | |
| PG1ADW-2 | 2026-09-02 03:39:02 | 47.06761 | 16.41255 | 82° | 89km/h | 12877m | -5.4m/s | -53.3°C | 6.4% | 0hPa | 2.4V | 00:00:00 | 01:52:31 | 00:00:00 | |
| OE5DXL-15 | 2026-09-02 03:38:58 | 47.06746 | 16.41121 | 81° | 89km/h | 12899m | -5.6m/s | -53.3°C | 6.3% | 0hPa | 2.4V | 00:00:00 | 00:00:00 | 00:00:00 | |
| PETON7-10 | 2026-09-02 03:38:50 | 47.06712 | 16.40864 | 78° | 89km/h | 12941m | -5.1m/s | -53.3°C | 6.0% | 0hPa | 2.4V | 00:00:00 | 01:52:19 | 00:00:00 | |
| OE5DRO-10 | 2026-09-02 03:38:43 | 47.06677 | 16.40642 | 76° | 89km/h | 12979m | -5.3m/s | -53.4°C | 6.0% | 0hPa | 2.4V | 00:00:00 | 00:00:00 | 00:00:00 | |
| PG1ADW-2 | 2026-09-02 03:38:42 | 47.06671 | 16.40610 | 76° | 89km/h | 12984m | -5.3m/s | -53.5°C | 6.0% | 0hPa | 2.4V | 00:00:00 | 00:00:00 | 00:00:00 | |
| OE3JTB-15 | 2026-09-02 03:38:39 | 47.06653 | 16.40514 | 75° | 91km/h | 13000m | -5.4m/s | -53.5°C | 5.9% | 0hPa | 2.4V | 00:00:00 | 00:00:00 | 00:00:00 | |
| OE8JPQ-2 | 2026-09-02 03:38:38 | 47.06647 | 16.40482 | 75° | 91km/h | 13005m | -5.4m/s | -53.5°C | 5.9% | 0hPa | 2.5V | 00:00:00 | 00:00:00 | 00:00:00 | |
| PETON7-10 | 2026-09-02 03:38:35 | 47.06628 | 16.40386 | 74° | 91km/h | 13021m | -5.2m/s | -53.5°C | 5.9% | 0hPa | 2.6V | 00:00:00 | 00:00:00 | 00:00:00 | |
| OE5DXL-15 | 2026-09-02 03:38:28 | 47.06584 | 16.40162 | 74° | 91km/h | 13059m | -5.3m/s | -53.5°C | 5.7% | 0hPa | 2.4V | 08:12:00 | 00:00:00 | 00:00:00 | |
| OE5DRO-10 | 2026-09-02 03:38:24 | 47.06557 | 16.40034 | 73° | 91km/h | 13081m | -5.4m/s | -53.6°C | 5.7% | 0hPa | 2.6V | 00:00:00 | 00:00:00 | 00:00:00 | |
| PG1ADW-2 | 2026-09-02 03:38:22 | 47.06543 | 16.39969 | 73° | 91km/h | 13092m | -5.3m/s | -53.7°C | 5.7% | 0hPa | 2.4V | 00:00:00 | 00:00:00 | 00:00:00 | |
| OE8JPQ-2 | 2026-09-02 03:38:17 | 47.06508 | 16.39808 | 73° | 91km/h | 13119m | -5.3m/s | -53.6°C | 5.7% | 0hPa | 2.6V | 00:00:00 | 00:00:00 | 00:00:00 | |
| OE3JTB-15 | 2026-09-02 03:38:10 | 47.06460 | 16.39582 | 73° | 91km/h | 13156m | -5.6m/s | -53.4°C | 5.4% | 0hPa | 2.6V | 00:00:00 | 00:00:00 | 00:00:00 | |
| OE5DRO-10 | 2026-09-02 03:38:05 | 47.06425 | 16.39419 | 73° | 91km/h | 13183m | -5.4m/s | -53.4°C | 5.4% | 0hPa | 2.6V | 00:00:00 | 00:00:00 | 00:00:00 | |
| PG1ADW-2 | 2026-09-02 03:38:02 | 47.06405 | 16.39323 | 74° | 91km/h | 13199m | -5.4m/s | -53.5°C | 5.4% | 0hPa | 2.6V | 00:00:00 | 00:00:00 | 00:00:00 | |
| OE5DXL-15 | 2026-09-02 03:37:58 | 47.06378 | 16.39191 | 75° | 88km/h | 13221m | -5.3m/s | -53.7°C | 5.4% | 0hPa | 2.6V | 00:00:00 | 00:00:00 | 00:00:00 | |
| OE8JPQ-2 | 2026-09-02 03:37:57 | 47.06371 | 16.39158 | 74° | 91km/h | 13226m | -5.4m/s | -53.7°C | 5.5% | 0hPa | 2.6V | 00:00:00 | 01:51:26 | 00:00:00 | |
| PETON7-10 | 2026-09-02 03:37:50 | 47.06327 | 16.38930 | 74° | 88km/h | 13264m | -5.2m/s | -53.6°C | 5.3% | 0hPa | 2.6V | 08:12:00 | 00:00:00 | 00:00:00 | |
| OE5DRO-10 | 2026-09-02 03:37:46 | 47.06302 | 16.38802 | 75° | 86km/h | 13286m | -5.4m/s | -53.7°C | 5.3% | 0hPa | 2.4V | 00:00:00 | 00:00:00 | 00:00:00 | |
| PG1ADW-2 | 2026-09-02 03:37:42 | 47.06277 | 16.38677 | 74° | 84km/h | 13308m | -5.5m/s | -53.8°C | 5.3% | 0hPa | 2.4V | 00:00:00 | 01:51:11 | 00:00:00 | |
| OE3JTB-15 | 2026-09-02 03:37:41 | 47.06271 | 16.38647 | 74° | 82km/h | 13313m | -5.4m/s | -53.8°C | 5.3% | 0hPa | 2.4V | 00:00:00 | 01:51:10 | 00:00:00 | |
| PETON7-10 | 2026-09-02 03:37:35 | 47.06234 | 16.38462 | 74° | 82km/h | 13346m | -5.3m/s | -54.0°C | 5.2% | 0hPa | 2.4V | 00:00:00 | 00:00:00 | 00:00:00 | |
| OE5DXL-15 | 2026-09-02 03:37:28 | 47.06195 | 16.38254 | 76° | 80km/h | 13384m | -5.6m/s | -54.1°C | 5.2% | 0hPa | 2.4V | 00:00:00 | 00:00:00 | 00:00:00 | |
| OE5DRO-10 | 2026-09-02 03:37:26 | 47.06185 | 16.38195 | 76° | 80km/h | 13394m | -5.5m/s | -54.1°C | 5.1% | 0hPa | 2.4V | 08:13:00 | 00:00:00 | 00:00:00 | |
| PG1ADW-2 | 2026-09-02 03:37:22 | 47.06166 | 16.38078 | 78° | 80km/h | 13416m | -5.6m/s | -53.9°C | 4.9% | 0hPa | 2.6V | 08:13:00 | 00:00:00 | 00:00:00 | |
| PETON7-10 | 2026-09-02 03:37:20 | 47.06157 | 16.38020 | 79° | 78km/h | 13427m | -5.6m/s | -53.9°C | 4.9% | 0hPa | 2.5V | 00:00:00 | 01:50:49 | 00:00:00 | |
| OE3JTB-15 | 2026-09-02 03:37:12 | 47.06127 | 16.37790 | 80° | 80km/h | 13470m | -5.4m/s | -53.8°C | 4.9% | 0hPa | 2.5V | 00:00:00 | 00:00:00 | 00:00:00 | |
| OE5DRO-10 | 2026-09-02 03:37:07 | 47.06110 | 16.37646 | 82° | 82km/h | 13498m | -5.5m/s | -54.0°C | 4.8% | 0hPa | 2.6V | 00:00:00 | 00:00:00 | 00:00:00 | |
| OE8JPQ-2 | 2026-09-02 03:37:06 | 47.06107 | 16.37617 | 81° | 82km/h | 13504m | -5.3m/s | -54.0°C | 4.9% | 0hPa | 2.6V | 00:00:00 | 00:00:00 | 00:00:00 | |
| PETON7-10 | 2026-09-02 03:37:05 | 47.06104 | 16.37588 | 82° | 82km/h | 13509m | -5.6m/s | -54.0°C | 4.8% | 0hPa | 2.6V | 00:00:00 | 00:00:00 | 00:00:00 | |
| OE3OSB-13 | 2026-09-02 03:37:03 | 47.06094 | 16.37499 | 80° | 80km/h | 13525m | -5.4m/s | -54.1°C | 2.0% | -1.0hPa | 2.4V | 00:00:00 | 00:00:00 | 00:00:00 | |
| OE5DXL-15 | 2026-09-02 03:36:58 | 47.06080 | 16.37381 | 80° | 86km/h | 13547m | -5.5m/s | -54.2°C | 4.9% | 0hPa | 2.4V | 00:00:00 | 00:00:00 | 00:00:00 | |
| PG1ADW-2 | 2026-09-02 03:36:51 | 47.06051 | 16.37173 | 78° | 86km/h | 13586m | -5.7m/s | -53.9°C | 4.8% | 0hPa | 2.4V | 00:00:00 | 00:00:00 | 00:00:00 | |
| PETON7-10 | 2026-09-02 03:36:50 | 47.06047 | 16.37142 | 78° | 86km/h | 13592m | -5.6m/s | -53.8°C | 4.7% | 0hPa | 2.4V | 00:00:00 | 00:00:00 | 00:00:00 | |
| OE5DRO-10 | 2026-09-02 03:36:48 | 47.06038 | 16.37082 | 77° | 88km/h | 13603m | -5.7m/s | -53.8°C | 4.7% | 0hPa | 2.4V | 00:00:00 | 00:00:00 | 00:00:00 | |
| OE3JTB-15 | 2026-09-02 03:36:43 | 47.06014 | 16.36930 | 78° | 97km/h | 13632m | -5.7m/s | -54.0°C | 4.7% | 0hPa | 2.4V | 00:00:00 | 00:00:00 | 00:00:00 | |
| OE8JPQ-2 | 2026-09-02 03:36:42 | 47.06009 | 16.36899 | 78° | 91km/h | 13637m | -5.3m/s | -54.0°C | 4.7% | 0hPa | 2.4V | 00:00:00 | 01:50:11 | 00:00:00 | |
| PETON7-10 | 2026-09-02 03:36:35 | 47.05978 | 16.36677 | 79° | 95km/h | 13677m | -5.9m/s | -54.3°C | 4.8% | 0hPa | 2.4V | 00:00:00 | 01:50:04 | 00:00:00 | |
| PG1ADW-2 | 2026-09-02 03:36:31 | 47.05959 | 16.36545 | 79° | 97km/h | 13700m | -5.5m/s | -54.4°C | 4.9% | 0hPa | 2.4V | 00:00:00 | 00:00:00 | 00:00:00 | |
| OE5DRO-10 | 2026-09-02 03:36:29 | 47.05950 | 16.36477 | 80° | 97km/h | 13711m | -5.7m/s | -54.4°C | 4.9% | 0hPa | 2.4V | 00:00:00 | 00:00:00 | 00:00:00 | |
| OE5DXL-15 | 2026-09-02 03:36:28 | 47.05945 | 16.36443 | 79° | 99km/h | 13717m | -5.9m/s | -54.4°C | 4.9% | 0hPa | 2.6V | 00:00:00 | 00:00:00 | 00:00:00 | |
| OE8JPQ-2 | 2026-09-02 03:36:22 | 47.05918 | 16.36233 | 79° | 99km/h | 13751m | -5.6m/s | -54.4°C | 4.9% | 0hPa | 2.6V | 00:00:00 | 00:00:00 | 00:00:00 | |
| PETON7-10 | 2026-09-02 03:36:20 | 47.05908 | 16.36162 | 79° | 99km/h | 13762m | -5.6m/s | -54.4°C | 5.0% | 0hPa | 2.4V | 00:00:00 | 00:00:00 | 00:00:00 | |
| OE3JTB-15 | 2026-09-02 03:36:13 | 47.05875 | 16.35911 | 81° | 88km/h | 13803m | -5.8m/s | -54.5°C | 5.1% | 0hPa | 2.5V | 00:00:00 | 01:49:42 | 00:00:00 | |
| PG1ADW-2 | 2026-09-02 03:36:11 | 47.05867 | 16.35840 | 82° | 97km/h | 13815m | -6.0m/s | -54.6°C | 5.1% | 0hPa | 2.5V | 00:00:00 | 01:49:40 | 00:00:00 | |
| OE5DRO-10 | 2026-09-02 03:36:10 | 47.05863 | 16.35804 | 82° | 97km/h | 13821m | -5.7m/s | -54.6°C | 5.1% | 0hPa | 2.5V | 00:00:00 | 00:00:00 | 00:00:00 | |
| PETON7-10 | 2026-09-02 03:36:05 | 47.05846 | 16.35624 | 83° | 97km/h | 13849m | -5.5m/s | -54.4°C | 5.0% | 0hPa | 2.5V | 00:00:00 | 00:00:00 | 00:00:00 | |
| OE8JPQ-2 | 2026-09-02 03:36:02 | 47.05836 | 16.35516 | 84° | 95km/h | 13866m | -5.8m/s | -54.4°C | 4.9% | 0hPa | 2.5V | 00:00:00 | 00:00:00 | 00:00:00 | |
| OE5DXL-15 | 2026-09-02 03:35:58 | 47.05827 | 16.35373 | 86° | 89km/h | 13889m | -5.7m/s | -54.2°C | 4.9% | 0hPa | 2.5V | 00:00:00 | 00:00:00 | 00:00:00 | |
| PG1ADW-2 | 2026-09-02 03:35:51 | 47.05815 | 16.35128 | 87° | 89km/h | 13929m | -5.8m/s | -54.2°C | 4.9% | 0hPa | 2.5V | 00:00:00 | 00:00:00 | 00:00:00 | |
| PETON7-10 | 2026-09-02 03:35:50 | 47.05814 | 16.35094 | 88° | 89km/h | 13934m | -5.4m/s | -54.3°C | 4.9% | 0hPa | 2.5V | 00:00:00 | 01:49:19 | 00:00:00 | |
| OE8JPQ-2 | 2026-09-02 03:35:42 | 47.05806 | 16.34820 | 88° | 84km/h | 13979m | -5.6m/s | -54.3°C | 5.0% | 0hPa | 2.5V | 00:00:00 | 01:49:11 | 00:00:00 | |
| PETON7-10 | 2026-09-02 03:35:35 | 47.05801 | 16.34595 | 89° | 82km/h | 14017m | -5.2m/s | -54.5°C | 5.0% | 0hPa | 2.5V | 08:14:00 | 00:00:00 | 00:00:00 | |
| OE5DRO-10 | 2026-09-02 03:35:32 | 47.05800 | 16.34501 | 89° | 80km/h | 14034m | -6.0m/s | -54.7°C | 5.0% | 0hPa | 2.6V | 00:00:00 | 00:00:00 | 00:00:00 | |
| PG1ADW-2 | 2026-09-02 03:35:31 | 47.05799 | 16.34469 | 89° | 78km/h | 14040m | -5.8m/s | -54.7°C | 5.1% | 0hPa | 2.6V | 00:00:00 | 00:00:00 | 00:00:00 | |
| OE5DXL-15 | 2026-09-02 03:35:28 | 47.05798 | 16.34377 | 89° | 75km/h | 14057m | -5.6m/s | -54.7°C | 5.0% | 0hPa | 2.6V | 00:00:00 | 00:00:00 | 00:00:00 | |
| OE3JTB-15 | 2026-09-02 03:35:22 | 47.05798 | 16.34197 | 90° | 71km/h | 14092m | -5.7m/s | -55.0°C | 5.2% | 0hPa | 2.5V | 08:15:00 | 00:00:00 | 00:00:00 | |
| PETON7-10 | 2026-09-02 03:35:20 | 47.05798 | 16.34138 | 90° | 75km/h | 14103m | -5.9m/s | -55.1°C | 5.2% | 0hPa | 2.6V | 00:00:00 | 00:00:00 | 00:00:00 | |
| OE5DRO-10 | 2026-09-02 03:35:13 | 47.05799 | 16.33940 | 91° | 69km/h | 14144m | -5.7m/s | -55.3°C | 5.3% | 0hPa | 2.6V | 00:00:00 | 00:00:00 | 00:00:00 | |
| PG1ADW-2 | 2026-09-02 03:35:11 | 47.05800 | 16.33884 | 91° | 68km/h | 14156m | -5.7m/s | -55.3°C | 5.2% | 0hPa | 2.6V | 00:00:00 | 00:00:00 | 00:00:00 | |
| PETON7-10 | 2026-09-02 03:35:05 | 47.05803 | 16.33724 | 93° | 66km/h | 14191m | -6.1m/s | -55.4°C | 5.3% | 0hPa | 2.5V | 00:00:00 | 01:48:35 | 00:00:00 | |
| OE8JPQ-2 | 2026-09-02 03:35:02 | 47.05805 | 16.33647 | 92° | 64km/h | 14209m | -5.7m/s | -55.4°C | 5.2% | 0hPa | 2.5V | 00:00:00 | 00:00:00 | 00:00:00 | |
| OE5DXL-15 | 2026-09-02 03:34:58 | 47.05807 | 16.33547 | 91° | 62km/h | 14232m | -6.0m/s | -55.6°C | 5.4% | 0hPa | 2.5V | 00:00:00 | 00:00:00 | 00:00:00 | |
| OE5DRO-10 | 2026-09-02 03:34:54 | 47.05808 | 16.33451 | 92° | 62km/h | 14256m | -6.2m/s | -55.8°C | 5.4% | 0hPa | 2.5V | 00:00:00 | 00:00:00 | 00:00:00 | |
| OE3JTB-15 | 2026-09-02 03:34:53 | 47.05808 | 16.33427 | 91° | 62km/h | 14262m | -5.8m/s | -55.8°C | 5.4% | 0hPa | 2.5V | 00:00:00 | 00:00:00 | 00:00:00 | |
| PG1ADW-2 | 2026-09-02 03:34:51 | 47.05809 | 16.33381 | 91° | 62km/h | 14274m | -5.6m/s | -55.8°C | 5.4% | 0hPa | 2.5V | 00:00:00 | 01:48:21 | 00:00:00 | |
| PETON7-10 | 2026-09-02 03:34:50 | 47.05809 | 16.33358 | 92° | 60km/h | 14280m | -5.9m/s | -55.9°C | 5.4% | 0hPa | 2.5V | 00:00:00 | 00:00:00 | 00:00:00 | |
| OE8JPQ-2 | 2026-09-02 03:34:41 | 47.05810 | 16.33153 | 89° | 60km/h | 14333m | -6.0m/s | -56.1°C | 5.5% | 0hPa | 2.5V | 00:00:00 | 01:48:11 | 00:00:00 | |
| OE5DRO-10 | 2026-09-02 03:34:35 | 47.05806 | 16.33019 | 87° | 62km/h | 14368m | -6.0m/s | -56.4°C | 5.5% | 0hPa | 2.5V | 08:15:00 | 00:00:00 | 00:00:00 | |
| PG1ADW-2 | 2026-09-02 03:34:31 | 47.05801 | 16.32929 | 85° | 62km/h | 14392m | -5.9m/s | -56.5°C | 5.6% | 0hPa | 2.5V | 00:00:00 | 00:00:00 | 00:00:00 | |
| OE5DXL-15 | 2026-09-02 03:34:28 | 47.05796 | 16.32862 | 83° | 66km/h | 14409m | -6.0m/s | -56.5°C | 5.5% | 0hPa | 2.5V | 00:00:00 | 00:00:00 | 00:00:00 | |
| OE3JTB-15 | 2026-09-02 03:34:24 | 47.05786 | 16.32773 | 80° | 75km/h | 14433m | -6.3m/s | -56.6°C | 5.5% | 0hPa | 2.5V | 00:00:00 | 01:47:54 | 00:00:00 | |
| PETON7-10 | 2026-09-02 03:34:20 | 47.05773 | 16.32681 | 78° | 66km/h | 14458m | -6.1m/s | -56.7°C | 5.5% | 0hPa | 2.5V | 00:00:00 | 01:47:50 | 00:00:00 | |
| OE5DRO-10 | 2026-09-02 03:34:16 | 47.05760 | 16.32589 | 78° | 66km/h | 14482m | -6.1m/s | -56.9°C | 5.6% | 0hPa | 2.5V | 00:00:00 | 00:00:00 | 00:00:00 | |
| PG1ADW-2 | 2026-09-02 03:34:11 | 47.05743 | 16.32472 | 79° | 71km/h | 14512m | -6.1m/s | -56.8°C | 5.6% | 0hPa | 2.5V | 08:16:00 | 00:00:00 | 00:00:00 | |
| PETON7-10 | 2026-09-02 03:34:05 | 47.05724 | 16.32327 | 80° | 73km/h | 14549m | -6.1m/s | -56.7°C | 5.4% | 0hPa | 2.6V | 00:00:00 | 00:00:00 | 00:00:00 | |
| OE8JPQ-2 | 2026-09-02 03:34:01 | 47.05712 | 16.32225 | 81° | 77km/h | 14573m | -5.8m/s | -56.9°C | 5.5% | 0hPa | 2.6V | 00:00:00 | 00:00:00 | 00:00:00 | |
| OE5DXL-15 | 2026-09-02 03:33:58 | 47.05704 | 16.32146 | 82° | 80km/h | 14591m | -6.2m/s | -57.0°C | 5.5% | 0hPa | 2.6V | 08:16:00 | 00:00:00 | 00:00:00 | |
| OE5DRO-10 | 2026-09-02 03:33:57 | 47.05701 | 16.32119 | 82° | 78km/h | 14597m | -5.7m/s | -57.1°C | 5.6% | 0hPa | 2.5V | 00:00:00 | 00:00:00 | 00:00:00 | |
| PG1ADW-2 | 2026-09-02 03:33:51 | 47.05686 | 16.31956 | 83° | 82km/h | 14633m | -5.9m/s | -57.2°C | 5.6% | 0hPa | 2.5V | 00:00:00 | 00:00:00 | 00:00:00 | |
| PETON7-10 | 2026-09-02 03:33:50 | 47.05683 | 16.31928 | 83° | 82km/h | 14640m | -5.9m/s | -57.2°C | 5.6% | 0hPa | 2.5V | 00:00:00 | 00:00:00 | 00:00:00 | |
| OE8JPQ-2 | 2026-09-02 03:33:41 | 47.05665 | 16.31660 | 87° | 86km/h | 14694m | -6.3m/s | -57.3°C | 5.5% | 0hPa | 2.5V | 00:00:00 | 01:47:11 | 00:00:00 | |
| OE5DRO-10 | 2026-09-02 03:33:38 | 47.05662 | 16.31566 | 88° | 86km/h | 14712m | -6.1m/s | -57.4°C | 5.6% | 0hPa | 2.5V | 00:00:00 | 00:00:00 | 00:00:00 | |
| PETON7-10 | 2026-09-02 03:33:35 | 47.05659 | 16.31474 | 88° | 86km/h | 14730m | -6.1m/s | -57.4°C | 5.7% | 0hPa | 2.5V | 00:00:00 | 01:47:05 | 00:00:00 | |
| PG1ADW-2 | 2026-09-02 03:33:31 | 47.05658 | 16.31348 | 91° | 86km/h | 14754m | -6.2m/s | -57.2°C | 5.6% | 0hPa | 2.5V | 00:00:00 | 01:47:01 | 00:00:00 | |
| OE5DXL-15 | 2026-09-02 03:33:28 | 47.05659 | 16.31252 | 92° | 86km/h | 14773m | -6.2m/s | -56.9°C | 5.5% | 0hPa | 2.5V | 00:00:00 | 00:00:00 | 00:00:00 | |
| OE8JPQ-2 | 2026-09-02 03:33:21 | 47.05666 | 16.31028 | 94° | 84km/h | 14815m | -6.2m/s | -56.8°C | 5.4% | 0hPa | 2.5V | 00:00:00 | 00:00:00 | 00:00:00 | |
| PETON7-10 | 2026-09-02 03:33:20 | 47.05667 | 16.30996 | 95° | 86km/h | 14822m | -5.9m/s | -56.9°C | 5.4% | 0hPa | 2.5V | 08:17:00 | 00:00:00 | 00:00:00 | |
| OE5DRO-10 | 2026-09-02 03:33:19 | 47.05669 | 16.30964 | 94° | 84km/h | 14828m | -6.1m/s | -56.8°C | 5.4% | 0hPa | 2.5V | 00:00:00 | 00:00:00 | 00:00:00 | |
| PG1ADW-2 | 2026-09-02 03:33:11 | 47.05680 | 16.30711 | 94° | 84km/h | 14877m | -6.3m/s | -56.8°C | 5.4% | 0hPa | 2.5V | 00:00:00 | 00:00:00 | 00:00:00 | |
| PETON7-10 | 2026-09-02 03:33:05 | 47.05686 | 16.30526 | 93° | 82km/h | 14915m | -6.5m/s | -56.4°C | 5.2% | 0hPa | 2.6V | 00:00:00 | 00:00:00 | 00:00:00 | |
| OE8JPQ-2 | 2026-09-02 03:33:01 | 47.05688 | 16.30404 | 92° | 84km/h | 14940m | -6.4m/s | -56.3°C | 5.1% | 0hPa | 2.6V | 00:00:00 | 00:00:00 | 00:00:00 | |
| OE5DRO-10 | 2026-09-02 03:32:58 | 47.05688 | 16.30311 | 90° | 82km/h | 14959m | -6.5m/s | -56.3°C | 5.1% | 0hPa | 2.6V | 00:00:00 | 00:00:00 | 00:00:00 | |
| OE3JTB-15 | 2026-09-02 03:32:57 | 47.05688 | 16.30280 | 88° | 82km/h | 14965m | -6.5m/s | -56.3°C | 5.1% | 0hPa | 2.6V | 00:00:00 | 00:00:00 | 00:00:00 | |
| PG1ADW-2 | 2026-09-02 03:32:51 | 47.05681 | 16.30097 | 87° | 82km/h | 15003m | -6.2m/s | -56.3°C | 5.0% | 0hPa | 2.6V | 00:00:00 | 00:00:00 | 00:00:00 | |
| PETON7-10 | 2026-09-02 03:32:50 | 47.05680 | 16.30066 | 87° | 82km/h | 15010m | -6.6m/s | -56.3°C | 5.0% | 0hPa | 2.6V | 00:00:00 | 01:46:20 | 00:00:00 | |
| OE8JPQ-2 | 2026-09-02 03:32:41 | 47.05671 | 16.29789 | 88° | 78km/h | 15068m | -6.4m/s | -56.6°C | 5.2% | 0hPa | 2.6V | 00:00:00 | 01:46:11 | 00:00:00 | |
| OE5DRO-10 | 2026-09-02 03:32:39 | 47.05669 | 16.29728 | 89° | 78km/h | 15081m | -6.5m/s | -56.6°C | 5.2% | 0hPa | 2.6V | 00:00:00 | 00:00:00 | 00:00:00 | |
| PETON7-10 | 2026-09-02 03:32:35 | 47.05667 | 16.29609 | 89° | 78km/h | 15108m | -6.5m/s | -56.6°C | 5.2% | 0hPa | 2.5V | 00:00:00 | 00:00:00 | 00:00:00 | |
| PG1ADW-2 | 2026-09-02 03:32:31 | 47.05664 | 16.29493 | 86° | 78km/h | 15135m | -6.4m/s | -56.6°C | 5.3% | 0hPa | 2.6V | 00:00:00 | 00:00:00 | 00:00:00 | |
| OE5DXL-15 | 2026-09-02 03:32:28 | 47.05659 | 16.29407 | 85° | 80km/h | 15155m | -7.2m/s | -56.6°C | 5.2% | 0hPa | 2.6V | 00:00:00 | 00:00:00 | 00:00:00 | |
| OE8JPQ-2 | 2026-09-02 03:32:21 | 47.05642 | 16.29206 | 82° | 80km/h | 15202m | -6.5m/s | -56.3°C | 5.1% | 0hPa | 2.5V | 00:00:00 | 00:00:00 | 00:00:00 | |
| OE5DRO-10 | 2026-09-02 03:32:20 | 47.05639 | 16.29178 | 80° | 80km/h | 15209m | -6.9m/s | -56.2°C | 5.1% | 0hPa | 2.6V | 00:00:00 | 00:00:00 | 00:00:00 | |
| PG1ADW-2 | 2026-09-02 03:32:11 | 47.05605 | 16.28912 | 82° | 82km/h | 15271m | -7.0m/s | -55.3°C | 4.7% | 0hPa | 2.6V | 00:00:00 | 01:45:41 | 00:00:00 | |
| PETON7-10 | 2026-09-02 03:32:05 | 47.05586 | 16.28736 | 80° | 82km/h | 15313m | -6.9m/s | -55.5°C | 4.9% | 0hPa | 2.6V | 00:00:00 | 01:45:35 | 00:00:00 | |
| OE8JPQ-2 | 2026-09-02 03:32:01 | 47.05572 | 16.28616 | 81° | 84km/h | 15341m | -7.0m/s | -55.2°C | 4.8% | 0hPa | 2.6V | 00:00:00 | 00:00:00 | 00:00:00 | |
| OE5DXL-15 | 2026-09-02 03:31:58 | 47.05562 | 16.28526 | 81° | 84km/h | 15362m | -7.3m/s | -54.9°C | 4.7% | 0hPa | 2.6V | 00:00:00 | 00:00:00 | 00:00:00 | |
| PG1ADW-2 | 2026-09-02 03:31:51 | 47.05540 | 16.28313 | 83° | 84km/h | 15412m | -7.0m/s | -54.3°C | 4.5% | 0hPa | 2.6V | 00:00:00 | 00:00:00 | 00:00:00 | |
| PETON7-10 | 2026-09-02 03:31:50 | 47.05538 | 16.28283 | 84° | 84km/h | 15419m | -7.3m/s | -54.3°C | 4.4% | 0hPa | 2.6V | 00:00:00 | 00:00:00 | 00:00:00 | |
| OE5DRO-10 | 2026-09-02 03:31:42 | 47.05519 | 16.28036 | 84° | 84km/h | 15477m | -7.4m/s | -54.4°C | 4.5% | 0hPa | 2.5V | 08:18:00 | 00:00:00 | 00:00:00 | |
| PETON7-10 | 2026-09-02 03:31:35 | 47.05510 | 16.27819 | 88° | 82km/h | 15528m | -7.6m/s | -54.0°C | 4.4% | 0hPa | 2.5V | 00:00:00 | 00:00:00 | 00:00:00 | |
| PG1ADW-2 | 2026-09-02 03:31:31 | 47.05506 | 16.27695 | 87° | 82km/h | 15557m | -7.7m/s | -53.9°C | 4.4% | 0hPa | 2.5V | 00:00:00 | 00:00:00 | 00:00:00 | |
| OE5DXL-15 | 2026-09-02 03:31:28 | 47.05503 | 16.27602 | 89° | 82km/h | 15580m | -7.4m/s | -53.5°C | 4.3% | 0hPa | 2.5V | 00:00:00 | 00:00:00 | 00:00:00 | |
| OE5DRO-10 | 2026-09-02 03:31:23 | 47.05502 | 16.27450 | 90° | 82km/h | 15617m | -7.5m/s | -53.0°C | 4.1% | 0hPa | 2.5V | 00:00:00 | 00:00:00 | 00:00:00 | |
| OE8JPQ-2 | 2026-09-02 03:31:21 | 47.05501 | 16.27389 | 89° | 82km/h | 15632m | -7.1m/s | -53.1°C | 4.1% | 0hPa | 2.5V | 08:19:00 | 00:00:00 | 00:00:00 | |
| PETON7-10 | 2026-09-02 03:31:20 | 47.05500 | 16.27359 | 88° | 82km/h | 15639m | -7.3m/s | -53.1°C | 4.1% | 0hPa | 2.5V | 00:00:00 | 01:44:50 | 00:00:00 | |
| OE3JTB-15 | 2026-09-02 03:31:16 | 47.05497 | 16.27238 | 88° | 80km/h | 15668m | -7.4m/s | -53.3°C | 4.1% | 0hPa | 2.5V | 00:00:00 | 01:44:46 | 00:00:00 | |
| PG1ADW-2 | 2026-09-02 03:31:11 | 47.05491 | 16.27087 | 86° | 82km/h | 15705m | -7.2m/s | -53.5°C | 4.1% | 0hPa | 2.5V | 08:19:00 | 00:00:00 | 00:00:00 | |
| PETON7-10 | 2026-09-02 03:31:05 | 47.05481 | 16.26904 | 87° | 80km/h | 15750m | -7.4m/s | -53.6°C | 4.1% | 0hPa | 2.5V | 08:19:00 | 00:00:00 | 00:00:00 | |
| OE5DRO-10 | 2026-09-02 03:31:04 | 47.05480 | 16.26873 | 86° | 78km/h | 15757m | -7.5m/s | -53.6°C | 4.2% | 0hPa | 2.5V | 00:00:00 | 00:00:00 | 00:00:00 | |
| OE8JPQ-2 | 2026-09-02 03:31:01 | 47.05475 | 16.26780 | 88° | 77km/h | 15779m | -7.3m/s | -53.5°C | 4.1% | 0hPa | 2.5V | 00:00:00 | 00:00:00 | 00:00:00 | |
| OE5DXL-15 | 2026-09-02 03:30:58 | 47.05472 | 16.26688 | 87° | 71km/h | 15802m | -7.9m/s | -53.7°C | 4.1% | 0hPa | 2.5V | 00:00:00 | 00:00:00 | 00:00:00 | |
| PG1ADW-2 | 2026-09-02 03:30:51 | 47.05468 | 16.26485 | 90° | 71km/h | 15855m | -7.1m/s | -53.9°C | 4.3% | 0hPa | 2.5V | 00:00:00 | 01:44:21 | 00:00:00 | |
| PETON7-10 | 2026-09-02 03:30:50 | 47.05467 | 16.26457 | 90° | 71km/h | 15863m | -8.0m/s | -53.9°C | 4.3% | 0hPa | 2.5V | 00:00:00 | 00:00:00 | 00:00:00 | |
| OE3JTB-15 | 2026-09-02 03:30:46 | 47.05468 | 16.26348 | 92° | 64km/h | 15893m | -7.6m/s | -53.8°C | 4.2% | 0hPa | 2.5V | 00:00:00 | 00:00:00 | 00:00:00 | |
| OE5DRO-10 | 2026-09-02 03:30:45 | 47.05469 | 16.26321 | 92° | 68km/h | 15901m | -7.6m/s | -53.9°C | 4.3% | 0hPa | 2.5V | 00:00:00 | 00:00:00 | 00:00:00 | |
| OE8JPQ-2 | 2026-09-02 03:30:41 | 47.05471 | 16.26214 | 92° | 64km/h | 15931m | -7.8m/s | -53.9°C | 4.3% | 0hPa | 2.5V | 00:00:00 | 01:44:11 | 00:00:00 | |
| PETON7-10 | 2026-09-02 03:30:35 | 47.05477 | 16.26063 | 95° | 60km/h | 15978m | -8.0m/s | -53.7°C | 4.2% | 0hPa | 2.5V | 00:00:00 | 01:44:05 | 00:00:00 | |
| PG1ADW-2 | 2026-09-02 03:30:31 | 47.05483 | 16.25967 | 97° | 57km/h | 16009m | -7.5m/s | -53.5°C | 4.2% | 0hPa | 2.5V | 00:00:00 | 00:00:00 | 00:00:00 | |
| OE5DXL-15 | 2026-09-02 03:30:28 | 47.05489 | 16.25897 | 97° | 47km/h | 16032m | -7.7m/s | -53.2°C | 4.1% | 0hPa | 2.5V | 00:00:00 | 00:00:00 | 00:00:00 | |
| OE5DRO-10 | 2026-09-02 03:30:26 | 47.05493 | 16.25852 | 98° | 51km/h | 16047m | -8.1m/s | -53.2°C | 4.0% | 0hPa | 2.5V | 00:00:00 | 00:00:00 | 00:00:00 | |
| OE8JPQ-2 | 2026-09-02 03:30:21 | 47.05503 | 16.25748 | 98° | 46km/h | 16086m | -7.6m/s | -52.9°C | 4.0% | 0hPa | 2.5V | 00:00:00 | 00:00:00 | 00:00:00 | |
| PETON7-10 | 2026-09-02 03:30:20 | 47.05504 | 16.25729 | 99° | 47km/h | 16094m | -7.9m/s | -53.0°C | 4.0% | 0hPa | 2.6V | 00:00:00 | 00:00:00 | 00:00:00 | |
| OE3JTB-15 | 2026-09-02 03:30:17 | 47.05511 | 16.25671 | 101° | 38km/h | 16118m | -7.8m/s | -53.3°C | 4.0% | 0hPa | 2.6V | 00:00:00 | 00:00:00 | 00:00:00 | |
| PG1ADW-2 | 2026-09-02 03:30:11 | 47.05526 | 16.25563 | 101° | 37km/h | 16164m | -7.7m/s | -53.7°C | 4.3% | 0hPa | 2.6V | 00:00:00 | 00:00:00 | 00:00:00 | |
| OE5DRO-10 | 2026-09-02 03:30:07 | 47.05534 | 16.25501 | 101° | 35km/h | 16195m | -8.1m/s | -53.8°C | 4.3% | 0hPa | 2.6V | 00:00:00 | 00:00:00 | 00:00:00 | |
| PETON7-10 | 2026-09-02 03:30:05 | 47.05538 | 16.25472 | 101° | 33km/h | 16211m | -7.9m/s | -53.7°C | 4.2% | 0hPa | 2.6V | 00:00:00 | 00:00:00 | 00:00:00 | |
| OE8JPQ-2 | 2026-09-02 03:30:01 | 47.05544 | 16.25417 | 102° | 31km/h | 16241m | -7.7m/s | -53.2°C | 4.0% | 0hPa | 2.6V | 00:00:00 | 00:00:00 | 00:00:00 | |
| OE5DXL-15 | 2026-09-02 03:29:58 | 47.05548 | 16.25380 | 98° | 31km/h | 16264m | -7.8m/s | -52.9°C | 3.9% | 0hPa | 2.6V | 00:00:00 | 00:00:00 | 00:00:00 | |
| PG1ADW-2 | 2026-09-02 03:29:51 | 47.05553 | 16.25300 | 93° | 31km/h | 16316m | -7.2m/s | -53.2°C | 3.9% | 0hPa | 2.6V | 00:00:00 | 00:00:00 | 00:00:00 | |
| PETON7-10 | 2026-09-02 03:29:50 | 47.05554 | 16.25289 | 97° | 31km/h | 16323m | -7.4m/s | -53.3°C | 3.9% | 0hPa | 2.6V | 00:00:00 | 01:43:20 | 00:00:00 | |
| OE5DRO-10 | 2026-09-02 03:29:48 | 47.05555 | 16.25267 | 97° | 33km/h | 16338m | -7.3m/s | -53.4°C | 4.0% | 0hPa | 2.6V | 00:00:00 | 00:00:00 | 00:00:00 | |
| OE3JTB-15 | 2026-09-02 03:29:47 | 47.05556 | 16.25255 | 93° | 33km/h | 16345m | -7.1m/s | -53.5°C | 4.0% | 0hPa | 2.6V | 00:00:00 | 01:43:17 | 00:00:00 | |
| OE8JPQ-2 | 2026-09-02 03:29:41 | 47.05557 | 16.25184 | 92° | 33km/h | 16388m | -7.2m/s | -53.7°C | 4.0% | 0hPa | 2.6V | 00:00:00 | 01:43:11 | 00:00:00 | |
| PETON7-10 | 2026-09-02 03:29:35 | 47.05557 | 16.25112 | 89° | 33km/h | 16432m | -7.5m/s | -53.9°C | 4.1% | 0hPa | 2.6V | 00:00:00 | 00:00:00 | 00:00:00 | |
| PG1ADW-2 | 2026-09-02 03:29:31 | 47.05556 | 16.25064 | 90° | 35km/h | 16462m | -7.4m/s | -54.2°C | 4.1% | 0hPa | 2.5V | 00:00:00 | 01:43:01 | 00:00:00 | |
| OE5DRO-10 | 2026-09-02 03:29:29 | 47.05556 | 16.25041 | 91° | 35km/h | 16476m | -7.4m/s | -54.2°C | 4.1% | 0hPa | 2.5V | 00:00:00 | 00:00:00 | 00:00:00 | |
| OE5DXL-15 | 2026-09-02 03:29:28 | 47.05556 | 16.25029 | 93° | 37km/h | 16484m | -7.3m/s | -54.2°C | 4.1% | 0hPa | 2.5V | 08:21:00 | 00:00:00 | 00:00:00 | |
| OE8JPQ-2 | 2026-09-02 03:29:21 | 47.05558 | 16.24944 | 88° | 37km/h | 16534m | -6.9m/s | -54.6°C | 4.3% | 0hPa | 2.5V | 00:00:00 | 00:00:00 | 00:00:00 | |
| PETON7-10 | 2026-09-02 03:29:20 | 47.05558 | 16.24932 | 91° | 37km/h | 16541m | -7.3m/s | -54.7°C | 4.2% | 0hPa | 2.5V | 00:00:00 | 00:00:00 | 00:00:00 | |
| OE3JTB-15 | 2026-09-02 03:29:18 | 47.05557 | 16.24906 | 91° | 38km/h | 16556m | -7.3m/s | -54.8°C | 4.3% | 0hPa | 2.5V | 08:21:00 | 00:00:00 | 00:00:00 | |
| PG1ADW-2 | 2026-09-02 03:29:11 | 47.05556 | 16.24812 | 88° | 40km/h | 16607m | -7.2m/s | -54.8°C | 4.3% | 0hPa | 2.5V | 00:00:00 | 00:00:00 | 00:00:00 | |
| OE5DRO-10 | 2026-09-02 03:29:10 | 47.05556 | 16.24798 | 85° | 40km/h | 16614m | -7.3m/s | -54.9°C | 4.3% | 0hPa | 2.5V | 00:00:00 | 00:00:00 | 00:00:00 | |
| PETON7-10 | 2026-09-02 03:29:05 | 47.05551 | 16.24729 | 85° | 42km/h | 16651m | -7.4m/s | -55.0°C | 4.3% | 0hPa | 2.5V | 00:00:00 | 01:42:35 | 00:00:00 | |
| OE8JPQ-2 | 2026-09-02 03:29:01 | 47.05547 | 16.24671 | 84° | 44km/h | 16680m | -7.6m/s | -55.2°C | 4.4% | 0hPa | 2.5V | 00:00:00 | 00:00:00 | 00:00:00 | |
| OE5DXL-15 | 2026-09-02 03:28:58 | 47.05542 | 16.24625 | 81° | 44km/h | 16702m | -7.2m/s | -55.4°C | 4.5% | 0hPa | 2.5V | 00:00:00 | 00:00:00 | 00:00:00 | |
| PG1ADW-2 | 2026-09-02 03:28:51 | 47.05527 | 16.24518 | 78° | 46km/h | 16754m | -7.5m/s | -55.6°C | 4.6% | 0hPa | 2.5V | 00:00:00 | 00:00:00 | 00:00:00 | |
| PETON7-10 | 2026-09-02 03:28:50 | 47.05525 | 16.24501 | 82° | 46km/h | 16761m | -7.3m/s | -55.6°C | 4.6% | 0hPa | 2.5V | 08:21:00 | 00:00:00 | 00:00:00 | |
| OE3JTB-15 | 2026-09-02 03:28:47 | 47.05519 | 16.24453 | 82° | 44km/h | 16784m | -7.5m/s | -55.5°C | 4.6% | 0hPa | 2.6V | 00:00:00 | 00:00:00 | 00:00:00 | |
| PETON7-10 | 2026-09-02 03:28:35 | 47.05514 | 16.24253 | 97° | 46km/h | 16873m | -7.4m/s | -55.0°C | 4.3% | 0hPa | 2.6V | 00:00:00 | 00:00:00 | 00:00:00 | |
| OE5DRO-10 | 2026-09-02 03:28:32 | 47.05518 | 16.24201 | 97° | 44km/h | 16896m | -7.8m/s | -55.0°C | 4.3% | 0hPa | 2.6V | 00:00:00 | 00:00:00 | 00:00:00 | |
| PG1ADW-2 | 2026-09-02 03:28:31 | 47.05520 | 16.24184 | 99° | 44km/h | 16904m | -7.9m/s | -55.1°C | 4.3% | 0hPa | 2.6V | 00:00:00 | 00:00:00 | 00:00:00 | |
| OE5DXL-15 | 2026-09-02 03:28:28 | 47.05525 | 16.24134 | 100° | 46km/h | 16927m | -7.7m/s | -55.2°C | 4.3% | 0hPa | 2.6V | 00:00:00 | 00:00:00 | 00:00:00 | |
| OE8JPQ-2 | 2026-09-02 03:28:21 | 47.05540 | 16.24020 | 102° | 44km/h | 16980m | -7.5m/s | -55.4°C | 4.4% | 0hPa | 2.6V | 08:22:00 | 00:00:00 | 00:00:00 | |
| OE3JTB-15 | 2026-09-02 03:28:16 | 47.05553 | 16.23942 | 108° | 44km/h | 17019m | -7.5m/s | -55.5°C | 4.4% | 0hPa | 2.6V | 00:00:00 | 01:41:46 | 00:00:00 | |
| OE5DRO-10 | 2026-09-02 03:28:13 | 47.05563 | 16.23897 | 108° | 46km/h | 17042m | -7.8m/s | -55.6°C | 4.4% | 0hPa | 2.6V | 00:00:00 | 00:00:00 | 00:00:00 | |
| PG1ADW-2 | 2026-09-02 03:28:11 | 47.05570 | 16.23867 | 109° | 47km/h | 17057m | -7.9m/s | -55.7°C | 4.4% | 0hPa | 2.6V | 08:22:00 | 01:41:41 | 00:00:00 | |
| PETON7-10 | 2026-09-02 03:28:05 | 47.05594 | 16.23773 | 112° | 47km/h | 17103m | -7.6m/s | -55.9°C | 4.5% | 0hPa | 2.6V | 00:00:00 | 00:00:00 | 00:00:00 | |
| OE8JPQ-2 | 2026-09-02 03:28:01 | 47.05612 | 16.23709 | 114° | 44km/h | 17134m | -7.7m/s | -56.0°C | 4.6% | 0hPa | 2.5V | 00:00:00 | 00:00:00 | 00:00:00 | |
| OE5DXL-15 | 2026-09-02 03:27:58 | 47.05626 | 16.23660 | 113° | 42km/h | 17157m | -7.9m/s | -56.2°C | 4.5% | 0hPa | 2.5V | 00:00:00 | 00:00:00 | 00:00:00 | |
| OE5DRO-10 | 2026-09-02 03:27:54 | 47.05645 | 16.23595 | 112° | 42km/h | 17189m | -7.9m/s | -56.4°C | 4.7% | 0hPa | 2.6V | 00:00:00 | 00:00:00 | 00:00:00 | |
| PG1ADW-2 | 2026-09-02 03:27:51 | 47.05658 | 16.23546 | 112° | 40km/h | 17212m | -7.6m/s | -56.5°C | 4.7% | 0hPa | 2.5V | 00:00:00 | 00:00:00 | 00:00:00 | |
| PETON7-10 | 2026-09-02 03:27:50 | 47.05662 | 16.23530 | 112° | 40km/h | 17219m | -7.8m/s | -56.6°C | 4.7% | 0hPa | 2.5V | 00:00:00 | 00:00:00 | 00:00:00 | |
| OE8JPQ-2 | 2026-09-02 03:27:41 | 47.05686 | 16.23400 | 101° | 38km/h | 17290m | -7.3m/s | -56.7°C | 4.7% | 0hPa | 2.5V | 00:00:00 | 01:41:11 | 00:00:00 | |
| OE3JTB-15 | 2026-09-02 03:27:40 | 47.05687 | 16.23387 | 103° | 37km/h | 17297m | -8.1m/s | -56.7°C | 4.8% | 0hPa | 2.5V | 00:00:00 | 00:00:00 | 00:00:00 | |
| OE5DRO-10 | 2026-09-02 03:27:35 | 47.05696 | 16.23319 | 100° | 38km/h | 17337m | -8.2m/s | -56.6°C | 4.8% | 0hPa | 2.5V | 00:00:00 | 00:00:00 | 00:00:00 | |
| PG1ADW-2 | 2026-09-02 03:27:31 | 47.05703 | 16.23262 | 102° | 37km/h | 17368m | -7.7m/s | -56.5°C | 4.8% | 0hPa | 2.5V | 00:00:00 | 00:00:00 | 00:00:00 | |
| OE5DXL-15 | 2026-09-02 03:27:28 | 47.05709 | 16.23219 | 100° | 37km/h | 17392m | -8.0m/s | -56.4°C | 4.7% | 0hPa | 2.5V | 00:00:00 | 00:00:00 | 00:00:00 | |
| OE8JPQ-2 | 2026-09-02 03:27:21 | 47.05721 | 16.23122 | 99° | 35km/h | 17447m | -7.9m/s | -56.1°C | 4.6% | 0hPa | 2.5V | 00:00:00 | 00:00:00 | 00:00:00 | |
| PETON7-10 | 2026-09-02 03:27:20 | 47.05722 | 16.23109 | 97° | 35km/h | 17455m | -8.2m/s | -56.2°C | 4.6% | 0hPa | 2.5V | 00:00:00 | 00:00:00 | 00:00:00 | |
| OE5DRO-10 | 2026-09-02 03:27:16 | 47.05726 | 16.23058 | 97° | 37km/h | 17487m | -8.2m/s | -56.1°C | 4.6% | 0hPa | 2.5V | 00:00:00 | 00:00:00 | 00:00:00 | |
| PG1ADW-2 | 2026-09-02 03:27:11 | 47.05730 | 16.22993 | 94° | 38km/h | 17527m | -8.1m/s | -56.3°C | 4.6% | 0hPa | 2.5V | 00:00:00 | 00:00:00 | 00:00:00 | |
| PETON7-10 | 2026-09-02 03:27:05 | 47.05733 | 16.22918 | 97° | 40km/h | 17575m | -8.1m/s | -56.1°C | 4.5% | 0hPa | 2.6V | 00:00:00 | 00:00:00 | 00:00:00 | |
| OE8JPQ-2 | 2026-09-02 03:27:01 | 47.05736 | 16.22865 | 94° | 42km/h | 17607m | -7.9m/s | -56.2°C | 4.5% | 0hPa | 2.6V | 00:00:00 | 00:00:00 | 00:00:00 | |
| OE5DXL-15 | 2026-09-02 03:26:58 | 47.05738 | 16.22819 | 94° | 38km/h | 17631m | -8.3m/s | -56.3°C | 4.5% | 0hPa | 2.6V | 00:00:00 | 00:00:00 | 00:00:00 | |
| OE5DRO-10 | 2026-09-02 03:26:57 | 47.05739 | 16.22804 | 95° | 40km/h | 17640m | -8.2m/s | -56.4°C | 4.6% | 0hPa | 2.6V | 00:00:00 | 00:00:00 | 00:00:00 | |
| PG1ADW-2 | 2026-09-02 03:26:51 | 47.05742 | 16.22711 | 94° | 38km/h | 17689m | -7.9m/s | -56.8°C | 4.7% | 0hPa | 2.6V | 00:00:00 | 01:40:21 | 00:00:00 | |
| PETON7-10 | 2026-09-02 03:26:50 | 47.05742 | 16.22695 | 93° | 38km/h | 17697m | -8.1m/s | -56.8°C | 4.8% | 0hPa | 2.6V | 00:00:00 | 01:40:20 | 00:00:00 | |
| OE3JTB-15 | 2026-09-02 03:26:42 | 47.05745 | 16.22575 | 93° | 31km/h | 17763m | -8.2m/s | -56.5°C | 4.6% | 0hPa | 2.6V | 00:00:00 | 01:40:12 | 00:00:00 | |
| OE8JPQ-2 | 2026-09-02 03:26:41 | 47.05745 | 16.22561 | 95° | 31km/h | 17771m | -8.2m/s | -56.5°C | 4.6% | 0hPa | 2.6V | 00:00:00 | 01:40:11 | 00:00:00 | |
| OE5DRO-10 | 2026-09-02 03:26:38 | 47.05748 | 16.22519 | 97° | 29km/h | 17795m | -8.5m/s | -56.6°C | 4.7% | 0hPa | 2.6V | 00:00:00 | 00:00:00 | 00:00:00 | |
| PETON7-10 | 2026-09-02 03:26:35 | 47.05751 | 16.22482 | 95° | 29km/h | 17821m | -8.3m/s | -56.7°C | 4.7% | 0hPa | 2.6V | 08:23:00 | 00:00:00 | 00:00:00 | |
| PG1ADW-2 | 2026-09-02 03:26:31 | 47.05754 | 16.22433 | 95° | 26km/h | 17854m | -8.2m/s | -56.8°C | 4.8% | 0hPa | 2.5V | 00:00:00 | 00:00:00 | 00:00:00 | |
| OE5DXL-15 | 2026-09-02 03:26:28 | 47.05756 | 16.22399 | 100° | 26km/h | 17879m | -8.3m/s | -56.7°C | 4.7% | 0hPa | 2.5V | 00:00:00 | 00:00:00 | 00:00:00 | |
| OE8JPQ-2 | 2026-09-02 03:26:21 | 47.05763 | 16.22329 | 93° | 24km/h | 17937m | -8.7m/s | -56.6°C | 4.7% | 0hPa | 2.5V | 00:00:00 | 00:00:00 | 00:00:00 | |
| PETON7-10 | 2026-09-02 03:26:20 | 47.05763 | 16.22320 | 90° | 24km/h | 17945m | -8.6m/s | -56.6°C | 4.7% | 0hPa | 2.5V | 00:00:00 | 00:00:00 | 00:00:00 | |
| OE5DRO-10 | 2026-09-02 03:26:19 | 47.05763 | 16.22311 | 89° | 24km/h | 17954m | -8.6m/s | -56.6°C | 4.6% | 0hPa | 2.5V | 00:00:00 | 00:00:00 | 00:00:00 | |
| OE3JTB-15 | 2026-09-02 03:26:13 | 47.05760 | 16.22260 | 83° | 31km/h | 18005m | -8.5m/s | -56.9°C | 4.7% | 0hPa | 2.5V | 00:00:00 | 00:00:00 | 00:00:00 | |
| PG1ADW-2 | 2026-09-02 03:26:11 | 47.05758 | 16.22243 | 82° | 29km/h | 18022m | -8.9m/s | -56.9°C | 4.7% | 0hPa | 2.6V | 00:00:00 | 00:00:00 | 00:00:00 | |
| PETON7-10 | 2026-09-02 03:26:05 | 47.05752 | 16.22191 | 84° | 33km/h | 18074m | -8.6m/s | -57.0°C | 4.8% | 0hPa | 2.6V | 00:00:00 | 01:39:35 | 00:00:00 | |
| OE8JPQ-2 | 2026-09-02 03:26:01 | 47.05748 | 16.22150 | 80° | 37km/h | 18108m | -9.0m/s | -57.1°C | 4.9% | 0hPa | 2.6V | 00:00:00 | 00:00:00 | 00:00:00 | |
| OE5DRO-10 | 2026-09-02 03:26:00 | 47.05746 | 16.22138 | 79° | 37km/h | 18117m | -8.6m/s | -57.1°C | 4.9% | 0hPa | 2.6V | 08:24:00 | 00:00:00 | 00:00:00 | |
| OE5DXL-15 | 2026-09-02 03:25:58 | 47.05742 | 16.22116 | 76° | 38km/h | 18134m | -8.6m/s | -57.0°C | 4.9% | 0hPa | 2.5V | 00:00:00 | 00:00:00 | 00:00:00 | |
| PG1ADW-2 | 2026-09-02 03:25:51 | 47.05728 | 16.22028 | 78° | 40km/h | 18195m | -9.1m/s | -56.9°C | 4.9% | 0hPa | 2.5V | 00:00:00 | 00:00:00 | 00:00:00 | |
| PETON7-10 | 2026-09-02 03:25:50 | 47.05726 | 16.22014 | 79° | 40km/h | 18204m | -9.0m/s | -56.9°C | 4.9% | 0hPa | 2.5V | 00:00:00 | 00:00:00 | 00:00:00 | |
| OE3JTB-15 | 2026-09-02 03:25:43 | 47.05714 | 16.21909 | 79° | 37km/h | 18266m | -8.8m/s | -56.7°C | 4.9% | 0hPa | 2.6V | 00:00:00 | 00:00:00 | 00:00:00 | |
| OE5DRO-10 | 2026-09-02 03:25:41 | 47.05710 | 16.21879 | 81° | 38km/h | 18284m | -8.9m/s | -56.8°C | 5.0% | 0hPa | 2.6V | 00:00:00 | 00:00:00 | 00:00:00 | |
| PETON7-10 | 2026-09-02 03:25:35 | 47.05697 | 16.21792 | 76° | 37km/h | 18337m | -9.0m/s | -55.8°C | 4.6% | 0hPa | 2.6V | 00:00:00 | 00:00:00 | 00:00:00 | |
| PG1ADW-2 | 2026-09-02 03:25:31 | 47.05684 | 16.21738 | 72° | 33km/h | 18372m | -9.0m/s | -55.5°C | 4.5% | 0hPa | 2.6V | 00:00:00 | 01:39:01 | 00:00:00 | |
| OE5DXL-15 | 2026-09-02 03:25:28 | 47.05675 | 16.21699 | 67° | 29km/h | 18399m | -8.8m/s | -55.3°C | 4.4% | 0hPa | 2.6V | 00:00:00 | 00:00:00 | 00:00:00 | |
| OE5DRO-10 | 2026-09-02 03:25:22 | 47.05659 | 16.21627 | 81° | 27km/h | 18452m | -9.1m/s | -55.1°C | 4.2% | 0hPa | 2.6V | 00:00:00 | 00:00:00 | 00:00:00 | |
| OE8JPQ-2 | 2026-09-02 03:25:21 | 47.05658 | 16.21614 | 82° | 27km/h | 18461m | -8.9m/s | -55.1°C | 4.2% | 0hPa | 2.6V | 08:25:00 | 00:00:00 | 00:00:00 | |
| PETON7-10 | 2026-09-02 03:25:20 | 47.05656 | 16.21602 | 81° | 29km/h | 18470m | -9.3m/s | -55.2°C | 4.2% | 0hPa | 2.5V | 00:00:00 | 01:38:50 | 00:00:00 | |
| OE3JTB-15 | 2026-09-02 03:25:14 | 47.05652 | 16.21533 | 89° | 26km/h | 18524m | -9.1m/s | -55.4°C | 4.4% | 0hPa | 2.5V | 00:00:00 | 01:38:44 | 00:00:00 | |
| PG1ADW-2 | 2026-09-02 03:25:11 | 47.05651 | 16.21502 | 88° | 27km/h | 18551m | -8.7m/s | -55.5°C | 4.4% | 0hPa | 2.5V | 08:25:00 | 00:00:00 | 00:00:00 | |
| PETON7-10 | 2026-09-02 03:25:05 | 47.05647 | 16.21448 | 75° | 27km/h | 18605m | -9.0m/s | -55.3°C | 4.3% | 0hPa | 2.5V | 00:00:00 | 00:00:00 | 00:00:00 | |
| OE5DRO-10 | 2026-09-02 03:25:03 | 47.05645 | 16.21431 | 78° | 29km/h | 18623m | -8.9m/s | -55.3°C | 4.3% | 0hPa | 2.6V | 00:00:00 | 00:00:00 | 00:00:00 | |
| OE8JPQ-2 | 2026-09-02 03:25:01 | 47.05642 | 16.21414 | 78° | 29km/h | 18641m | -8.8m/s | -55.4°C | 4.4% | 0hPa | 2.6V | 00:00:00 | 00:00:00 | 00:00:00 | |
| OE5DXL-15 | 2026-09-02 03:24:58 | 47.05637 | 16.21384 | 81° | 27km/h | 18668m | -9.1m/s | -55.6°C | 4.5% | 0hPa | 2.6V | 08:25:00 | 00:00:00 | 00:00:00 | |
| PG1ADW-2 | 2026-09-02 03:24:51 | 47.05627 | 16.21305 | 80° | 27km/h | 18731m | -8.8m/s | -55.8°C | 4.6% | 0hPa | 2.5V | 00:00:00 | 00:00:00 | 00:00:00 | |
| PETON7-10 | 2026-09-02 03:24:50 | 47.05625 | 16.21294 | 74° | 27km/h | 18739m | -9.0m/s | -55.8°C | 4.6% | 0hPa | 2.5V | 00:00:00 | 00:00:00 | 00:00:00 | |
| OE3JTB-15 | 2026-09-02 03:24:45 | 47.05615 | 16.21242 | 72° | 26km/h | 18785m | -9.4m/s | -55.8°C | 4.6% | 0hPa | 2.5V | 08:25:00 | 00:00:00 | 00:00:00 | |
| OE5DRO-10 | 2026-09-02 03:24:44 | 47.05613 | 16.21232 | 71° | 24km/h | 18794m | -8.9m/s | -55.7°C | 4.6% | 0hPa | 2.5V | 00:00:00 | 00:00:00 | 00:00:00 | |
| OE8JPQ-2 | 2026-09-02 03:24:41 | 47.05608 | 16.21205 | 83° | 24km/h | 18821m | -9.2m/s | -55.2°C | 4.4% | 0hPa | 2.5V | 00:00:00 | 01:38:11 | 00:00:00 | |
| PETON7-10 | 2026-09-02 03:24:35 | 47.05603 | 16.21153 | 89° | 26km/h | 18877m | -9.0m/s | -55.3°C | 4.4% | 0hPa | 2.5V | 00:00:00 | 01:38:05 | 00:00:00 | |
| PG1ADW-2 | 2026-09-02 03:24:31 | 47.05604 | 16.21117 | 103° | 26km/h | 18914m | -9.1m/s | -54.7°C | 4.2% | 0hPa | 2.5V | 00:00:00 | 00:00:00 | 00:00:00 | |
| OE5DXL-15 | 2026-09-02 03:24:28 | 47.05608 | 16.21090 | 103° | 26km/h | 18942m | -9.2m/s | -54.6°C | 4.2% | 0hPa | 2.5V | 00:00:00 | 00:00:00 | 00:00:00 | |
| OE5DRO-10 | 2026-09-02 03:24:25 | 47.05613 | 16.21064 | 107° | 27km/h | 18970m | -9.4m/s | -54.6°C | 4.2% | 0hPa | 2.5V | 00:00:00 | 00:00:00 | 00:00:00 | |
| OE8JPQ-2 | 2026-09-02 03:24:21 | 47.05621 | 16.21029 | 113° | 27km/h | 19009m | -9.3m/s | -54.8°C | 4.2% | 0hPa | 2.5V | 00:00:00 | 00:00:00 | 00:00:00 | |
| PETON7-10 | 2026-09-02 03:24:20 | 47.05624 | 16.21019 | 111° | 29km/h | 19018m | -9.5m/s | -54.8°C | 4.3% | 0hPa | 2.5V | 08:26:00 | 00:00:00 | 00:00:00 | |
| DB0NH | 2026-09-02 03:24:17 | 47.05632 | 16.20989 | 112° | 11km/h | 19046m | -9.4m/s | -55.0°C | 4.3% | 0hPa | 2.5V | 00:00:00 | 01:37:47 | 00:00:00 | |
| OE3JTB-15 | 2026-09-02 03:24:16 | 47.05635 | 16.20978 | 114° | 20km/h | 19055m | -8.8m/s | -55.0°C | 4.4% | 0hPa | 2.5V | 00:00:00 | 00:00:00 | 00:00:00 | |
| PG1ADW-2 | 2026-09-02 03:24:11 | 47.05650 | 16.20927 | 112° | 13km/h | 19102m | -9.4m/s | -55.3°C | 4.5% | 0hPa | 2.5V | 00:00:00 | 01:37:41 | 00:00:00 | |
| OE5DRO-10 | 2026-09-02 03:24:06 | 47.05665 | 16.20882 | 119° | 15km/h | 19148m | -9.6m/s | -55.3°C | 4.5% | 0hPa | 2.5V | 00:00:00 | 00:00:00 | 00:00:00 | |
| PETON7-10 | 2026-09-02 03:24:05 | 47.05667 | 16.20874 | 112° | 16km/h | 19158m | -9.1m/s | -55.1°C | 4.5% | 0hPa | 2.5V | 00:00:00 | 00:00:00 | 00:00:00 | |
| OE8JPQ-2 | 2026-09-02 03:24:01 | 47.05677 | 16.20845 | 111° | 9km/h | 19195m | -9.1m/s | -54.3°C | 4.1% | 0hPa | 2.5V | 00:00:00 | 00:00:00 | 00:00:00 | |
| OE5DXL-15 | 2026-09-02 03:23:58 | 47.05683 | 16.20828 | 123° | 9km/h | 19223m | -9.0m/s | -54.3°C | 4.1% | 0hPa | 2.5V | 00:00:00 | 00:00:00 | 00:00:00 | |
| OE5MMP-10 | 2026-09-02 03:23:54 | 47.05689 | 16.20811 | 126° | 5km/h | 19260m | -9.1m/s | -54.4°C | 4.2% | 0hPa | 2.5V | 00:00:00 | 01:37:24 | 00:00:00 | |
| PETON7-10 | 2026-09-02 03:23:50 | 47.05693 | 16.20799 | 116° | 7km/h | 19297m | -9.1m/s | -54.5°C | 4.2% | 0hPa | 2.5V | 00:00:00 | 01:37:20 | 00:00:00 | |
| OE3JTB-15 | 2026-09-02 03:23:47 | 47.05693 | 16.20794 | 52° | 15km/h | 19325m | -9.6m/s | -54.5°C | 4.1% | 0hPa | 2.5V | 00:00:00 | 01:37:17 | 00:00:00 | |
| PG1ADW-2 | 2026-09-02 03:23:43 | 47.05690 | 16.20792 | 353° | 13km/h | 19363m | -9.7m/s | -54.5°C | 4.1% | 0hPa | 2.5V | 00:00:00 | 00:00:00 | 00:00:00 | |
| OE8JPQ-2 | 2026-09-02 03:23:41 | 47.05686 | 16.20792 | 2° | 15km/h | 19382m | -9.6m/s | -54.6°C | 4.2% | 0hPa | 2.5V | 00:00:00 | 01:37:11 | 00:00:00 | |
| PETON7-10 | 2026-09-02 03:23:35 | 47.05671 | 16.20793 | 355° | 15km/h | 19439m | -9.8m/s | -54.4°C | 4.0% | 0hPa | 2.5V | 00:00:00 | 00:00:00 | 00:00:00 | |
| OE5MMP-10 | 2026-09-02 03:23:33 | 47.05664 | 16.20794 | 349° | 16km/h | 19459m | -9.9m/s | -54.5°C | 4.1% | 0hPa | 2.5V | 00:00:00 | 01:37:03 | 00:00:00 | |
| OE5DRO-10 | 2026-09-02 03:23:28 | 47.05645 | 16.20796 | 360° | 16km/h | 19507m | -9.5m/s | -54.8°C | 4.2% | 0hPa | 2.5V | 00:00:00 | 00:00:00 | 00:00:00 | |
| OE5MMP-10 | 2026-09-02 03:23:23 | 47.05625 | 16.20793 | 3° | 16km/h | 19556m | -10.1m/s | -55.1°C | 4.3% | 0hPa | 2.5V | 00:00:00 | 01:36:53 | 00:00:00 | |
| OE8JPQ-2 | 2026-09-02 03:23:21 | 47.05617 | 16.20790 | 20° | 18km/h | 19576m | -10.0m/s | -55.3°C | 4.4% | 0hPa | 2.5V | 00:00:00 | 00:00:00 | 00:00:00 | |
| PETON7-10 | 2026-09-02 03:23:19 | 47.05610 | 16.20786 | 30° | 18km/h | 19595m | -10.0m/s | -55.4°C | 4.4% | 0hPa | 2.6V | 00:00:00 | 00:00:00 | 00:00:00 | |
| OE5MMP-10 | 2026-09-02 03:23:13 | 47.05592 | 16.20761 | 51° | 20km/h | 19654m | -10.1m/s | -55.3°C | 4.5% | 0hPa | 2.6V | 00:00:00 | 01:36:43 | 00:00:00 | |
| OE5DRO-10 | 2026-09-02 03:23:09 | 47.05581 | 16.20737 | 65° | 22km/h | 19694m | -10.2m/s | -55.4°C | 4.5% | 0hPa | 2.6V | 08:27:00 | 00:00:00 | 00:00:00 | |
| OE3JTB-15 | 2026-09-02 03:23:08 | 47.05579 | 16.20731 | 66° | 24km/h | 19704m | -10.2m/s | -55.4°C | 4.5% | 0hPa | 2.5V | 00:00:00 | 00:00:00 | 00:00:00 | |
| PETON7-10 | 2026-09-02 03:23:04 | 47.05573 | 16.20703 | 75° | 22km/h | 19744m | -10.2m/s | -55.3°C | 4.5% | 0hPa | 2.5V | 00:00:00 | 01:36:34 | 00:00:00 | |
| OE5MMP-10 | 2026-09-02 03:23:03 | 47.05572 | 16.20694 | 78° | 13km/h | 19755m | -10.2m/s | -55.4°C | 4.5% | 0hPa | 2.5V | 00:00:00 | 01:36:33 | 00:00:00 | |
| OE8JPQ-2 | 2026-09-02 03:23:01 | 47.05570 | 16.20677 | 82° | 20km/h | 19775m | -10.3m/s | -55.4°C | 4.6% | 0hPa | 2.5V | 00:00:00 | 00:00:00 | 00:00:00 | |
| OE5DXL-15 | 2026-09-02 03:22:58 | 47.05569 | 16.20650 | 97° | 13km/h | 19805m | -9.9m/s | -55.2°C | 4.5% | 0hPa | 2.5V | 00:00:00 | 00:00:00 | 00:00:00 | |
| PETON7-10 | 2026-09-02 03:22:49 | 47.05584 | 16.20582 | 121° | 11km/h | 19897m | -10.2m/s | -54.8°C | 4.5% | 0hPa | 2.5V | 00:00:00 | 00:00:00 | 00:00:00 | |
| PG1ADW-2 | 2026-09-02 03:22:43 | 47.05600 | 16.20557 | 142° | 5km/h | 19958m | -10.1m/s | -54.0°C | 4.2% | 0hPa | 2.6V | 00:00:00 | 01:36:13 | 00:00:00 | |
| OE8JPQ-2 | 2026-09-02 03:22:41 | 47.05603 | 16.20553 | 127° | 5km/h | 19979m | -10.4m/s | -54.0°C | 4.2% | 0hPa | 2.6V | 00:00:00 | 01:36:11 | 00:00:00 | |
| OE5MMP-10 | 2026-09-02 03:22:39 | 47.05606 | 16.20548 | 130° | 4km/h | 19999m | -10.1m/s | -54.0°C | 4.2% | 0hPa | 2.6V | 08:27:00 | 01:36:09 | 00:00:00 | |
| OE3JTB-15 | 2026-09-02 03:22:36 | 47.05608 | 16.20545 | 84° | 9km/h | 20030m | -10.6m/s | -53.7°C | 4.1% | 0hPa | 2.5V | 00:00:00 | 00:00:00 | 00:00:00 | |
| PETON7-10 | 2026-09-02 03:22:34 | 47.05608 | 16.20542 | 72° | 5km/h | 20051m | -10.3m/s | -53.4°C | 3.9% | 0hPa | 2.5V | 00:00:00 | 00:00:00 | 00:00:00 | |
| OE5DRO-10 | 2026-09-02 03:22:31 | 47.05605 | 16.20542 | 25° | 7km/h | 20082m | -10.4m/s | -53.5°C | 4.0% | 0hPa | 2.5V | 00:00:00 | 00:00:00 | 00:00:00 | |
| OE5MMP-10 | 2026-09-02 03:22:29 | 47.05603 | 16.20541 | 358° | 7km/h | 20103m | -10.4m/s | -53.6°C | 4.0% | 0hPa | 2.5V | 00:00:00 | 01:35:59 | 00:00:00 | |
| OE5DXL-15 | 2026-09-02 03:22:28 | 47.05601 | 16.20542 | 345° | 11km/h | 20113m | -10.5m/s | -53.6°C | 4.0% | 0hPa | 2.5V | 00:00:00 | 00:00:00 | 00:00:00 | |
| PG1ADW-2 | 2026-09-02 03:22:23 | 47.05591 | 16.20541 | 2° | 9km/h | 20166m | -10.8m/s | -53.9°C | 4.1% | 0hPa | 2.5V | 00:00:00 | 00:00:00 | 00:00:00 | |
| OE8JPQ-2 | 2026-09-02 03:22:21 | 47.05588 | 16.20540 | 37° | 11km/h | 20187m | -10.4m/s | -53.9°C | 4.1% | 0hPa | 2.5V | 08:28:00 | 00:00:00 | 00:00:00 | |
| PETON7-10 | 2026-09-02 03:22:19 | 47.05585 | 16.20538 | 42° | 9km/h | 20208m | -10.5m/s | -53.8°C | 4.0% | 0hPa | 2.5V | 00:00:00 | 01:35:49 | 00:00:00 | |
| OE5DRO-10 | 2026-09-02 03:22:12 | 47.05575 | 16.20529 | 27° | 16km/h | 20282m | -10.4m/s | -54.0°C | 4.1% | 0hPa | 2.5V | 00:00:00 | 00:00:00 | 00:00:00 | |
| OE5MMP-10 | 2026-09-02 03:22:09 | 47.05569 | 16.20523 | 29° | 15km/h | 20314m | -10.9m/s | -54.2°C | 4.2% | 0hPa | 2.6V | 00:00:00 | 01:35:39 | 00:00:00 | |
| PETON7-10 | 2026-09-02 03:22:04 | 47.05554 | 16.20508 | 34° | 18km/h | 20367m | -10.7m/s | -54.2°C | 4.2% | 0hPa | 2.5V | 08:28:00 | 00:00:00 | 00:00:00 | |
| OE8JPQ-2 | 2026-09-02 03:22:01 | 47.05544 | 16.20498 | 31° | 18km/h | 20399m | -10.9m/s | -54.1°C | 4.1% | 0hPa | 2.6V | 00:00:00 | 00:00:00 | 00:00:00 | |
| OE5MMP-10 | 2026-09-02 03:21:59 | 47.05536 | 16.20492 | 22° | 20km/h | 20420m | -11.0m/s | -54.1°C | 4.1% | 0hPa | 2.6V | 00:00:00 | 01:35:29 | 00:00:00 | |
| OE5DXL-15 | 2026-09-02 03:21:58 | 47.05532 | 16.20490 | 18° | 18km/h | 20431m | -10.6m/s | -54.2°C | 4.1% | 0hPa | 2.6V | 00:00:00 | 00:00:00 | 00:00:00 | |
| OE5DRO-10 | 2026-09-02 03:21:53 | 47.05509 | 16.20475 | 24° | 18km/h | 20484m | -10.9m/s | -54.3°C | 4.2% | 0hPa | 2.6V | 00:00:00 | 00:00:00 | 00:00:00 | |
| OE5MMP-10 | 2026-09-02 03:21:49 | 47.05490 | 16.20460 | 33° | 16km/h | 20528m | -10.8m/s | -54.4°C | 4.2% | 0hPa | 2.6V | 00:00:00 | 01:35:19 | 00:00:00 | |
| PG1ADW-2 | 2026-09-02 03:21:43 | 47.05471 | 16.20430 | 56° | 16km/h | 20593m | -10.5m/s | -54.2°C | 4.2% | 0hPa | 2.6V | 00:00:00 | 00:00:00 | 00:00:00 | |
| OE8JPQ-2 | 2026-09-02 03:21:41 | 47.05467 | 16.20420 | 72° | 16km/h | 20615m | -10.6m/s | -54.3°C | 4.1% | 0hPa | 2.6V | 00:00:00 | 01:35:11 | 00:00:00 | |
| OE5MMP-10 | 2026-09-02 03:21:39 | 47.05465 | 16.20409 | 89° | 16km/h | 20636m | -10.6m/s | -54.3°C | 4.1% | 0hPa | 2.6V | 00:00:00 | 01:35:09 | 00:00:00 | |
| PETON7-10 | 2026-09-02 03:21:34 | 47.05467 | 16.20381 | 105° | 16km/h | 20691m | -11.1m/s | -54.4°C | 4.2% | 0hPa | 2.5V | 00:00:00 | 01:35:04 | 00:00:00 | |
| OE5MMP-10 | 2026-09-02 03:21:29 | 47.05472 | 16.20352 | 108° | 16km/h | 20745m | -10.8m/s | -54.4°C | 4.2% | 0hPa | 2.5V | 00:00:00 | 01:34:59 | 00:00:00 | |
| OE5DXL-15 | 2026-09-02 03:21:28 | 47.05473 | 16.20347 | 101° | 18km/h | 20755m | -10.7m/s | -54.3°C | 4.2% | 0hPa | 2.5V | 00:00:00 | 00:00:00 | 00:00:00 | |
| PG1ADW-2 | 2026-09-02 03:21:23 | 47.05474 | 16.20318 | 92° | 18km/h | 20809m | -11.3m/s | -54.3°C | 4.1% | 0hPa | 2.5V | 00:00:00 | 01:34:53 | 00:00:00 | |
| OE8JPQ-2 | 2026-09-02 03:21:21 | 47.05474 | 16.20307 | 91° | 18km/h | 20831m | -11.2m/s | -54.5°C | 4.2% | 0hPa | 2.5V | 00:00:00 | 00:00:00 | 00:00:00 | |
| DB0NH | 2026-09-02 03:21:19 | 47.05474 | 16.20295 | 89° | 20km/h | 20854m | -10.8m/s | -54.6°C | 4.3% | 0hPa | 2.5V | 00:00:00 | 01:34:49 | 00:00:00 | |
| OE5DRO-10 | 2026-09-02 03:21:15 | 47.05471 | 16.20273 | 75° | 20km/h | 20897m | -11.4m/s | -54.7°C | 4.4% | 0hPa | 2.5V | 00:00:00 | 00:00:00 | 00:00:00 | |
| OE5MMP-10 | 2026-09-02 03:21:09 | 47.05458 | 16.20241 | 46° | 22km/h | 20965m | -11.2m/s | -54.8°C | 4.4% | 0hPa | 2.5V | 08:29:00 | 01:34:39 | 00:00:00 | |
| PETON7-10 | 2026-09-02 03:21:04 | 47.05440 | 16.20214 | 46° | 24km/h | 21021m | -11.1m/s | -54.5°C | 4.4% | 0hPa | 2.5V | 00:00:00 | 00:00:00 | 00:00:00 | |
| OE8JPQ-2 | 2026-09-02 03:21:01 | 47.05426 | 16.20195 | 34° | 24km/h | 21055m | -11.6m/s | -54.4°C | 4.3% | 0hPa | 2.5V | 00:00:00 | 00:00:00 | 00:00:00 | |
| OE3JTB-15 | 2026-09-02 03:21:00 | 47.05421 | 16.20190 | 34° | 27km/h | 21067m | -11.2m/s | -54.4°C | 4.3% | 0hPa | 2.5V | 00:00:00 | 00:00:00 | 00:00:00 | |
| OE5MMP-10 | 2026-09-02 03:20:59 | 47.05415 | 16.20186 | 30° | 24km/h | 21078m | -11.3m/s | -54.4°C | 4.3% | 0hPa | 2.5V | 00:00:00 | 01:34:29 | 00:00:00 | |
| OE5DXL-15 | 2026-09-02 03:20:58 | 47.05410 | 16.20181 | 34° | 27km/h | 21089m | -11.2m/s | -54.5°C | 4.3% | 0hPa | 2.5V | 00:00:00 | 00:00:00 | 00:00:00 | |
| OE5DRO-10 | 2026-09-02 03:20:56 | 47.05401 | 16.20172 | 43° | 26km/h | 21111m | -11.3m/s | -54.5°C | 4.3% | 0hPa | 2.5V | 00:00:00 | 00:00:00 | 00:00:00 | |
| OE5MMP-10 | 2026-09-02 03:20:49 | 47.05377 | 16.20123 | 60° | 27km/h | 21190m | -11.7m/s | -54.5°C | 4.4% | 0hPa | 2.5V | 00:00:00 | 01:34:19 | 00:00:00 | |
| PG1ADW-2 | 2026-09-02 03:20:43 | 47.05363 | 16.20069 | 71° | 31km/h | 21258m | -11.8m/s | -53.5°C | 4.1% | 0hPa | 2.5V | 00:00:00 | 00:00:00 | 00:00:00 | |
| OE8JPQ-2 | 2026-09-02 03:20:41 | 47.05358 | 16.20049 | 69° | 31km/h | 21281m | -11.5m/s | -53.4°C | 4.0% | 0hPa | 2.5V | 00:00:00 | 01:34:11 | 00:00:00 | |
| OE5MMP-10 | 2026-09-02 03:20:39 | 47.05353 | 16.20029 | 75° | 31km/h | 21304m | -11.3m/s | -53.5°C | 4.0% | 0hPa | 2.5V | 00:00:00 | 01:34:09 | 00:00:00 | |
| OE5DRO-10 | 2026-09-02 03:20:37 | 47.05350 | 16.20005 | 80° | 35km/h | 21326m | -11.2m/s | -53.6°C | 4.0% | 0hPa | 2.5V | 00:00:00 | 00:00:00 | 00:00:00 | |
| PETON7-10 | 2026-09-02 03:20:34 | 47.05345 | 16.19967 | 83° | 33km/h | 21359m | -11.1m/s | -53.8°C | 4.1% | 0hPa | 2.5V | 00:00:00 | 00:00:00 | 00:00:00 | |
| OE3JTB-15 | 2026-09-02 03:20:30 | 47.05343 | 16.19922 | 92° | 26km/h | 21403m | -10.4m/s | -54.1°C | 4.2% | 0hPa | 2.5V | 00:00:00 | 01:34:00 | 00:00:00 | |
| OE5MMP-10 | 2026-09-02 03:20:29 | 47.05343 | 16.19914 | 85° | 35km/h | 21413m | -10.6m/s | -54.1°C | 4.2% | 0hPa | 2.5V | 00:00:00 | 01:33:59 | 00:00:00 | |
| OE5DXL-15 | 2026-09-02 03:20:28 | 47.05342 | 16.19905 | 87° | 27km/h | 21424m | -10.9m/s | -54.1°C | 4.1% | 0hPa | 2.5V | 00:00:00 | 00:00:00 | 08:30:00 | |
| PG1ADW-2 | 2026-09-02 03:20:23 | 47.05341 | 16.19847 | 85° | 29km/h | 21480m | -11.7m/s | -54.1°C | 4.2% | 0hPa | 2.7V | 00:00:00 | 00:00:00 | 00:00:00 | |
| OE8JPQ-2 | 2026-09-02 03:20:21 | 47.05340 | 16.19814 | 91° | 27km/h | 21502m | -12.6m/s | -53.8°C | 4.2% | 0hPa | 2.7V | 00:00:00 | 00:00:00 | 00:00:00 | |
| OE5MMP-10 | 2026-09-02 03:20:19 | 47.05342 | 16.19780 | 103° | 31km/h | 21525m | -9.6m/s | -53.8°C | 4.3% | 0hPa | 2.5V | 00:00:00 | 01:33:49 | 00:00:00 | |
| OE5DRO-10 | 2026-09-02 03:20:18 | 47.05345 | 16.19764 | 110° | 22km/h | 21534m | -8.4m/s | -53.9°C | 4.4% | 0hPa | 2.5V | 00:00:00 | 00:00:00 | 08:30:00 | |
| OE5WHR-10 | 2026-09-02 03:20:10 | 47.05371 | 16.19686 | 112° | 16km/h | 21641m | -29.2m/s | -53.4°C | 3.7% | 0hPa | 2.5V | 00:00:00 | 01:33:40 | 00:00:00 | |
| OE5MMP-10 | 2026-09-02 03:20:09 | 47.05372 | 16.19680 | 110° | 16km/h | 21669m | -26.8m/s | -53.4°C | 3.7% | 0hPa | 2.5V | 00:00:00 | 01:33:39 | 00:00:00 | |
| PETON7-10 | 2026-09-02 03:20:04 | 47.05379 | 16.19652 | 111° | 15km/h | 21782m | -12.3m/s | -53.9°C | 4.2% | 0hPa | 2.7V | 00:00:00 | 01:33:34 | 00:00:00 | |
| PG1ADW-2 | 2026-09-02 03:20:03 | 47.05380 | 16.19647 | 108° | 16km/h | 21790m | -3.5m/s | -54.0°C | 4.2% | 0hPa | 2.7V | 00:00:00 | 01:33:33 | 00:00:00 | |
| OE8JPQ-2 | 2026-09-02 03:20:01 | 47.05383 | 16.19635 | 113° | 16km/h | 21782m | 6.2m/s | -53.9°C | 4.2% | 0hPa | 2.5V | 00:00:00 | 00:00:00 | 00:00:00 | |
| OE3JTB-15 | 2026-09-02 03:20:00 | 47.05385 | 16.19629 | 113° | 16km/h | 21776m | 5.2m/s | -53.9°C | 4.1% | 0hPa | 2.5V | 00:00:00 | 00:00:00 | 08:30:00 | |
| OE5DXL-15 | 2026-09-02 03:19:58 | 47.05388 | 16.19614 | 104° | 16km/h | 21765m | 6.9m/s | -53.9°C | 4.1% | 0hPa | 2.5V | 00:00:00 | 01:33:28 | 00:00:00 | |
| OE5MMP-10 | 2026-09-02 03:19:49 | 47.05403 | 16.19579 | 143° | 18km/h | 21714m | 4.6m/s | -53.8°C | 4.2% | 0hPa | 2.5V | 00:00:00 | 01:33:19 | 00:00:00 | |
| PETON7-10 | 2026-09-02 03:19:48 | 47.05406 | 16.19574 | 137° | 18km/h | 21708m | 5.7m/s | -53.8°C | 4.1% | 0hPa | 2.5V | 00:00:00 | 00:00:00 | 08:30:00 | |
| PG1ADW-2 | 2026-09-02 03:19:43 | 47.05422 | 16.19549 | 129° | 20km/h | 21680m | 6.8m/s | -53.7°C | 4.1% | 0hPa | 2.7V | 00:00:00 | 00:00:00 | 00:00:00 | |
| OE8JPQ-2 | 2026-09-02 03:19:41 | 47.05427 | 16.19539 | 125° | 22km/h | 21668m | 5.4m/s | -53.7°C | 4.1% | 0hPa | 2.7V | 00:00:00 | 01:33:11 | 00:00:00 | |
| OE5DRO-10 | 2026-09-02 03:19:40 | 47.05429 | 16.19534 | 125° | 22km/h | 21662m | 6.5m/s | -53.7°C | 4.0% | 0hPa | 2.7V | 00:00:00 | 00:00:00 | 00:00:00 | |
| OE5MMP-10 | 2026-09-02 03:19:39 | 47.05432 | 16.19529 | 124° | 18km/h | 21657m | 4.0m/s | -53.7°C | 4.1% | 0hPa | 2.7V | 00:00:00 | 01:33:09 | 08:30:00 | |
| PETON7-10 | 2026-09-02 03:19:33 | 47.05445 | 16.19494 | 124° | 26km/h | 21623m | 7.0m/s | -53.8°C | 4.0% | 0hPa | 2.5V | 00:00:00 | 00:00:00 | 00:00:00 | |
| OE3JTB-15 | 2026-09-02 03:19:31 | 47.05451 | 16.19484 | 137° | 31km/h | 21611m | 6.5m/s | -53.9°C | 4.1% | 0hPa | 2.5V | 00:00:00 | 00:00:00 | 00:00:00 | |
| OE5MMP-10 | 2026-09-02 03:19:29 | 47.05458 | 16.19475 | 135° | 29km/h | 21600m | 3.6m/s | -54.1°C | 4.2% | 0hPa | 2.5V | 00:00:00 | 01:32:59 | 00:00:00 | |
| OE5DXL-15 | 2026-09-02 03:19:28 | 47.05462 | 16.19469 | 126° | 33km/h | 21595m | 6.2m/s | -54.1°C | 4.2% | 0hPa | 2.5V | 00:00:00 | 00:00:00 | 00:00:00 | |
| PG1ADW-2 | 2026-09-02 03:19:23 | 47.05474 | 16.19426 | 109° | 35km/h | 21567m | 6.7m/s | -54.0°C | 4.2% | 0hPa | 2.5V | 00:00:00 | 00:00:00 | 00:00:00 | |
| OE5DRO-10 | 2026-09-02 03:19:21 | 47.05480 | 16.19401 | 113° | 35km/h | 21554m | 6.0m/s | -54.0°C | 4.1% | 0hPa | 2.5V | 00:00:00 | 00:00:00 | 00:00:00 | |
| OE5MMP-10 | 2026-09-02 03:19:19 | 47.05487 | 16.19376 | 117° | 33km/h | 21543m | 4.2m/s | -53.9°C | 4.1% | 0hPa | 2.5V | 00:00:00 | 01:32:49 | 00:00:00 | |
| PETON7-10 | 2026-09-02 03:19:18 | 47.05491 | 16.19364 | 115° | 35km/h | 21538m | 5.7m/s | -53.9°C | 4.1% | 0hPa | 2.5V | 00:00:00 | 01:32:48 | 00:00:00 | |
| OE5MMP-10 | 2026-09-02 03:19:09 | 47.05507 | 16.19256 | 98° | 37km/h | 21486m | 5.7m/s | -54.3°C | 4.2% | 0hPa | 2.5V | 00:00:00 | 01:32:39 | 00:00:00 | |
| PG1ADW-2 | 2026-09-02 03:19:03 | 47.05511 | 16.19175 | 94° | 33km/h | 21452m | 3.7m/s | -54.3°C | 4.3% | 0hPa | 2.5V | 00:00:00 | 00:00:00 | 08:30:00 | |
| OE3JTB-15 | 2026-09-02 03:19:02 | 47.05512 | 16.19162 | 90° | 31km/h | 21447m | 6.6m/s | -54.3°C | 4.3% | 0hPa | 2.5V | 00:00:00 | 01:32:32 | 00:00:00 | |
| OE8JPQ-2 | 2026-09-02 03:19:01 | 47.05511 | 16.19149 | 86° | 33km/h | 21441m | 5.7m/s | -54.3°C | 4.3% | 0hPa | 2.5V | 00:00:00 | 00:00:00 | 00:00:00 | |
| OE5MMP-10 | 2026-09-02 03:18:59 | 47.05511 | 16.19123 | 92° | 33km/h | 21428m | 6.1m/s | -54.2°C | 4.2% | 0hPa | 2.5V | 00:00:00 | 01:32:29 | 00:00:00 | |
| OE5DXL-15 | 2026-09-02 03:18:58 | 47.05511 | 16.19109 | 87° | 31km/h | 21423m | 4.6m/s | -54.2°C | 4.2% | 0hPa | 2.5V | 00:00:00 | 00:00:00 | 00:00:00 | |
| OE5MMP-10 | 2026-09-02 03:18:49 | 47.05502 | 16.19006 | 83° | 31km/h | 21370m | 6.2m/s | -53.9°C | 4.2% | 0hPa | 2.5V | 00:00:00 | 01:32:19 | 00:00:00 | |
| PG1ADW-2 | 2026-09-02 03:18:43 | 47.05496 | 16.18932 | 77° | 27km/h | 21336m | 6.1m/s | -53.7°C | 4.1% | 0hPa | 2.5V | 00:00:00 | 01:32:13 | 00:00:00 | |
| OE5WHR-10 | 2026-09-02 03:18:42 | 47.05494 | 16.18920 | 71° | 27km/h | 21331m | 3.9m/s | -53.7°C | 4.1% | 0hPa | 2.5V | 00:00:00 | 00:00:00 | 08:30:00 | |
| OE8JPQ-2 | 2026-09-02 03:18:41 | 47.05491 | 16.18909 | 69° | 27km/h | 21325m | 6.6m/s | -53.6°C | 4.0% | 0hPa | 2.7V | 00:00:00 | 01:32:11 | 00:00:00 | |
| OE5MMP-10 | 2026-09-02 03:18:39 | 47.05486 | 16.18893 | 64° | 29km/h | 21313m | 5.9m/s | -53.6°C | 4.0% | 0hPa | 2.7V | 00:00:00 | 01:32:09 | 00:00:00 | |
| OE3JTB-15 | 2026-09-02 03:18:33 | 47.05476 | 16.18841 | 80° | 24km/h | 21280m | 6.5m/s | -53.7°C | 4.0% | 0hPa | 2.7V | 00:00:00 | 00:00:00 | 00:00:00 | |
| OE5MMP-10 | 2026-09-02 03:18:29 | 47.05469 | 16.18790 | 75° | 26km/h | 21257m | 4.6m/s | -53.8°C | 4.0% | 0hPa | 2.7V | 00:00:00 | 01:31:59 | 00:00:00 | |
| OE5DXL-15 | 2026-09-02 03:18:28 | 47.05467 | 16.18779 | 67° | 24km/h | 21252m | 6.6m/s | -53.8°C | 4.0% | 0hPa | 2.7V | 00:00:00 | 00:00:00 | 00:00:00 | |
| PETON7-10 | 2026-09-02 03:18:24 | 47.05456 | 16.18745 | 70° | 22km/h | 21228m | 5.0m/s | -54.3°C | 4.1% | 0hPa | 2.7V | 00:00:00 | 00:00:00 | 00:00:00 | |
| OE8JPQ-2 | 2026-09-02 03:18:21 | 47.05451 | 16.18722 | 83° | 24km/h | 21211m | 7.1m/s | -54.7°C | 4.3% | 0hPa | 2.7V | 00:00:00 | 00:00:00 | 00:00:00 | |
| OE5MMP-10 | 2026-09-02 03:18:19 | 47.05450 | 16.18705 | 87° | 22km/h | 21200m | 5.2m/s | -54.9°C | 4.4% | 0hPa | 2.5V | 00:00:00 | 01:31:49 | 00:00:00 | |
| OE5MMP-10 | 2026-09-02 03:18:09 | 47.05419 | 16.18647 | 27° | 26km/h | 21142m | 4.6m/s | -54.7°C | 4.3% | 0hPa | 2.5V | 00:00:00 | 01:31:39 | 08:30:00 | |
| OE5DRO-10 | 2026-09-02 03:18:05 | 47.05402 | 16.18627 | 48° | 24km/h | 21119m | 4.9m/s | -54.7°C | 4.4% | 0hPa | 2.5V | 00:00:00 | 00:00:00 | 00:00:00 | |
| OE3JTB-15 | 2026-09-02 03:18:04 | 47.05397 | 16.18620 | 44° | 22km/h | 21113m | 6.6m/s | -54.7°C | 4.3% | 0hPa | 2.5V | 00:00:00 | 00:00:00 | 00:00:00 | |
| PG1ADW-2 | 2026-09-02 03:18:03 | 47.05392 | 16.18612 | 44° | 24km/h | 21107m | 5.7m/s | -54.7°C | 4.3% | 0hPa | 2.5V | 00:00:00 | 00:00:00 | 00:00:00 | |
| OE8JPQ-2 | 2026-09-02 03:18:01 | 47.05380 | 16.18597 | 43° | 22km/h | 21097m | 5.7m/s | -54.6°C | 4.3% | 0hPa | 2.6V | 00:00:00 | 00:00:00 | 00:00:00 | |
| OE5WHR-10 | 2026-09-02 03:18:00 | 47.05375 | 16.18590 | 45° | 20km/h | 21091m | 5.1m/s | -54.6°C | 4.3% | 0hPa | 2.6V | 00:00:00 | 01:31:30 | 00:00:00 | |
| OE5MMP-10 | 2026-09-02 03:17:59 | 47.05371 | 16.18584 | 37° | 22km/h | 21085m | 6.2m/s | -54.5°C | 4.2% | 0hPa | 2.6V | 00:00:00 | 01:31:29 | 00:00:00 | |
| OE5DXL-15 | 2026-09-02 03:17:58 | 47.05366 | 16.18579 | 31° | 18km/h | 21080m | 5.4m/s | -54.5°C | 4.2% | 0hPa | 2.6V | 00:00:00 | 00:00:00 | 00:00:00 | |
| PETON7-10 | 2026-09-02 03:17:54 | 47.05348 | 16.18564 | 25° | 20km/h | 21057m | 6.5m/s | -54.5°C | 4.2% | 0hPa | 2.6V | 00:00:00 | 00:00:00 | 00:00:00 | |
| OE5MMP-10 | 2026-09-02 03:17:49 | 47.05323 | 16.18547 | 29° | 20km/h | 21029m | 6.9m/s | -54.7°C | 4.2% | 0hPa | 2.7V | 00:00:00 | 01:31:19 | 00:00:00 | |
| OE5DRO-10 | 2026-09-02 03:17:46 | 47.05310 | 16.18530 | 56° | 16km/h | 21010m | 5.2m/s | -54.7°C | 4.3% | 0hPa | 2.7V | 00:00:00 | 00:00:00 | 00:00:00 | |
| PG1ADW-2 | 2026-09-02 03:17:43 | 47.05300 | 16.18510 | 50° | 15km/h | 20992m | 4.7m/s | -54.8°C | 4.3% | 0hPa | 2.7V | 00:00:00 | 00:00:00 | 00:00:00 | |
| OE8JPQ-2 | 2026-09-02 03:17:41 | 47.05295 | 16.18501 | 52° | 15km/h | 20982m | 6.4m/s | -54.8°C | 4.3% | 0hPa | 2.7V | 00:00:00 | 01:31:11 | 00:00:00 | |
| PETON7-10 | 2026-09-02 03:17:39 | 47.05292 | 16.18495 | 41° | 15km/h | 20971m | 6.1m/s | -54.8°C | 4.3% | 0hPa | 2.7V | 00:00:00 | 00:00:00 | 00:00:00 | |
| OE3JTB-15 | 2026-09-02 03:17:35 | 47.05280 | 16.18484 | 53° | 15km/h | 20948m | 6.1m/s | -54.9°C | 4.4% | 0hPa | 2.7V | 00:00:00 | 01:31:05 | 00:00:00 | |
| OE5MMP-10 | 2026-09-02 03:17:29 | 47.05275 | 16.18451 | 91° | 13km/h | 20912m | 6.7m/s | -54.8°C | 4.3% | 0hPa | 2.7V | 00:00:00 | 01:30:59 | 00:00:00 | |
| OE5DXL-15 | 2026-09-02 03:17:28 | 47.05275 | 16.18444 | 91° | 15km/h | 20906m | 5.1m/s | -54.7°C | 4.3% | 0hPa | 2.7V | 00:00:00 | 00:00:00 | 00:00:00 | |
| OE5DRO-10 | 2026-09-02 03:17:27 | 47.05276 | 16.18438 | 95° | 15km/h | 20900m | 6.5m/s | -54.7°C | 4.4% | 0hPa | 2.7V | 00:00:00 | 00:00:00 | 08:30:00 | |
| PETON7-10 | 2026-09-02 03:17:24 | 47.05275 | 16.18425 | 60° | 15km/h | 20882m | 6.5m/s | -54.8°C | 4.4% | 0hPa | 2.6V | 00:00:00 | 01:30:54 | 00:00:00 | |
| PG1ADW-2 | 2026-09-02 03:17:23 | 47.05274 | 16.18422 | 46° | 15km/h | 20876m | 3.9m/s | -54.7°C | 4.3% | 0hPa | 2.6V | 00:00:00 | 01:30:53 | 00:00:00 | |
| OE8JPQ-2 | 2026-09-02 03:17:21 | 47.05271 | 16.18417 | 65° | 16km/h | 20865m | 5.0m/s | -54.7°C | 4.4% | 0hPa | 2.6V | 00:00:00 | 00:00:00 | 00:00:00 | |
| OE5MMP-10 | 2026-09-02 03:17:19 | 47.05269 | 16.18408 | 65° | 18km/h | 20854m | 7.0m/s | -54.6°C | 4.3% | 0hPa | 2.6V | 00:00:00 | 01:30:49 | 00:00:00 | |
| OE5MMP-10 | 2026-09-02 03:17:09 | 47.05265 | 16.18346 | 90° | 15km/h | 20794m | 7.1m/s | -54.1°C | 4.2% | 0hPa | 2.6V | 00:00:00 | 01:30:39 | 00:00:00 | |
| OE5DRO-10 | 2026-09-02 03:17:08 | 47.05265 | 16.18342 | 75° | 16km/h | 20788m | 4.4m/s | -54.1°C | 4.1% | 0hPa | 2.6V | 00:00:00 | 00:00:00 | 00:00:00 | |
| OE3JTB-15 | 2026-09-02 03:17:06 | 47.05264 | 16.18333 | 87° | 16km/h | 20776m | 5.6m/s | -54.1°C | 4.2% | 0hPa | 2.6V | 00:00:00 | 00:00:00 | 00:00:00 | |
| PG1ADW-2 | 2026-09-02 03:17:03 | 47.05262 | 16.18314 | 83° | 18km/h | 20759m | 5.6m/s | -54.1°C | 4.1% | 0hPa | 2.7V | 00:00:00 | 00:00:00 | 00:00:00 | |
| OE8JPQ-2 | 2026-09-02 03:17:01 | 47.05263 | 16.18300 | 104° | 16km/h | 20747m | 4.0m/s | -54.2°C | 4.2% | 0hPa | 2.6V | 00:00:00 | 00:00:00 | 00:00:00 | |
| OE5MMP-10 | 2026-09-02 03:16:59 | 47.05265 | 16.18289 | 115° | 15km/h | 20736m | 5.4m/s | -54.3°C | 4.2% | 0hPa | 2.6V | 00:00:00 | 01:30:29 | 00:00:00 | |
| OE5DXL-15 | 2026-09-02 03:16:58 | 47.05267 | 16.18285 | 129° | 16km/h | 20730m | 6.0m/s | -54.3°C | 4.2% | 0hPa | 2.6V | 00:00:00 | 00:00:00 | 00:00:00 | |
| PETON7-10 | 2026-09-02 03:16:54 | 47.05277 | 16.18272 | 140° | 16km/h | 20706m | 5.1m/s | -54.3°C | 4.2% | 0hPa | 2.6V | 00:00:00 | 00:00:00 | 00:00:00 | |
| DB0NH | 2026-09-02 03:16:49 | 47.05286 | 16.18242 | 97° | 18km/h | 20677m | 5.7m/s | -54.2°C | 4.2% | 0hPa | 2.6V | 00:00:00 | 01:30:19 | 00:00:00 | |
| PG1ADW-2 | 2026-09-02 03:16:43 | 47.05285 | 16.18197 | 93° | 16km/h | 20643m | 5.0m/s | -54.1°C | 4.1% | 0hPa | 2.6V | 00:00:00 | 00:00:00 | 00:00:00 | |
| OE8JPQ-2 | 2026-09-02 03:16:41 | 47.05285 | 16.18192 | 68° | 18km/h | 20631m | 5.5m/s | -54.1°C | 4.2% | 0hPa | 2.6V | 00:00:00 | 01:30:11 | 00:00:00 | |
| OE5MMP-10 | 2026-09-02 03:16:39 | 47.05285 | 16.18186 | 105° | 20km/h | 20621m | 6.1m/s | -54.2°C | 4.1% | 0hPa | 2.6V | 00:00:00 | 01:30:09 | 08:30:00 | |
| OE3JTB-15 | 2026-09-02 03:16:37 | 47.05286 | 16.18176 | 87° | 20km/h | 20610m | 6.6m/s | -54.3°C | 4.2% | 0hPa | 2.7V | 00:00:00 | 00:00:00 | 00:00:00 | |
| OE5DRO-10 | 2026-09-02 03:16:30 | 47.05273 | 16.18120 | 57° | 20km/h | 20571m | 4.8m/s | -54.3°C | 4.2% | 0hPa | 2.7V | 00:00:00 | 00:00:00 | 00:00:00 | |
| OE5MMP-10 | 2026-09-02 03:16:29 | 47.05271 | 16.18114 | 55° | 22km/h | 20565m | 6.6m/s | -54.3°C | 4.1% | 0hPa | 2.7V | 00:00:00 | 01:29:59 | 00:00:00 | |
| OE5DXL-15 | 2026-09-02 03:16:28 | 47.05269 | 16.18109 | 59° | 18km/h | 20559m | 5.4m/s | -54.3°C | 4.2% | 0hPa | 2.7V | 00:00:00 | 00:00:00 | 00:00:00 | |
| PETON7-10 | 2026-09-02 03:16:24 | 47.05256 | 16.18096 | 35° | 22km/h | 20536m | 7.0m/s | -54.6°C | 4.3% | 0hPa | 2.7V | 00:00:00 | 00:00:00 | 00:00:00 | |
| PG1ADW-2 | 2026-09-02 03:16:23 | 47.05252 | 16.18091 | 40° | 20km/h | 20530m | 4.3m/s | -54.6°C | 4.3% | 0hPa | 2.6V | 00:00:00 | 00:00:00 | 00:00:00 | |
| OE8JPQ-2 | 2026-09-02 03:16:21 | 47.05241 | 16.18081 | 32° | 20km/h | 20518m | 5.2m/s | -54.6°C | 4.3% | 0hPa | 2.6V | 00:00:00 | 00:00:00 | 08:30:00 | |
| DB0NH | 2026-09-02 03:16:19 | 47.05230 | 16.18070 | 37° | 16km/h | 20506m | 5.7m/s | -54.6°C | 4.4% | 0hPa | 2.7V | 00:00:00 | 01:29:49 | 00:00:00 | |
| OE5MMP-10 | 2026-09-02 03:16:18 | 47.05225 | 16.18066 | 28° | 20km/h | 20501m | 3.7m/s | -54.6°C | 4.4% | 0hPa | 2.6V | 00:00:00 | 01:29:48 | 00:00:00 | |
| OE5DRO-10 | 2026-09-02 03:16:11 | 47.05194 | 16.18051 | 20° | 18km/h | 20462m | 6.3m/s | -54.3°C | 4.3% | 0hPa | 2.6V | 00:00:00 | 00:00:00 | 00:00:00 | |
| PETON7-10 | 2026-09-02 03:16:09 | 47.05184 | 16.18044 | 32° | 18km/h | 20451m | 6.1m/s | -54.2°C | 4.2% | 0hPa | 2.6V | 00:00:00 | 00:00:00 | 00:00:00 | |
| OE5MMP-10 | 2026-09-02 03:16:08 | 47.05180 | 16.18040 | 39° | 16km/h | 20446m | 5.1m/s | -54.2°C | 4.2% | 0hPa | 2.6V | 00:00:00 | 01:29:38 | 00:00:00 | |
| PG1ADW-2 | 2026-09-02 03:16:03 | 47.05162 | 16.18029 | 19° | 16km/h | 20416m | 5.0m/s | -54.1°C | 4.2% | 0hPa | 2.6V | 00:00:00 | 01:29:33 | 08:30:00 | |
| OE8JPQ-2 | 2026-09-02 03:16:01 | 47.05154 | 16.18027 | 13° | 16km/h | 20404m | 4.8m/s | -54.0°C | 4.2% | 0hPa | 2.6V | 00:00:00 | 00:00:00 | 00:00:00 | |
| OE5DXL-15 | 2026-09-02 03:15:58 | 47.05139 | 16.18018 | 36° | 13km/h | 20387m | 4.9m/s | -54.0°C | 4.2% | 0hPa | 2.6V | 00:00:00 | 00:00:00 | 08:30:00 | |
| PETON7-10 | 2026-09-02 03:15:54 | 47.05124 | 16.18006 | 26° | 13km/h | 20365m | 6.5m/s | -54.1°C | 4.2% | 0hPa | 2.7V | 00:00:00 | 01:29:24 | 00:00:00 | |
| OE5DRO-10 | 2026-09-02 03:15:52 | 47.05121 | 16.18003 | 19° | 11km/h | 20353m | 6.4m/s | -54.1°C | 4.2% | 0hPa | 2.7V | 00:00:00 | 00:00:00 | 00:00:00 | |
| DB0NH | 2026-09-02 03:15:49 | 47.05113 | 16.18000 | 21° | 11km/h | 20336m | 6.2m/s | 0°C | 0% | 0hPa | 2.7V | 00:00:00 | 01:29:19 | 00:00:00 | |
| PG1ADW-2 | 2026-09-02 03:15:43 | 47.05087 | 16.17990 | 9° | 7km/h | 20302m | 6.8m/s | -54.0°C | 4.2% | 0hPa | 2.7V | 00:00:00 | 00:00:00 | 00:00:00 | |
| OE8JPQ-2 | 2026-09-02 03:15:41 | 47.05082 | 16.17990 | 347° | 7km/h | 20289m | 7.2m/s | -54.0°C | 4.2% | 0hPa | 2.7V | 00:00:00 | 01:29:11 | 00:00:00 | |
| OE5MMP-10 | 2026-09-02 03:15:39 | 47.05080 | 16.17991 | 145° | 9km/h | 20277m | 7.2m/s | -53.9°C | 4.2% | 0hPa | 2.7V | 00:00:00 | 01:29:09 | 00:00:00 | |
| OE5DRO-10 | 2026-09-02 03:15:33 | 47.05077 | 16.17979 | 44° | 9km/h | 20243m | 6.1m/s | -53.6°C | 4.1% | 0hPa | 2.7V | 00:00:00 | 00:00:00 | 00:00:00 | |
| OE5MMP-10 | 2026-09-02 03:15:29 | 47.05066 | 16.17970 | 358° | 5km/h | 20219m | 5.3m/s | -53.5°C | 4.0% | 0hPa | 2.6V | 00:00:00 | 01:28:59 | 00:00:00 | |
| OE5DXL-15 | 2026-09-02 03:15:28 | 47.05064 | 16.17970 | 353° | 7km/h | 20213m | 6.6m/s | -53.5°C | 4.0% | 0hPa | 2.7V | 00:00:00 | 00:00:00 | 00:00:00 | |
| PETON7-10 | 2026-09-02 03:15:24 | 47.05061 | 16.17971 | 8° | 11km/h | 20190m | 4.9m/s | -53.5°C | 4.0% | 0hPa | 2.7V | 00:00:00 | 00:00:00 | 00:00:00 | |
| PG1ADW-2 | 2026-09-02 03:15:23 | 47.05060 | 16.17970 | 34° | 9km/h | 20184m | 6.6m/s | -53.5°C | 4.0% | 0hPa | 2.7V | 00:00:00 | 00:00:00 | 00:00:00 | |
| OE8JPQ-2 | 2026-09-02 03:15:21 | 47.05057 | 16.17966 | 44° | 9km/h | 20173m | 6.0m/s | -53.5°C | 4.0% | 0hPa | 2.7V | 00:00:00 | 00:00:00 | 00:00:00 | |
| OE5MMP-10 | 2026-09-02 03:15:19 | 47.05051 | 16.17963 | 10° | 11km/h | 20160m | 5.2m/s | -53.7°C | 4.1% | 0hPa | 2.6V | 00:00:00 | 01:28:49 | 00:00:00 | |
| OE5DRO-10 | 2026-09-02 03:15:14 | 47.05036 | 16.17962 | 345° | 7km/h | 20132m | 5.3m/s | -53.7°C | 4.1% | 0hPa | 2.6V | 00:00:00 | 00:00:00 | 00:00:00 | |
| OE3JTB-15 | 2026-09-02 03:15:10 | 47.05026 | 16.17964 | 345° | 9km/h | 20109m | 6.2m/s | -53.6°C | 4.0% | 0hPa | 2.6V | 00:00:00 | 00:00:00 | 00:00:00 | |
| PETON7-10 | 2026-09-02 03:15:09 | 47.05025 | 16.17965 | 341° | 7km/h | 20102m | 6.1m/s | -53.7°C | 4.0% | 0hPa | 2.6V | 00:00:00 | 01:28:39 | 00:00:00 | |
| PG1ADW-2 | 2026-09-02 03:15:03 | 47.05018 | 16.17960 | 48° | 9km/h | 20067m | 7.1m/s | -53.6°C | 3.9% | 0hPa | 2.6V | 00:00:00 | 00:00:00 | 00:00:00 | |
| OE8JPQ-2 | 2026-09-02 03:15:01 | 47.05016 | 16.17954 | 48° | 9km/h | 20054m | 5.4m/s | -53.8°C | 4.0% | 0hPa | 2.6V | 00:00:00 | 00:00:00 | 00:00:00 | |
| OE5MMP-10 | 2026-09-02 03:14:59 | 47.05013 | 16.17949 | 67° | 7km/h | 20043m | 3.4m/s | -54.0°C | 4.0% | 0hPa | 2.6V | 00:00:00 | 01:28:29 | 08:30:00 | |
| OE5DXL-15 | 2026-09-02 03:14:58 | 47.05012 | 16.17946 | 86° | 15km/h | 20038m | 6.2m/s | -54.0°C | 4.0% | 0hPa | 2.6V | 00:00:00 | 00:00:00 | 00:00:00 | |
| OE5DRO-10 | 2026-09-02 03:14:55 | 47.05014 | 16.17936 | 109° | 13km/h | 20021m | 6.6m/s | -54.1°C | 4.1% | 0hPa | 2.6V | 00:00:00 | 00:00:00 | 00:00:00 | |
| PETON7-10 | 2026-09-02 03:14:54 | 47.05014 | 16.17934 | 117° | 11km/h | 20015m | 4.4m/s | -54.1°C | 4.1% | 0hPa | 2.6V | 00:00:00 | 00:00:00 | 08:30:00 | |
| DB0NH | 2026-09-02 03:14:49 | 47.05022 | 16.17927 | 147° | 11km/h | 19987m | 5.1m/s | 0°C | 0% | 0hPa | 2.7V | 00:00:00 | 01:28:19 | 00:00:00 | |
| PG1ADW-2 | 2026-09-02 03:14:43 | 47.05036 | 16.17915 | 155° | 22km/h | 19953m | 6.5m/s | -54.5°C | 4.1% | 0hPa | 2.7V | 00:00:00 | 01:28:13 | 00:00:00 | |
| OE3JTB-15 | 2026-09-02 03:14:41 | 47.05045 | 16.17910 | 157° | 24km/h | 19942m | 6.1m/s | -54.6°C | 4.1% | 0hPa | 2.7V | 00:00:00 | 01:28:11 | 00:00:00 | |
| PETON7-10 | 2026-09-02 03:14:39 | 47.05053 | 16.17903 | 140° | 24km/h | 19931m | 3.5m/s | -54.7°C | 4.2% | 0hPa | 2.7V | 00:00:00 | 00:00:00 | 00:00:00 | |
| OE5DRO-10 | 2026-09-02 03:14:36 | 47.05063 | 16.17884 | 125° | 26km/h | 19913m | 6.0m/s | -55.0°C | 4.3% | 0hPa | 2.7V | 00:00:00 | 00:00:00 | 08:30:00 | |
| OE5MMP-10 | 2026-09-02 03:14:29 | 47.05086 | 16.17835 | 121° | 27km/h | 19874m | 4.7m/s | -55.1°C | 4.3% | 0hPa | 2.6V | 00:00:00 | 01:27:59 | 00:00:00 | |
| OE5DXL-15 | 2026-09-02 03:14:28 | 47.05088 | 16.17827 | 114° | 24km/h | 19869m | 5.6m/s | -55.1°C | 4.3% | 0hPa | 2.6V | 00:00:00 | 00:00:00 | 00:00:00 | |
| PETON7-10 | 2026-09-02 03:14:24 | 47.05094 | 16.17790 | 97° | 24km/h | 19847m | 6.3m/s | -55.0°C | 4.3% | 0hPa | 2.7V | 00:00:00 | 01:27:54 | 00:00:00 | |
| PG1ADW-2 | 2026-09-02 03:14:23 | 47.05095 | 16.17778 | 96° | 24km/h | 19841m | 4.9m/s | -55.1°C | 4.3% | 0hPa | 2.7V | 00:00:00 | 00:00:00 | 00:00:00 | |
| OE8JPQ-2 | 2026-09-02 03:14:21 | 47.05095 | 16.17757 | 92° | 24km/h | 19829m | 5.4m/s | -55.2°C | 4.3% | 0hPa | 2.7V | 00:00:00 | 00:00:00 | 00:00:00 | |
| OE5MMP-10 | 2026-09-02 03:14:19 | 47.05097 | 16.17739 | 105° | 22km/h | 19818m | 5.8m/s | -55.2°C | 4.3% | 0hPa | 2.7V | 00:00:00 | 01:27:49 | 00:00:00 | |
| OE5DRO-10 | 2026-09-02 03:14:17 | 47.05100 | 16.17724 | 110° | 22km/h | 19807m | 6.1m/s | -55.4°C | 4.4% | 0hPa | 2.7V | 00:00:00 | 00:00:00 | 00:00:00 | |
| OE3JTB-15 | 2026-09-02 03:14:12 | 47.05105 | 16.17688 | 79° | 16km/h | 19777m | 4.9m/s | -55.5°C | 4.5% | 0hPa | 2.7V | 00:00:00 | 00:00:00 | 00:00:00 | |
| OE5MMP-10 | 2026-09-02 03:14:09 | 47.05102 | 16.17661 | 88° | 20km/h | 19762m | 4.4m/s | -55.4°C | 4.4% | 0hPa | 2.6V | 00:00:00 | 01:27:39 | 00:00:00 | |
| PG1ADW-2 | 2026-09-02 03:14:03 | 47.05096 | 16.17605 | 83° | 16km/h | 19730m | 5.2m/s | -55.4°C | 4.4% | 0hPa | 2.6V | 00:00:00 | 00:00:00 | 00:00:00 | |
| OE8JPQ-2 | 2026-09-02 03:14:01 | 47.05093 | 16.17590 | 72° | 16km/h | 19719m | 4.5m/s | -55.5°C | 4.4% | 0hPa | 2.6V | 00:00:00 | 00:00:00 | 00:00:00 | |
| OE5WHR-10 | 2026-09-02 03:14:00 | 47.05092 | 16.17584 | 78° | 16km/h | 19714m | 6.2m/s | -55.5°C | 4.5% | 0hPa | 2.6V | 00:00:00 | 00:00:00 | 00:00:00 | |
| OE5DRO-10 | 2026-09-02 03:13:58 | 47.05091 | 16.17573 | 72° | 16km/h | 19702m | 4.5m/s | -55.5°C | 4.5% | 0hPa | 2.6V | 00:00:00 | 00:00:00 | 00:00:00 | |
| PETON7-10 | 2026-09-02 03:13:54 | 47.05083 | 16.17547 | 65° | 16km/h | 19678m | 4.4m/s | -55.4°C | 4.4% | 0hPa | 2.6V | 00:00:00 | 00:00:00 | 00:00:00 | |
| OE5MMP-10 | 2026-09-02 03:13:53 | 47.05081 | 16.17540 | 60° | 15km/h | 19674m | 4.9m/s | -55.4°C | 4.4% | 0hPa | 2.6V | 00:00:00 | 01:27:23 | 00:00:00 | |
| OE5MMP-10 | 2026-09-02 03:13:43 | 47.05067 | 16.17495 | 52° | 15km/h | 19620m | 6.2m/s | -55.4°C | 4.5% | 0hPa | 2.6V | 00:00:00 | 01:27:13 | 00:00:00 | |
| OE8JPQ-2 | 2026-09-02 03:13:41 | 47.05061 | 16.17485 | 47° | 11km/h | 19609m | 4.0m/s | -55.4°C | 4.5% | 0hPa | 2.6V | 00:00:00 | 01:27:11 | 00:00:00 | |
| OE5DRO-10 | 2026-09-02 03:13:39 | 47.05055 | 16.17475 | 48° | 11km/h | 19599m | 4.6m/s | -55.4°C | 4.5% | 0hPa | 2.6V | 00:00:00 | 00:00:00 | 00:00:00 | |
| OE5WHR-10 | 2026-09-02 03:13:34 | 47.05042 | 16.17463 | 27° | 9km/h | 19572m | 4.3m/s | -55.2°C | 4.5% | 0hPa | 2.6V | 00:00:00 | 00:00:00 | 00:00:00 | |
| OE5MMP-10 | 2026-09-02 03:13:33 | 47.05039 | 16.17462 | 7° | 9km/h | 19566m | 6.6m/s | -55.2°C | 4.5% | 0hPa | 2.6V | 00:00:00 | 01:27:03 | 00:00:00 | |
| OE5DXL-15 | 2026-09-02 03:13:28 | 47.05028 | 16.17457 | 11° | 5km/h | 19539m | 6.3m/s | -54.9°C | 4.4% | 0hPa | 2.6V | 00:00:00 | 00:00:00 | 00:00:00 | |
| PETON7-10 | 2026-09-02 03:13:24 | 47.05021 | 16.17453 | 13° | 7km/h | 19516m | 6.5m/s | -54.7°C | 4.3% | 0hPa | 2.6V | 00:00:00 | 00:00:00 | 00:00:00 | |
| OE5MMP-10 | 2026-09-02 03:13:23 | 47.05018 | 16.17452 | 15° | 7km/h | 19511m | 3.9m/s | 0°C | 0% | 0hPa | 2.7V | 00:00:00 | 01:26:53 | 08:30:00 | |
| PG1ADW-2 | 2026-09-02 03:13:21 | 47.05013 | 16.17449 | 20° | 5km/h | 19500m | 4.9m/s | -54.7°C | 4.3% | 0hPa | 2.7V | 00:00:00 | 01:26:51 | 00:00:00 | |
| OE5DRO-10 | 2026-09-02 03:13:20 | 47.05010 | 16.17448 | 5° | 5km/h | 19494m | 6.0m/s | -54.7°C | 4.3% | 0hPa | 2.7V | 00:00:00 | 00:00:00 | 00:00:00 | |
| OE5WHR-10 | 2026-09-02 03:13:13 | 47.05002 | 16.17456 | 321° | 5km/h | 19454m | 5.1m/s | -54.4°C | 4.2% | 0hPa | 2.7V | 00:00:00 | 01:26:43 | 00:00:00 | |
| PETON7-10 | 2026-09-02 03:13:09 | 47.04998 | 16.17456 | 350° | 5km/h | 19431m | 5.4m/s | -54.4°C | 4.2% | 0hPa | 2.7V | 00:00:00 | 00:00:00 | 00:00:00 | |
| OE5MMP-10 | 2026-09-02 03:13:03 | 47.04995 | 16.17462 | 219° | 4km/h | 19397m | 5.9m/s | 0°C | 0% | 0hPa | 2.7V | 00:00:00 | 01:26:33 | 00:00:00 | |
| PG1ADW-2 | 2026-09-02 03:13:01 | 47.04998 | 16.17464 | 203° | 7km/h | 19386m | 5.1m/s | -54.3°C | 4.2% | 0hPa | 2.7V | 00:00:00 | 00:00:00 | 08:30:00 | |
| OE5DXL-15 | 2026-09-02 03:12:58 | 47.04999 | 16.17466 | 44° | 11km/h | 19369m | 6.5m/s | -54.3°C | 4.2% | 0hPa | 2.6V | 00:00:00 | 00:00:00 | 00:00:00 | |
| PETON7-10 | 2026-09-02 03:12:54 | 47.04999 | 16.17461 | 210° | 9km/h | 19346m | 4.2m/s | -54.4°C | 4.2% | 0hPa | 2.7V | 00:00:00 | 01:26:24 | 00:00:00 | |
| OE5MMP-10 | 2026-09-02 03:12:53 | 47.04999 | 16.17462 | 199° | 9km/h | 19341m | 6.7m/s | 0°C | 0% | 0hPa | 2.7V | 00:00:00 | 01:26:23 | 00:00:00 | |
| OE5WHR-10 | 2026-09-02 03:12:51 | 47.05002 | 16.17463 | 210° | 15km/h | 19329m | 4.8m/s | -54.5°C | 4.1% | 0hPa | 2.7V | 00:00:00 | 00:00:00 | 00:00:00 | |
| OE5MMP-10 | 2026-09-02 03:12:43 | 47.05017 | 16.17461 | 109° | 16km/h | 19281m | 6.9m/s | 0°C | 0% | 0hPa | 2.7V | 00:00:00 | 01:26:13 | 00:00:00 | |
| OE5DRO-10 | 2026-09-02 03:12:42 | 47.05018 | 16.17456 | 113° | 18km/h | 19275m | 5.3m/s | -54.5°C | 4.2% | 0hPa | 2.7V | 00:00:00 | 00:00:00 | 00:00:00 | |
| PG1ADW-2 | 2026-09-02 03:12:41 | 47.05019 | 16.17451 | 113° | 18km/h | 19269m | 7.5m/s | -54.5°C | 4.2% | 0hPa | 2.6V | 00:00:00 | 00:00:00 | 00:00:00 | |
| PETON7-10 | 2026-09-02 03:12:39 | 47.05023 | 16.17441 | 134° | 18km/h | 19257m | 6.0m/s | -54.4°C | 4.1% | 0hPa | 2.6V | 00:00:00 | 00:00:00 | 08:30:00 | |
| OE5MMP-10 | 2026-09-02 03:12:33 | 47.05037 | 16.17410 | 119° | 20km/h | 19223m | 5.7m/s | 0°C | 0% | 0hPa | 2.6V | 00:00:00 | 01:26:03 | 00:00:00 | |
| OE5WHR-10 | 2026-09-02 03:12:30 | 47.05043 | 16.17394 | 114° | 29km/h | 19207m | 4.9m/s | -54.8°C | 4.1% | 0hPa | 2.6V | 00:00:00 | 00:00:00 | 00:00:00 | |
| OE5DXL-15 | 2026-09-02 03:12:28 | 47.05047 | 16.17384 | 123° | 29km/h | 19196m | 5.9m/s | -55.0°C | 4.3% | 0hPa | 2.6V | 00:00:00 | 00:00:00 | 00:00:00 | |
| OE5MMP-10 | 2026-09-02 03:12:23 | 47.05060 | 16.17347 | 121° | 31km/h | 19167m | 6.1m/s | 0°C | 0% | 0hPa | 2.6V | 00:00:00 | 01:25:53 | 00:00:00 | |
| PG1ADW-2 | 2026-09-02 03:12:21 | 47.05067 | 16.17331 | 118° | 33km/h | 19156m | 5.8m/s | -55.6°C | 4.5% | 0hPa | 2.6V | 00:00:00 | 00:00:00 | 00:00:00 | |
| OE5MMP-10 | 2026-09-02 03:12:13 | 47.05092 | 16.17234 | 113° | 33km/h | 19113m | 6.6m/s | 0°C | 0% | 0hPa | 2.6V | 00:00:00 | 01:25:43 | 00:00:00 | |
| PETON7-10 | 2026-09-02 03:12:09 | 47.05104 | 16.17180 | 106° | 29km/h | 19089m | 5.5m/s | -55.4°C | 4.4% | 0hPa | 2.6V | 00:00:00 | 01:25:39 | 00:00:00 | |
| OE5WHR-10 | 2026-09-02 03:12:08 | 47.05106 | 16.17168 | 106° | 27km/h | 19083m | 5.5m/s | -55.3°C | 4.4% | 0hPa | 2.6V | 00:00:00 | 01:25:38 | 00:00:00 | |
| OE5DRO-10 | 2026-09-02 03:12:04 | 47.05113 | 16.17128 | 111° | 27km/h | 19061m | 6.6m/s | -55.2°C | 4.4% | 0hPa | 2.6V | 00:00:00 | 00:00:00 | 00:00:00 | |
| OE5MMP-10 | 2026-09-02 03:12:03 | 47.05116 | 16.17119 | 111° | 27km/h | 19055m | 4.3m/s | 0°C | 0% | 0hPa | 2.6V | 00:00:00 | 01:25:33 | 00:00:00 | |
| OE8JPQ-2 | 2026-09-02 03:12:01 | 47.05120 | 16.17101 | 112° | 27km/h | 19044m | 4.9m/s | -55.2°C | 4.3% | 0hPa | 2.6V | 00:00:00 | 00:00:00 | 00:00:00 | |
| OE5DXL-15 | 2026-09-02 03:11:58 | 47.05128 | 16.17074 | 107° | 26km/h | 19027m | 6.8m/s | -55.1°C | 4.3% | 0hPa | 2.6V | 00:00:00 | 00:00:00 | 00:00:00 | |
| PETON7-10 | 2026-09-02 03:11:54 | 47.05136 | 16.17031 | 101° | 26km/h | 19004m | 3.8m/s | -55.1°C | 4.3% | 0hPa | 2.6V | 00:00:00 | 00:00:00 | 00:00:00 | |
| OE5MMP-10 | 2026-09-02 03:11:53 | 47.05137 | 16.17021 | 94° | 26km/h | 18999m | 6.3m/s | 0°C | 0% | 0hPa | 2.7V | 00:00:00 | 01:25:23 | 00:00:00 | |
| OE5WHR-10 | 2026-09-02 03:11:47 | 47.05140 | 16.16964 | 103° | 22km/h | 18963m | 6.1m/s | -55.2°C | 4.3% | 0hPa | 2.7V | 00:00:00 | 00:00:00 | 08:30:00 | |
| OE5DRO-10 | 2026-09-02 03:11:45 | 47.05144 | 16.16947 | 111° | 24km/h | 18952m | 5.6m/s | -55.2°C | 4.2% | 0hPa | 2.6V | 00:00:00 | 00:00:00 | 08:30:00 | |
| OE8JPQ-2 | 2026-09-02 03:11:41 | 47.05149 | 16.16910 | 103° | 22km/h | 18931m | 5.2m/s | -55.8°C | 4.5% | 0hPa | 2.6V | 00:00:00 | 01:25:11 | 00:00:00 | |
| PETON7-10 | 2026-09-02 03:11:39 | 47.05150 | 16.16892 | 84° | 22km/h | 18920m | 5.9m/s | -55.7°C | 4.5% | 0hPa | 2.6V | 00:00:00 | 00:00:00 | 00:00:00 | |
| OE5DXL-15 | 2026-09-02 03:11:28 | 47.05126 | 16.16812 | 54° | 27km/h | 18856m | 4.4m/s | -55.4°C | 4.3% | 0hPa | 2.6V | 00:00:00 | 00:00:00 | 08:30:00 | |
| OE5WHR-10 | 2026-09-02 03:11:26 | 47.05121 | 16.16801 | 68° | 26km/h | 18845m | 5.4m/s | -55.4°C | 4.3% | 0hPa | 2.7V | 00:00:00 | 00:00:00 | 00:00:00 | |
| PETON7-10 | 2026-09-02 03:11:24 | 47.05118 | 16.16787 | 71° | 29km/h | 18833m | 6.4m/s | -55.5°C | 4.4% | 0hPa | 2.7V | 00:00:00 | 01:24:54 | 00:00:00 | |
| OE8JPQ-2 | 2026-09-02 03:11:21 | 47.05112 | 16.16762 | 73° | 31km/h | 18815m | 7.4m/s | -55.9°C | 4.5% | 0hPa | 2.7V | 00:00:00 | 00:00:00 | 00:00:00 | |
| OE3JTB-15 | 2026-09-02 03:11:12 | 47.05095 | 16.16669 | 75° | 24km/h | 18761m | 6.0m/s | -56.2°C | 4.7% | 0hPa | 2.7V | 00:00:00 | 00:00:00 | 08:30:00 | |
| PETON7-10 | 2026-09-02 03:11:09 | 47.05087 | 16.16627 | 75° | 27km/h | 18743m | 5.9m/s | -56.1°C | 4.6% | 0hPa | 2.6V | 00:00:00 | 00:00:00 | 00:00:00 | |
| OE5DRO-10 | 2026-09-02 03:11:07 | 47.05081 | 16.16597 | 77° | 24km/h | 18731m | 5.6m/s | -56.1°C | 4.6% | 0hPa | 2.7V | 00:00:00 | 00:00:00 | 00:00:00 | |
| OE5WHR-10 | 2026-09-02 03:11:05 | 47.05078 | 16.16571 | 82° | 26km/h | 18721m | 4.5m/s | -56.1°C | 4.7% | 0hPa | 2.7V | 00:00:00 | 01:24:35 | 00:00:00 | |
| PG1ADW-2 | 2026-09-02 03:11:01 | 47.05074 | 16.16537 | 84° | 22km/h | 18696m | 5.9m/s | -55.9°C | 4.7% | 0hPa | 2.7V | 00:00:00 | 00:00:00 | 00:00:00 | |
| OE5DXL-15 | 2026-09-02 03:10:58 | 47.05070 | 16.16518 | 66° | 26km/h | 18679m | 4.4m/s | -55.8°C | 4.6% | 0hPa | 2.6V | 00:00:00 | 00:00:00 | 00:00:00 | |
| PETON7-10 | 2026-09-02 03:10:54 | 47.05064 | 16.16486 | 71° | 22km/h | 18657m | 5.9m/s | -55.6°C | 4.5% | 0hPa | 2.6V | 00:00:00 | 00:00:00 | 00:00:00 | |
| OE5DRO-10 | 2026-09-02 03:10:48 | 47.05060 | 16.16437 | 94° | 27km/h | 18622m | 6.1m/s | -55.6°C | 4.5% | 0hPa | 2.6V | 00:00:00 | 00:00:00 | 00:00:00 | |
| PG1ADW-2 | 2026-09-02 03:10:41 | 47.05055 | 16.16381 | 81° | 31km/h | 18583m | 6.9m/s | -55.7°C | 4.5% | 0hPa | 2.7V | 00:00:00 | 01:24:11 | 00:00:00 | |
| PETON7-10 | 2026-09-02 03:10:39 | 47.05053 | 16.16360 | 88° | 31km/h | 18572m | 6.4m/s | -55.7°C | 4.5% | 0hPa | 2.7V | 00:00:00 | 01:24:09 | 00:00:00 | |
| OE3JTB-15 | 2026-09-02 03:10:38 | 47.05053 | 16.16349 | 92° | 31km/h | 18566m | 5.4m/s | -55.7°C | 4.5% | 0hPa | 2.7V | 00:00:00 | 00:00:00 | 00:00:00 | |
| OE5DRO-10 | 2026-09-02 03:10:29 | 47.05061 | 16.16251 | 88° | 33km/h | 18518m | 6.7m/s | -55.6°C | 4.5% | 0hPa | 2.7V | 00:00:00 | 00:00:00 | 00:00:00 | |
| OE5DXL-15 | 2026-09-02 03:10:28 | 47.05060 | 16.16239 | 86° | 35km/h | 18512m | 4.6m/s | -55.6°C | 4.5% | 0hPa | 2.7V | 00:00:00 | 00:00:00 | 00:00:00 | |
| PETON7-10 | 2026-09-02 03:10:24 | 47.05056 | 16.16190 | 84° | 35km/h | 18490m | 7.0m/s | -55.5°C | 4.4% | 0hPa | 2.7V | 00:00:00 | 00:00:00 | 08:30:00 | |
| PG1ADW-2 | 2026-09-02 03:10:21 | 47.05052 | 16.16154 | 74° | 35km/h | 18473m | 5.8m/s | -55.5°C | 4.4% | 0hPa | 2.7V | 00:00:00 | 00:00:00 | 00:00:00 | |
| OE5DRO-10 | 2026-09-02 03:10:10 | 47.05022 | 16.16025 | 77° | 40km/h | 18414m | 6.2m/s | -56.0°C | 4.5% | 0hPa | 2.7V | 00:00:00 | 00:00:00 | 00:00:00 | |
| PETON7-10 | 2026-09-02 03:10:09 | 47.05020 | 16.16010 | 83° | 40km/h | 18408m | 5.5m/s | -56.0°C | 4.5% | 0hPa | 2.7V | 00:00:00 | 00:00:00 | 00:00:00 | |
| OE5WHR-10 | 2026-09-02 03:10:08 | 47.05019 | 16.15995 | 83° | 44km/h | 18403m | 4.2m/s | -55.9°C | 4.4% | 0hPa | 2.7V | 00:00:00 | 00:00:00 | 00:00:00 | |
| OE3OSB-13 | 2026-09-02 03:10:07 | 47.05016 | 16.15969 | 77° | 33km/h | 18392m | 4.5m/s | -55.9°C | 1.3% | -1.0hPa | 2.7V | 00:00:00 | 00:00:00 | 00:00:00 | |
| OE8JPQ-2 | 2026-09-02 03:10:01 | 47.05007 | 16.15907 | 76° | 42km/h | 18365m | 5.3m/s | -56.7°C | 4.6% | 0hPa | 2.7V | 00:00:00 | 00:00:00 | 00:00:00 | |
| OE5DXL-15 | 2026-09-02 03:09:58 | 47.05000 | 16.15860 | 77° | 38km/h | 18349m | 6.0m/s | -56.9°C | 4.8% | 0hPa | 2.7V | 00:00:00 | 00:00:00 | 00:00:00 | |
| PETON7-10 | 2026-09-02 03:09:54 | 47.04991 | 16.15795 | 84° | 40km/h | 18327m | 3.3m/s | -57.0°C | 4.8% | 0hPa | 2.6V | 00:00:00 | 01:23:24 | 00:00:00 | |
| OE5DRO-10 | 2026-09-02 03:09:51 | 47.04986 | 16.15750 | 80° | 38km/h | 18311m | 5.1m/s | -57.0°C | 4.8% | 0hPa | 2.6V | 00:00:00 | 00:00:00 | 00:00:00 | |
| OE5WHR-10 | 2026-09-02 03:09:44 | 47.04976 | 16.15647 | 80° | 29km/h | 18272m | 4.4m/s | -57.2°C | 4.9% | 0hPa | 2.7V | 00:00:00 | 01:23:14 | 00:00:00 | |
| OE8JPQ-2 | 2026-09-02 03:09:41 | 47.04967 | 16.15602 | 72° | 33km/h | 18256m | 4.6m/s | -57.2°C | 4.9% | 0hPa | 2.7V | 00:00:00 | 01:23:11 | 00:00:00 | |
| OE3JTB-15 | 2026-09-02 03:09:40 | 47.04964 | 16.15587 | 76° | 29km/h | 18251m | 5.3m/s | -57.2°C | 4.9% | 0hPa | 2.7V | 00:00:00 | 00:00:00 | 00:00:00 | |
| PETON7-10 | 2026-09-02 03:09:39 | 47.04962 | 16.15572 | 80° | 33km/h | 18246m | 4.3m/s | -57.1°C | 4.9% | 0hPa | 2.6V | 00:00:00 | 00:00:00 | 00:00:00 | |
| OE5DRO-10 | 2026-09-02 03:09:32 | 47.04950 | 16.15491 | 75° | 27km/h | 18208m | 5.0m/s | -57.1°C | 4.9% | 0hPa | 2.7V | 00:00:00 | 00:00:00 | 00:00:00 | |
| OE5DXL-15 | 2026-09-02 03:09:28 | 47.04943 | 16.15442 | 77° | 22km/h | 18185m | 6.5m/s | -57.1°C | 4.8% | 0hPa | 2.7V | 00:00:00 | 00:00:00 | 00:00:00 | |
| PETON7-10 | 2026-09-02 03:09:24 | 47.04938 | 16.15396 | 79° | 24km/h | 18163m | 6.5m/s | -57.0°C | 4.8% | 0hPa | 2.7V | 00:00:00 | 00:00:00 | 00:00:00 | |
| PG1ADW-2 | 2026-09-02 03:09:21 | 47.04933 | 16.15372 | 78° | 20km/h | 18145m | 6.1m/s | -57.1°C | 4.9% | 0hPa | 2.7V | 00:00:00 | 01:22:51 | 00:00:00 | |
| OE5WHR-10 | 2026-09-02 03:09:13 | 47.04930 | 16.15300 | 85° | 16km/h | 18101m | 5.5m/s | -57.0°C | 4.9% | 0hPa | 2.7V | 00:00:00 | 00:00:00 | 00:00:00 | |
| OE3JTB-15 | 2026-09-02 03:09:11 | 47.04928 | 16.15282 | 77° | 16km/h | 18090m | 4.8m/s | -57.0°C | 4.9% | 0hPa | 2.7V | 00:00:00 | 00:00:00 | 00:00:00 | |
| PETON7-10 | 2026-09-02 03:09:09 | 47.04926 | 16.15269 | 71° | 16km/h | 18078m | 5.9m/s | -56.9°C | 4.9% | 0hPa | 2.7V | 00:00:00 | 01:22:39 | 00:00:00 | |
| OE3OSB-13 | 2026-09-02 03:09:04 | 47.04923 | 16.15244 | 84° | 13km/h | 18052m | 6.8m/s | -56.7°C | 1.4% | -1.0hPa | 2.7V | 00:00:00 | 00:00:00 | 00:00:00 | |
| PG1ADW-2 | 2026-09-02 03:09:01 | 47.04923 | 16.15225 | 91° | 18km/h | 18035m | 5.2m/s | -56.6°C | 4.9% | 0hPa | 2.7V | 00:00:00 | 00:00:00 | 00:00:00 | |
| OE5DXL-15 | 2026-09-02 03:08:58 | 47.04922 | 16.15201 | 91° | 18km/h | 18018m | 6.4m/s | -56.4°C | 4.9% | 0hPa | 2.6V | 00:00:00 | 00:00:00 | 00:00:00 | |
| PETON7-10 | 2026-09-02 03:08:54 | 47.04924 | 16.15180 | 124° | 16km/h | 17994m | 4.9m/s | -56.2°C | 4.8% | 0hPa | 2.6V | 00:00:00 | 00:00:00 | 00:00:00 | |
| OE3JTB-15 | 2026-09-02 03:08:42 | 47.04931 | 16.15106 | 115° | 26km/h | 17923m | 4.7m/s | -55.7°C | 4.6% | 0hPa | 2.6V | 00:00:00 | 01:22:12 | 00:00:00 | |
| PG1ADW-2 | 2026-09-02 03:08:41 | 47.04933 | 16.15099 | 111° | 22km/h | 17917m | 6.9m/s | -55.7°C | 4.6% | 0hPa | 2.6V | 00:00:00 | 00:00:00 | 00:00:00 | |
| PETON7-10 | 2026-09-02 03:08:39 | 47.04936 | 16.15086 | 106° | 20km/h | 17905m | 5.6m/s | -55.6°C | 4.6% | 0hPa | 2.6V | 00:00:00 | 00:00:00 | 00:00:00 | |
| OE5DRO-10 | 2026-09-02 03:08:35 | 47.04941 | 16.15059 | 102° | 26km/h | 17882m | 5.5m/s | -55.6°C | 4.5% | 0hPa | 2.6V | 00:00:00 | 00:00:00 | 00:00:00 | |
| OE5DXL-15 | 2026-09-02 03:08:28 | 47.04947 | 16.15007 | 100° | 31km/h | 17839m | 6.3m/s | -55.6°C | 4.5% | 0hPa | 2.6V | 00:00:00 | 00:00:00 | 00:00:00 | |
| PETON7-10 | 2026-09-02 03:08:24 | 47.04951 | 16.14971 | 102° | 33km/h | 17816m | 6.7m/s | -55.6°C | 4.5% | 0hPa | 2.7V | 00:00:00 | 01:21:54 | 00:00:00 | |
| PG1ADW-2 | 2026-09-02 03:08:21 | 47.04956 | 16.14940 | 100° | 33km/h | 17797m | 6.4m/s | -55.6°C | 4.6% | 0hPa | 2.7V | 00:00:00 | 00:00:00 | 00:00:00 | |
| OE5DRO-10 | 2026-09-02 03:08:16 | 47.04968 | 16.14885 | 114° | 33km/h | 17766m | 6.1m/s | -55.5°C | 4.5% | 0hPa | 2.7V | 00:00:00 | 00:00:00 | 00:00:00 | |
| OE5WHR-10 | 2026-09-02 03:08:14 | 47.04975 | 16.14861 | 115° | 40km/h | 17754m | 7.0m/s | -55.4°C | 4.5% | 0hPa | 2.7V | 00:00:00 | 01:21:44 | 00:00:00 | |
| OE3JTB-15 | 2026-09-02 03:08:13 | 47.04979 | 16.14848 | 115° | 37km/h | 17748m | 5.4m/s | -55.4°C | 4.5% | 0hPa | 2.7V | 00:00:00 | 00:00:00 | 00:00:00 | |
| PETON7-10 | 2026-09-02 03:08:09 | 47.04990 | 16.14802 | 108° | 33km/h | 17724m | 6.0m/s | -55.3°C | 4.4% | 0hPa | 2.7V | 00:00:00 | 00:00:00 | 08:30:00 | |
| PG1ADW-2 | 2026-09-02 03:08:01 | 47.05004 | 16.14709 | 100° | 40km/h | 17679m | 5.5m/s | -55.4°C | 4.5% | 0hPa | 2.7V | 00:00:00 | 01:21:31 | 00:00:00 | |
| OE5DXL-15 | 2026-09-02 03:07:58 | 47.05012 | 16.14672 | 112° | 42km/h | 17662m | 5.8m/s | -55.4°C | 4.4% | 0hPa | 2.6V | 00:00:00 | 00:00:00 | 00:00:00 | |
| OE5DRO-10 | 2026-09-02 03:07:57 | 47.05015 | 16.14660 | 111° | 42km/h | 17656m | 6.1m/s | -55.4°C | 4.4% | 0hPa | 2.6V | 00:00:00 | 00:00:00 | 00:00:00 | |
| PETON7-10 | 2026-09-02 03:07:54 | 47.05022 | 16.14623 | 104° | 44km/h | 17640m | 5.9m/s | -55.6°C | 4.5% | 0hPa | 2.7V | 00:00:00 | 00:00:00 | 00:00:00 | |
| OE3JTB-15 | 2026-09-02 03:07:44 | 47.05032 | 16.14459 | 100° | 40km/h | 17583m | 6.0m/s | -55.6°C | 4.6% | 0hPa | 2.7V | 00:00:00 | 00:00:00 | 00:00:00 | |
| OE5WHR-10 | 2026-09-02 03:07:43 | 47.05033 | 16.14443 | 100° | 42km/h | 17578m | 5.0m/s | -55.6°C | 4.6% | 0hPa | 2.7V | 00:00:00 | 00:00:00 | 08:30:00 | |
| PG1ADW-2 | 2026-09-02 03:07:41 | 47.05036 | 16.14412 | 98° | 42km/h | 17567m | 5.7m/s | -55.5°C | 4.6% | 0hPa | 2.6V | 00:00:00 | 00:00:00 | 00:00:00 | |
| PETON7-10 | 2026-09-02 03:07:39 | 47.05039 | 16.14380 | 96° | 40km/h | 17556m | 6.3m/s | -55.5°C | 4.5% | 0hPa | 2.6V | 00:00:00 | 01:21:09 | 00:00:00 | |
| OE5DRO-10 | 2026-09-02 03:07:38 | 47.05040 | 16.14364 | 97° | 40km/h | 17550m | 4.8m/s | -55.5°C | 4.5% | 0hPa | 2.6V | 00:00:00 | 00:00:00 | 00:00:00 | |
| OE5DXL-15 | 2026-09-02 03:07:28 | 47.05049 | 16.14215 | 93° | 40km/h | 17495m | 6.6m/s | -55.2°C | 4.4% | 0hPa | 2.6V | 00:00:00 | 00:00:00 | 00:00:00 | |
| PETON7-10 | 2026-09-02 03:07:24 | 47.05051 | 16.14158 | 94° | 40km/h | 17473m | 6.5m/s | -55.4°C | 4.4% | 0hPa | 2.6V | 00:00:00 | 00:00:00 | 00:00:00 | |
| OE5WHR-10 | 2026-09-02 03:07:22 | 47.05052 | 16.14125 | 94° | 42km/h | 17462m | 5.4m/s | -55.6°C | 4.5% | 0hPa | 2.7V | 00:00:00 | 00:00:00 | 00:00:00 | |
| PG1ADW-2 | 2026-09-02 03:07:21 | 47.05053 | 16.14109 | 94° | 40km/h | 17457m | 5.6m/s | -55.6°C | 4.5% | 0hPa | 2.7V | 00:00:00 | 00:00:00 | 00:00:00 | |
| OE5DRO-10 | 2026-09-02 03:07:19 | 47.05055 | 16.14079 | 96° | 40km/h | 17447m | 6.3m/s | -55.6°C | 4.5% | 0hPa | 2.7V | 00:00:00 | 00:00:00 | 00:00:00 | |
| OE3JTB-15 | 2026-09-02 03:07:15 | 47.05063 | 16.14025 | 109° | 42km/h | 17426m | 5.8m/s | -55.5°C | 4.5% | 0hPa | 2.7V | 00:00:00 | 01:20:45 | 00:00:00 | |
| PETON7-10 | 2026-09-02 03:07:09 | 47.05073 | 16.13943 | 100° | 44km/h | 17395m | 4.3m/s | -55.8°C | 4.6% | 0hPa | 2.7V | 00:00:00 | 00:00:00 | 00:00:00 | |
| PG1ADW-2 | 2026-09-02 03:07:01 | 47.05091 | 16.13819 | 106° | 44km/h | 17352m | 3.9m/s | -56.0°C | 4.6% | 0hPa | 2.7V | 00:00:00 | 00:00:00 | 08:30:00 | |
| OE5DRO-10 | 2026-09-02 03:07:00 | 47.05094 | 16.13801 | 108° | 42km/h | 17347m | 6.0m/s | -56.0°C | 4.6% | 0hPa | 2.7V | 00:00:00 | 00:00:00 | 00:00:00 | |
| OE5DXL-15 | 2026-09-02 03:06:58 | 47.05101 | 16.13769 | 109° | 44km/h | 17336m | 4.5m/s | -56.1°C | 4.7% | 0hPa | 2.6V | 00:00:00 | 00:00:00 | 08:30:00 | |
| PETON7-10 | 2026-09-02 03:06:54 | 47.05112 | 16.13705 | 96° | 42km/h | 17316m | 4.3m/s | -56.2°C | 4.7% | 0hPa | 2.6V | 00:00:00 | 01:20:24 | 00:00:00 | |
| OE3JTB-15 | 2026-09-02 03:06:46 | 47.05122 | 16.13585 | 97° | 47km/h | 17274m | 5.7m/s | -56.3°C | 4.7% | 0hPa | 2.6V | 00:00:00 | 00:00:00 | 08:30:00 | |
| PG1ADW-2 | 2026-09-02 03:06:41 | 47.05132 | 16.13508 | 101° | 47km/h | 17251m | 4.6m/s | -56.4°C | 4.8% | 0hPa | 2.6V | 00:00:00 | 01:20:11 | 00:00:00 | |
| OE5WHR-10 | 2026-09-02 03:06:40 | 47.05134 | 16.13493 | 104° | 49km/h | 17246m | 4.2m/s | 0°C | 0% | 0hPa | 2.6V | 00:00:00 | 00:00:00 | 00:00:00 | |
| PETON7-10 | 2026-09-02 03:06:39 | 47.05137 | 16.13478 | 109° | 47km/h | 17241m | 5.5m/s | -56.5°C | 4.7% | 0hPa | 2.6V | 00:00:00 | 00:00:00 | 00:00:00 | |
| OE5DXL-15 | 2026-09-02 03:06:28 | 47.05187 | 16.13296 | 110° | 47km/h | 17186m | 4.0m/s | -56.5°C | 4.8% | 0hPa | 2.6V | 00:00:00 | 00:00:00 | 00:00:00 | |
| PETON7-10 | 2026-09-02 03:06:24 | 47.05203 | 16.13227 | 109° | 47km/h | 17167m | 5.4m/s | -56.4°C | 4.9% | 0hPa | 2.6V | 00:00:00 | 00:00:00 | 00:00:00 | |
| OE5DRO-10 | 2026-09-02 03:06:22 | 47.05211 | 16.13194 | 110° | 47km/h | 17157m | 5.1m/s | -56.4°C | 4.8% | 0hPa | 2.6V | 00:00:00 | 00:00:00 | 00:00:00 | |
| PG1ADW-2 | 2026-09-02 03:06:21 | 47.05215 | 16.13177 | 110° | 47km/h | 17153m | 3.4m/s | -56.3°C | 4.8% | 0hPa | 2.6V | 00:00:00 | 00:00:00 | 00:00:00 | |
| OE5WHR-10 | 2026-09-02 03:06:19 | 47.05222 | 16.13142 | 104° | 49km/h | 17143m | 4.2m/s | 0°C | 0% | 0hPa | 2.6V | 00:00:00 | 00:00:00 | 00:00:00 | |
| OE3JTB-15 | 2026-09-02 03:06:17 | 47.05229 | 16.13107 | 109° | 49km/h | 17133m | 5.1m/s | -56.2°C | 4.7% | 0hPa | 2.6V | 00:00:00 | 00:00:00 | 00:00:00 | |
| PETON7-10 | 2026-09-02 03:06:09 | 47.05257 | 16.12979 | 107° | 49km/h | 17094m | 4.8m/s | -56.1°C | 4.7% | 0hPa | 2.6V | 00:00:00 | 01:19:39 | 00:00:00 | |
| OE5DRO-10 | 2026-09-02 03:06:03 | 47.05276 | 16.12877 | 104° | 51km/h | 17065m | 4.7m/s | -56.0°C | 4.7% | 0hPa | 2.6V | 00:00:00 | 00:00:00 | 08:30:00 | |
| OE5WHR-10 | 2026-09-02 03:05:58 | 47.05290 | 16.12782 | 103° | 51km/h | 17041m | 5.7m/s | 0°C | 0% | 0hPa | 2.7V | 00:00:00 | 01:19:28 | 00:00:00 | |
| PETON7-10 | 2026-09-02 03:05:54 | 47.05301 | 16.12708 | 100° | 51km/h | 17021m | 4.9m/s | -56.1°C | 4.7% | 0hPa | 2.7V | 00:00:00 | 00:00:00 | 08:30:00 | |
| OE3JTB-15 | 2026-09-02 03:05:48 | 47.05310 | 16.12593 | 96° | 49km/h | 16990m | 4.0m/s | -56.0°C | 4.6% | 0hPa | 2.7V | 00:00:00 | 01:19:18 | 00:00:00 | |
| OE5DRO-10 | 2026-09-02 03:05:44 | 47.05316 | 16.12520 | 92° | 49km/h | 16970m | 5.6m/s | -56.2°C | 4.6% | 0hPa | 2.7V | 00:00:00 | 00:00:00 | 00:00:00 | |
| PG1ADW-2 | 2026-09-02 03:05:41 | 47.05318 | 16.12462 | 94° | 49km/h | 16953m | 4.8m/s | -56.3°C | 4.7% | 0hPa | 2.7V | 00:00:00 | 00:00:00 | 00:00:00 | |
| PETON7-10 | 2026-09-02 03:05:39 | 47.05318 | 16.12424 | 87° | 49km/h | 16941m | 4.3m/s | -56.5°C | 4.8% | 0hPa | 2.7V | 00:00:00 | 00:00:00 | 00:00:00 | |
| OE5DXL-15 | 2026-09-02 03:05:28 | 47.05299 | 16.12230 | 73° | 42km/h | 16882m | 5.0m/s | -57.0°C | 5.1% | 0hPa | 2.7V | 00:00:00 | 00:00:00 | 00:00:00 | |
| OE5DRO-10 | 2026-09-02 03:05:25 | 47.05288 | 16.12179 | 73° | 42km/h | 16866m | 4.2m/s | -57.0°C | 5.1% | 0hPa | 2.6V | 00:00:00 | 00:00:00 | 00:00:00 | |
| PETON7-10 | 2026-09-02 03:05:24 | 47.05284 | 16.12162 | 72° | 42km/h | 16861m | 5.6m/s | -57.0°C | 5.0% | 0hPa | 2.6V | 00:00:00 | 01:18:54 | 00:00:00 | |
| PG1ADW-2 | 2026-09-02 03:05:21 | 47.05274 | 16.12114 | 76° | 40km/h | 16845m | 5.2m/s | -56.8°C | 4.9% | 0hPa | 2.6V | 00:00:00 | 01:18:51 | 00:00:00 | |
| OE3JTB-15 | 2026-09-02 03:05:19 | 47.05268 | 16.12083 | 72° | 38km/h | 16833m | 6.7m/s | -56.7°C | 5.0% | 0hPa | 2.6V | 00:00:00 | 00:00:00 | 00:00:00 | |
| OE5WHR-10 | 2026-09-02 03:05:16 | 47.05262 | 16.12037 | 83° | 51km/h | 16816m | 5.4m/s | 0°C | 0% | 0hPa | 2.7V | 00:00:00 | 00:00:00 | 00:00:00 | |
| PETON7-10 | 2026-09-02 03:05:09 | 47.05256 | 16.11932 | 83° | 38km/h | 16779m | 4.3m/s | -56.4°C | 4.9% | 0hPa | 2.7V | 00:00:00 | 00:00:00 | 00:00:00 | |
| PG1ADW-2 | 2026-09-02 03:05:01 | 47.05250 | 16.11820 | 81° | 35km/h | 16736m | 4.6m/s | -56.0°C | 4.7% | 0hPa | 2.7V | 00:00:00 | 00:00:00 | 00:00:00 | |
| OE5DXL-15 | 2026-09-02 03:04:58 | 47.05244 | 16.11779 | 79° | 35km/h | 16721m | 5.9m/s | -56.0°C | 4.8% | 0hPa | 2.6V | 00:00:00 | 00:00:00 | 00:00:00 | |
| PETON7-10 | 2026-09-02 03:04:54 | 47.05240 | 16.11720 | 85° | 33km/h | 16698m | 5.2m/s | -55.9°C | 4.9% | 0hPa | 2.6V | 00:00:00 | 00:00:00 | 00:00:00 | |
| OE3JTB-15 | 2026-09-02 03:04:50 | 47.05236 | 16.11669 | 81° | 33km/h | 16678m | 4.9m/s | -55.8°C | 4.8% | 0hPa | 2.6V | 00:00:00 | 00:00:00 | 00:00:00 | |
| OE5DRO-10 | 2026-09-02 03:04:47 | 47.05233 | 16.11634 | 83° | 33km/h | 16662m | 5.0m/s | -55.7°C | 4.8% | 0hPa | 2.6V | 00:00:00 | 00:00:00 | 00:00:00 | |
| PG1ADW-2 | 2026-09-02 03:04:41 | 47.05225 | 16.11562 | 82° | 35km/h | 16628m | 4.4m/s | -55.6°C | 4.8% | 0hPa | 2.6V | 00:00:00 | 00:00:00 | 00:00:00 | |
| PETON7-10 | 2026-09-02 03:04:39 | 47.05224 | 16.11537 | 88° | 33km/h | 16617m | 4.4m/s | -55.5°C | 4.8% | 0hPa | 2.6V | 00:00:00 | 01:18:09 | 00:00:00 | |
| OE5DXL-15 | 2026-09-02 03:04:28 | 47.05219 | 16.11403 | 92° | 33km/h | 16558m | 4.5m/s | -55.1°C | 4.6% | 0hPa | 2.6V | 00:00:00 | 00:00:00 | 00:00:00 | |
| PETON7-10 | 2026-09-02 03:04:24 | 47.05217 | 16.11351 | 84° | 35km/h | 16537m | 6.0m/s | -55.0°C | 4.6% | 0hPa | 2.6V | 00:00:00 | 00:00:00 | 00:00:00 | |
| PG1ADW-2 | 2026-09-02 03:04:21 | 47.05213 | 16.11309 | 82° | 33km/h | 16520m | 5.3m/s | -54.9°C | 4.6% | 0hPa | 2.6V | 00:00:00 | 00:00:00 | 00:00:00 | |
| PETON7-10 | 2026-09-02 03:04:09 | 47.05208 | 16.11161 | 84° | 29km/h | 16453m | 5.0m/s | -54.5°C | 4.5% | 0hPa | 2.6V | 00:00:00 | 00:00:00 | 00:00:00 | |
| PG1ADW-2 | 2026-09-02 03:04:01 | 47.05210 | 16.11074 | 93° | 31km/h | 16411m | 5.2m/s | -54.2°C | 4.5% | 0hPa | 2.6V | 00:00:00 | 01:17:31 | 08:30:00 | |
| OE5DXL-15 | 2026-09-02 03:03:58 | 47.05210 | 16.11042 | 87° | 37km/h | 16395m | 4.2m/s | -54.1°C | 4.4% | 0hPa | 2.7V | 00:00:00 | 00:00:00 | 00:00:00 | |
| PETON7-10 | 2026-09-02 03:03:54 | 47.05205 | 16.11000 | 84° | 33km/h | 16372m | 4.2m/s | -54.0°C | 4.4% | 0hPa | 2.7V | 00:00:00 | 01:17:24 | 00:00:00 | |
| OE3JTB-15 | 2026-09-02 03:03:52 | 47.05203 | 16.10980 | 88° | 40km/h | 16361m | 5.0m/s | -54.0°C | 4.4% | 0hPa | 2.7V | 00:00:00 | 00:00:00 | 00:00:00 | |
| OE5DRO-10 | 2026-09-02 03:03:50 | 47.05206 | 16.10962 | 112° | 40km/h | 16351m | 6.5m/s | -54.0°C | 4.4% | 0hPa | 2.6V | 00:00:00 | 00:00:00 | 00:00:00 | |
| OE8JPQ-2 | 2026-09-02 03:03:41 | 47.05215 | 16.10845 | 91° | 46km/h | 16295m | 4.1m/s | -54.2°C | 4.4% | 0hPa | 2.6V | 00:00:00 | 01:17:11 | 00:00:00 | |
| PETON7-10 | 2026-09-02 03:03:39 | 47.05217 | 16.10816 | 98° | 46km/h | 16281m | 5.5m/s | -54.2°C | 4.4% | 0hPa | 2.6V | 00:00:00 | 00:00:00 | 08:30:00 | |
| OE5DRO-10 | 2026-09-02 03:03:31 | 47.05233 | 16.10686 | 96° | 49km/h | 16238m | 5.0m/s | -54.2°C | 4.5% | 0hPa | 2.6V | 00:00:00 | 00:00:00 | 00:00:00 | |
| OE5DXL-15 | 2026-09-02 03:03:28 | 47.05236 | 16.10635 | 96° | 55km/h | 16222m | 4.6m/s | -54.1°C | 4.5% | 0hPa | 2.6V | 00:00:00 | 00:00:00 | 00:00:00 | |
| PETON7-10 | 2026-09-02 03:03:24 | 47.05243 | 16.10567 | 101° | 53km/h | 16201m | 5.2m/s | -53.9°C | 4.5% | 0hPa | 2.6V | 00:00:00 | 00:00:00 | 00:00:00 | |
| OE3JTB-15 | 2026-09-02 03:03:23 | 47.05245 | 16.10548 | 101° | 57km/h | 16197m | 4.1m/s | -53.9°C | 4.4% | 0hPa | 2.6V | 00:00:00 | 00:00:00 | 00:00:00 | |
| PG1ADW-2 | 2026-09-02 03:03:21 | 47.05250 | 16.10511 | 101° | 55km/h | 16187m | 3.4m/s | -53.8°C | 4.4% | 0hPa | 2.6V | 00:00:00 | 00:00:00 | 00:00:00 | |
| OE5DRO-10 | 2026-09-02 03:03:12 | 47.05269 | 16.10336 | 95° | 60km/h | 16139m | 6.2m/s | -53.6°C | 4.3% | 0hPa | 2.6V | 00:00:00 | 00:00:00 | 08:30:00 | |
| PETON7-10 | 2026-09-02 03:03:09 | 47.05273 | 16.10275 | 98° | 60km/h | 16123m | 4.5m/s | -53.5°C | 4.3% | 0hPa | 2.6V | 00:00:00 | 01:16:39 | 00:00:00 | |
| PG1ADW-2 | 2026-09-02 03:03:01 | 47.05289 | 16.10103 | 97° | 66km/h | 16083m | 5.6m/s | -53.3°C | 4.2% | 0hPa | 2.6V | 00:00:00 | 00:00:00 | 00:00:00 | |
| OE5DXL-15 | 2026-09-02 03:02:58 | 47.05292 | 16.10033 | 93° | 68km/h | 16068m | 5.3m/s | -53.4°C | 4.2% | 0hPa | 2.6V | 00:00:00 | 00:00:00 | 00:00:00 | |
| OE5DRO-10 | 2026-09-02 03:02:53 | 47.05299 | 16.09914 | 97° | 68km/h | 16041m | 4.0m/s | -53.7°C | 4.3% | 0hPa | 2.6V | 00:00:00 | 00:00:00 | 00:00:00 | |
| OE5WHR-10 | 2026-09-02 03:02:43 | 47.05303 | 16.09661 | 89° | 73km/h | 15992m | 4.9m/s | 0°C | 0% | 0hPa | 2.6V | 00:00:00 | 01:16:13 | 00:00:00 | |
| PG1ADW-2 | 2026-09-02 03:02:41 | 47.05301 | 16.09612 | 87° | 68km/h | 15981m | 4.5m/s | -53.8°C | 4.4% | 0hPa | 2.6V | 00:00:00 | 01:16:11 | 00:00:00 | |
| PETON7-10 | 2026-09-02 03:02:39 | 47.05299 | 16.09564 | 88° | 66km/h | 15971m | 4.7m/s | -53.8°C | 4.4% | 0hPa | 2.6V | 00:00:00 | 00:00:00 | 00:00:00 | |
| OE5DRO-10 | 2026-09-02 03:02:34 | 47.05299 | 16.09442 | 91° | 69km/h | 15945m | 5.8m/s | -53.9°C | 4.5% | 0hPa | 2.6V | 00:00:00 | 00:00:00 | 00:00:00 | |
| OE5DXL-15 | 2026-09-02 03:02:28 | 47.05297 | 16.09294 | 85° | 75km/h | 15915m | 4.8m/s | -53.9°C | 4.5% | 0hPa | 2.6V | 00:00:00 | 00:00:00 | 08:30:00 | |
| OE3JTB-15 | 2026-09-02 03:02:25 | 47.05292 | 16.09220 | 86° | 75km/h | 15899m | 6.2m/s | -53.9°C | 4.4% | 0hPa | 2.7V | 00:00:00 | 00:00:00 | 08:30:00 | |
| PETON7-10 | 2026-09-02 03:02:24 | 47.05290 | 16.09195 | 86° | 75km/h | 15893m | 5.0m/s | -53.8°C | 4.4% | 0hPa | 2.6V | 00:00:00 | 01:15:54 | 00:00:00 | |
| OE8JPQ-2 | 2026-09-02 03:02:21 | 47.05288 | 16.09117 | 87° | 77km/h | 15877m | 6.5m/s | -53.8°C | 4.4% | 0hPa | 2.6V | 00:00:00 | 00:00:00 | 00:00:00 | |
| OE5DRO-10 | 2026-09-02 03:02:15 | 47.05276 | 16.08958 | 83° | 78km/h | 15845m | 6.1m/s | -53.9°C | 4.5% | 0hPa | 2.6V | 00:00:00 | 00:00:00 | 00:00:00 | |
| OE5WHR-10 | 2026-09-02 03:02:10 | 47.05266 | 16.08814 | 84° | 78km/h | 15819m | 5.8m/s | 0°C | 0% | 0hPa | 2.6V | 00:00:00 | 00:00:00 | 00:00:00 | |
| PETON7-10 | 2026-09-02 03:02:08 | 47.05261 | 16.08756 | 83° | 77km/h | 15809m | 6.1m/s | -53.7°C | 4.3% | 0hPa | 2.6V | 00:00:00 | 00:00:00 | 00:00:00 | |
| PG1ADW-2 | 2026-09-02 03:02:01 | 47.05242 | 16.08556 | 83° | 77km/h | 15773m | 5.6m/s | -54.0°C | 4.5% | 0hPa | 2.7V | 00:00:00 | 00:00:00 | 00:00:00 | |
| OE5DXL-15 | 2026-09-02 03:01:58 | 47.05235 | 16.08473 | 82° | 78km/h | 15758m | 4.3m/s | -53.9°C | 4.5% | 0hPa | 2.7V | 00:00:00 | 00:00:00 | 00:00:00 | |
| OE5DRO-10 | 2026-09-02 03:01:56 | 47.05229 | 16.08418 | 82° | 78km/h | 15747m | 4.4m/s | -53.9°C | 4.5% | 0hPa | 2.7V | 00:00:00 | 00:00:00 | 00:00:00 | |
| PETON7-10 | 2026-09-02 03:01:53 | 47.05222 | 16.08332 | 84° | 78km/h | 15731m | 6.1m/s | -53.7°C | 4.4% | 0hPa | 2.7V | 00:00:00 | 00:00:00 | 00:00:00 | |
| PG1ADW-2 | 2026-09-02 03:01:41 | 47.05186 | 16.07995 | 83° | 80km/h | 15669m | 4.8m/s | -54.2°C | 4.5% | 0hPa | 2.7V | 00:00:00 | 00:00:00 | 00:00:00 | |
| PETON7-10 | 2026-09-02 03:01:38 | 47.05182 | 16.07904 | 89° | 80km/h | 15653m | 4.3m/s | -54.4°C | 4.5% | 0hPa | 2.7V | 00:00:00 | 01:15:08 | 00:00:00 | |
| OE5DRO-10 | 2026-09-02 03:01:37 | 47.05181 | 16.07874 | 90° | 80km/h | 15648m | 5.8m/s | -54.4°C | 4.6% | 0hPa | 2.7V | 00:00:00 | 00:00:00 | 00:00:00 | |
| OE5DXL-15 | 2026-09-02 03:01:28 | 47.05162 | 16.07610 | 80° | 80km/h | 15601m | 4.2m/s | -54.7°C | 4.7% | 0hPa | 2.7V | 00:00:00 | 00:00:00 | 00:00:00 | |
| OE3JTB-15 | 2026-09-02 03:01:27 | 47.05158 | 16.07579 | 80° | 80km/h | 15596m | 5.7m/s | -54.7°C | 4.7% | 0hPa | 2.7V | 00:00:00 | 01:14:57 | 00:00:00 | |
| PETON7-10 | 2026-09-02 03:01:23 | 47.05147 | 16.07460 | 86° | 80km/h | 15576m | 4.2m/s | -54.9°C | 4.7% | 0hPa | 2.7V | 00:00:00 | 00:00:00 | 08:30:00 | |
| PG1ADW-2 | 2026-09-02 03:01:21 | 47.05143 | 16.07403 | 85° | 80km/h | 15567m | 4.0m/s | -55.1°C | 4.8% | 0hPa | 2.7V | 00:00:00 | 01:14:51 | 00:00:00 | |
| OE5DRO-10 | 2026-09-02 03:01:18 | 47.05135 | 16.07313 | 82° | 80km/h | 15552m | 6.1m/s | -55.1°C | 4.8% | 0hPa | 2.7V | 00:00:00 | 00:00:00 | 00:00:00 | |
| PETON7-10 | 2026-09-02 03:01:08 | 47.05102 | 16.07018 | 80° | 78km/h | 15500m | 4.7m/s | -54.9°C | 4.8% | 0hPa | 2.7V | 00:00:00 | 00:00:00 | 00:00:00 | |
| PG1ADW-2 | 2026-09-02 03:01:01 | 47.05072 | 16.06812 | 80° | 77km/h | 15465m | 4.8m/s | -55.0°C | 4.8% | 0hPa | 2.7V | 00:00:00 | 00:00:00 | 08:30:00 | |
| OE5DRO-10 | 2026-09-02 03:00:59 | 47.05064 | 16.06755 | 79° | 75km/h | 15454m | 4.8m/s | -55.0°C | 4.8% | 0hPa | 2.6V | 00:00:00 | 00:00:00 | 00:00:00 | |
| OE5DXL-15 | 2026-09-02 03:00:58 | 47.05060 | 16.06727 | 82° | 75km/h | 15448m | 6.7m/s | -55.1°C | 4.8% | 0hPa | 2.6V | 00:00:00 | 00:00:00 | 00:00:00 | |
| PETON7-10 | 2026-09-02 03:00:53 | 47.05045 | 16.06588 | 81° | 75km/h | 15423m | 6.1m/s | -55.1°C | 4.8% | 0hPa | 2.7V | 00:00:00 | 01:14:23 | 00:00:00 | |
| PG1ADW-2 | 2026-09-02 03:00:41 | 47.05015 | 16.06257 | 87° | 75km/h | 15358m | 6.6m/s | -55.3°C | 4.9% | 0hPa | 2.7V | 00:00:00 | 00:00:00 | 00:00:00 | |
| OE5DRO-10 | 2026-09-02 03:00:40 | 47.05014 | 16.06229 | 87° | 75km/h | 15352m | 4.0m/s | -55.3°C | 4.9% | 0hPa | 2.7V | 00:00:00 | 00:00:00 | 00:00:00 | |
| PETON7-10 | 2026-09-02 03:00:38 | 47.05011 | 16.06173 | 85° | 75km/h | 15341m | 5.0m/s | -55.4°C | 4.9% | 0hPa | 2.7V | 00:00:00 | 00:00:00 | 00:00:00 | |
| OE3JTB-15 | 2026-09-02 03:00:29 | 47.04979 | 16.05928 | 78° | 73km/h | 15293m | 5.8m/s | -55.3°C | 5.0% | 0hPa | 2.7V | 00:00:00 | 00:00:00 | 00:00:00 | |
| OE5DXL-15 | 2026-09-02 03:00:28 | 47.04974 | 16.05900 | 78° | 73km/h | 15288m | 4.3m/s | -55.3°C | 4.9% | 0hPa | 2.7V | 00:00:00 | 00:00:00 | 00:00:00 | |
| PETON7-10 | 2026-09-02 03:00:23 | 47.04953 | 16.05768 | 76° | 73km/h | 15262m | 4.2m/s | -55.2°C | 5.0% | 0hPa | 2.7V | 00:00:00 | 00:00:00 | 00:00:00 | |
| OE8JPQ-2 | 2026-09-02 03:00:21 | 47.04943 | 16.05716 | 74° | 73km/h | 15251m | 3.5m/s | -55.2°C | 5.0% | 0hPa | 2.7V | 00:00:00 | 00:00:00 | 00:00:00 | |
| PETON7-10 | 2026-09-02 03:00:08 | 47.04889 | 16.05375 | 83° | 71km/h | 15179m | 6.3m/s | -55.8°C | 5.2% | 0hPa | 2.7V | 00:00:00 | 01:13:38 | 00:00:00 | |
| OE5DRO-10 | 2026-09-02 03:00:02 | 47.04881 | 16.05215 | 86° | 75km/h | 15144m | 4.6m/s | -55.7°C | 5.2% | 0hPa | 2.7V | 00:00:00 | 00:00:00 | 00:00:00 | |
| PG1ADW-2 | 2026-09-02 03:00:01 | 47.04879 | 16.05188 | 85° | 75km/h | 15139m | 6.2m/s | -55.7°C | 5.2% | 0hPa | 2.7V | 00:00:00 | 01:13:31 | 00:00:00 | |
| OE3JTB-15 | 2026-09-02 03:00:00 | 47.04877 | 16.05161 | 85° | 77km/h | 15133m | 4.8m/s | -55.7°C | 5.2% | 0hPa | 2.7V | 00:00:00 | 01:13:30 | 00:00:00 | |
| OE5DXL-15 | 2026-09-02 02:59:58 | 47.04874 | 16.05107 | 88° | 78km/h | 15123m | 5.1m/s | -55.6°C | 5.1% | 0hPa | 2.7V | 00:00:00 | 00:00:00 | 00:00:00 | |
| PETON7-10 | 2026-09-02 02:59:53 | 47.04871 | 16.04975 | 89° | 77km/h | 15096m | 5.4m/s | -55.6°C | 5.1% | 0hPa | 2.7V | 00:00:00 | 00:00:00 | 00:00:00 | |
| OE5DRO-10 | 2026-09-02 02:59:43 | 47.04869 | 16.04693 | 92° | 84km/h | 15044m | 4.4m/s | -56.0°C | 5.3% | 0hPa | 2.7V | 00:00:00 | 00:00:00 | 00:00:00 | |
| OE8JPQ-2 | 2026-09-02 02:59:41 | 47.04870 | 16.04634 | 90° | 84km/h | 15033m | 4.2m/s | -56.0°C | 5.3% | 0hPa | 2.7V | 00:00:00 | 01:13:11 | 00:00:00 | |
| PETON7-10 | 2026-09-02 02:59:38 | 47.04868 | 16.04547 | 88° | 86km/h | 15018m | 5.5m/s | -56.0°C | 5.3% | 0hPa | 2.7V | 00:00:00 | 00:00:00 | 00:00:00 | |
| OE3JTB-15 | 2026-09-02 02:59:31 | 47.04861 | 16.04330 | 89° | 84km/h | 14982m | 4.9m/s | -56.1°C | 5.4% | 0hPa | 2.7V | 00:00:00 | 00:00:00 | 00:00:00 | |
| OE5DXL-15 | 2026-09-02 02:59:28 | 47.04859 | 16.04234 | 89° | 84km/h | 14966m | 5.5m/s | -56.1°C | 5.4% | 0hPa | 2.7V | 00:00:00 | 00:00:00 | 00:00:00 | |
| OE5DRO-10 | 2026-09-02 02:59:24 | 47.04856 | 16.04107 | 88° | 84km/h | 14946m | 4.4m/s | -56.3°C | 5.5% | 0hPa | 2.7V | 00:00:00 | 00:00:00 | 00:00:00 | |
| PETON7-10 | 2026-09-02 02:59:23 | 47.04855 | 16.04076 | 88° | 84km/h | 14941m | 5.6m/s | -56.3°C | 5.5% | 0hPa | 2.7V | 00:00:00 | 01:12:53 | 00:00:00 | |
| PG1ADW-2 | 2026-09-02 02:59:21 | 47.04853 | 16.04013 | 87° | 84km/h | 14930m | 4.7m/s | -56.2°C | 5.5% | 0hPa | 2.7V | 00:00:00 | 00:00:00 | 00:00:00 | |
| PETON7-10 | 2026-09-02 02:59:08 | 47.04845 | 16.03610 | 89° | 84km/h | 14859m | 6.5m/s | -55.9°C | 5.2% | 0hPa | 2.7V | 00:00:00 | 00:00:00 | 08:30:00 | |
| OE5DRO-10 | 2026-09-02 02:59:05 | 47.04845 | 16.03518 | 93° | 86km/h | 14842m | 4.9m/s | -56.0°C | 5.3% | 0hPa | 2.7V | 00:00:00 | 00:00:00 | 00:00:00 | |
| PG1ADW-2 | 2026-09-02 02:59:01 | 47.04849 | 16.03396 | 92° | 84km/h | 14822m | 5.8m/s | -56.1°C | 5.3% | 0hPa | 2.7V | 00:00:00 | 00:00:00 | 00:00:00 | |
| OE5DXL-15 | 2026-09-02 02:58:58 | 47.04851 | 16.03304 | 94° | 86km/h | 14806m | 4.5m/s | -56.1°C | 5.4% | 0hPa | 2.7V | 00:00:00 | 00:00:00 | 00:00:00 | |
| PETON7-10 | 2026-09-02 02:58:53 | 47.04862 | 16.03146 | 98° | 84km/h | 14779m | 5.4m/s | -56.0°C | 5.4% | 0hPa | 2.7V | 00:00:00 | 00:00:00 | 00:00:00 | |
| PG1ADW-2 | 2026-09-02 02:58:41 | 47.04879 | 16.02772 | 96° | 84km/h | 14715m | 5.7m/s | -56.3°C | 5.5% | 0hPa | 2.7V | 00:00:00 | 01:12:11 | 00:00:00 | |
| PETON7-10 | 2026-09-02 02:58:38 | 47.04883 | 16.02681 | 93° | 86km/h | 14699m | 4.1m/s | -56.5°C | 5.6% | 0hPa | 2.7V | 00:00:00 | 01:12:08 | 00:00:00 | |
| OE5DXL-15 | 2026-09-02 02:58:28 | 47.04886 | 16.02358 | 87° | 77km/h | 14647m | 3.5m/s | -56.9°C | 5.8% | 0hPa | 2.7V | 00:00:00 | 00:00:00 | 00:00:00 | |
| OE5DRO-10 | 2026-09-02 02:58:27 | 47.04885 | 16.02325 | 88° | 78km/h | 14643m | 5.2m/s | -56.9°C | 5.8% | 0hPa | 2.7V | 00:00:00 | 00:00:00 | 00:00:00 | |
| PETON7-10 | 2026-09-02 02:58:23 | 47.04880 | 16.02206 | 85° | 78km/h | 14620m | 4.9m/s | -56.7°C | 5.7% | 0hPa | 2.7V | 00:00:00 | 00:00:00 | 00:00:00 | |
| PG1ADW-2 | 2026-09-02 02:58:21 | 47.04877 | 16.02149 | 86° | 77km/h | 14608m | 4.3m/s | -56.6°C | 5.7% | 0hPa | 2.7V | 00:00:00 | 00:00:00 | 00:00:00 | |
| PETON7-10 | 2026-09-02 02:58:08 | 47.04855 | 16.01777 | 85° | 71km/h | 14537m | 6.5m/s | -56.3°C | 5.7% | 0hPa | 2.7V | 00:00:00 | 00:00:00 | 00:00:00 | |
| OE3JTB-15 | 2026-09-02 02:58:04 | 47.04846 | 16.01671 | 81° | 69km/h | 14516m | 6.2m/s | -56.2°C | 5.7% | 0hPa | 2.7V | 00:00:00 | 00:00:00 | 08:30:00 | |
| PG1ADW-2 | 2026-09-02 02:58:01 | 47.04837 | 16.01593 | 84° | 69km/h | 14500m | 4.9m/s | -56.2°C | 5.6% | 0hPa | 2.7V | 00:00:00 | 00:00:00 | 08:30:00 | |
| OE5DXL-15 | 2026-09-02 02:57:58 | 47.04831 | 16.01511 | 84° | 68km/h | 14485m | 4.6m/s | -56.1°C | 5.5% | 0hPa | 2.7V | 00:00:00 | 01:11:28 | 08:30:00 | |
| PETON7-10 | 2026-09-02 02:57:53 | 47.04818 | 16.01382 | 77° | 68km/h | 14458m | 4.5m/s | -55.9°C | 5.5% | 0hPa | 2.7V | 00:00:00 | 01:11:23 | 00:00:00 | |
| OE5DRO-10 | 2026-09-02 02:57:49 | 47.04802 | 16.01285 | 76° | 68km/h | 14435m | 4.2m/s | -55.7°C | 5.5% | 0hPa | 2.7V | 00:00:00 | 00:00:00 | 00:00:00 | |
| PG1ADW-2 | 2026-09-02 02:57:41 | 47.04767 | 16.01087 | 77° | 64km/h | 14391m | 4.6m/s | -55.5°C | 5.5% | 0hPa | 2.7V | 00:00:00 | 00:00:00 | 00:00:00 | |
| PETON7-10 | 2026-09-02 02:57:38 | 47.04756 | 16.01016 | 78° | 64km/h | 14375m | 6.6m/s | -55.4°C | 5.4% | 0hPa | 2.7V | 00:00:00 | 00:00:00 | 00:00:00 | |
| OE3JTB-15 | 2026-09-02 02:57:34 | 47.04743 | 16.00921 | 76° | 64km/h | 14353m | 6.6m/s | -55.4°C | 5.3% | 0hPa | 2.7V | 00:00:00 | 00:00:00 | 00:00:00 | |
| OE5DRO-10 | 2026-09-02 02:57:30 | 47.04727 | 16.00827 | 75° | 62km/h | 14330m | 5.9m/s | -55.3°C | 5.3% | 0hPa | 2.7V | 00:00:00 | 00:00:00 | 08:30:00 | |
| OE5DXL-15 | 2026-09-02 02:57:28 | 47.04718 | 16.00780 | 77° | 60km/h | 14319m | 6.0m/s | -55.4°C | 5.4% | 0hPa | 2.7V | 00:00:00 | 00:00:00 | 00:00:00 | |
| PETON7-10 | 2026-09-02 02:57:23 | 47.04702 | 16.00670 | 82° | 60km/h | 14291m | 4.7m/s | -55.4°C | 5.4% | 0hPa | 2.7V | 00:00:00 | 00:00:00 | 00:00:00 | |
| PG1ADW-2 | 2026-09-02 02:57:21 | 47.04697 | 16.00627 | 80° | 58km/h | 14279m | 3.9m/s | -55.3°C | 5.5% | 0hPa | 2.7V | 00:00:00 | 01:10:51 | 00:00:00 | |
| OE5DRO-10 | 2026-09-02 02:57:11 | 47.04683 | 16.00403 | 89° | 62km/h | 14225m | 5.2m/s | -55.0°C | 5.3% | 0hPa | 2.7V | 00:00:00 | 00:00:00 | 00:00:00 | |
| PETON7-10 | 2026-09-02 02:57:08 | 47.04681 | 16.00339 | 89° | 62km/h | 14208m | 6.5m/s | -54.9°C | 5.3% | 0hPa | 2.7V | 00:00:00 | 01:10:38 | 00:00:00 | |
| PG1ADW-2 | 2026-09-02 02:57:01 | 47.04680 | 16.00188 | 88° | 64km/h | 14170m | 3.5m/s | -54.7°C | 5.3% | 0hPa | 2.7V | 00:00:00 | 00:00:00 | 00:00:00 | |
| OE5DXL-15 | 2026-09-02 02:56:58 | 47.04681 | 16.00114 | 95° | 66km/h | 14155m | 6.2m/s | -54.7°C | 5.2% | 0hPa | 2.7V | 00:00:00 | 00:00:00 | 00:00:00 | |
| PETON7-10 | 2026-09-02 02:56:53 | 47.04688 | 15.99996 | 96° | 64km/h | 14127m | 6.6m/s | -54.6°C | 5.2% | 0hPa | 2.7V | 00:00:00 | 00:00:00 | 08:30:00 | |
| OE5DRO-10 | 2026-09-02 02:56:52 | 47.04690 | 15.99973 | 96° | 66km/h | 14122m | 4.0m/s | -54.6°C | 5.2% | 0hPa | 2.7V | 00:00:00 | 00:00:00 | 00:00:00 | |
| OE3JTB-15 | 2026-09-02 02:56:51 | 47.04691 | 15.99949 | 95° | 68km/h | 14117m | 6.1m/s | -54.5°C | 5.2% | 0hPa | 2.7V | 00:00:00 | 01:10:21 | 00:00:00 | |
| OE8JPQ-2 | 2026-09-02 02:56:41 | 47.04704 | 15.99714 | 91° | 69km/h | 14063m | 6.5m/s | -54.3°C | 5.3% | 0hPa | 2.7V | 00:00:00 | 01:10:11 | 00:00:00 | |
| PETON7-10 | 2026-09-02 02:56:38 | 47.04704 | 15.99638 | 89° | 69km/h | 14047m | 4.8m/s | -54.2°C | 5.2% | 0hPa | 2.7V | 00:00:00 | 00:00:00 | 00:00:00 | |
| OE5DRO-10 | 2026-09-02 02:56:33 | 47.04705 | 15.99508 | 91° | 69km/h | 14017m | 6.1m/s | -54.0°C | 5.1% | 0hPa | 2.7V | 00:00:00 | 00:00:00 | 00:00:00 | |
| OE5DXL-15 | 2026-09-02 02:56:28 | 47.04709 | 15.99388 | 97° | 80km/h | 13984m | 8.1m/s | -53.7°C | 5.0% | 0hPa | 2.7V | 00:00:00 | 00:00:00 | 00:00:00 | |
| PETON7-10 | 2026-09-02 02:56:23 | 47.04706 | 15.99258 | 91° | 78km/h | 13943m | 6.9m/s | -53.5°C | 5.0% | 0hPa | 2.7V | 00:00:00 | 01:09:53 | 00:00:00 | |
| OE3JTB-15 | 2026-09-02 02:56:22 | 47.04706 | 15.99232 | 92° | 84km/h | 13936m | 6.8m/s | -53.5°C | 5.0% | 0hPa | 2.7V | 00:00:00 | 00:00:00 | 00:00:00 | |
| OE8JPQ-2 | 2026-09-02 02:56:21 | 47.04706 | 15.99206 | 89° | 82km/h | 13929m | 7.8m/s | -53.4°C | 4.9% | 0hPa | 2.7V | 00:00:00 | 00:00:00 | 00:00:00 | |
| OE5DRO-10 | 2026-09-02 02:56:14 | 47.04699 | 15.99012 | 86° | 88km/h | 13883m | 5.3m/s | -53.1°C | 4.8% | 0hPa | 2.7V | 00:00:00 | 00:00:00 | 00:00:00 | |
| OE3OSB-13 | 2026-09-02 02:56:08 | 47.04703 | 15.98794 | 90° | 77km/h | 13833m | 5.0m/s | -52.8°C | 2.0% | -1.0hPa | 2.7V | 00:00:00 | 00:00:00 | 00:00:00 | |
| PG1ADW-2 | 2026-09-02 02:56:01 | 47.04703 | 15.98591 | 90° | 95km/h | 13795m | 6.2m/s | -52.5°C | 4.7% | 0hPa | 2.7V | 00:00:00 | 01:09:31 | 00:00:00 | |
| OE5DXL-15 | 2026-09-02 02:55:58 | 47.04703 | 15.98488 | 91° | 97km/h | 13775m | 6.7m/s | -52.4°C | 4.6% | 0hPa | 2.7V | 00:00:00 | 00:00:00 | 00:00:00 | |
| OE5DRO-10 | 2026-09-02 02:55:55 | 47.04706 | 15.98390 | 92° | 97km/h | 13748m | 6.3m/s | -52.2°C | 4.6% | 0hPa | 2.7V | 00:00:00 | 00:00:00 | 00:00:00 | |
| OE3JTB-15 | 2026-09-02 02:55:53 | 47.04705 | 15.98325 | 87° | 99km/h | 13733m | 4.8m/s | -52.2°C | 4.6% | 0hPa | 2.7V | 00:00:00 | 00:00:00 | 00:00:00 | |
| PG1ADW-2 | 2026-09-02 02:55:41 | 47.04701 | 15.97894 | 86° | 100km/h | 13660m | 3.8m/s | -52.1°C | 4.6% | 0hPa | 2.7V | 00:00:00 | 00:00:00 | 00:00:00 | |
| PETON7-10 | 2026-09-02 02:55:38 | 47.04692 | 15.97785 | 83° | 100km/h | 13642m | 6.8m/s | -52.2°C | 4.6% | 0hPa | 2.7V | 00:00:00 | 01:09:08 | 00:00:00 | |
| OE5DRO-10 | 2026-09-02 02:55:35 | 47.04682 | 15.97680 | 83° | 100km/h | 13625m | 5.0m/s | -52.2°C | 4.6% | 0hPa | 2.7V | 00:00:00 | 00:00:00 | 00:00:00 | |
| OE5DXL-15 | 2026-09-02 02:55:28 | 47.04664 | 15.97422 | 82° | 99km/h | 13587m | 5.5m/s | -52.2°C | 4.7% | 0hPa | 2.7V | 00:00:00 | 00:00:00 | 00:00:00 | |
| OE3JTB-15 | 2026-09-02 02:55:24 | 47.04643 | 15.97271 | 78° | 99km/h | 13566m | 6.6m/s | -52.0°C | 4.7% | 0hPa | 2.7V | 00:00:00 | 01:08:54 | 00:00:00 | |
| PETON7-10 | 2026-09-02 02:55:23 | 47.04638 | 15.97234 | 77° | 99km/h | 13561m | 4.8m/s | -52.0°C | 4.7% | 0hPa | 2.7V | 00:00:00 | 00:00:00 | 00:00:00 | |
| PG1ADW-2 | 2026-09-02 02:55:21 | 47.04627 | 15.97162 | 78° | 99km/h | 13550m | 4.1m/s | -51.9°C | 4.6% | 0hPa | 2.7V | 00:00:00 | 00:00:00 | 00:00:00 | |
| OE5DRO-10 | 2026-09-02 02:55:16 | 47.04603 | 15.96985 | 80° | 99km/h | 13523m | 5.4m/s | -52.1°C | 4.6% | 0hPa | 2.7V | 00:00:00 | 00:00:00 | 00:00:00 | |
| PETON7-10 | 2026-09-02 02:55:08 | 47.04563 | 15.96696 | 77° | 97km/h | 13477m | 5.4m/s | -51.8°C | 4.7% | 0hPa | 2.7V | 00:00:00 | 00:00:00 | 00:00:00 | |
| OE3OSB-13 | 2026-09-02 02:55:06 | 47.04546 | 15.96593 | 76° | 97km/h | 13462m | 5.7m/s | -51.9°C | 2.0% | -1.0hPa | 2.7V | 00:00:00 | 00:00:00 | 00:00:00 | |
| PG1ADW-2 | 2026-09-02 02:55:01 | 47.04523 | 15.96453 | 77° | 93km/h | 13442m | 5.8m/s | -51.8°C | 4.7% | 0hPa | 2.7V | 00:00:00 | 00:00:00 | 08:30:00 | |
| OE5DXL-15 | 2026-09-02 02:54:58 | 47.04506 | 15.96349 | 77° | 89km/h | 13426m | 4.9m/s | -51.8°C | 4.6% | 0hPa | 2.7V | 00:00:00 | 00:00:00 | 00:00:00 | |
| OE5DRO-10 | 2026-09-02 02:54:57 | 47.04501 | 15.96314 | 78° | 91km/h | 13421m | 5.6m/s | -51.8°C | 4.7% | 0hPa | 2.7V | 00:00:00 | 00:00:00 | 00:00:00 | |
| OE3JTB-15 | 2026-09-02 02:54:55 | 47.04491 | 15.96246 | 79° | 89km/h | 13410m | 4.7m/s | -51.8°C | 4.7% | 0hPa | 2.7V | 00:00:00 | 00:00:00 | 00:00:00 | |
| PETON7-10 | 2026-09-02 02:54:53 | 47.04481 | 15.96177 | 78° | 89km/h | 13401m | 4.5m/s | -51.8°C | 4.7% | 0hPa | 2.7V | 00:00:00 | 01:08:23 | 00:00:00 | |
| OE8JPQ-2 | 2026-09-02 02:54:41 | 47.04418 | 15.95787 | 77° | 88km/h | 13340m | 4.7m/s | -51.9°C | 4.9% | 0hPa | 2.7V | 00:00:00 | 01:08:11 | 00:00:00 | |
| PETON7-10 | 2026-09-02 02:54:38 | 47.04406 | 15.95692 | 81° | 86km/h | 13324m | 5.2m/s | -52.2°C | 5.1% | 0hPa | 2.7V | 00:00:00 | 00:00:00 | 08:30:00 | |
| OE5DXL-15 | 2026-09-02 02:54:28 | 47.04372 | 15.95374 | 82° | 88km/h | 13273m | 4.0m/s | -53.0°C | 5.7% | 0hPa | 2.7V | 00:00:00 | 00:00:00 | 00:00:00 | |
| OE3JTB-15 | 2026-09-02 02:54:26 | 47.04366 | 15.95312 | 83° | 89km/h | 13264m | 3.8m/s | -53.1°C | 5.7% | 0hPa | 2.7V | 00:00:00 | 00:00:00 | 00:00:00 | |
| PETON7-10 | 2026-09-02 02:54:23 | 47.04355 | 15.95217 | 82° | 88km/h | 13248m | 6.4m/s | -53.3°C | 6.0% | 0hPa | 2.7V | 00:00:00 | 00:00:00 | 00:00:00 | |
| PG1ADW-2 | 2026-09-02 02:54:21 | 47.04347 | 15.95152 | 78° | 88km/h | 13237m | 5.4m/s | -53.4°C | 6.0% | 0hPa | 2.7V | 00:00:00 | 00:00:00 | 00:00:00 | |
| OE5DRO-10 | 2026-09-02 02:54:19 | 47.04338 | 15.95090 | 79° | 89km/h | 13227m | 5.3m/s | -53.4°C | 6.1% | 0hPa | 2.7V | 00:00:00 | 00:00:00 | 00:00:00 | |
| OE3OSB-13 | 2026-09-02 02:54:03 | 47.04259 | 15.94579 | 78° | 89km/h | 13145m | 3.2m/s | -52.9°C | 3.2% | -1.0hPa | 2.7V | 00:00:00 | 00:00:00 | 00:00:00 | |
| PG1ADW-2 | 2026-09-02 02:54:01 | 47.04250 | 15.94512 | 77° | 95km/h | 13136m | 4.8m/s | -52.8°C | 6.2% | 0hPa | 2.7V | 00:00:00 | 00:00:00 | 00:00:00 | |
| OE5DRO-10 | 2026-09-02 02:54:00 | 47.04244 | 15.94480 | 77° | 95km/h | 13130m | 6.3m/s | -52.9°C | 6.2% | 0hPa | 2.7V | 00:00:00 | 00:00:00 | 00:00:00 | |
| OE5DXL-15 | 2026-09-02 02:53:58 | 47.04233 | 15.94414 | 76° | 97km/h | 13120m | 5.9m/s | -53.0°C | 6.3% | 0hPa | 2.7V | 00:00:00 | 00:00:00 | 00:00:00 | |
| OE3JTB-15 | 2026-09-02 02:53:56 | 47.04222 | 15.94347 | 77° | 97km/h | 13109m | 6.7m/s | -52.9°C | 6.4% | 0hPa | 2.7V | 00:00:00 | 01:07:26 | 00:00:00 | |
| PETON7-10 | 2026-09-02 02:53:53 | 47.04207 | 15.94247 | 79° | 97km/h | 13094m | 3.5m/s | -52.9°C | 6.5% | 0hPa | 2.7V | 00:00:00 | 00:00:00 | 00:00:00 | |
| PG1ADW-2 | 2026-09-02 02:53:41 | 47.04150 | 15.93831 | 79° | 100km/h | 13035m | 5.0m/s | -53.2°C | 7.0% | 0hPa | 2.7V | 00:00:00 | 00:00:00 | 00:00:00 | |
| PETON7-10 | 2026-09-02 02:53:38 | 47.04135 | 15.93724 | 78° | 100km/h | 13020m | 4.1m/s | -53.3°C | 7.2% | 0hPa | 2.7V | 00:00:00 | 00:00:00 | 00:00:00 | |
| OE5DXL-15 | 2026-09-02 02:53:28 | 47.04086 | 15.93364 | 81° | 100km/h | 12969m | 4.6m/s | -53.1°C | 7.8% | 0hPa | 2.7V | 00:00:00 | 00:00:00 | 08:30:00 | |
| OE3JTB-15 | 2026-09-02 02:53:27 | 47.04082 | 15.93326 | 83° | 100km/h | 12964m | 4.5m/s | -53.1°C | 7.8% | 0hPa | 2.7V | 00:00:00 | 00:00:00 | 08:30:00 | |
| PETON7-10 | 2026-09-02 02:53:23 | 47.04068 | 15.93177 | 83° | 97km/h | 12943m | 5.1m/s | -53.3°C | 8.1% | 0hPa | 2.7V | 00:00:00 | 01:06:53 | 00:00:00 | |
| OE5DRO-10 | 2026-09-02 02:53:22 | 47.04065 | 15.93142 | 83° | 99km/h | 12937m | 6.8m/s | -53.4°C | 8.2% | 0hPa | 2.7V | 00:00:00 | 00:00:00 | 00:00:00 | |
| PG1ADW-2 | 2026-09-02 02:53:21 | 47.04062 | 15.93108 | 83° | 100km/h | 12931m | 4.1m/s | -53.5°C | 8.3% | 0hPa | 2.7V | 00:00:00 | 01:06:51 | 00:00:00 | |
| PETON7-10 | 2026-09-02 02:53:08 | 47.04034 | 15.92638 | 83° | 106km/h | 12866m | 3.8m/s | -54.5°C | 10.2% | 0hPa | 2.7V | 00:00:00 | 00:00:00 | 00:00:00 | |
| OE5DRO-10 | 2026-09-02 02:53:03 | 47.04020 | 15.92444 | 88° | 110km/h | 12841m | 4.4m/s | -54.7°C | 11.0% | 0hPa | 2.7V | 00:00:00 | 00:00:00 | 00:00:00 | |
| PG1ADW-2 | 2026-09-02 02:53:01 | 47.04018 | 15.92368 | 89° | 110km/h | 12831m | 4.2m/s | -54.8°C | 11.4% | 0hPa | 2.7V | 00:00:00 | 00:00:00 | 00:00:00 | |
| OE3JTB-15 | 2026-09-02 02:52:58 | 47.04017 | 15.92251 | 90° | 110km/h | 12816m | 6.3m/s | -55.0°C | 12.0% | 0hPa | 2.7V | 00:00:00 | 00:00:00 | 00:00:00 | |
| PETON7-10 | 2026-09-02 02:52:53 | 47.04016 | 15.92051 | 91° | 111km/h | 12792m | 3.9m/s | -55.4°C | 12.8% | 0hPa | 2.7V | 00:00:00 | 00:00:00 | 00:00:00 | |
| PG1ADW-2 | 2026-09-02 02:52:41 | 47.03995 | 15.91562 | 85° | 110km/h | 12732m | 2.7m/s | -55.4°C | 14.7% | 0hPa | 2.7V | 00:00:00 | 00:00:00 | 00:00:00 | |
| PETON7-10 | 2026-09-02 02:52:38 | 47.03987 | 15.91439 | 85° | 110km/h | 12717m | 6.2m/s | -55.3°C | 15.0% | 0hPa | 2.7V | 00:00:00 | 01:06:08 | 00:00:00 | |
| OE3JTB-15 | 2026-09-02 02:52:29 | 47.03967 | 15.91071 | 88° | 113km/h | 12671m | 4.7m/s | -55.1°C | 16.4% | 0hPa | 2.7V | 00:00:00 | 01:05:59 | 00:00:00 | |
| OE5DXL-15 | 2026-09-02 02:52:28 | 47.03966 | 15.91031 | 89° | 115km/h | 12666m | 4.5m/s | -55.1°C | 16.5% | 0hPa | 2.7V | 00:00:00 | 00:00:00 | 00:00:00 | |
| PETON7-10 | 2026-09-02 02:52:23 | 47.03962 | 15.90834 | 88° | 111km/h | 12642m | 4.4m/s | -55.0°C | 17.7% | 0hPa | 2.7V | 00:00:00 | 00:00:00 | 08:30:00 | |
| OE5DRO-10 | 2026-09-02 02:52:22 | 47.03961 | 15.90794 | 89° | 113km/h | 12637m | 4.9m/s | -54.9°C | 18.0% | 0hPa | 2.7V | 00:00:00 | 00:00:00 | 00:00:00 | |
| PG1ADW-2 | 2026-09-02 02:52:21 | 47.03960 | 15.90753 | 88° | 115km/h | 12632m | 4.4m/s | -54.9°C | 18.3% | 0hPa | 2.7V | 00:00:00 | 00:00:00 | 00:00:00 | |
| PETON7-10 | 2026-09-02 02:52:08 | 47.03942 | 15.90214 | 89° | 122km/h | 12571m | 4.6m/s | -56.3°C | 24.5% | 0hPa | 2.7V | 00:00:00 | 00:00:00 | 00:00:00 | |
| OE5DRO-10 | 2026-09-02 02:52:03 | 47.03934 | 15.89994 | 85° | 119km/h | 12546m | 5.7m/s | -56.9°C | 27.2% | 0hPa | 2.7V | 00:00:00 | 00:00:00 | 00:00:00 | |
| PG1ADW-2 | 2026-09-02 02:52:01 | 47.03928 | 15.89901 | 85° | 119km/h | 12536m | 4.0m/s | -57.3°C | 28.7% | 0hPa | 2.7V | 00:00:00 | 01:05:31 | 08:30:00 | |
| OE5DXL-15 | 2026-09-02 02:51:58 | 47.03921 | 15.89762 | 87° | 117km/h | 12521m | 5.9m/s | -57.9°C | 30.7% | 0hPa | 2.7V | 00:00:00 | 00:00:00 | 00:00:00 | |
| OE5DRO-10 | 2026-09-02 02:51:44 | 47.03875 | 15.89162 | 82° | 115km/h | 12454m | 4.4m/s | -58.8°C | 40.0% | 0hPa | 2.7V | 00:00:00 | 00:00:00 | 08:30:00 | |
| PG1ADW-2 | 2026-09-02 02:51:41 | 47.03864 | 15.89037 | 83° | 117km/h | 12441m | 5.0m/s | -58.9°C | 41.6% | 0hPa | 2.7V | 00:00:00 | 00:00:00 | 00:00:00 | |
| PETON7-10 | 2026-09-02 02:51:38 | 47.03853 | 15.88912 | 83° | 117km/h | 12427m | 4.8m/s | -59.1°C | 43.3% | 0hPa | 2.7V | 00:00:00 | 00:00:00 | 00:00:00 | |
| OE3JTB-15 | 2026-09-02 02:51:34 | 47.03837 | 15.88743 | 82° | 120km/h | 12407m | 5.4m/s | -59.2°C | 44.6% | 0hPa | 2.7V | 00:00:00 | 00:00:00 | 00:00:00 | |
| OE5DXL-15 | 2026-09-02 02:51:28 | 47.03819 | 15.88485 | 88° | 124km/h | 12379m | 5.7m/s | -59.2°C | 48.0% | 0hPa | 2.7V | 00:00:00 | 00:00:00 | 00:00:00 | |
| OE5DRO-10 | 2026-09-02 02:51:25 | 47.03816 | 15.88352 | 89° | 122km/h | 12363m | 5.4m/s | -59.3°C | 49.8% | 0hPa | 2.7V | 00:00:00 | 00:00:00 | 00:00:00 | |
| PETON7-10 | 2026-09-02 02:51:23 | 47.03814 | 15.88264 | 88° | 122km/h | 12354m | 4.5m/s | -59.3°C | 51.2% | 0hPa | 2.7V | 00:00:00 | 00:00:00 | 00:00:00 | |
| PG1ADW-2 | 2026-09-02 02:51:21 | 47.03811 | 15.88175 | 88° | 124km/h | 12345m | 4.6m/s | -59.4°C | 52.2% | 0hPa | 2.7V | 00:00:00 | 00:00:00 | 00:00:00 | |
| PETON7-10 | 2026-09-02 02:51:08 | 47.03790 | 15.87588 | 89° | 131km/h | 12280m | 4.9m/s | -60.4°C | 68.7% | 0hPa | 2.7V | 00:00:00 | 01:04:38 | 00:00:00 | |
| OE5DRO-10 | 2026-09-02 02:51:06 | 47.03788 | 15.87494 | 87° | 135km/h | 12271m | 4.4m/s | -60.7°C | 70.4% | 0hPa | 2.7V | 00:00:00 | 00:00:00 | 00:00:00 | |
| OE3JTB-15 | 2026-09-02 02:51:05 | 47.03785 | 15.87447 | 87° | 135km/h | 12267m | 4.4m/s | -60.7°C | 70.2% | 0hPa | 2.7V | 00:00:00 | 00:00:00 | 00:00:00 | |
| PG1ADW-2 | 2026-09-02 02:51:01 | 47.03777 | 15.87260 | 87° | 139km/h | 12249m | 3.9m/s | -60.7°C | 72.2% | 0hPa | 2.7V | 00:00:00 | 00:00:00 | 00:00:00 | |
| OE8JPQ-2 | 2026-09-02 02:51:00 | 47.03775 | 15.87211 | 88° | 141km/h | 12244m | 5.1m/s | -60.7°C | 72.4% | 0hPa | 2.7V | 00:00:00 | 00:00:00 | 00:00:00 | |
| OE5DXL-15 | 2026-09-02 02:50:58 | 47.03771 | 15.87112 | 87° | 139km/h | 12235m | 6.6m/s | -60.7°C | 73.4% | 0hPa | 2.7V | 00:00:00 | 00:00:00 | 00:00:00 | |
| PETON7-10 | 2026-09-02 02:50:53 | 47.03762 | 15.86858 | 87° | 141km/h | 12210m | 3.4m/s | -60.5°C | 74.7% | 0hPa | 2.7V | 00:00:00 | 00:00:00 | 00:00:00 | |
| OE5DRO-10 | 2026-09-02 02:50:47 | 47.03750 | 15.86549 | 88° | 139km/h | 12180m | 4.0m/s | -60.4°C | 72.5% | 0hPa | 2.7V | 00:00:00 | 00:00:00 | 00:00:00 | |
| PG1ADW-2 | 2026-09-02 02:50:41 | 47.03737 | 15.86236 | 87° | 139km/h | 12151m | 4.3m/s | -60.3°C | 72.2% | 0hPa | 2.7V | 00:00:00 | 01:04:11 | 00:00:00 | |
| OE8JPQ-2 | 2026-09-02 02:50:39 | 47.03733 | 15.86131 | 87° | 137km/h | 12141m | 3.8m/s | -60.2°C | 72.9% | 0hPa | 2.7V | 00:00:00 | 01:04:09 | 00:00:00 | |
| PETON7-10 | 2026-09-02 02:50:38 | 47.03731 | 15.86079 | 86° | 137km/h | 12136m | 5.1m/s | -60.2°C | 72.9% | 0hPa | 2.7V | 00:00:00 | 00:00:00 | 00:00:00 | |
| OE5DXL-15 | 2026-09-02 02:50:28 | 47.03701 | 15.85574 | 85° | 137km/h | 12088m | 5.9m/s | -59.9°C | 74.0% | 0hPa | 2.7V | 00:00:00 | 00:00:00 | 00:00:00 | |
| PG1ADW-2 | 2026-09-02 02:50:21 | 47.03677 | 15.85219 | 85° | 137km/h | 12053m | 5.1m/s | -59.6°C | 73.5% | 0hPa | 2.7V | 00:00:00 | 00:00:00 | 00:00:00 | |
| OE8JPQ-2 | 2026-09-02 02:50:19 | 47.03670 | 15.85118 | 84° | 137km/h | 12043m | 5.1m/s | -59.5°C | 73.0% | 0hPa | 2.7V | 00:00:00 | 00:00:00 | 00:00:00 | |
| OE3JTB-15 | 2026-09-02 02:50:15 | 47.03652 | 15.84918 | 83° | 137km/h | 12022m | 6.2m/s | -59.4°C | 72.9% | 0hPa | 2.7V | 00:00:00 | 01:03:45 | 00:00:00 | |
| OE5DRO-10 | 2026-09-02 02:50:09 | 47.03625 | 15.84616 | 84° | 135km/h | 11991m | 6.4m/s | -59.1°C | 72.3% | 0hPa | 2.7V | 00:00:00 | 00:00:00 | 00:00:00 | |
| PETON7-10 | 2026-09-02 02:50:08 | 47.03621 | 15.84566 | 83° | 137km/h | 11985m | 3.3m/s | -59.1°C | 72.7% | 0hPa | 2.7V | 00:00:00 | 00:00:00 | 08:30:00 | |
| PG1ADW-2 | 2026-09-02 02:50:01 | 47.03583 | 15.84168 | 83° | 135km/h | 11943m | 4.4m/s | -58.8°C | 70.4% | 0hPa | 2.7V | 00:00:00 | 00:00:00 | 00:00:00 | |
| OE8JPQ-2 | 2026-09-02 02:49:59 | 47.03579 | 15.84117 | 83° | 135km/h | 11938m | 5.7m/s | -58.8°C | 70.8% | 0hPa | 2.7V | 00:00:00 | 00:00:00 | 00:00:00 | |
| OE5DXL-15 | 2026-09-02 02:49:58 | 47.03574 | 15.84067 | 83° | 135km/h | 11933m | 3.9m/s | -58.7°C | 70.9% | 0hPa | 2.7V | 00:00:00 | 00:00:00 | 00:00:00 | |
| PETON7-10 | 2026-09-02 02:49:53 | 47.03549 | 15.83818 | 81° | 135km/h | 11909m | 5.8m/s | -58.6°C | 71.5% | 0hPa | 2.7V | 00:00:00 | 00:00:00 | 00:00:00 | |
| OE5DRO-10 | 2026-09-02 02:49:50 | 47.03533 | 15.83672 | 81° | 133km/h | 11894m | 5.0m/s | -58.4°C | 72.1% | 0hPa | 2.7V | 00:00:00 | 00:00:00 | 00:00:00 | |
| OE3JTB-15 | 2026-09-02 02:49:43 | 47.03489 | 15.83328 | 79° | 131km/h | 11859m | 4.7m/s | -58.1°C | 73.5% | 0hPa | 2.7V | 00:00:00 | 00:00:00 | 00:00:00 | |
| PG1ADW-2 | 2026-09-02 02:49:41 | 47.03475 | 15.83230 | 79° | 133km/h | 11849m | 5.5m/s | -58.1°C | 73.7% | 0hPa | 2.7V | 00:00:00 | 00:00:00 | 00:00:00 | |
| OE8JPQ-2 | 2026-09-02 02:49:39 | 47.03460 | 15.83132 | 78° | 133km/h | 11839m | 6.1m/s | -58.0°C | 74.2% | 0hPa | 2.7V | 00:00:00 | 01:03:09 | 00:00:00 | |
| PETON7-10 | 2026-09-02 02:49:38 | 47.03453 | 15.83084 | 78° | 133km/h | 11834m | 3.7m/s | -57.9°C | 74.8% | 0hPa | 2.7V | 00:00:00 | 01:03:08 | 00:00:00 | |
| OE5DRO-10 | 2026-09-02 02:49:31 | 47.03406 | 15.82752 | 79° | 131km/h | 11800m | 4.5m/s | -57.7°C | 75.2% | 0hPa | 2.7V | 00:00:00 | 00:00:00 | 00:00:00 | |
| OE5DXL-15 | 2026-09-02 02:49:28 | 47.03385 | 15.82603 | 79° | 130km/h | 11786m | 5.6m/s | -57.6°C | 74.9% | 0hPa | 2.7V | 00:00:00 | 00:00:00 | 00:00:00 | |
| PETON7-10 | 2026-09-02 02:49:23 | 47.03352 | 15.82358 | 80° | 130km/h | 11760m | 6.2m/s | -57.6°C | 76.9% | 0hPa | 2.7V | 00:00:00 | 00:00:00 | 00:00:00 | |
| PG1ADW-2 | 2026-09-02 02:49:21 | 47.03340 | 15.82263 | 79° | 128km/h | 11751m | 5.4m/s | -57.5°C | 77.0% | 0hPa | 2.7V | 00:00:00 | 01:02:51 | 00:00:00 | |
| OE8JPQ-2 | 2026-09-02 02:49:19 | 47.03326 | 15.82170 | 77° | 128km/h | 11742m | 3.8m/s | -57.5°C | 77.0% | 0hPa | 2.7V | 00:00:00 | 00:00:00 | 08:30:00 | |
| OE5DRO-10 | 2026-09-02 02:49:12 | 47.03274 | 15.81846 | 78° | 128km/h | 11706m | 3.8m/s | -57.2°C | 78.2% | 0hPa | 2.7V | 00:00:00 | 00:00:00 | 00:00:00 | |
| PETON7-10 | 2026-09-02 02:49:08 | 47.03247 | 15.81657 | 78° | 128km/h | 11687m | 4.0m/s | -57.1°C | 78.2% | 0hPa | 2.7V | 00:00:00 | 00:00:00 | 00:00:00 | |
| PG1ADW-2 | 2026-09-02 02:49:01 | 47.03199 | 15.81338 | 78° | 130km/h | 11653m | 4.0m/s | -56.8°C | 79.8% | 0hPa | 2.7V | 00:00:00 | 00:00:00 | 08:30:00 | |
| OE8JPQ-2 | 2026-09-02 02:48:59 | 47.03185 | 15.81245 | 79° | 130km/h | 11643m | 3.8m/s | -56.8°C | 80.6% | 0hPa | 2.7V | 00:00:00 | 00:00:00 | 00:00:00 | |
| OE5DXL-15 | 2026-09-02 02:48:58 | 47.03178 | 15.81198 | 78° | 128km/h | 11639m | 4.7m/s | -56.7°C | 80.6% | 0hPa | 2.7V | 00:00:00 | 00:00:00 | 08:30:00 | |
| OE5DRO-10 | 2026-09-02 02:48:53 | 47.03144 | 15.80965 | 78° | 130km/h | 11614m | 3.6m/s | -56.5°C | 82.1% | 0hPa | 2.7V | 00:00:00 | 00:00:00 | 08:30:00 | |
| PG1ADW-2 | 2026-09-02 02:48:41 | 47.03068 | 15.80393 | 79° | 126km/h | 11558m | 5.6m/s | -56.1°C | 84.6% | 0hPa | 2.7V | 00:00:00 | 00:00:00 | 00:00:00 | |
| OE8JPQ-2 | 2026-09-02 02:48:39 | 47.03055 | 15.80302 | 78° | 126km/h | 11548m | 6.1m/s | -56.1°C | 85.3% | 0hPa | 2.7V | 00:00:00 | 01:02:09 | 00:00:00 | |
| PETON7-10 | 2026-09-02 02:48:38 | 47.03048 | 15.80257 | 79° | 126km/h | 11543m | 4.4m/s | -56.1°C | 86.8% | 0hPa | 2.7V | 00:00:00 | 00:00:00 | 00:00:00 | |
| OE5DRO-10 | 2026-09-02 02:48:34 | 47.03022 | 15.80074 | 80° | 124km/h | 11524m | 4.6m/s | -56.0°C | 87.8% | 0hPa | 2.7V | 00:00:00 | 00:00:00 | 00:00:00 | |
| OE5DXL-15 | 2026-09-02 02:48:28 | 47.02985 | 15.79800 | 78° | 124km/h | 11495m | 5.7m/s | -55.8°C | 89.2% | 0hPa | 2.7V | 00:00:00 | 00:00:00 | 00:00:00 | |
| PETON7-10 | 2026-09-02 02:48:23 | 47.02950 | 15.79573 | 78° | 124km/h | 11473m | 3.5m/s | -55.6°C | 90.3% | 0hPa | 2.7V | 00:00:00 | 00:00:00 | 00:00:00 | |
| PG1ADW-2 | 2026-09-02 02:48:21 | 47.02936 | 15.79483 | 78° | 124km/h | 11464m | 4.5m/s | -55.5°C | 89.5% | 0hPa | 2.7V | 00:00:00 | 00:00:00 | 00:00:00 | |
| OE8JPQ-2 | 2026-09-02 02:48:19 | 47.02923 | 15.79394 | 78° | 124km/h | 11455m | 5.5m/s | -55.4°C | 89.0% | 0hPa | 2.7V | 00:00:00 | 00:00:00 | 00:00:00 | |
| OE5DRO-10 | 2026-09-02 02:48:15 | 47.02898 | 15.79215 | 80° | 124km/h | 11436m | 4.4m/s | -55.3°C | 88.6% | 0hPa | 2.7V | 00:00:00 | 00:00:00 | 00:00:00 | |
| PETON7-10 | 2026-09-02 02:48:08 | 47.02852 | 15.78899 | 77° | 124km/h | 11402m | 5.4m/s | -54.9°C | 87.5% | 0hPa | 2.7V | 00:00:00 | 01:01:38 | 00:00:00 | |
| PG1ADW-2 | 2026-09-02 02:48:01 | 47.02807 | 15.78581 | 78° | 124km/h | 11368m | 4.1m/s | -54.6°C | 85.4% | 0hPa | 2.7V | 00:00:00 | 01:01:31 | 00:00:00 | |
| OE8JPQ-2 | 2026-09-02 02:47:59 | 47.02793 | 15.78492 | 78° | 124km/h | 11358m | 5.2m/s | -54.5°C | 85.0% | 0hPa | 2.7V | 00:00:00 | 00:00:00 | 00:00:00 | |
| OE5DXL-15 | 2026-09-02 02:47:58 | 47.02787 | 15.78448 | 78° | 122km/h | 11353m | 4.4m/s | -54.5°C | 85.3% | 0hPa | 2.7V | 00:00:00 | 00:00:00 | 00:00:00 | |
| OE5DRO-10 | 2026-09-02 02:47:56 | 47.02773 | 15.78360 | 77° | 124km/h | 11343m | 4.2m/s | -54.4°C | 84.8% | 0hPa | 2.7V | 00:00:00 | 00:00:00 | 00:00:00 | |
| PETON7-10 | 2026-09-02 02:47:53 | 47.02753 | 15.78225 | 78° | 124km/h | 11329m | 6.3m/s | -54.3°C | 84.1% | 0hPa | 2.7V | 00:00:00 | 00:00:00 | 08:30:00 | |
| OE3JTB-15 | 2026-09-02 02:47:50 | 47.02732 | 15.78089 | 78° | 122km/h | 11314m | 4.8m/s | -54.2°C | 84.3% | 0hPa | 2.7V | 00:00:00 | 00:00:00 | 08:30:00 | |
| PG1ADW-2 | 2026-09-02 02:47:41 | 47.02674 | 15.77687 | 79° | 122km/h | 11269m | 4.9m/s | -53.8°C | 83.8% | 0hPa | 2.7V | 00:00:00 | 00:00:00 | 00:00:00 | |
| OE8JPQ-2 | 2026-09-02 02:47:39 | 47.02663 | 15.77599 | 80° | 122km/h | 11259m | 5.0m/s | -53.7°C | 83.6% | 0hPa | 2.7V | 00:00:00 | 01:01:09 | 00:00:00 | |
| PETON7-10 | 2026-09-02 02:47:38 | 47.02657 | 15.77555 | 80° | 122km/h | 11254m | 5.7m/s | -53.7°C | 84.0% | 0hPa | 2.7V | 00:00:00 | 00:00:00 | 00:00:00 | |
| OE5DRO-10 | 2026-09-02 02:47:37 | 47.02651 | 15.77511 | 80° | 122km/h | 11248m | 5.5m/s | -53.6°C | 84.0% | 0hPa | 2.7V | 00:00:00 | 00:00:00 | 00:00:00 | |
| PETON7-10 | 2026-09-02 02:47:23 | 47.02570 | 15.76886 | 79° | 124km/h | 11181m | 5.6m/s | -53.1°C | 86.8% | 0hPa | 2.7V | 00:00:00 | 01:00:53 | 00:00:00 | |
| PG1ADW-2 | 2026-09-02 02:47:21 | 47.02558 | 15.76796 | 81° | 122km/h | 11171m | 5.9m/s | -53.1°C | 87.5% | 0hPa | 2.7V | 00:00:00 | 00:00:00 | 00:00:00 | |
| OE8JPQ-2 | 2026-09-02 02:47:19 | 47.02547 | 15.76705 | 79° | 122km/h | 11161m | 4.7m/s | -53.0°C | 88.0% | 0hPa | 2.7V | 00:00:00 | 00:00:00 | 00:00:00 | |
| OE5DRO-10 | 2026-09-02 02:47:18 | 47.02542 | 15.76660 | 80° | 122km/h | 11157m | 3.9m/s | -52.9°C | 88.3% | 0hPa | 2.7V | 00:00:00 | 00:00:00 | 00:00:00 | |
| PETON7-10 | 2026-09-02 02:47:08 | 47.02493 | 15.76212 | 81° | 120km/h | 11106m | 4.7m/s | -52.5°C | 88.9% | 0hPa | 2.7V | 00:00:00 | 00:00:00 | 00:00:00 | |
| PG1ADW-2 | 2026-09-02 02:47:01 | 47.02459 | 15.75899 | 83° | 120km/h | 11071m | 5.2m/s | -52.2°C | 87.5% | 0hPa | 2.7V | 00:00:00 | 00:00:00 | 00:00:00 | |
| OE8JPQ-2 | 2026-09-02 02:46:59 | 47.02451 | 15.75811 | 83° | 119km/h | 11060m | 5.7m/s | -52.2°C | 87.5% | 0hPa | 2.7V | 00:00:00 | 00:00:00 | 00:00:00 | |
| OE5DXL-15 | 2026-09-02 02:46:58 | 47.02447 | 15.75767 | 82° | 119km/h | 11055m | 4.1m/s | -52.1°C | 87.6% | 0hPa | 2.7V | 00:00:00 | 00:00:00 | 00:00:00 | |
| PETON7-10 | 2026-09-02 02:46:53 | 47.02423 | 15.75547 | 81° | 119km/h | 11031m | 5.5m/s | -51.9°C | 88.2% | 0hPa | 2.7V | 00:00:00 | 00:00:00 | 00:00:00 | |
| OE3JTB-15 | 2026-09-02 02:46:52 | 47.02418 | 15.75502 | 83° | 117km/h | 11026m | 3.5m/s | -51.9°C | 89.1% | 0hPa | 2.7V | 00:00:00 | 01:00:22 | 00:00:00 | |
| PG1ADW-2 | 2026-09-02 02:46:41 | 47.02375 | 15.75023 | 82° | 117km/h | 10973m | 4.1m/s | -51.4°C | 89.9% | 0hPa | 2.7V | 00:00:00 | 01:00:11 | 00:00:00 | |
| OE5DRO-10 | 2026-09-02 02:46:40 | 47.02371 | 15.74978 | 83° | 117km/h | 10969m | 4.4m/s | -51.4°C | 88.9% | 0hPa | 2.7V | 00:00:00 | 00:00:00 | 00:00:00 | |
| OE8JPQ-2 | 2026-09-02 02:46:39 | 47.02367 | 15.74934 | 83° | 115km/h | 10964m | 4.9m/s | -51.3°C | 88.1% | 0hPa | 2.7V | 00:00:00 | 01:00:09 | 00:00:00 | |
| PETON7-10 | 2026-09-02 02:46:38 | 47.02362 | 15.74890 | 83° | 117km/h | 10958m | 6.6m/s | -51.3°C | 87.7% | 0hPa | 2.7V | 00:00:00 | 01:00:08 | 00:00:00 | |
| OE5DXL-15 | 2026-09-02 02:46:28 | 47.02322 | 15.74466 | 83° | 113km/h | 10906m | 6.2m/s | -50.8°C | 86.9% | 0hPa | 2.7V | 00:00:00 | 00:00:00 | 00:00:00 | |
| PETON7-10 | 2026-09-02 02:46:23 | 47.02304 | 15.74253 | 83° | 113km/h | 10880m | 6.3m/s | -50.7°C | 85.9% | 0hPa | 2.7V | 00:00:00 | 00:00:00 | 00:00:00 | |
| PG1ADW-2 | 2026-09-02 02:46:21 | 47.02295 | 15.74169 | 83° | 113km/h | 10870m | 5.4m/s | -50.6°C | 85.9% | 0hPa | 2.7V | 00:00:00 | 00:00:00 | 00:00:00 | |
| OE8JPQ-2 | 2026-09-02 02:46:19 | 47.02287 | 15.74086 | 82° | 113km/h | 10860m | 6.3m/s | -50.5°C | 85.7% | 0hPa | 2.7V | 00:00:00 | 00:00:00 | 08:30:00 | |
| PETON7-10 | 2026-09-02 02:46:08 | 47.02245 | 15.73630 | 82° | 113km/h | 10806m | 4.6m/s | -50.0°C | 85.6% | 0hPa | 2.7V | 00:00:00 | 00:00:00 | 00:00:00 | |
| OE5DRO-10 | 2026-09-02 02:46:02 | 47.02219 | 15.73380 | 82° | 111km/h | 10776m | 6.2m/s | -49.8°C | 84.3% | 0hPa | 2.7V | 00:00:00 | 00:00:00 | 08:30:00 | |
| PG1ADW-2 | 2026-09-02 02:46:01 | 47.02216 | 15.73339 | 82° | 111km/h | 10770m | 3.9m/s | -49.8°C | 84.2% | 0hPa | 2.7V | 00:00:00 | 00:00:00 | 08:30:00 | |
| OE8JPQ-2 | 2026-09-02 02:45:59 | 47.02207 | 15.73256 | 82° | 110km/h | 10759m | 4.3m/s | -49.7°C | 83.7% | 0hPa | 2.9V | 00:00:00 | 00:00:00 | 00:00:00 | |
| OE5DXL-15 | 2026-09-02 02:45:58 | 47.02203 | 15.73215 | 83° | 110km/h | 10755m | 5.7m/s | -49.6°C | 83.5% | 0hPa | 2.9V | 00:00:00 | 00:00:00 | 00:00:00 | |
| OE3JTB-15 | 2026-09-02 02:45:54 | 47.02187 | 15.73052 | 83° | 110km/h | 10733m | 4.3m/s | -49.5°C | 83.1% | 0hPa | 2.7V | 00:00:00 | 00:00:00 | 00:00:00 | |
| PETON7-10 | 2026-09-02 02:45:53 | 47.02183 | 15.73012 | 83° | 110km/h | 10728m | 6.4m/s | -49.4°C | 82.6% | 0hPa | 2.7V | 00:00:00 | 00:59:23 | 00:00:00 | |
| OE5DRO-10 | 2026-09-02 02:45:43 | 47.02148 | 15.72608 | 84° | 108km/h | 10675m | 4.4m/s | -49.0°C | 80.6% | 0hPa | 2.7V | 00:00:00 | 00:00:00 | 00:00:00 | |
| PG1ADW-2 | 2026-09-02 02:45:41 | 47.02141 | 15.72528 | 83° | 108km/h | 10665m | 4.7m/s | -48.9°C | 80.6% | 0hPa | 2.7V | 00:00:00 | 00:00:00 | 00:00:00 | |
| OE8JPQ-2 | 2026-09-02 02:45:39 | 47.02134 | 15.72449 | 83° | 108km/h | 10655m | 4.3m/s | -48.8°C | 80.4% | 0hPa | 2.7V | 00:00:00 | 00:59:09 | 00:00:00 | |
| PETON7-10 | 2026-09-02 02:45:37 | 47.02127 | 15.72369 | 84° | 108km/h | 10645m | 4.9m/s | -48.8°C | 80.0% | 0hPa | 2.7V | 00:00:00 | 00:00:00 | 08:30:00 | |
| OE5DXL-15 | 2026-09-02 02:45:28 | 47.02101 | 15.72011 | 84° | 108km/h | 10599m | 4.2m/s | -48.4°C | 78.6% | 0hPa | 2.9V | 00:00:00 | 00:00:00 | 00:00:00 | |
| OE5DRO-10 | 2026-09-02 02:45:24 | 47.02089 | 15.71852 | 85° | 106km/h | 10578m | 6.2m/s | -48.2°C | 77.5% | 0hPa | 2.9V | 00:00:00 | 00:00:00 | 00:00:00 | |
| PETON7-10 | 2026-09-02 02:45:22 | 47.02084 | 15.71774 | 85° | 106km/h | 10568m | 6.3m/s | -48.1°C | 77.1% | 0hPa | 2.9V | 00:00:00 | 00:00:00 | 00:00:00 | |
| PG1ADW-2 | 2026-09-02 02:45:21 | 47.02081 | 15.71736 | 85° | 106km/h | 10563m | 4.1m/s | -48.1°C | 77.5% | 0hPa | 2.9V | 00:00:00 | 00:58:51 | 00:00:00 | |
| OE8JPQ-2 | 2026-09-02 02:45:19 | 47.02077 | 15.71657 | 87° | 108km/h | 10552m | 3.8m/s | -48.0°C | 77.9% | 0hPa | 2.9V | 00:00:00 | 00:00:00 | 00:00:00 | |
| PETON7-10 | 2026-09-02 02:45:07 | 47.02057 | 15.71185 | 87° | 106km/h | 10486m | 4.5m/s | -47.5°C | 77.7% | 0hPa | 2.9V | 00:00:00 | 00:58:37 | 00:00:00 | |
| OE5DRO-10 | 2026-09-02 02:45:05 | 47.02054 | 15.71106 | 88° | 104km/h | 10476m | 3.5m/s | -47.4°C | 78.5% | 0hPa | 2.9V | 00:00:00 | 00:00:00 | 00:00:00 | |
| PG1ADW-2 | 2026-09-02 02:45:01 | 47.02048 | 15.70949 | 87° | 104km/h | 10454m | 4.6m/s | -47.2°C | 77.6% | 0hPa | 2.9V | 00:00:00 | 00:00:00 | 00:00:00 | |
| OE8JPQ-2 | 2026-09-02 02:44:59 | 47.02044 | 15.70868 | 87° | 102km/h | 10443m | 3.8m/s | -47.2°C | 78.1% | 0hPa | 2.9V | 00:00:00 | 00:00:00 | 00:00:00 | |
| OE5DXL-15 | 2026-09-02 02:44:58 | 47.02043 | 15.70827 | 88° | 102km/h | 10438m | 5.9m/s | -47.1°C | 77.8% | 0hPa | 2.9V | 00:00:00 | 00:00:00 | 00:00:00 | |
| OE3JTB-15 | 2026-09-02 02:44:53 | 47.02038 | 15.70638 | 88° | 102km/h | 10410m | 5.6m/s | -46.9°C | 77.3% | 0hPa | 2.9V | 00:00:00 | 00:00:00 | 00:00:00 | |
| PETON7-10 | 2026-09-02 02:44:52 | 47.02037 | 15.70599 | 88° | 102km/h | 10405m | 5.2m/s | -46.9°C | 77.4% | 0hPa | 2.7V | 00:00:00 | 00:00:00 | 00:00:00 | |
| OE5DRO-10 | 2026-09-02 02:44:46 | 47.02034 | 15.70371 | 90° | 102km/h | 10372m | 4.7m/s | -46.6°C | 78.6% | 0hPa | 2.7V | 00:00:00 | 00:00:00 | 00:00:00 | |
| PG1ADW-2 | 2026-09-02 02:44:41 | 47.02032 | 15.70183 | 90° | 100km/h | 10345m | 4.9m/s | -46.4°C | 80.1% | 0hPa | 2.7V | 00:00:00 | 00:00:00 | 00:00:00 | |
| OE8JPQ-2 | 2026-09-02 02:44:39 | 47.02031 | 15.70108 | 89° | 100km/h | 10334m | 6.3m/s | -46.3°C | 80.9% | 0hPa | 2.7V | 00:00:00 | 00:58:09 | 00:00:00 | |
| PETON7-10 | 2026-09-02 02:44:36 | 47.02029 | 15.69995 | 88° | 100km/h | 10318m | 3.5m/s | -46.2°C | 83.4% | 0hPa | 2.7V | 00:00:00 | 00:00:00 | 00:00:00 | |
| OE5DXL-15 | 2026-09-02 02:44:28 | 47.02021 | 15.69697 | 90° | 95km/h | 10276m | 5.5m/s | -46.0°C | 87.1% | 0hPa | 2.7V | 00:00:00 | 00:00:00 | 08:30:00 | |
| OE5DRO-10 | 2026-09-02 02:44:27 | 47.02021 | 15.69658 | 90° | 97km/h | 10271m | 4.1m/s | -46.0°C | 87.6% | 0hPa | 2.9V | 00:00:00 | 00:00:00 | 00:00:00 | |
| OE3JTB-15 | 2026-09-02 02:44:24 | 47.02021 | 15.69545 | 90° | 89km/h | 10254m | 5.4m/s | -45.9°C | 88.4% | 0hPa | 2.9V | 00:00:00 | 00:00:00 | 00:00:00 | |
| PG1ADW-2 | 2026-09-02 02:44:21 | 47.02019 | 15.69436 | 88° | 93km/h | 10238m | 6.2m/s | -45.8°C | 88.5% | 0hPa | 2.9V | 00:00:00 | 00:00:00 | 00:00:00 | |
| OE8JPQ-2 | 2026-09-02 02:44:19 | 47.02017 | 15.69365 | 88° | 93km/h | 10227m | 6.6m/s | -45.7°C | 89.7% | 0hPa | 2.9V | 00:00:00 | 00:00:00 | 00:00:00 | |
| OE5DRO-10 | 2026-09-02 02:44:08 | 47.02010 | 15.68979 | 88° | 91km/h | 10163m | 8.1m/s | -45.2°C | 89.2% | 0hPa | 2.9V | 00:00:00 | 00:00:00 | 00:00:00 | |
| PETON7-10 | 2026-09-02 02:44:06 | 47.02008 | 15.68911 | 88° | 91km/h | 10147m | 8.5m/s | -45.1°C | 86.5% | 0hPa | 2.9V | 00:00:00 | 00:00:00 | 00:00:00 | |
| PG1ADW-2 | 2026-09-02 02:44:01 | 47.02002 | 15.68743 | 88° | 93km/h | 10111m | 4.5m/s | -44.8°C | 83.5% | 0hPa | 2.9V | 00:00:00 | 00:57:31 | 00:00:00 | |
| OE8JPQ-2 | 2026-09-02 02:43:59 | 47.02001 | 15.68677 | 90° | 93km/h | 10099m | 4.1m/s | -44.6°C | 81.4% | 0hPa | 2.7V | 00:00:00 | 00:00:00 | 00:00:00 | |
| OE5DXL-15 | 2026-09-02 02:43:58 | 47.02001 | 15.68643 | 91° | 91km/h | 10093m | 6.8m/s | -44.6°C | 80.4% | 0hPa | 2.7V | 00:00:00 | 00:00:00 | 00:00:00 | |
| PETON7-10 | 2026-09-02 02:43:51 | 47.01996 | 15.68404 | 91° | 93km/h | 10053m | 5.7m/s | -44.2°C | 81.6% | 0hPa | 2.7V | 00:00:00 | 00:00:00 | 00:00:00 | |
| OE5DRO-10 | 2026-09-02 02:43:49 | 47.01996 | 15.68335 | 90° | 89km/h | 10041m | 4.7m/s | -44.1°C | 80.6% | 0hPa | 2.7V | 00:00:00 | 00:00:00 | 00:00:00 | |
| PG1ADW-2 | 2026-09-02 02:43:41 | 47.01988 | 15.68057 | 88° | 88km/h | 9994m | 6.1m/s | -43.6°C | 76.0% | 0hPa | 2.7V | 00:00:00 | 00:00:00 | 00:00:00 | |
| OE8JPQ-2 | 2026-09-02 02:43:39 | 47.01988 | 15.67988 | 93° | 88km/h | 9981m | 6.6m/s | -43.5°C | 75.4% | 0hPa | 2.7V | 00:00:00 | 00:57:09 | 00:00:00 | |
| PETON7-10 | 2026-09-02 02:43:35 | 47.01988 | 15.67859 | 87° | 88km/h | 9959m | 5.3m/s | -43.4°C | 77.6% | 0hPa | 2.7V | 00:00:00 | 00:57:05 | 00:00:00 | |
| OE5DRO-10 | 2026-09-02 02:43:30 | 47.01978 | 15.67704 | 85° | 89km/h | 9931m | 6.4m/s | -43.1°C | 76.2% | 0hPa | 2.7V | 00:00:00 | 00:00:00 | 00:00:00 | |
| OE5DXL-15 | 2026-09-02 02:43:28 | 47.01975 | 15.67640 | 87° | 89km/h | 9920m | 6.8m/s | -43.0°C | 74.7% | 0hPa | 2.7V | 00:00:00 | 00:00:00 | 00:00:00 | |
| OE3JTB-15 | 2026-09-02 02:43:25 | 47.01970 | 15.67541 | 87° | 89km/h | 9898m | 6.0m/s | -42.8°C | 74.7% | 0hPa | 2.7V | 00:00:00 | 00:56:55 | 00:00:00 | |
| PG1ADW-2 | 2026-09-02 02:43:21 | 47.01964 | 15.67410 | 87° | 89km/h | 9874m | 6.6m/s | -42.7°C | 75.6% | 0hPa | 2.7V | 00:00:00 | 00:00:00 | 00:00:00 | |
| PETON7-10 | 2026-09-02 02:43:20 | 47.01963 | 15.67377 | 86° | 89km/h | 9869m | 3.8m/s | -42.6°C | 76.4% | 0hPa | 2.7V | 00:00:00 | 00:00:00 | 08:30:00 | |
| OE8JPQ-2 | 2026-09-02 02:43:19 | 47.01960 | 15.67345 | 84° | 89km/h | 9863m | 6.5m/s | -42.6°C | 76.1% | 0hPa | 2.9V | 00:00:00 | 00:00:00 | 08:30:00 | |
| OE5DRO-10 | 2026-09-02 02:43:11 | 47.01941 | 15.67080 | 86° | 89km/h | 9818m | 6.9m/s | -42.4°C | 75.6% | 0hPa | 2.9V | 00:00:00 | 00:00:00 | 08:30:00 | |
| PETON7-10 | 2026-09-02 02:43:05 | 47.01928 | 15.66881 | 82° | 89km/h | 9784m | 5.1m/s | -42.1°C | 74.7% | 0hPa | 2.7V | 00:00:00 | 00:00:00 | 00:00:00 | |
| PG1ADW-2 | 2026-09-02 02:43:01 | 47.01916 | 15.66748 | 82° | 89km/h | 9762m | 3.5m/s | -41.9°C | 73.4% | 0hPa | 2.7V | 00:00:00 | 00:00:00 | 08:30:00 | |
| OE8JPQ-2 | 2026-09-02 02:42:59 | 47.01910 | 15.66681 | 84° | 89km/h | 9751m | 4.1m/s | -41.8°C | 72.6% | 0hPa | 2.9V | 00:00:00 | 00:00:00 | 00:00:00 | |
| OE5DXL-15 | 2026-09-02 02:42:58 | 47.01907 | 15.66648 | 84° | 89km/h | 9745m | 6.4m/s | -41.8°C | 71.8% | 0hPa | 2.9V | 00:00:00 | 00:00:00 | 00:00:00 | |
| OE3JTB-15 | 2026-09-02 02:42:56 | 47.01902 | 15.66583 | 82° | 89km/h | 9734m | 6.1m/s | -41.7°C | 70.3% | 0hPa | 2.9V | 00:00:00 | 00:00:00 | 08:30:00 | |
| OE5DRO-10 | 2026-09-02 02:42:52 | 47.01889 | 15.66458 | 83° | 89km/h | 9712m | 5.8m/s | -41.6°C | 61.0% | 0hPa | 2.9V | 00:00:00 | 00:00:00 | 00:00:00 | |
| PETON7-10 | 2026-09-02 02:42:49 | 47.01879 | 15.66357 | 81° | 89km/h | 9692m | 5.7m/s | -41.5°C | 51.9% | 0hPa | 2.9V | 00:00:00 | 00:56:19 | 00:00:00 | |
| PG1ADW-2 | 2026-09-02 02:42:40 | 47.01849 | 15.66055 | 84° | 88km/h | 9634m | 7.5m/s | -41.0°C | 18.9% | 0hPa | 2.9V | 00:00:00 | 00:56:10 | 00:00:00 | |
| OE8JPQ-2 | 2026-09-02 02:42:39 | 47.01846 | 15.66024 | 81° | 88km/h | 9628m | 3.9m/s | -41.0°C | 14.3% | 0hPa | 2.9V | 00:00:00 | 00:56:09 | 00:00:00 | |
| PETON7-10 | 2026-09-02 02:42:34 | 47.01824 | 15.65865 | 80° | 88km/h | 9601m | 5.6m/s | -40.8°C | 11.0% | 0hPa | 2.9V | 00:00:00 | 00:00:00 | 00:00:00 | |
| OE5DRO-10 | 2026-09-02 02:42:33 | 47.01819 | 15.65832 | 79° | 88km/h | 9596m | 4.0m/s | -40.7°C | 11.0% | 0hPa | 2.9V | 00:00:00 | 00:00:00 | 00:00:00 | |
| OE5DXL-15 | 2026-09-02 02:42:28 | 47.01798 | 15.65667 | 78° | 88km/h | 9572m | 5.2m/s | -40.6°C | 11.0% | 0hPa | 2.9V | 00:00:00 | 00:00:00 | 00:00:00 | |
| OE3JTB-15 | 2026-09-02 02:42:27 | 47.01794 | 15.65636 | 79° | 88km/h | 9566m | 5.9m/s | -40.5°C | 11.0% | 0hPa | 2.9V | 00:00:00 | 00:00:00 | 00:00:00 | |
| PG1ADW-2 | 2026-09-02 02:42:20 | 47.01762 | 15.65418 | 81° | 88km/h | 9529m | 6.1m/s | -40.3°C | 11.0% | 0hPa | 2.9V | 00:00:00 | 00:00:00 | 00:00:00 | |
| PETON7-10 | 2026-09-02 02:42:19 | 47.01758 | 15.65386 | 80° | 88km/h | 9524m | 3.8m/s | -40.3°C | 11.0% | 0hPa | 2.9V | 00:00:00 | 00:00:00 | 00:00:00 | |
| OE5DRO-10 | 2026-09-02 02:42:14 | 47.01737 | 15.65226 | 79° | 88km/h | 9500m | 4.6m/s | -40.1°C | 11.1% | 0hPa | 2.9V | 00:00:00 | 00:00:00 | 00:00:00 | |
| PETON7-10 | 2026-09-02 02:42:04 | 47.01699 | 15.64906 | 82° | 88km/h | 9452m | 4.4m/s | -39.9°C | 11.3% | 0hPa | 2.9V | 00:00:00 | 00:55:34 | 00:00:00 | |
| PG1ADW-2 | 2026-09-02 02:42:00 | 47.01685 | 15.64778 | 81° | 86km/h | 9430m | 6.0m/s | -39.8°C | 11.6% | 0hPa | 2.9V | 00:00:00 | 00:00:00 | 00:00:00 | |
| OE8JPQ-2 | 2026-09-02 02:41:59 | 47.01681 | 15.64746 | 80° | 86km/h | 9424m | 3.7m/s | -39.8°C | 11.7% | 0hPa | 2.7V | 00:00:00 | 00:00:00 | 00:00:00 | |
| OE5DXL-15 | 2026-09-02 02:41:58 | 47.01678 | 15.64714 | 82° | 86km/h | 9419m | 6.5m/s | -39.8°C | 11.7% | 0hPa | 2.7V | 00:00:00 | 00:00:00 | 00:00:00 | |
| OE5DRO-10 | 2026-09-02 02:41:55 | 47.01667 | 15.64617 | 80° | 86km/h | 9402m | 4.3m/s | -39.7°C | 11.9% | 0hPa | 2.7V | 00:00:00 | 00:00:00 | 00:00:00 | |
| PETON7-10 | 2026-09-02 02:41:48 | 47.01645 | 15.64390 | 83° | 84km/h | 9367m | 6.2m/s | -39.5°C | 12.0% | 0hPa | 2.7V | 00:00:00 | 00:00:00 | 00:00:00 | |
| PG1ADW-2 | 2026-09-02 02:41:40 | 47.01625 | 15.64146 | 83° | 84km/h | 9326m | 3.9m/s | -39.2°C | 13.1% | 0hPa | 2.9V | 00:00:00 | 00:00:00 | 00:00:00 | |
| OE8JPQ-2 | 2026-09-02 02:41:39 | 47.01622 | 15.64115 | 82° | 84km/h | 9321m | 5.8m/s | -39.2°C | 13.2% | 0hPa | 2.9V | 00:00:00 | 00:55:09 | 00:00:00 | |
| OE5DRO-10 | 2026-09-02 02:41:36 | 47.01609 | 15.64023 | 78° | 84km/h | 9307m | 4.0m/s | -39.1°C | 14.6% | 0hPa | 2.9V | 00:00:00 | 00:00:00 | 00:00:00 | |
| PETON7-10 | 2026-09-02 02:41:33 | 47.01602 | 15.63929 | 91° | 84km/h | 9292m | 5.4m/s | -39.1°C | 15.2% | 0hPa | 2.9V | 00:00:00 | 00:00:00 | 00:00:00 | |
| OE3JTB-15 | 2026-09-02 02:41:29 | 47.01597 | 15.63796 | 76° | 69km/h | 9260m | 7.5m/s | -38.9°C | 16.0% | 0hPa | 2.9V | 00:00:00 | 00:00:00 | 00:00:00 | |
| OE5DXL-15 | 2026-09-02 02:41:28 | 47.01591 | 15.63767 | 71° | 73km/h | 9253m | 5.5m/s | -38.8°C | 16.0% | 0hPa | 2.9V | 00:00:00 | 00:00:00 | 00:00:00 | |
| PG1ADW-2 | 2026-09-02 02:41:20 | 47.01560 | 15.63536 | 92° | 69km/h | 9195m | 9.2m/s | -39.0°C | 17.4% | 0hPa | 2.7V | 00:00:00 | 00:54:50 | 00:00:00 | |
| OE8JPQ-2 | 2026-09-02 02:41:19 | 47.01560 | 15.63506 | 86° | 69km/h | 9187m | 6.5m/s | -39.0°C | 17.9% | 0hPa | 2.7V | 00:00:00 | 00:00:00 | 00:00:00 | |
| PETON7-10 | 2026-09-02 02:41:18 | 47.01557 | 15.63477 | 81° | 69km/h | 9181m | 5.2m/s | -39.0°C | 18.0% | 0hPa | 2.9V | 00:00:00 | 00:54:48 | 00:00:00 | |
| OE5DRO-10 | 2026-09-02 02:41:17 | 47.01554 | 15.63449 | 79° | 68km/h | 9175m | 7.4m/s | -38.9°C | 17.9% | 0hPa | 2.9V | 00:00:00 | 00:00:00 | 00:00:00 | |
| PETON7-10 | 2026-09-02 02:41:03 | 47.01489 | 15.63110 | 74° | 64km/h | 9085m | 5.4m/s | -38.3°C | 19.2% | 0hPa | 2.9V | 00:00:00 | 00:00:00 | 08:30:00 | |
| PG1ADW-2 | 2026-09-02 02:41:00 | 47.01475 | 15.63039 | 73° | 64km/h | 9071m | 4.8m/s | -38.2°C | 19.5% | 0hPa | 2.9V | 00:00:00 | 00:00:00 | 00:00:00 | |
| OE3JTB-15 | 2026-09-02 02:40:59 | 47.01471 | 15.63017 | 73° | 64km/h | 9065m | 5.3m/s | -38.1°C | 19.6% | 0hPa | 2.7V | 00:00:00 | 00:00:00 | 00:00:00 | |
| OE5DRO-10 | 2026-09-02 02:40:58 | 47.01466 | 15.62994 | 74° | 64km/h | 9060m | 4.5m/s | -38.1°C | 19.7% | 0hPa | 2.7V | 00:00:00 | 00:00:00 | 00:00:00 | |
| PETON7-10 | 2026-09-02 02:40:48 | 47.01424 | 15.62766 | 75° | 62km/h | 9011m | 4.0m/s | -37.7°C | 20.6% | 0hPa | 2.7V | 00:00:00 | 00:00:00 | 00:00:00 | |
| PG1ADW-2 | 2026-09-02 02:40:40 | 47.01384 | 15.62588 | 70° | 58km/h | 8968m | 3.8m/s | -37.3°C | 19.8% | 0hPa | 2.7V | 00:00:00 | 00:00:00 | 00:00:00 | |
| OE8JPQ-2 | 2026-09-02 02:40:39 | 47.01379 | 15.62566 | 70° | 58km/h | 8963m | 6.2m/s | -37.3°C | 19.7% | 0hPa | 2.7V | 00:00:00 | 00:54:09 | 00:00:00 | |
| PETON7-10 | 2026-09-02 02:40:33 | 47.01346 | 15.62439 | 69° | 58km/h | 8933m | 4.9m/s | -37.0°C | 19.6% | 0hPa | 2.7V | 00:00:00 | 00:54:03 | 00:00:00 | |
| OE5DXL-15 | 2026-09-02 02:40:28 | 47.01319 | 15.62336 | 68° | 60km/h | 8907m | 5.6m/s | -36.8°C | 19.7% | 0hPa | 2.7V | 00:00:00 | 00:00:00 | 00:00:00 | |
| OE5DRO-10 | 2026-09-02 02:40:20 | 47.01277 | 15.62181 | 68° | 62km/h | 8868m | 6.2m/s | -36.5°C | 19.0% | 0hPa | 2.7V | 00:00:00 | 00:00:00 | 08:30:00 | |
| OE8JPQ-2 | 2026-09-02 02:40:19 | 47.01271 | 15.62161 | 66° | 62km/h | 8861m | 7.0m/s | -36.4°C | 18.9% | 0hPa | 2.7V | 00:00:00 | 00:00:00 | 08:30:00 | |
| PETON7-10 | 2026-09-02 02:40:18 | 47.01264 | 15.62141 | 65° | 62km/h | 8855m | 5.9m/s | -36.3°C | 19.0% | 0hPa | 2.9V | 00:00:00 | 00:00:00 | 00:00:00 | |
| OE3JTB-15 | 2026-09-02 02:40:14 | 47.01241 | 15.62057 | 70° | 62km/h | 8832m | 3.9m/s | -36.2°C | 18.9% | 0hPa | 2.9V | 00:00:00 | 00:53:44 | 00:00:00 | |
| PETON7-10 | 2026-09-02 02:40:03 | 47.01180 | 15.61823 | 71° | 62km/h | 8775m | 6.3m/s | -35.8°C | 18.1% | 0hPa | 2.9V | 00:00:00 | 00:00:00 | 00:00:00 | |
| OE5DRO-10 | 2026-09-02 02:40:01 | 47.01169 | 15.61779 | 73° | 60km/h | 8765m | 5.4m/s | -35.7°C | 18.1% | 0hPa | 2.9V | 00:00:00 | 00:00:00 | 00:00:00 | |
| PG1ADW-2 | 2026-09-02 02:40:00 | 47.01164 | 15.61757 | 71° | 60km/h | 8760m | 3.9m/s | -35.6°C | 18.2% | 0hPa | 2.9V | 00:00:00 | 00:53:30 | 08:30:00 | |
| OE8JPQ-2 | 2026-09-02 02:39:59 | 47.01159 | 15.61736 | 71° | 60km/h | 8756m | 4.1m/s | -35.6°C | 18.1% | 0hPa | 2.9V | 00:00:00 | 00:00:00 | 00:00:00 | |
| OE5DXL-15 | 2026-09-02 02:39:58 | 47.01154 | 15.61714 | 71° | 60km/h | 8752m | 3.5m/s | -35.6°C | 18.0% | 0hPa | 2.9V | 00:00:00 | 00:00:00 | 08:30:00 | |
| PETON7-10 | 2026-09-02 02:39:48 | 47.01099 | 15.61498 | 61° | 58km/h | 8710m | 2.9m/s | -35.4°C | 18.5% | 0hPa | 2.9V | 00:00:00 | 00:53:18 | 00:00:00 | |
| OE3JTB-15 | 2026-09-02 02:39:43 | 47.01070 | 15.61407 | 68° | 55km/h | 8686m | 7.7m/s | -35.2°C | 17.7% | 0hPa | 2.9V | 00:00:00 | 00:00:00 | 00:00:00 | |
| OE5DRO-10 | 2026-09-02 02:39:42 | 47.01064 | 15.61387 | 66° | 60km/h | 8680m | 4.9m/s | -35.1°C | 17.8% | 0hPa | 2.9V | 00:00:00 | 00:00:00 | 00:00:00 | |
| PG1ADW-2 | 2026-09-02 02:39:40 | 47.01052 | 15.61344 | 70° | 57km/h | 8669m | 5.8m/s | -35.1°C | 17.8% | 0hPa | 2.9V | 00:00:00 | 00:00:00 | 00:00:00 | |
| OE8JPQ-2 | 2026-09-02 02:39:39 | 47.01047 | 15.61323 | 74° | 57km/h | 8664m | 5.2m/s | -35.0°C | 17.9% | 0hPa | 2.9V | 00:00:00 | 00:53:09 | 00:00:00 | |
| PETON7-10 | 2026-09-02 02:39:33 | 47.01019 | 15.61197 | 68° | 55km/h | 8632m | 7.1m/s | -34.7°C | 17.7% | 0hPa | 2.9V | 00:00:00 | 00:00:00 | 00:00:00 | |
| OE5DXL-15 | 2026-09-02 02:39:28 | 47.00986 | 15.61099 | 62° | 53km/h | 8604m | 4.0m/s | -34.6°C | 17.9% | 0hPa | 2.7V | 00:00:00 | 00:00:00 | 00:00:00 | |
| OE5DRO-10 | 2026-09-02 02:39:23 | 47.00963 | 15.60997 | 72° | 51km/h | 8579m | 3.9m/s | -34.3°C | 17.4% | 0hPa | 2.7V | 00:00:00 | 00:00:00 | 00:00:00 | |
| PG1ADW-2 | 2026-09-02 02:39:20 | 47.00948 | 15.60958 | 57° | 55km/h | 8561m | 6.8m/s | -34.1°C | 17.4% | 0hPa | 2.9V | 00:00:00 | 00:00:00 | 00:00:00 | |
| OE8JPQ-2 | 2026-09-02 02:39:19 | 47.00942 | 15.60942 | 61° | 55km/h | 8554m | 5.5m/s | -34.1°C | 17.5% | 0hPa | 2.9V | 00:00:00 | 00:00:00 | 00:00:00 | |
| PETON7-10 | 2026-09-02 02:39:18 | 47.00934 | 15.60923 | 61° | 55km/h | 8549m | 4.5m/s | -34.0°C | 17.5% | 0hPa | 2.9V | 00:00:00 | 00:00:00 | 00:00:00 | |
| OE3JTB-15 | 2026-09-02 02:39:13 | 47.00898 | 15.60826 | 69° | 49km/h | 8517m | 6.5m/s | -33.7°C | 16.9% | 0hPa | 2.9V | 00:00:00 | 00:00:00 | 00:00:00 | |
| OE5DRO-10 | 2026-09-02 02:39:04 | 47.00846 | 15.60680 | 69° | 49km/h | 8457m | 6.3m/s | -33.1°C | 17.8% | 0hPa | 2.9V | 00:00:00 | 00:00:00 | 00:00:00 | |
| PETON7-10 | 2026-09-02 02:39:03 | 47.00840 | 15.60660 | 60° | 49km/h | 8452m | 3.7m/s | -33.1°C | 18.5% | 0hPa | 2.9V | 00:00:00 | 00:52:33 | 00:00:00 | |
| PG1ADW-2 | 2026-09-02 02:39:00 | 47.00815 | 15.60613 | 53° | 46km/h | 8436m | 6.8m/s | -33.0°C | 21.6% | 0hPa | 2.9V | 00:00:00 | 00:00:00 | 00:00:00 | |
| OE8JPQ-2 | 2026-09-02 02:38:59 | 47.00809 | 15.60599 | 61° | 46km/h | 8430m | 4.9m/s | -33.0°C | 24.1% | 0hPa | 2.9V | 00:00:00 | 00:00:00 | 00:00:00 | |
| OE5DXL-15 | 2026-09-02 02:38:58 | 47.00803 | 15.60583 | 62° | 47km/h | 8422m | 9.6m/s | -32.9°C | 24.4% | 0hPa | 2.9V | 00:00:00 | 00:00:00 | 00:00:00 | |
| PETON7-10 | 2026-09-02 02:38:47 | 47.00734 | 15.60417 | 61° | 47km/h | 8348m | 5.4m/s | -32.5°C | 44.9% | 0hPa | 2.9V | 00:00:00 | 00:00:00 | 08:30:00 | |
| OE3JTB-15 | 2026-09-02 02:38:44 | 47.00717 | 15.60375 | 58° | 47km/h | 8333m | 3.6m/s | -32.4°C | 43.2% | 0hPa | 2.7V | 00:00:00 | 00:52:14 | 00:00:00 | |
| PG1ADW-2 | 2026-09-02 02:38:40 | 47.00693 | 15.60322 | 54° | 47km/h | 8313m | 4.0m/s | -32.2°C | 37.0% | 0hPa | 2.7V | 00:00:00 | 00:52:10 | 00:00:00 | |
| OE8JPQ-2 | 2026-09-02 02:38:39 | 47.00686 | 15.60308 | 57° | 47km/h | 8308m | 5.4m/s | -32.2°C | 34.1% | 0hPa | 2.7V | 00:00:00 | 00:52:09 | 00:00:00 | |
| PETON7-10 | 2026-09-02 02:38:32 | 47.00629 | 15.60200 | 58° | 46km/h | 8276m | 5.6m/s | -31.9°C | 36.6% | 0hPa | 2.7V | 00:00:00 | 00:00:00 | 00:00:00 | |
| OE5DXL-15 | 2026-09-02 02:38:28 | 47.00606 | 15.60139 | 56° | 47km/h | 8247m | 6.0m/s | -31.6°C | 24.7% | 0hPa | 2.7V | 00:00:00 | 00:00:00 | 00:00:00 | |
| OE5DRO-10 | 2026-09-02 02:38:26 | 47.00593 | 15.60111 | 58° | 46km/h | 8237m | 4.3m/s | -31.5°C | 24.6% | 0hPa | 2.9V | 00:00:00 | 00:00:00 | 00:00:00 | |
| PG1ADW-2 | 2026-09-02 02:38:20 | 47.00558 | 15.60026 | 57° | 47km/h | 8206m | 4.1m/s | -31.2°C | 27.9% | 0hPa | 2.9V | 00:00:00 | 00:00:00 | 00:00:00 | |
| OE8JPQ-2 | 2026-09-02 02:38:19 | 47.00551 | 15.60012 | 58° | 47km/h | 8202m | 3.8m/s | -31.2°C | 28.9% | 0hPa | 2.9V | 00:00:00 | 00:00:00 | 00:00:00 | |
| PETON7-10 | 2026-09-02 02:38:17 | 47.00540 | 15.59983 | 62° | 49km/h | 8193m | 3.6m/s | -31.1°C | 30.1% | 0hPa | 2.9V | 00:00:00 | 00:51:47 | 00:00:00 | |
| OE3JTB-15 | 2026-09-02 02:38:15 | 47.00529 | 15.59954 | 63° | 51km/h | 8182m | 4.4m/s | -31.0°C | 30.8% | 0hPa | 2.9V | 00:00:00 | 00:00:00 | 08:30:00 | |
| OE5DRO-10 | 2026-09-02 02:38:07 | 47.00479 | 15.59829 | 56° | 47km/h | 8148m | 5.7m/s | -30.7°C | 40.3% | 0hPa | 2.9V | 00:00:00 | 00:00:00 | 00:00:00 | |
| PG1ADW-2 | 2026-09-02 02:38:00 | 47.00434 | 15.59727 | 66° | 47km/h | 8107m | 6.3m/s | -30.3°C | 36.2% | 0hPa | 2.9V | 00:00:00 | 00:00:00 | 00:00:00 | |
| OE8JPQ-2 | 2026-09-02 02:37:59 | 47.00430 | 15.59713 | 63° | 49km/h | 8102m | 5.1m/s | -30.2°C | 35.7% | 0hPa | 2.7V | 00:00:00 | 00:00:00 | 00:00:00 | |
| OE5DXL-15 | 2026-09-02 02:37:58 | 47.00423 | 15.59698 | 57° | 49km/h | 8096m | 5.7m/s | -30.2°C | 35.0% | 0hPa | 2.7V | 00:00:00 | 00:00:00 | 00:00:00 | |
| OE5DRO-10 | 2026-09-02 02:37:48 | 47.00361 | 15.59549 | 45° | 51km/h | 8045m | 4.5m/s | -29.8°C | 35.4% | 0hPa | 2.7V | 00:00:00 | 00:00:00 | 00:00:00 | |
| PETON7-10 | 2026-09-02 02:37:47 | 47.00353 | 15.59537 | 47° | 51km/h | 8040m | 4.5m/s | -29.7°C | 36.0% | 0hPa | 2.7V | 00:00:00 | 00:00:00 | 00:00:00 | |
| PG1ADW-2 | 2026-09-02 02:37:40 | 47.00303 | 15.59424 | 56° | 51km/h | 7997m | 6.7m/s | -29.4°C | 37.7% | 0hPa | 2.7V | 00:00:00 | 00:00:00 | 00:00:00 | |
| OE8JPQ-2 | 2026-09-02 02:37:39 | 47.00295 | 15.59408 | 58° | 51km/h | 7991m | 5.3m/s | -29.3°C | 37.6% | 0hPa | 2.7V | 00:00:00 | 00:51:09 | 00:00:00 | |
| PETON7-10 | 2026-09-02 02:37:32 | 47.00245 | 15.59307 | 45° | 53km/h | 7949m | 7.2m/s | -29.0°C | 32.1% | 0hPa | 2.7V | 00:00:00 | 00:51:02 | 00:00:00 | |
| OE5DRO-10 | 2026-09-02 02:37:29 | 47.00221 | 15.59253 | 68° | 49km/h | 7929m | 6.4m/s | -28.9°C | 28.8% | 0hPa | 2.7V | 00:00:00 | 00:00:00 | 08:30:00 | |
| OE5DXL-15 | 2026-09-02 02:37:28 | 47.00215 | 15.59232 | 71° | 51km/h | 7923m | 5.3m/s | -28.8°C | 27.0% | 0hPa | 2.9V | 00:00:00 | 00:00:00 | 00:00:00 | |
| PG1ADW-2 | 2026-09-02 02:37:20 | 47.00166 | 15.59106 | 58° | 49km/h | 7870m | 5.8m/s | -28.3°C | 18.5% | 0hPa | 2.9V | 00:00:00 | 00:50:50 | 00:00:00 | |
| OE8JPQ-2 | 2026-09-02 02:37:19 | 47.00160 | 15.59090 | 56° | 51km/h | 7864m | 6.8m/s | -28.2°C | 18.4% | 0hPa | 2.9V | 00:00:00 | 00:00:00 | 08:30:00 | |
| PETON7-10 | 2026-09-02 02:37:17 | 47.00145 | 15.59060 | 58° | 49km/h | 7851m | 7.8m/s | -28.1°C | 18.0% | 0hPa | 2.9V | 00:00:00 | 00:00:00 | 00:00:00 | |
| OE3JTB-15 | 2026-09-02 02:37:14 | 47.00127 | 15.59013 | 59° | 53km/h | 7832m | 6.6m/s | -27.9°C | 17.0% | 0hPa | 2.7V | 00:00:00 | 00:00:00 | 00:00:00 | |
| OE5DRO-10 | 2026-09-02 02:37:10 | 47.00102 | 15.58956 | 59° | 51km/h | 7812m | 5.1m/s | -27.8°C | 17.3% | 0hPa | 2.7V | 00:00:00 | 00:00:00 | 00:00:00 | |
| PG1ADW-2 | 2026-09-02 02:37:00 | 47.00033 | 15.58790 | 60° | 53km/h | 7759m | 4.1m/s | -27.2°C | 15.8% | 0hPa | 2.7V | 00:00:00 | 00:00:00 | 08:30:00 | |
| OE8JPQ-2 | 2026-09-02 02:36:59 | 47.00026 | 15.58773 | 61° | 53km/h | 7754m | 5.2m/s | -27.2°C | 15.9% | 0hPa | 2.9V | 00:00:00 | 00:00:00 | 00:00:00 | |
| OE5DXL-15 | 2026-09-02 02:36:58 | 47.00019 | 15.58756 | 59° | 51km/h | 7749m | 5.1m/s | -27.1°C | 15.8% | 0hPa | 2.9V | 00:00:00 | 00:00:00 | 00:00:00 | |
| OE5DRO-10 | 2026-09-02 02:36:51 | 46.99973 | 15.58644 | 60° | 53km/h | 7713m | 5.3m/s | -26.8°C | 15.0% | 0hPa | 2.9V | 00:00:00 | 00:00:00 | 00:00:00 | |
| PETON7-10 | 2026-09-02 02:36:47 | 46.99948 | 15.58577 | 61° | 53km/h | 7694m | 3.3m/s | -26.6°C | 14.2% | 0hPa | 2.9V | 00:00:00 | 00:50:17 | 00:00:00 | |
| OE3JTB-15 | 2026-09-02 02:36:42 | 46.99907 | 15.58483 | 56° | 53km/h | 7670m | 4.0m/s | -26.4°C | 14.4% | 0hPa | 2.9V | 00:00:00 | 00:50:12 | 00:00:00 | |
| PG1ADW-2 | 2026-09-02 02:36:40 | 46.99895 | 15.58452 | 64° | 51km/h | 7659m | 6.3m/s | -26.3°C | 13.8% | 0hPa | 2.9V | 00:00:00 | 00:00:00 | 00:00:00 | |
| OE8JPQ-2 | 2026-09-02 02:36:39 | 46.99890 | 15.58438 | 62° | 51km/h | 7652m | 6.6m/s | -26.2°C | 13.1% | 0hPa | 2.9V | 00:00:00 | 00:50:09 | 00:00:00 | |
| PETON7-10 | 2026-09-02 02:36:32 | 46.99843 | 15.58329 | 67° | 53km/h | 7609m | 5.2m/s | -25.8°C | 8.1% | 0hPa | 2.9V | 00:00:00 | 00:00:00 | 08:30:00 | |
| OE5DXL-15 | 2026-09-02 02:36:28 | 46.99819 | 15.58262 | 65° | 58km/h | 7582m | 7.8m/s | -25.6°C | 7.6% | 0hPa | 2.9V | 00:00:00 | 00:00:00 | 00:00:00 | |
| PG1ADW-2 | 2026-09-02 02:36:20 | 46.99774 | 15.58117 | 67° | 58km/h | 7540m | 3.7m/s | -25.3°C | 7.2% | 0hPa | 2.9V | 00:00:00 | 00:00:00 | 00:00:00 | |
| OE8JPQ-2 | 2026-09-02 02:36:19 | 46.99769 | 15.58097 | 69° | 58km/h | 7536m | 5.7m/s | -25.3°C | 7.1% | 0hPa | 2.9V | 00:00:00 | 00:00:00 | 00:00:00 | |
| PETON7-10 | 2026-09-02 02:36:17 | 46.99758 | 15.58057 | 68° | 58km/h | 7528m | 5.1m/s | -25.2°C | 7.0% | 0hPa | 2.9V | 00:00:00 | 00:00:00 | 00:00:00 | |
| OE5DRO-10 | 2026-09-02 02:36:13 | 46.99734 | 15.57976 | 66° | 58km/h | 7511m | 4.2m/s | -25.0°C | 6.9% | 0hPa | 2.9V | 00:00:00 | 00:00:00 | 00:00:00 | |
| PETON7-10 | 2026-09-02 02:36:02 | 46.99666 | 15.57756 | 62° | 57km/h | 7458m | 4.5m/s | -24.7°C | 6.5% | 0hPa | 2.9V | 00:00:00 | 00:49:32 | 00:00:00 | |
| PG1ADW-2 | 2026-09-02 02:36:00 | 46.99653 | 15.57717 | 65° | 55km/h | 7449m | 5.1m/s | -24.6°C | 6.5% | 0hPa | 2.9V | 00:00:00 | 00:49:30 | 00:00:00 | |
| OE8JPQ-2 | 2026-09-02 02:35:59 | 46.99647 | 15.57697 | 64° | 55km/h | 7444m | 4.5m/s | -24.6°C | 6.5% | 0hPa | 2.9V | 00:00:00 | 00:00:00 | 00:00:00 | |
| OE5DXL-15 | 2026-09-02 02:35:58 | 46.99640 | 15.57679 | 61° | 57km/h | 7439m | 5.3m/s | 0°C | 0% | 0hPa | 2.9V | 00:00:00 | 00:49:28 | 00:00:00 | |
| OE5DRO-10 | 2026-09-02 02:35:54 | 46.99613 | 15.57614 | 60° | 57km/h | 7419m | 4.9m/s | -24.4°C | 6.7% | 0hPa | 2.9V | 00:00:00 | 00:00:00 | 00:00:00 | |
| PETON7-10 | 2026-09-02 02:35:47 | 46.99572 | 15.57479 | 62° | 57km/h | 7378m | 8.7m/s | -24.1°C | 6.9% | 0hPa | 2.9V | 00:00:00 | 00:00:00 | 00:00:00 | |
| PG1ADW-2 | 2026-09-02 02:35:40 | 46.99534 | 15.57351 | 72° | 60km/h | 7330m | 5.3m/s | -23.7°C | 7.6% | 0hPa | 2.9V | 00:00:00 | 00:00:00 | 00:00:00 | |
| OE8JPQ-2 | 2026-09-02 02:35:39 | 46.99528 | 15.57330 | 67° | 60km/h | 7324m | 5.0m/s | -23.7°C | 7.9% | 0hPa | 2.9V | 00:00:00 | 00:49:09 | 00:00:00 | |
| OE3JTB-15 | 2026-09-02 02:35:37 | 46.99516 | 15.57292 | 66° | 58km/h | 7311m | 7.3m/s | -23.7°C | 7.1% | 0hPa | 2.9V | 00:00:00 | 00:00:00 | 00:00:00 | |
| OE5DRO-10 | 2026-09-02 02:35:35 | 46.99506 | 15.57253 | 72° | 62km/h | 7294m | 9.5m/s | -23.7°C | 7.2% | 0hPa | 2.9V | 00:00:00 | 00:00:00 | 00:00:00 | |
| PETON7-10 | 2026-09-02 02:35:32 | 46.99492 | 15.57184 | 74° | 62km/h | 7270m | 5.2m/s | -23.5°C | 7.0% | 0hPa | 2.9V | 00:00:00 | 00:00:00 | 00:00:00 | |
| OE5DXL-15 | 2026-09-02 02:35:28 | 46.99471 | 15.57093 | 70° | 60km/h | 7255m | 4.4m/s | 0°C | 0% | 0hPa | 2.9V | 00:00:00 | 00:00:00 | 00:00:00 | |
| PG1ADW-2 | 2026-09-02 02:35:19 | 46.99420 | 15.56907 | 68° | 60km/h | 7214m | 4.6m/s | 0°C | 0% | 0hPa | 2.9V | 00:00:00 | 00:00:00 | 00:00:00 | |
| PETON7-10 | 2026-09-02 02:35:17 | 46.99408 | 15.56866 | 67° | 60km/h | 7204m | 3.8m/s | -23.2°C | 6.4% | 0hPa | 2.9V | 00:00:00 | 00:48:47 | 00:00:00 | |
| OE5DRO-10 | 2026-09-02 02:35:16 | 46.99402 | 15.56844 | 68° | 60km/h | 7199m | 5.7m/s | -23.2°C | 6.4% | 0hPa | 2.9V | 00:00:00 | 00:00:00 | 00:00:00 | |
| PETON7-10 | 2026-09-02 02:35:02 | 46.99320 | 15.56555 | 70° | 58km/h | 7134m | 5.0m/s | -22.9°C | 14.8% | 0hPa | 2.9V | 00:00:00 | 00:00:00 | 00:00:00 | |
| PG1ADW-2 | 2026-09-02 02:34:59 | 46.99304 | 15.56497 | 67° | 60km/h | 7120m | 4.2m/s | 0°C | 0% | 0hPa | 2.7V | 00:00:00 | 00:00:00 | 00:00:00 | |
| OE5DRO-10 | 2026-09-02 02:34:57 | 46.99292 | 15.56456 | 66° | 60km/h | 7110m | 4.3m/s | -22.6°C | 18.9% | 0hPa | 2.7V | 00:00:00 | 00:00:00 | 00:00:00 | |
| PETON7-10 | 2026-09-02 02:34:47 | 46.99235 | 15.56254 | 72° | 60km/h | 7066m | 6.0m/s | -22.3°C | 21.9% | 0hPa | 2.7V | 00:00:00 | 00:00:00 | 00:00:00 | |
| PG1ADW-2 | 2026-09-02 02:34:39 | 46.99186 | 15.56090 | 67° | 60km/h | 7030m | 5.2m/s | 0°C | 0% | 0hPa | 2.7V | 00:00:00 | 00:48:09 | 00:00:00 | |
| OE5DRO-10 | 2026-09-02 02:34:38 | 46.99180 | 15.56069 | 67° | 60km/h | 7025m | 4.0m/s | -22.5°C | 78.4% | 0hPa | 2.7V | 00:00:00 | 00:00:00 | 08:30:00 | |
| PETON7-10 | 2026-09-02 02:34:32 | 46.99140 | 15.55948 | 60° | 62km/h | 7000m | 4.0m/s | -22.7°C | 87.7% | 0hPa | 2.7V | 00:00:00 | 00:48:02 | 00:00:00 | |
| PG1ADW-2 | 2026-09-02 02:34:19 | 46.99060 | 15.55677 | 69° | 64km/h | 6947m | 4.4m/s | 0°C | 0% | 0hPa | 2.7V | 00:00:00 | 00:00:00 | 00:00:00 | |
| OE3JTB-15 | 2026-09-02 02:34:18 | 46.99054 | 15.55653 | 70° | 55km/h | 6943m | 3.0m/s | -22.4°C | 55.8% | 0hPa | 2.7V | 00:00:00 | 00:47:48 | 00:00:00 | |
| PETON7-10 | 2026-09-02 02:34:17 | 46.99048 | 15.55629 | 71° | 57km/h | 6939m | 4.0m/s | -22.4°C | 55.1% | 0hPa | 2.7V | 00:00:00 | 00:00:00 | 08:30:00 | |
| PETON7-10 | 2026-09-02 02:34:02 | 46.98968 | 15.55340 | 71° | 53km/h | 6849m | 4.3m/s | -21.6°C | 50.3% | 0hPa | 2.9V | 00:00:00 | 00:00:00 | 00:00:00 | |
| OE5DRO-10 | 2026-09-02 02:34:00 | 46.98958 | 15.55298 | 73° | 53km/h | 6841m | 4.6m/s | -21.5°C | 50.3% | 0hPa | 2.9V | 00:00:00 | 00:00:00 | 00:00:00 | |
| OE8JPQ-2 | 2026-09-02 02:33:59 | 46.98954 | 15.55278 | 71° | 53km/h | 6836m | 4.2m/s | -21.5°C | 50.4% | 0hPa | 2.9V | 00:00:00 | 00:00:00 | 00:00:00 | |
| PG1ADW-2 | 2026-09-02 02:33:50 | 46.98894 | 15.55133 | 62° | 44km/h | 6779m | 8.0m/s | 0°C | 0% | 0hPa | 2.9V | 00:00:00 | 00:00:00 | 00:00:00 | |
| OE3JTB-15 | 2026-09-02 02:33:49 | 46.98888 | 15.55116 | 67° | 47km/h | 6772m | 5.9m/s | -20.9°C | 47.9% | 0hPa | 2.9V | 00:00:00 | 00:00:00 | 00:00:00 | |
| PETON7-10 | 2026-09-02 02:33:47 | 46.98880 | 15.55079 | 75° | 51km/h | 6760m | 6.9m/s | -20.7°C | 47.1% | 0hPa | 2.9V | 00:00:00 | 00:47:17 | 00:00:00 | |
| OE5DRO-10 | 2026-09-02 02:33:41 | 46.98851 | 15.54966 | 77° | 46km/h | 6720m | 6.2m/s | -20.3°C | 44.6% | 0hPa | 2.9V | 00:00:00 | 00:00:00 | 00:00:00 | |
| OE8JPQ-2 | 2026-09-02 02:33:39 | 46.98842 | 15.54926 | 66° | 44km/h | 6706m | 8.2m/s | -20.2°C | 44.0% | 0hPa | 2.9V | 00:00:00 | 00:47:09 | 00:00:00 | |
| OE5DRO-10 | 2026-09-02 02:33:22 | 46.98767 | 15.54680 | 70° | 40km/h | 6597m | 5.9m/s | -19.5°C | 55.6% | 0hPa | 2.9V | 00:00:00 | 00:00:00 | 00:00:00 | |
| OE3JTB-15 | 2026-09-02 02:33:20 | 46.98760 | 15.54650 | 72° | 42km/h | 6583m | 4.8m/s | -19.4°C | 56.2% | 0hPa | 2.9V | 00:00:00 | 00:00:00 | 00:00:00 | |
| OE8JPQ-2 | 2026-09-02 02:33:19 | 46.98757 | 15.54636 | 71° | 40km/h | 6578m | 6.6m/s | -19.3°C | 56.6% | 0hPa | 2.9V | 00:00:00 | 00:00:00 | 00:00:00 | |
| PETON7-10 | 2026-09-02 02:33:17 | 46.98749 | 15.54606 | 69° | 40km/h | 6566m | 5.5m/s | -19.2°C | 57.4% | 0hPa | 2.9V | 00:00:00 | 00:00:00 | 00:00:00 | |
| OE5DRO-10 | 2026-09-02 02:33:03 | 46.98701 | 15.54418 | 77° | 44km/h | 6493m | 5.8m/s | -18.7°C | 60.1% | 0hPa | 2.9V | 00:00:00 | 00:00:00 | 00:00:00 | |
| PETON7-10 | 2026-09-02 02:33:02 | 46.98698 | 15.54405 | 68° | 44km/h | 6488m | 5.5m/s | -18.7°C | 60.2% | 0hPa | 2.9V | 00:00:00 | 00:46:32 | 00:00:00 | |
| OE8JPQ-2 | 2026-09-02 02:32:59 | 46.98682 | 15.54363 | 60° | 44km/h | 6471m | 7.2m/s | -18.6°C | 59.7% | 0hPa | 2.9V | 00:00:00 | 00:00:00 | 00:00:00 | |
| OE3JTB-15 | 2026-09-02 02:32:51 | 46.98666 | 15.54235 | 83° | 47km/h | 6417m | 5.5m/s | -18.2°C | 56.4% | 0hPa | 2.9V | 00:00:00 | 00:46:21 | 00:00:00 | |
| PETON7-10 | 2026-09-02 02:32:47 | 46.98658 | 15.54173 | 76° | 46km/h | 6389m | 7.2m/s | 0°C | 0% | 0hPa | 2.9V | 00:00:00 | 00:00:00 | 00:00:00 | |
| OE5DRO-10 | 2026-09-02 02:32:44 | 46.98651 | 15.54119 | 78° | 49km/h | 6368m | 5.5m/s | -17.7°C | 54.8% | 0hPa | 2.9V | 00:00:00 | 00:00:00 | 00:00:00 | |
| OE8JPQ-2 | 2026-09-02 02:32:39 | 46.98638 | 15.54043 | 80° | 49km/h | 6333m | 6.2m/s | -17.4°C | 53.4% | 0hPa | 2.7V | 00:00:00 | 00:46:09 | 00:00:00 | |
| PETON7-10 | 2026-09-02 02:32:32 | 46.98618 | 15.53923 | 79° | 51km/h | 6284m | 3.9m/s | 0°C | 0% | 0hPa | 2.7V | 00:00:00 | 00:00:00 | 00:00:00 | |
| OE5DRO-10 | 2026-09-02 02:32:25 | 46.98606 | 15.53778 | 87° | 51km/h | 6249m | 6.0m/s | -16.9°C | 41.3% | 0hPa | 2.7V | 00:00:00 | 00:00:00 | 00:00:00 | |
| OE3JTB-15 | 2026-09-02 02:32:22 | 46.98604 | 15.53727 | 80° | 53km/h | 6233m | 7.3m/s | -16.7°C | 40.9% | 0hPa | 2.7V | 00:00:00 | 00:00:00 | 08:30:00 | |
| OE8JPQ-2 | 2026-09-02 02:32:19 | 46.98596 | 15.53677 | 81° | 55km/h | 6214m | 6.2m/s | -16.6°C | 40.6% | 0hPa | 2.9V | 00:00:00 | 00:00:00 | 00:00:00 | |
| PETON7-10 | 2026-09-02 02:32:17 | 46.98592 | 15.53638 | 82° | 55km/h | 6202m | 5.8m/s | 0°C | 0% | 0hPa | 2.9V | 00:00:00 | 00:45:47 | 00:00:00 | |
| OE5DRO-10 | 2026-09-02 02:32:06 | 46.98578 | 15.53414 | 86° | 51km/h | 6132m | 9.8m/s | -16.2°C | 56.0% | 0hPa | 2.9V | 00:00:00 | 00:00:00 | 00:00:00 | |
| OE8JPQ-2 | 2026-09-02 02:31:59 | 46.98572 | 15.53275 | 88° | 51km/h | 6091m | 5.0m/s | -16.0°C | 64.0% | 0hPa | 2.9V | 00:00:00 | 00:00:00 | 00:00:00 | |
| OE3JTB-15 | 2026-09-02 02:31:53 | 46.98566 | 15.53160 | 88° | 49km/h | 6062m | 4.8m/s | -15.7°C | 65.1% | 0hPa | 2.9V | 00:00:00 | 00:00:00 | 00:00:00 | |
| OE5DRO-10 | 2026-09-02 02:31:47 | 46.98561 | 15.53054 | 84° | 49km/h | 6033m | 4.7m/s | -15.4°C | 53.8% | 0hPa | 2.9V | 00:00:00 | 00:00:00 | 08:30:00 | |
| OE8JPQ-2 | 2026-09-02 02:31:39 | 46.98552 | 15.52906 | 93° | 49km/h | 5994m | 4.6m/s | -15.1°C | 57.6% | 0hPa | 2.9V | 00:00:00 | 00:45:09 | 00:00:00 | |
| OE5DRO-10 | 2026-09-02 02:31:28 | 46.98544 | 15.52704 | 87° | 49km/h | 5928m | 5.4m/s | -14.6°C | 69.3% | 0hPa | 2.9V | 00:00:00 | 00:00:00 | 00:00:00 | |
| OE3JTB-15 | 2026-09-02 02:31:24 | 46.98537 | 15.52630 | 83° | 49km/h | 5909m | 5.1m/s | 0°C | 0% | 0hPa | 2.9V | 00:00:00 | 00:44:54 | 00:00:00 | |
| OE8JPQ-2 | 2026-09-02 02:31:19 | 46.98527 | 15.52548 | 76° | 49km/h | 5885m | 5.2m/s | -14.2°C | 61.2% | 0hPa | 2.9V | 00:00:00 | 00:00:00 | 08:30:00 | |
| OE5DRO-10 | 2026-09-02 02:31:09 | 46.98504 | 15.52367 | 80° | 49km/h | 5825m | 5.0m/s | -13.7°C | 62.3% | 0hPa | 2.9V | 00:00:00 | 00:00:00 | 00:00:00 | |
| OE8JPQ-2 | 2026-09-02 02:30:59 | 46.98484 | 15.52190 | 75° | 46km/h | 5778m | 3.8m/s | -13.2°C | 60.4% | 0hPa | 2.9V | 00:00:00 | 00:00:00 | 00:00:00 | |
| OE3JTB-15 | 2026-09-02 02:30:55 | 46.98475 | 15.52115 | 84° | 42km/h | 5760m | 4.1m/s | 0°C | 0% | 0hPa | 2.9V | 00:00:00 | 00:00:00 | 00:00:00 | |
| OE5DRO-10 | 2026-09-02 02:30:50 | 46.98473 | 15.52022 | 86° | 40km/h | 5735m | 5.5m/s | -13.0°C | 58.0% | 0hPa | 2.9V | 00:00:00 | 00:00:00 | 00:00:00 | |
| OE8JPQ-2 | 2026-09-02 02:30:39 | 46.98455 | 15.51856 | 81° | 40km/h | 5665m | 5.5m/s | -12.4°C | 56.8% | 0hPa | 2.7V | 00:00:00 | 00:44:09 | 00:00:00 | |
| OE5DRO-10 | 2026-09-02 02:30:31 | 46.98455 | 15.51735 | 97° | 42km/h | 5621m | 4.8m/s | -12.0°C | 55.7% | 0hPa | 2.7V | 00:00:00 | 00:00:00 | 00:00:00 | |
| OE3JTB-15 | 2026-09-02 02:30:22 | 46.98450 | 15.51604 | 83° | 44km/h | 5570m | 6.6m/s | 0°C | 0% | 0hPa | 2.7V | 00:00:00 | 00:00:00 | 00:00:00 | |
| OE8JPQ-2 | 2026-09-02 02:30:19 | 46.98445 | 15.51556 | 83° | 44km/h | 5552m | 7.6m/s | -11.4°C | 54.3% | 0hPa | 2.7V | 00:00:00 | 00:00:00 | 00:00:00 | |
| OE5DRO-10 | 2026-09-02 02:30:12 | 46.98435 | 15.51448 | 98° | 46km/h | 5514m | 5.6m/s | -11.0°C | 53.4% | 0hPa | 2.9V | 00:00:00 | 00:00:00 | 00:00:00 | |
| OE8JPQ-2 | 2026-09-02 02:29:59 | 46.98438 | 15.51230 | 91° | 46km/h | 5443m | 5.5m/s | -10.4°C | 49.9% | 0hPa | 2.9V | 00:00:00 | 00:00:00 | 00:00:00 | |
| OE5DRO-10 | 2026-09-02 02:29:53 | 46.98440 | 15.51128 | 91° | 49km/h | 5414m | 5.0m/s | -10.3°C | 51.5% | 0hPa | 2.9V | 00:00:00 | 00:00:00 | 00:00:00 | |
| OE5DRO-10 | 2026-09-02 02:29:34 | 46.98467 | 15.50782 | 102° | 57km/h | 5319m | 6.6m/s | 0°C | 0% | 0hPa | 0V | 00:00:00 | 00:00:00 | 00:00:00 | |
| OE3JTB-15 | 2026-09-02 02:29:24 | 46.98492 | 15.50568 | 99° | 53km/h | 5265m | 5.4m/s | 0°C | 0% | 0hPa | 0V | 00:00:00 | 00:00:00 | 00:00:00 | |
| OE8JPQ-2 | 2026-09-02 02:29:19 | 46.98506 | 15.50469 | 103° | 49km/h | 5238m | 5.5m/s | 0°C | 0% | 0hPa | 0V | 00:00:00 | 00:00:00 | 00:00:00 | |
| OE5DRO-10 | 2026-09-02 02:29:15 | 46.98510 | 15.50393 | 94° | 49km/h | 5219m | 4.1m/s | 0°C | 0% | 0hPa | 0V | 00:00:00 | 00:00:00 | 00:00:00 | |
| OE8JPQ-2 | 2026-09-02 02:28:59 | 46.98559 | 15.50113 | 111° | 49km/h | 5132m | 5.1m/s | 0°C | 0% | 0hPa | 0V | 00:00:00 | 00:00:00 | 00:00:00 | |
| OE5DRO-10 | 2026-09-02 02:28:56 | 46.98568 | 15.50064 | 103° | 51km/h | 5114m | 6.2m/s | 0°C | 0% | 0hPa | 0V | 00:00:00 | 00:00:00 | 00:00:00 | |
| OE3JTB-15 | 2026-09-02 02:28:55 | 46.98570 | 15.50046 | 102° | 47km/h | 5108m | 5.7m/s | 0°C | 0% | 0hPa | 0V | 00:00:00 | 00:00:00 | 00:00:00 | |
| OE8JPQ-2 | 2026-09-02 02:28:38 | 46.98602 | 15.49739 | 97° | 47km/h | 5027m | 5.3m/s | 0°C | 0% | 0hPa | 0V | 00:00:00 | 00:42:08 | 00:00:00 | |
| OE8JPQ-2 | 2026-09-02 02:28:18 | 46.98637 | 15.49399 | 105° | 47km/h | 4932m | 3.9m/s | 0°C | 0% | 0hPa | 0V | 00:00:00 | 00:00:00 | 00:00:00 | |
| OE3JTB-15 | 2026-09-02 02:28:17 | 46.98640 | 15.49382 | 105° | 46km/h | 4928m | 3.5m/s | 0°C | 0% | 0hPa | 0V | 00:00:00 | 00:41:47 | 00:00:00 | |
| OM5KV | 2026-09-02 02:28:06 | 46.98669 | 15.49197 | 100° | 49km/h | 4875m | 7.1m/s | 0°C | 0% | 0hPa | 0V | 00:00:00 | 00:00:00 | 00:00:00 | |
| OM5KV | 2026-09-02 02:28:04 | 46.98671 | 15.49162 | 94° | 47km/h | 4864m | 5.5m/s | 0°C | 0% | 0hPa | 0V | 00:00:00 | 00:00:00 | 00:00:00 | |
| OM5KV | 2026-09-02 02:27:55 | 46.98690 | 15.49008 | 102° | 46km/h | 4812m | 3.7m/s | 0°C | 0% | 0hPa | 0V | 00:00:00 | 00:00:00 | 00:00:00 | |
| OE3JTB-15 | 2026-09-02 02:27:26 | 46.98727 | 15.48565 | 95° | 42km/h | 4642m | 3.8m/s | 0°C | 0% | 0hPa | 0V | 00:00:00 | 00:00:00 | 00:00:00 |